<?xml version="1.0" encoding="UTF-8" standalone="no" ?>
<gpx xmlns="http://www.topografix.com/GPX/1/1" xmlns:xsi="http://www.w3.org/2001/XMLSchema-instance" xsi:schemaLocation="http://www.topografix.com/GPX/1/1 http://www.topografix.com/GPX/1/1/gpx.xsd" version="1.1" creator="VisuGPX - https://www.visugpx.com">
  <metadata>
    <name>Lot boucle 2  jour 1</name>
    <desc><![CDATA[Au départ du gîte de la ferme de Cazal : toujours au top entre table gastronomique et chambre d'hôtes au top, les chevaux tip top.
Randonnée super moins de cailloux et super balisage.
Arrivée à la ferme de Brandouly ]]></desc>
  </metadata>
  <trk>
    <name><![CDATA[SityTrail - Lot 2019-2-1]]></name>
    <trkseg>
      <trkpt lat="44.57204" lon="1.76751">
        <ele>292</ele>
        <time>2019-08-10T08:14:44.999Z</time>
      </trkpt>
      <trkpt lat="44.57204" lon="1.76751">
        <ele>292</ele>
        <time>2019-08-10T08:14:45.990Z</time>
      </trkpt>
      <trkpt lat="44.57207" lon="1.76753">
        <ele>292</ele>
        <time>2019-08-10T08:14:50.017Z</time>
      </trkpt>
      <trkpt lat="44.57214" lon="1.7676">
        <ele>293</ele>
        <time>2019-08-10T08:14:54.996Z</time>
      </trkpt>
      <trkpt lat="44.57219" lon="1.76763">
        <ele>293</ele>
        <time>2019-08-10T08:15:00.013Z</time>
      </trkpt>
      <trkpt lat="44.57219" lon="1.76763">
        <ele>293</ele>
        <time>2019-08-10T08:15:10.016Z</time>
      </trkpt>
      <trkpt lat="44.57218" lon="1.76763">
        <ele>293</ele>
        <time>2019-08-10T08:15:15.002Z</time>
      </trkpt>
      <trkpt lat="44.57212" lon="1.76758">
        <ele>293</ele>
        <time>2019-08-10T08:15:20.007Z</time>
      </trkpt>
      <trkpt lat="44.57204" lon="1.76754">
        <ele>292</ele>
        <time>2019-08-10T08:15:25.009Z</time>
      </trkpt>
      <trkpt lat="44.57209" lon="1.76753">
        <ele>293</ele>
        <time>2019-08-10T08:16:02.990Z</time>
      </trkpt>
      <trkpt lat="44.57211" lon="1.76759">
        <ele>293</ele>
        <time>2019-08-10T08:16:08.023Z</time>
      </trkpt>
      <trkpt lat="44.57214" lon="1.76766">
        <ele>292</ele>
        <time>2019-08-10T08:16:13.014Z</time>
      </trkpt>
      <trkpt lat="44.57218" lon="1.7677">
        <ele>292</ele>
        <time>2019-08-10T08:16:17.002Z</time>
      </trkpt>
      <trkpt lat="44.57221" lon="1.76776">
        <ele>292</ele>
        <time>2019-08-10T08:16:22.004Z</time>
      </trkpt>
      <trkpt lat="44.57226" lon="1.76783">
        <ele>292</ele>
        <time>2019-08-10T08:16:27.006Z</time>
      </trkpt>
      <trkpt lat="44.5723" lon="1.76789">
        <ele>292</ele>
        <time>2019-08-10T08:16:32.015Z</time>
      </trkpt>
      <trkpt lat="44.57238" lon="1.76793">
        <ele>291</ele>
        <time>2019-08-10T08:16:37.004Z</time>
      </trkpt>
      <trkpt lat="44.57243" lon="1.76799">
        <ele>291</ele>
        <time>2019-08-10T08:16:42.016Z</time>
      </trkpt>
      <trkpt lat="44.57245" lon="1.76804">
        <ele>291</ele>
        <time>2019-08-10T08:16:47.012Z</time>
      </trkpt>
      <trkpt lat="44.57249" lon="1.76813">
        <ele>291</ele>
        <time>2019-08-10T08:16:52.045Z</time>
      </trkpt>
      <trkpt lat="44.57252" lon="1.76819">
        <ele>291</ele>
        <time>2019-08-10T08:16:57.013Z</time>
      </trkpt>
      <trkpt lat="44.57254" lon="1.76823">
        <ele>289</ele>
        <time>2019-08-10T08:17:02.031Z</time>
      </trkpt>
      <trkpt lat="44.5726" lon="1.76821">
        <ele>289</ele>
        <time>2019-08-10T08:17:07.018Z</time>
      </trkpt>
      <trkpt lat="44.57262" lon="1.7682">
        <ele>289</ele>
        <time>2019-08-10T08:17:11.016Z</time>
      </trkpt>
      <trkpt lat="44.57269" lon="1.76817">
        <ele>291</ele>
        <time>2019-08-10T08:17:16.011Z</time>
      </trkpt>
      <trkpt lat="44.57274" lon="1.76815">
        <ele>291</ele>
        <time>2019-08-10T08:17:20.003Z</time>
      </trkpt>
      <trkpt lat="44.57278" lon="1.76814">
        <ele>291</ele>
        <time>2019-08-10T08:17:24.018Z</time>
      </trkpt>
      <trkpt lat="44.57284" lon="1.76812">
        <ele>291</ele>
        <time>2019-08-10T08:17:29.007Z</time>
      </trkpt>
      <trkpt lat="44.57289" lon="1.76811">
        <ele>291</ele>
        <time>2019-08-10T08:17:33.036Z</time>
      </trkpt>
      <trkpt lat="44.57297" lon="1.76809">
        <ele>293</ele>
        <time>2019-08-10T08:17:38.008Z</time>
      </trkpt>
      <trkpt lat="44.57303" lon="1.76808">
        <ele>293</ele>
        <time>2019-08-10T08:17:42.018Z</time>
      </trkpt>
      <trkpt lat="44.57311" lon="1.76806">
        <ele>293</ele>
        <time>2019-08-10T08:17:47.032Z</time>
      </trkpt>
      <trkpt lat="44.57318" lon="1.76804">
        <ele>293</ele>
        <time>2019-08-10T08:17:52.004Z</time>
      </trkpt>
      <trkpt lat="44.57324" lon="1.76803">
        <ele>296</ele>
        <time>2019-08-10T08:17:56.007Z</time>
      </trkpt>
      <trkpt lat="44.5733" lon="1.76802">
        <ele>296</ele>
        <time>2019-08-10T08:18:00.017Z</time>
      </trkpt>
      <trkpt lat="44.57337" lon="1.76802">
        <ele>296</ele>
        <time>2019-08-10T08:18:05.008Z</time>
      </trkpt>
      <trkpt lat="44.57342" lon="1.76801">
        <ele>296</ele>
        <time>2019-08-10T08:18:10.011Z</time>
      </trkpt>
      <trkpt lat="44.57349" lon="1.768">
        <ele>298</ele>
        <time>2019-08-10T08:18:15.009Z</time>
      </trkpt>
      <trkpt lat="44.5735" lon="1.768">
        <ele>298</ele>
        <time>2019-08-10T08:18:19.985Z</time>
      </trkpt>
      <trkpt lat="44.57353" lon="1.76799">
        <ele>298</ele>
        <time>2019-08-10T08:18:24.993Z</time>
      </trkpt>
      <trkpt lat="44.57359" lon="1.76796">
        <ele>298</ele>
        <time>2019-08-10T08:18:29.994Z</time>
      </trkpt>
      <trkpt lat="44.57366" lon="1.76793">
        <ele>298</ele>
        <time>2019-08-10T08:18:34.989Z</time>
      </trkpt>
      <trkpt lat="44.57373" lon="1.76791">
        <ele>298</ele>
        <time>2019-08-10T08:18:39.990Z</time>
      </trkpt>
      <trkpt lat="44.5738" lon="1.76789">
        <ele>300</ele>
        <time>2019-08-10T08:18:44.994Z</time>
      </trkpt>
      <trkpt lat="44.57387" lon="1.76787">
        <ele>300</ele>
        <time>2019-08-10T08:18:49.992Z</time>
      </trkpt>
      <trkpt lat="44.57392" lon="1.76786">
        <ele>300</ele>
        <time>2019-08-10T08:18:54.990Z</time>
      </trkpt>
      <trkpt lat="44.57398" lon="1.76782">
        <ele>300</ele>
        <time>2019-08-10T08:18:59.991Z</time>
      </trkpt>
      <trkpt lat="44.57404" lon="1.76776">
        <ele>302</ele>
        <time>2019-08-10T08:19:04.993Z</time>
      </trkpt>
      <trkpt lat="44.57411" lon="1.76771">
        <ele>302</ele>
        <time>2019-08-10T08:19:09.992Z</time>
      </trkpt>
      <trkpt lat="44.57417" lon="1.76767">
        <ele>302</ele>
        <time>2019-08-10T08:19:14.992Z</time>
      </trkpt>
      <trkpt lat="44.57424" lon="1.76771">
        <ele>302</ele>
        <time>2019-08-10T08:19:19.991Z</time>
      </trkpt>
      <trkpt lat="44.57428" lon="1.76779">
        <ele>302</ele>
        <time>2019-08-10T08:19:24.987Z</time>
      </trkpt>
      <trkpt lat="44.57429" lon="1.76785">
        <ele>302</ele>
        <time>2019-08-10T08:19:29.988Z</time>
      </trkpt>
      <trkpt lat="44.5743" lon="1.76785">
        <ele>302</ele>
        <time>2019-08-10T08:19:34.990Z</time>
      </trkpt>
      <trkpt lat="44.57431" lon="1.76788">
        <ele>303</ele>
        <time>2019-08-10T08:20:13.985Z</time>
      </trkpt>
      <trkpt lat="44.57431" lon="1.76788">
        <ele>303</ele>
        <time>2019-08-10T08:20:18.991Z</time>
      </trkpt>
      <trkpt lat="44.57432" lon="1.76794">
        <ele>304</ele>
        <time>2019-08-10T08:20:23.990Z</time>
      </trkpt>
      <trkpt lat="44.57431" lon="1.76798">
        <ele>304</ele>
        <time>2019-08-10T08:20:28.990Z</time>
      </trkpt>
      <trkpt lat="44.5743" lon="1.768">
        <ele>302</ele>
        <time>2019-08-10T08:20:33.988Z</time>
      </trkpt>
      <trkpt lat="44.5743" lon="1.76806">
        <ele>302</ele>
        <time>2019-08-10T08:22:03.984Z</time>
      </trkpt>
      <trkpt lat="44.5743" lon="1.76806">
        <ele>302</ele>
        <time>2019-08-10T08:22:08.984Z</time>
      </trkpt>
      <trkpt lat="44.5743" lon="1.76806">
        <ele>302</ele>
        <time>2019-08-10T08:22:13.982Z</time>
      </trkpt>
      <trkpt lat="44.5743" lon="1.76811">
        <ele>302</ele>
        <time>2019-08-10T08:22:18.990Z</time>
      </trkpt>
      <trkpt lat="44.57428" lon="1.7682">
        <ele>303</ele>
        <time>2019-08-10T08:22:23.991Z</time>
      </trkpt>
      <trkpt lat="44.57426" lon="1.76829">
        <ele>303</ele>
        <time>2019-08-10T08:22:28.991Z</time>
      </trkpt>
      <trkpt lat="44.57425" lon="1.76839">
        <ele>303</ele>
        <time>2019-08-10T08:22:33.991Z</time>
      </trkpt>
      <trkpt lat="44.57425" lon="1.76849">
        <ele>302</ele>
        <time>2019-08-10T08:22:38.990Z</time>
      </trkpt>
      <trkpt lat="44.57425" lon="1.76858">
        <ele>302</ele>
        <time>2019-08-10T08:22:43.990Z</time>
      </trkpt>
      <trkpt lat="44.57424" lon="1.76868">
        <ele>302</ele>
        <time>2019-08-10T08:22:48.990Z</time>
      </trkpt>
      <trkpt lat="44.57425" lon="1.76877">
        <ele>301</ele>
        <time>2019-08-10T08:22:53.993Z</time>
      </trkpt>
      <trkpt lat="44.57426" lon="1.76886">
        <ele>301</ele>
        <time>2019-08-10T08:22:58.991Z</time>
      </trkpt>
      <trkpt lat="44.57427" lon="1.76893">
        <ele>301</ele>
        <time>2019-08-10T08:23:03.990Z</time>
      </trkpt>
      <trkpt lat="44.57428" lon="1.76901">
        <ele>301</ele>
        <time>2019-08-10T08:23:08.993Z</time>
      </trkpt>
      <trkpt lat="44.57428" lon="1.76911">
        <ele>299</ele>
        <time>2019-08-10T08:23:13.989Z</time>
      </trkpt>
      <trkpt lat="44.57429" lon="1.76921">
        <ele>299</ele>
        <time>2019-08-10T08:23:18.995Z</time>
      </trkpt>
      <trkpt lat="44.5743" lon="1.7693">
        <ele>299</ele>
        <time>2019-08-10T08:23:23.985Z</time>
      </trkpt>
      <trkpt lat="44.57431" lon="1.7694">
        <ele>302</ele>
        <time>2019-08-10T08:23:28.974Z</time>
      </trkpt>
      <trkpt lat="44.57431" lon="1.76948">
        <ele>302</ele>
        <time>2019-08-10T08:23:32.991Z</time>
      </trkpt>
      <trkpt lat="44.57432" lon="1.76957">
        <ele>302</ele>
        <time>2019-08-10T08:23:37.992Z</time>
      </trkpt>
      <trkpt lat="44.57434" lon="1.76965">
        <ele>302</ele>
        <time>2019-08-10T08:23:42.993Z</time>
      </trkpt>
      <trkpt lat="44.57436" lon="1.76975">
        <ele>302</ele>
        <time>2019-08-10T08:23:47.991Z</time>
      </trkpt>
      <trkpt lat="44.57438" lon="1.76982">
        <ele>302</ele>
        <time>2019-08-10T08:23:52.983Z</time>
      </trkpt>
      <trkpt lat="44.5744" lon="1.76989">
        <ele>303</ele>
        <time>2019-08-10T08:23:56.992Z</time>
      </trkpt>
      <trkpt lat="44.57445" lon="1.76997">
        <ele>303</ele>
        <time>2019-08-10T08:24:01.982Z</time>
      </trkpt>
      <trkpt lat="44.57448" lon="1.77007">
        <ele>303</ele>
        <time>2019-08-10T08:24:06.990Z</time>
      </trkpt>
      <trkpt lat="44.57451" lon="1.77016">
        <ele>303</ele>
        <time>2019-08-10T08:24:11.992Z</time>
      </trkpt>
      <trkpt lat="44.57454" lon="1.77024">
        <ele>303</ele>
        <time>2019-08-10T08:24:16.986Z</time>
      </trkpt>
      <trkpt lat="44.57455" lon="1.77034">
        <ele>303</ele>
        <time>2019-08-10T08:24:21.988Z</time>
      </trkpt>
      <trkpt lat="44.57457" lon="1.77045">
        <ele>302</ele>
        <time>2019-08-10T08:24:26.989Z</time>
      </trkpt>
      <trkpt lat="44.57458" lon="1.77055">
        <ele>307</ele>
        <time>2019-08-10T08:24:31.995Z</time>
      </trkpt>
      <trkpt lat="44.5746" lon="1.77065">
        <ele>307</ele>
        <time>2019-08-10T08:24:36.989Z</time>
      </trkpt>
      <trkpt lat="44.57463" lon="1.77075">
        <ele>306</ele>
        <time>2019-08-10T08:24:41.990Z</time>
      </trkpt>
      <trkpt lat="44.57465" lon="1.77086">
        <ele>306</ele>
        <time>2019-08-10T08:24:46.989Z</time>
      </trkpt>
      <trkpt lat="44.57468" lon="1.77096">
        <ele>306</ele>
        <time>2019-08-10T08:24:51.992Z</time>
      </trkpt>
      <trkpt lat="44.5747" lon="1.77104">
        <ele>305</ele>
        <time>2019-08-10T08:24:56.990Z</time>
      </trkpt>
      <trkpt lat="44.57472" lon="1.77114">
        <ele>305</ele>
        <time>2019-08-10T08:25:01.988Z</time>
      </trkpt>
      <trkpt lat="44.57472" lon="1.77125">
        <ele>305</ele>
        <time>2019-08-10T08:25:06.986Z</time>
      </trkpt>
      <trkpt lat="44.57471" lon="1.77135">
        <ele>306</ele>
        <time>2019-08-10T08:25:11.991Z</time>
      </trkpt>
      <trkpt lat="44.5747" lon="1.77143">
        <ele>306</ele>
        <time>2019-08-10T08:25:16.986Z</time>
      </trkpt>
      <trkpt lat="44.57469" lon="1.77151">
        <ele>306</ele>
        <time>2019-08-10T08:25:21.991Z</time>
      </trkpt>
      <trkpt lat="44.57468" lon="1.77161">
        <ele>306</ele>
        <time>2019-08-10T08:25:26.993Z</time>
      </trkpt>
      <trkpt lat="44.57466" lon="1.77171">
        <ele>306</ele>
        <time>2019-08-10T08:25:31.989Z</time>
      </trkpt>
      <trkpt lat="44.57463" lon="1.77182">
        <ele>306</ele>
        <time>2019-08-10T08:25:36.995Z</time>
      </trkpt>
      <trkpt lat="44.57461" lon="1.77192">
        <ele>306</ele>
        <time>2019-08-10T08:25:41.991Z</time>
      </trkpt>
      <trkpt lat="44.57459" lon="1.77202">
        <ele>306</ele>
        <time>2019-08-10T08:25:46.988Z</time>
      </trkpt>
      <trkpt lat="44.57456" lon="1.77213">
        <ele>303</ele>
        <time>2019-08-10T08:25:51.988Z</time>
      </trkpt>
      <trkpt lat="44.57453" lon="1.77222">
        <ele>303</ele>
        <time>2019-08-10T08:25:56.993Z</time>
      </trkpt>
      <trkpt lat="44.57451" lon="1.77232">
        <ele>303</ele>
        <time>2019-08-10T08:26:01.992Z</time>
      </trkpt>
      <trkpt lat="44.57448" lon="1.77242">
        <ele>304</ele>
        <time>2019-08-10T08:26:06.992Z</time>
      </trkpt>
      <trkpt lat="44.57447" lon="1.77251">
        <ele>304</ele>
        <time>2019-08-10T08:26:11.993Z</time>
      </trkpt>
      <trkpt lat="44.57445" lon="1.77259">
        <ele>304</ele>
        <time>2019-08-10T08:26:16.986Z</time>
      </trkpt>
      <trkpt lat="44.57444" lon="1.77265">
        <ele>307</ele>
        <time>2019-08-10T08:26:21.989Z</time>
      </trkpt>
      <trkpt lat="44.57442" lon="1.77273">
        <ele>307</ele>
        <time>2019-08-10T08:26:26.989Z</time>
      </trkpt>
      <trkpt lat="44.57439" lon="1.77282">
        <ele>307</ele>
        <time>2019-08-10T08:26:31.982Z</time>
      </trkpt>
      <trkpt lat="44.57435" lon="1.77292">
        <ele>309</ele>
        <time>2019-08-10T08:26:36.974Z</time>
      </trkpt>
      <trkpt lat="44.57432" lon="1.773">
        <ele>309</ele>
        <time>2019-08-10T08:26:40.990Z</time>
      </trkpt>
      <trkpt lat="44.57429" lon="1.77309">
        <ele>307</ele>
        <time>2019-08-10T08:26:45.994Z</time>
      </trkpt>
      <trkpt lat="44.57424" lon="1.77318">
        <ele>307</ele>
        <time>2019-08-10T08:26:50.991Z</time>
      </trkpt>
      <trkpt lat="44.57419" lon="1.77327">
        <ele>307</ele>
        <time>2019-08-10T08:26:55.995Z</time>
      </trkpt>
      <trkpt lat="44.57416" lon="1.77336">
        <ele>307</ele>
        <time>2019-08-10T08:27:00.995Z</time>
      </trkpt>
      <trkpt lat="44.57414" lon="1.77345">
        <ele>307</ele>
        <time>2019-08-10T08:27:05.990Z</time>
      </trkpt>
      <trkpt lat="44.57411" lon="1.77356">
        <ele>307</ele>
        <time>2019-08-10T08:27:10.995Z</time>
      </trkpt>
      <trkpt lat="44.5741" lon="1.77366">
        <ele>307</ele>
        <time>2019-08-10T08:27:15.996Z</time>
      </trkpt>
      <trkpt lat="44.5741" lon="1.77376">
        <ele>309</ele>
        <time>2019-08-10T08:27:20.989Z</time>
      </trkpt>
      <trkpt lat="44.57412" lon="1.77384">
        <ele>309</ele>
        <time>2019-08-10T08:27:25.988Z</time>
      </trkpt>
      <trkpt lat="44.57414" lon="1.7739">
        <ele>309</ele>
        <time>2019-08-10T08:27:30.978Z</time>
      </trkpt>
      <trkpt lat="44.57416" lon="1.77399">
        <ele>309</ele>
        <time>2019-08-10T08:27:35.987Z</time>
      </trkpt>
      <trkpt lat="44.57421" lon="1.77406">
        <ele>310</ele>
        <time>2019-08-10T08:27:40.989Z</time>
      </trkpt>
      <trkpt lat="44.57425" lon="1.77414">
        <ele>310</ele>
        <time>2019-08-10T08:27:45.990Z</time>
      </trkpt>
      <trkpt lat="44.57429" lon="1.77422">
        <ele>310</ele>
        <time>2019-08-10T08:27:50.991Z</time>
      </trkpt>
      <trkpt lat="44.57432" lon="1.7743">
        <ele>312</ele>
        <time>2019-08-10T08:27:55.990Z</time>
      </trkpt>
      <trkpt lat="44.57435" lon="1.77438">
        <ele>313</ele>
        <time>2019-08-10T08:28:00.996Z</time>
      </trkpt>
      <trkpt lat="44.57438" lon="1.77447">
        <ele>313</ele>
        <time>2019-08-10T08:28:05.993Z</time>
      </trkpt>
      <trkpt lat="44.57441" lon="1.77456">
        <ele>313</ele>
        <time>2019-08-10T08:28:10.995Z</time>
      </trkpt>
      <trkpt lat="44.57442" lon="1.7746">
        <ele>315</ele>
        <time>2019-08-10T08:28:15.993Z</time>
      </trkpt>
      <trkpt lat="44.57444" lon="1.77469">
        <ele>315</ele>
        <time>2019-08-10T08:28:20.994Z</time>
      </trkpt>
      <trkpt lat="44.57446" lon="1.77479">
        <ele>315</ele>
        <time>2019-08-10T08:28:25.989Z</time>
      </trkpt>
      <trkpt lat="44.57449" lon="1.77487">
        <ele>317</ele>
        <time>2019-08-10T08:28:30.989Z</time>
      </trkpt>
      <trkpt lat="44.57453" lon="1.77495">
        <ele>317</ele>
        <time>2019-08-10T08:28:35.995Z</time>
      </trkpt>
      <trkpt lat="44.57455" lon="1.77507">
        <ele>317</ele>
        <time>2019-08-10T08:28:40.995Z</time>
      </trkpt>
      <trkpt lat="44.57458" lon="1.77516">
        <ele>318</ele>
        <time>2019-08-10T08:28:45.992Z</time>
      </trkpt>
      <trkpt lat="44.5746" lon="1.77525">
        <ele>317</ele>
        <time>2019-08-10T08:28:50.994Z</time>
      </trkpt>
      <trkpt lat="44.57462" lon="1.77531">
        <ele>317</ele>
        <time>2019-08-10T08:28:55.995Z</time>
      </trkpt>
      <trkpt lat="44.57465" lon="1.77538">
        <ele>317</ele>
        <time>2019-08-10T08:29:00.992Z</time>
      </trkpt>
      <trkpt lat="44.57468" lon="1.77549">
        <ele>318</ele>
        <time>2019-08-10T08:29:05.994Z</time>
      </trkpt>
      <trkpt lat="44.57472" lon="1.77558">
        <ele>318</ele>
        <time>2019-08-10T08:29:10.989Z</time>
      </trkpt>
      <trkpt lat="44.57474" lon="1.77565">
        <ele>318</ele>
        <time>2019-08-10T08:29:14.999Z</time>
      </trkpt>
      <trkpt lat="44.57476" lon="1.77574">
        <ele>319</ele>
        <time>2019-08-10T08:29:19.991Z</time>
      </trkpt>
      <trkpt lat="44.57478" lon="1.7758">
        <ele>319</ele>
        <time>2019-08-10T08:29:24.992Z</time>
      </trkpt>
      <trkpt lat="44.57478" lon="1.77582">
        <ele>319</ele>
        <time>2019-08-10T08:29:29.994Z</time>
      </trkpt>
      <trkpt lat="44.57478" lon="1.77582">
        <ele>319</ele>
        <time>2019-08-10T08:29:34.998Z</time>
      </trkpt>
      <trkpt lat="44.57479" lon="1.77583">
        <ele>319</ele>
        <time>2019-08-10T08:29:39.997Z</time>
      </trkpt>
      <trkpt lat="44.57481" lon="1.77593">
        <ele>319</ele>
        <time>2019-08-10T08:29:44.995Z</time>
      </trkpt>
      <trkpt lat="44.57484" lon="1.77604">
        <ele>320</ele>
        <time>2019-08-10T08:29:49.996Z</time>
      </trkpt>
      <trkpt lat="44.57485" lon="1.77614">
        <ele>320</ele>
        <time>2019-08-10T08:29:54.990Z</time>
      </trkpt>
      <trkpt lat="44.57487" lon="1.77623">
        <ele>318</ele>
        <time>2019-08-10T08:29:59.998Z</time>
      </trkpt>
      <trkpt lat="44.5749" lon="1.7763">
        <ele>320</ele>
        <time>2019-08-10T08:30:04.993Z</time>
      </trkpt>
      <trkpt lat="44.57494" lon="1.77637">
        <ele>320</ele>
        <time>2019-08-10T08:30:09.995Z</time>
      </trkpt>
      <trkpt lat="44.575" lon="1.77646">
        <ele>320</ele>
        <time>2019-08-10T08:30:14.991Z</time>
      </trkpt>
      <trkpt lat="44.57506" lon="1.77653">
        <ele>320</ele>
        <time>2019-08-10T08:30:19.990Z</time>
      </trkpt>
      <trkpt lat="44.57512" lon="1.7766">
        <ele>324</ele>
        <time>2019-08-10T08:30:24.994Z</time>
      </trkpt>
      <trkpt lat="44.57517" lon="1.77667">
        <ele>320</ele>
        <time>2019-08-10T08:30:29.998Z</time>
      </trkpt>
      <trkpt lat="44.57522" lon="1.77677">
        <ele>320</ele>
        <time>2019-08-10T08:30:34.983Z</time>
      </trkpt>
      <trkpt lat="44.57526" lon="1.77685">
        <ele>324</ele>
        <time>2019-08-10T08:30:38.993Z</time>
      </trkpt>
      <trkpt lat="44.5753" lon="1.77692">
        <ele>324</ele>
        <time>2019-08-10T08:30:43.994Z</time>
      </trkpt>
      <trkpt lat="44.57534" lon="1.77699">
        <ele>324</ele>
        <time>2019-08-10T08:30:48.993Z</time>
      </trkpt>
      <trkpt lat="44.57538" lon="1.77705">
        <ele>324</ele>
        <time>2019-08-10T08:30:53.995Z</time>
      </trkpt>
      <trkpt lat="44.57543" lon="1.77712">
        <ele>321</ele>
        <time>2019-08-10T08:30:58.989Z</time>
      </trkpt>
      <trkpt lat="44.57549" lon="1.7772">
        <ele>321</ele>
        <time>2019-08-10T08:31:03.996Z</time>
      </trkpt>
      <trkpt lat="44.57555" lon="1.77729">
        <ele>321</ele>
        <time>2019-08-10T08:31:08.995Z</time>
      </trkpt>
      <trkpt lat="44.57561" lon="1.77736">
        <ele>321</ele>
        <time>2019-08-10T08:31:13.992Z</time>
      </trkpt>
      <trkpt lat="44.57565" lon="1.77745">
        <ele>324</ele>
        <time>2019-08-10T08:31:18.994Z</time>
      </trkpt>
      <trkpt lat="44.5757" lon="1.77754">
        <ele>320</ele>
        <time>2019-08-10T08:31:23.991Z</time>
      </trkpt>
      <trkpt lat="44.57575" lon="1.77761">
        <ele>320</ele>
        <time>2019-08-10T08:31:28.993Z</time>
      </trkpt>
      <trkpt lat="44.57582" lon="1.77769">
        <ele>322</ele>
        <time>2019-08-10T08:31:33.993Z</time>
      </trkpt>
      <trkpt lat="44.57587" lon="1.77775">
        <ele>322</ele>
        <time>2019-08-10T08:31:38.997Z</time>
      </trkpt>
      <trkpt lat="44.57591" lon="1.77781">
        <ele>322</ele>
        <time>2019-08-10T08:31:43.995Z</time>
      </trkpt>
      <trkpt lat="44.57595" lon="1.77789">
        <ele>322</ele>
        <time>2019-08-10T08:31:48.993Z</time>
      </trkpt>
      <trkpt lat="44.57599" lon="1.77796">
        <ele>320</ele>
        <time>2019-08-10T08:31:53.996Z</time>
      </trkpt>
      <trkpt lat="44.57601" lon="1.77804">
        <ele>320</ele>
        <time>2019-08-10T08:31:58.988Z</time>
      </trkpt>
      <trkpt lat="44.57604" lon="1.77814">
        <ele>320</ele>
        <time>2019-08-10T08:32:03.999Z</time>
      </trkpt>
      <trkpt lat="44.57608" lon="1.77824">
        <ele>322</ele>
        <time>2019-08-10T08:32:08.997Z</time>
      </trkpt>
      <trkpt lat="44.5761" lon="1.7783">
        <ele>322</ele>
        <time>2019-08-10T08:32:13.994Z</time>
      </trkpt>
      <trkpt lat="44.57612" lon="1.77837">
        <ele>322</ele>
        <time>2019-08-10T08:32:18.993Z</time>
      </trkpt>
      <trkpt lat="44.57613" lon="1.77843">
        <ele>322</ele>
        <time>2019-08-10T08:32:23.992Z</time>
      </trkpt>
      <trkpt lat="44.57616" lon="1.77853">
        <ele>323</ele>
        <time>2019-08-10T08:32:28.992Z</time>
      </trkpt>
      <trkpt lat="44.57616" lon="1.77869">
        <ele>323</ele>
        <time>2019-08-10T08:32:33.991Z</time>
      </trkpt>
      <trkpt lat="44.57615" lon="1.77883">
        <ele>324</ele>
        <time>2019-08-10T08:32:38.990Z</time>
      </trkpt>
      <trkpt lat="44.57615" lon="1.77894">
        <ele>324</ele>
        <time>2019-08-10T08:32:43.998Z</time>
      </trkpt>
      <trkpt lat="44.57615" lon="1.77905">
        <ele>324</ele>
        <time>2019-08-10T08:32:48.996Z</time>
      </trkpt>
      <trkpt lat="44.57616" lon="1.77914">
        <ele>324</ele>
        <time>2019-08-10T08:32:53.994Z</time>
      </trkpt>
      <trkpt lat="44.57618" lon="1.77923">
        <ele>324</ele>
        <time>2019-08-10T08:32:58.996Z</time>
      </trkpt>
      <trkpt lat="44.57619" lon="1.77932">
        <ele>324</ele>
        <time>2019-08-10T08:33:04Z</time>
      </trkpt>
      <trkpt lat="44.57621" lon="1.7794">
        <ele>324</ele>
        <time>2019-08-10T08:33:09.003Z</time>
      </trkpt>
      <trkpt lat="44.57624" lon="1.7795">
        <ele>324</ele>
        <time>2019-08-10T08:33:13.998Z</time>
      </trkpt>
      <trkpt lat="44.57625" lon="1.77959">
        <ele>320</ele>
        <time>2019-08-10T08:33:18.994Z</time>
      </trkpt>
      <trkpt lat="44.57626" lon="1.77966">
        <ele>320</ele>
        <time>2019-08-10T08:33:23.997Z</time>
      </trkpt>
      <trkpt lat="44.57627" lon="1.77974">
        <ele>320</ele>
        <time>2019-08-10T08:33:28.994Z</time>
      </trkpt>
      <trkpt lat="44.5763" lon="1.77982">
        <ele>320</ele>
        <time>2019-08-10T08:33:33.994Z</time>
      </trkpt>
      <trkpt lat="44.57634" lon="1.77992">
        <ele>320</ele>
        <time>2019-08-10T08:33:38.995Z</time>
      </trkpt>
      <trkpt lat="44.57636" lon="1.78003">
        <ele>320</ele>
        <time>2019-08-10T08:33:43.994Z</time>
      </trkpt>
      <trkpt lat="44.57637" lon="1.78015">
        <ele>319</ele>
        <time>2019-08-10T08:33:48.996Z</time>
      </trkpt>
      <trkpt lat="44.57638" lon="1.78024">
        <ele>319</ele>
        <time>2019-08-10T08:33:53.988Z</time>
      </trkpt>
      <trkpt lat="44.57639" lon="1.78033">
        <ele>319</ele>
        <time>2019-08-10T08:33:58.992Z</time>
      </trkpt>
      <trkpt lat="44.57642" lon="1.78041">
        <ele>319</ele>
        <time>2019-08-10T08:34:03.994Z</time>
      </trkpt>
      <trkpt lat="44.57645" lon="1.78052">
        <ele>318</ele>
        <time>2019-08-10T08:34:08.991Z</time>
      </trkpt>
      <trkpt lat="44.57647" lon="1.78062">
        <ele>318</ele>
        <time>2019-08-10T08:34:13.994Z</time>
      </trkpt>
      <trkpt lat="44.57647" lon="1.78066">
        <ele>318</ele>
        <time>2019-08-10T08:34:18.996Z</time>
      </trkpt>
      <trkpt lat="44.57647" lon="1.78067">
        <ele>318</ele>
        <time>2019-08-10T08:34:23.992Z</time>
      </trkpt>
      <trkpt lat="44.57648" lon="1.78075">
        <ele>317</ele>
        <time>2019-08-10T08:34:28.028Z</time>
      </trkpt>
      <trkpt lat="44.5765" lon="1.78085">
        <ele>317</ele>
        <time>2019-08-10T08:34:33.010Z</time>
      </trkpt>
      <trkpt lat="44.57652" lon="1.78094">
        <ele>317</ele>
        <time>2019-08-10T08:34:37.999Z</time>
      </trkpt>
      <trkpt lat="44.57655" lon="1.78104">
        <ele>318</ele>
        <time>2019-08-10T08:34:42.973Z</time>
      </trkpt>
      <trkpt lat="44.57657" lon="1.78113">
        <ele>318</ele>
        <time>2019-08-10T08:34:46.995Z</time>
      </trkpt>
      <trkpt lat="44.5766" lon="1.78123">
        <ele>318</ele>
        <time>2019-08-10T08:34:51.996Z</time>
      </trkpt>
      <trkpt lat="44.57664" lon="1.78129">
        <ele>319</ele>
        <time>2019-08-10T08:34:56.994Z</time>
      </trkpt>
      <trkpt lat="44.57667" lon="1.78134">
        <ele>319</ele>
        <time>2019-08-10T08:35:01.992Z</time>
      </trkpt>
      <trkpt lat="44.57671" lon="1.78139">
        <ele>319</ele>
        <time>2019-08-10T08:35:06.981Z</time>
      </trkpt>
      <trkpt lat="44.57676" lon="1.78147">
        <ele>319</ele>
        <time>2019-08-10T08:35:11.984Z</time>
      </trkpt>
      <trkpt lat="44.5768" lon="1.78154">
        <ele>319</ele>
        <time>2019-08-10T08:35:15.992Z</time>
      </trkpt>
      <trkpt lat="44.57684" lon="1.78161">
        <ele>317</ele>
        <time>2019-08-10T08:35:20.985Z</time>
      </trkpt>
      <trkpt lat="44.57688" lon="1.78169">
        <ele>317</ele>
        <time>2019-08-10T08:35:25.987Z</time>
      </trkpt>
      <trkpt lat="44.57691" lon="1.78176">
        <ele>317</ele>
        <time>2019-08-10T08:35:30.992Z</time>
      </trkpt>
      <trkpt lat="44.57694" lon="1.78183">
        <ele>317</ele>
        <time>2019-08-10T08:35:35.992Z</time>
      </trkpt>
      <trkpt lat="44.57698" lon="1.78189">
        <ele>317</ele>
        <time>2019-08-10T08:35:40.994Z</time>
      </trkpt>
      <trkpt lat="44.57706" lon="1.78202">
        <ele>317</ele>
        <time>2019-08-10T08:35:50.995Z</time>
      </trkpt>
      <trkpt lat="44.57706" lon="1.78202">
        <ele>317</ele>
        <time>2019-08-10T08:35:55.994Z</time>
      </trkpt>
      <trkpt lat="44.57706" lon="1.78202">
        <ele>317</ele>
        <time>2019-08-10T08:36:00.994Z</time>
      </trkpt>
      <trkpt lat="44.57706" lon="1.78202">
        <ele>317</ele>
        <time>2019-08-10T08:36:05.990Z</time>
      </trkpt>
      <trkpt lat="44.57707" lon="1.78209">
        <ele>316</ele>
        <time>2019-08-10T08:36:10.996Z</time>
      </trkpt>
      <trkpt lat="44.57708" lon="1.78217">
        <ele>312</ele>
        <time>2019-08-10T08:36:15.992Z</time>
      </trkpt>
      <trkpt lat="44.57711" lon="1.78225">
        <ele>312</ele>
        <time>2019-08-10T08:36:21.004Z</time>
      </trkpt>
      <trkpt lat="44.57717" lon="1.78236">
        <ele>311</ele>
        <time>2019-08-10T08:36:25.993Z</time>
      </trkpt>
      <trkpt lat="44.57721" lon="1.78247">
        <ele>311</ele>
        <time>2019-08-10T08:36:30.995Z</time>
      </trkpt>
      <trkpt lat="44.57723" lon="1.78259">
        <ele>311</ele>
        <time>2019-08-10T08:36:35.994Z</time>
      </trkpt>
      <trkpt lat="44.57725" lon="1.78268">
        <ele>312</ele>
        <time>2019-08-10T08:36:40.994Z</time>
      </trkpt>
      <trkpt lat="44.57727" lon="1.7828">
        <ele>312</ele>
        <time>2019-08-10T08:36:45.998Z</time>
      </trkpt>
      <trkpt lat="44.5773" lon="1.78291">
        <ele>312</ele>
        <time>2019-08-10T08:36:50.992Z</time>
      </trkpt>
      <trkpt lat="44.57734" lon="1.78301">
        <ele>312</ele>
        <time>2019-08-10T08:36:55.991Z</time>
      </trkpt>
      <trkpt lat="44.57737" lon="1.7831">
        <ele>310</ele>
        <time>2019-08-10T08:37:00.994Z</time>
      </trkpt>
      <trkpt lat="44.57742" lon="1.7832">
        <ele>311</ele>
        <time>2019-08-10T08:37:05.994Z</time>
      </trkpt>
      <trkpt lat="44.57749" lon="1.78332">
        <ele>311</ele>
        <time>2019-08-10T08:37:10.994Z</time>
      </trkpt>
      <trkpt lat="44.57754" lon="1.7834">
        <ele>311</ele>
        <time>2019-08-10T08:37:15.999Z</time>
      </trkpt>
      <trkpt lat="44.5776" lon="1.78348">
        <ele>312</ele>
        <time>2019-08-10T08:37:20.995Z</time>
      </trkpt>
      <trkpt lat="44.57768" lon="1.78355">
        <ele>313</ele>
        <time>2019-08-10T08:37:25.996Z</time>
      </trkpt>
      <trkpt lat="44.57773" lon="1.78362">
        <ele>313</ele>
        <time>2019-08-10T08:37:30.992Z</time>
      </trkpt>
      <trkpt lat="44.57778" lon="1.78369">
        <ele>313</ele>
        <time>2019-08-10T08:37:35.993Z</time>
      </trkpt>
      <trkpt lat="44.57784" lon="1.78374">
        <ele>313</ele>
        <time>2019-08-10T08:37:40.995Z</time>
      </trkpt>
      <trkpt lat="44.57787" lon="1.7838">
        <ele>315</ele>
        <time>2019-08-10T08:37:45.993Z</time>
      </trkpt>
      <trkpt lat="44.57791" lon="1.78388">
        <ele>315</ele>
        <time>2019-08-10T08:37:50.992Z</time>
      </trkpt>
      <trkpt lat="44.57796" lon="1.78395">
        <ele>315</ele>
        <time>2019-08-10T08:37:55.994Z</time>
      </trkpt>
      <trkpt lat="44.578" lon="1.78403">
        <ele>316</ele>
        <time>2019-08-10T08:38:00.998Z</time>
      </trkpt>
      <trkpt lat="44.57805" lon="1.78411">
        <ele>316</ele>
        <time>2019-08-10T08:38:05.995Z</time>
      </trkpt>
      <trkpt lat="44.57809" lon="1.78417">
        <ele>316</ele>
        <time>2019-08-10T08:38:11.002Z</time>
      </trkpt>
      <trkpt lat="44.57814" lon="1.78425">
        <ele>316</ele>
        <time>2019-08-10T08:38:15.996Z</time>
      </trkpt>
      <trkpt lat="44.57817" lon="1.78431">
        <ele>316</ele>
        <time>2019-08-10T08:38:20.997Z</time>
      </trkpt>
      <trkpt lat="44.57819" lon="1.78434">
        <ele>317</ele>
        <time>2019-08-10T08:38:25.996Z</time>
      </trkpt>
      <trkpt lat="44.57821" lon="1.78437">
        <ele>316</ele>
        <time>2019-08-10T08:38:30.990Z</time>
      </trkpt>
      <trkpt lat="44.57828" lon="1.78442">
        <ele>316</ele>
        <time>2019-08-10T08:38:35.998Z</time>
      </trkpt>
      <trkpt lat="44.57834" lon="1.7845">
        <ele>316</ele>
        <time>2019-08-10T08:38:40.999Z</time>
      </trkpt>
      <trkpt lat="44.5784" lon="1.78457">
        <ele>316</ele>
        <time>2019-08-10T08:38:45.993Z</time>
      </trkpt>
      <trkpt lat="44.57848" lon="1.78462">
        <ele>317</ele>
        <time>2019-08-10T08:38:50.999Z</time>
      </trkpt>
      <trkpt lat="44.57856" lon="1.78468">
        <ele>317</ele>
        <time>2019-08-10T08:38:56.001Z</time>
      </trkpt>
      <trkpt lat="44.57862" lon="1.78475">
        <ele>317</ele>
        <time>2019-08-10T08:39:00.983Z</time>
      </trkpt>
      <trkpt lat="44.57866" lon="1.7848">
        <ele>317</ele>
        <time>2019-08-10T08:39:04.998Z</time>
      </trkpt>
      <trkpt lat="44.57872" lon="1.78487">
        <ele>317</ele>
        <time>2019-08-10T08:39:10Z</time>
      </trkpt>
      <trkpt lat="44.57878" lon="1.78495">
        <ele>317</ele>
        <time>2019-08-10T08:39:14.994Z</time>
      </trkpt>
      <trkpt lat="44.57883" lon="1.78502">
        <ele>317</ele>
        <time>2019-08-10T08:39:19.999Z</time>
      </trkpt>
      <trkpt lat="44.57887" lon="1.78507">
        <ele>317</ele>
        <time>2019-08-10T08:39:24.989Z</time>
      </trkpt>
      <trkpt lat="44.57892" lon="1.78514">
        <ele>317</ele>
        <time>2019-08-10T08:39:29.992Z</time>
      </trkpt>
      <trkpt lat="44.57896" lon="1.78519">
        <ele>319</ele>
        <time>2019-08-10T08:39:34.994Z</time>
      </trkpt>
      <trkpt lat="44.57901" lon="1.78527">
        <ele>319</ele>
        <time>2019-08-10T08:39:39.998Z</time>
      </trkpt>
      <trkpt lat="44.57907" lon="1.78533">
        <ele>320</ele>
        <time>2019-08-10T08:39:44.995Z</time>
      </trkpt>
      <trkpt lat="44.57912" lon="1.78539">
        <ele>320</ele>
        <time>2019-08-10T08:39:49.982Z</time>
      </trkpt>
      <trkpt lat="44.57917" lon="1.78543">
        <ele>322</ele>
        <time>2019-08-10T08:39:53.999Z</time>
      </trkpt>
      <trkpt lat="44.57922" lon="1.78548">
        <ele>322</ele>
        <time>2019-08-10T08:39:58.993Z</time>
      </trkpt>
      <trkpt lat="44.57926" lon="1.78555">
        <ele>322</ele>
        <time>2019-08-10T08:40:03.997Z</time>
      </trkpt>
      <trkpt lat="44.57931" lon="1.78562">
        <ele>323</ele>
        <time>2019-08-10T08:40:09Z</time>
      </trkpt>
      <trkpt lat="44.57934" lon="1.78567">
        <ele>323</ele>
        <time>2019-08-10T08:40:13.997Z</time>
      </trkpt>
      <trkpt lat="44.57937" lon="1.78574">
        <ele>324</ele>
        <time>2019-08-10T08:40:19Z</time>
      </trkpt>
      <trkpt lat="44.57941" lon="1.7858">
        <ele>324</ele>
        <time>2019-08-10T08:40:24Z</time>
      </trkpt>
      <trkpt lat="44.57945" lon="1.7859">
        <ele>324</ele>
        <time>2019-08-10T08:40:28.995Z</time>
      </trkpt>
      <trkpt lat="44.57949" lon="1.78599">
        <ele>325</ele>
        <time>2019-08-10T08:40:33.997Z</time>
      </trkpt>
      <trkpt lat="44.57954" lon="1.78606">
        <ele>325</ele>
        <time>2019-08-10T08:40:38.998Z</time>
      </trkpt>
      <trkpt lat="44.57959" lon="1.78613">
        <ele>327</ele>
        <time>2019-08-10T08:40:44Z</time>
      </trkpt>
      <trkpt lat="44.57963" lon="1.78618">
        <ele>327</ele>
        <time>2019-08-10T08:40:48.997Z</time>
      </trkpt>
      <trkpt lat="44.57969" lon="1.78622">
        <ele>327</ele>
        <time>2019-08-10T08:40:53.993Z</time>
      </trkpt>
      <trkpt lat="44.57975" lon="1.78627">
        <ele>328</ele>
        <time>2019-08-10T08:40:58.997Z</time>
      </trkpt>
      <trkpt lat="44.57983" lon="1.78631">
        <ele>328</ele>
        <time>2019-08-10T08:41:03.999Z</time>
      </trkpt>
      <trkpt lat="44.57991" lon="1.78637">
        <ele>327</ele>
        <time>2019-08-10T08:41:08.996Z</time>
      </trkpt>
      <trkpt lat="44.57993" lon="1.7864">
        <ele>327</ele>
        <time>2019-08-10T08:41:18.980Z</time>
      </trkpt>
      <trkpt lat="44.57993" lon="1.78641">
        <ele>327</ele>
        <time>2019-08-10T08:41:22.997Z</time>
      </trkpt>
      <trkpt lat="44.57997" lon="1.78645">
        <ele>327</ele>
        <time>2019-08-10T08:41:27.988Z</time>
      </trkpt>
      <trkpt lat="44.57998" lon="1.78646">
        <ele>327</ele>
        <time>2019-08-10T08:41:32.980Z</time>
      </trkpt>
      <trkpt lat="44.58002" lon="1.78646">
        <ele>327</ele>
        <time>2019-08-10T08:41:36.995Z</time>
      </trkpt>
      <trkpt lat="44.58006" lon="1.7865">
        <ele>327</ele>
        <time>2019-08-10T08:41:41.990Z</time>
      </trkpt>
      <trkpt lat="44.58008" lon="1.78651">
        <ele>327</ele>
        <time>2019-08-10T08:41:46.985Z</time>
      </trkpt>
      <trkpt lat="44.58008" lon="1.78658">
        <ele>327</ele>
        <time>2019-08-10T08:41:51.983Z</time>
      </trkpt>
      <trkpt lat="44.58008" lon="1.78662">
        <ele>327</ele>
        <time>2019-08-10T08:41:55.998Z</time>
      </trkpt>
      <trkpt lat="44.58009" lon="1.78664">
        <ele>327</ele>
        <time>2019-08-10T08:42:00.994Z</time>
      </trkpt>
      <trkpt lat="44.58009" lon="1.78672">
        <ele>327</ele>
        <time>2019-08-10T08:42:05.980Z</time>
      </trkpt>
      <trkpt lat="44.58006" lon="1.78681">
        <ele>326</ele>
        <time>2019-08-10T08:42:10.977Z</time>
      </trkpt>
      <trkpt lat="44.58002" lon="1.78686">
        <ele>326</ele>
        <time>2019-08-10T08:42:14.997Z</time>
      </trkpt>
      <trkpt lat="44.57997" lon="1.78692">
        <ele>326</ele>
        <time>2019-08-10T08:42:19.993Z</time>
      </trkpt>
      <trkpt lat="44.5799" lon="1.78699">
        <ele>326</ele>
        <time>2019-08-10T08:42:25Z</time>
      </trkpt>
      <trkpt lat="44.57985" lon="1.78705">
        <ele>328</ele>
        <time>2019-08-10T08:42:29.996Z</time>
      </trkpt>
      <trkpt lat="44.57981" lon="1.78712">
        <ele>328</ele>
        <time>2019-08-10T08:42:34.992Z</time>
      </trkpt>
      <trkpt lat="44.57978" lon="1.78719">
        <ele>328</ele>
        <time>2019-08-10T08:42:39.998Z</time>
      </trkpt>
      <trkpt lat="44.57978" lon="1.78721">
        <ele>328</ele>
        <time>2019-08-10T08:42:44.997Z</time>
      </trkpt>
      <trkpt lat="44.57975" lon="1.78727">
        <ele>328</ele>
        <time>2019-08-10T08:42:49.996Z</time>
      </trkpt>
      <trkpt lat="44.57972" lon="1.78735">
        <ele>328</ele>
        <time>2019-08-10T08:42:54.993Z</time>
      </trkpt>
      <trkpt lat="44.57967" lon="1.78738">
        <ele>326</ele>
        <time>2019-08-10T08:42:59.998Z</time>
      </trkpt>
      <trkpt lat="44.57964" lon="1.78741">
        <ele>326</ele>
        <time>2019-08-10T08:43:05Z</time>
      </trkpt>
      <trkpt lat="44.57962" lon="1.78745">
        <ele>326</ele>
        <time>2019-08-10T08:43:09.980Z</time>
      </trkpt>
      <trkpt lat="44.57956" lon="1.78753">
        <ele>326</ele>
        <time>2019-08-10T08:43:14.006Z</time>
      </trkpt>
      <trkpt lat="44.57949" lon="1.7876">
        <ele>326</ele>
        <time>2019-08-10T08:43:19.006Z</time>
      </trkpt>
      <trkpt lat="44.57943" lon="1.78769">
        <ele>323</ele>
        <time>2019-08-10T08:43:24.024Z</time>
      </trkpt>
      <trkpt lat="44.57937" lon="1.78774">
        <ele>323</ele>
        <time>2019-08-10T08:43:29.009Z</time>
      </trkpt>
      <trkpt lat="44.57934" lon="1.78779">
        <ele>323</ele>
        <time>2019-08-10T08:43:34.015Z</time>
      </trkpt>
      <trkpt lat="44.57929" lon="1.78789">
        <ele>322</ele>
        <time>2019-08-10T08:43:38.997Z</time>
      </trkpt>
      <trkpt lat="44.57924" lon="1.78794">
        <ele>319</ele>
        <time>2019-08-10T08:43:43.998Z</time>
      </trkpt>
      <trkpt lat="44.57919" lon="1.78799">
        <ele>319</ele>
        <time>2019-08-10T08:43:48.994Z</time>
      </trkpt>
      <trkpt lat="44.57914" lon="1.78804">
        <ele>319</ele>
        <time>2019-08-10T08:43:53.996Z</time>
      </trkpt>
      <trkpt lat="44.57909" lon="1.7881">
        <ele>319</ele>
        <time>2019-08-10T08:43:58.999Z</time>
      </trkpt>
      <trkpt lat="44.57905" lon="1.78816">
        <ele>319</ele>
        <time>2019-08-10T08:44:03.993Z</time>
      </trkpt>
      <trkpt lat="44.57901" lon="1.78824">
        <ele>316</ele>
        <time>2019-08-10T08:44:08.994Z</time>
      </trkpt>
      <trkpt lat="44.57895" lon="1.78831">
        <ele>316</ele>
        <time>2019-08-10T08:44:13.999Z</time>
      </trkpt>
      <trkpt lat="44.57886" lon="1.78836">
        <ele>316</ele>
        <time>2019-08-10T08:44:18.997Z</time>
      </trkpt>
      <trkpt lat="44.5788" lon="1.78841">
        <ele>316</ele>
        <time>2019-08-10T08:44:23.998Z</time>
      </trkpt>
      <trkpt lat="44.57875" lon="1.78845">
        <ele>315</ele>
        <time>2019-08-10T08:44:28.997Z</time>
      </trkpt>
      <trkpt lat="44.57872" lon="1.78852">
        <ele>313</ele>
        <time>2019-08-10T08:44:33.996Z</time>
      </trkpt>
      <trkpt lat="44.57866" lon="1.78857">
        <ele>313</ele>
        <time>2019-08-10T08:44:38.990Z</time>
      </trkpt>
      <trkpt lat="44.57859" lon="1.7886">
        <ele>313</ele>
        <time>2019-08-10T08:44:43.994Z</time>
      </trkpt>
      <trkpt lat="44.57855" lon="1.78863">
        <ele>313</ele>
        <time>2019-08-10T08:44:48.995Z</time>
      </trkpt>
      <trkpt lat="44.57851" lon="1.78869">
        <ele>313</ele>
        <time>2019-08-10T08:44:54.002Z</time>
      </trkpt>
      <trkpt lat="44.57845" lon="1.78877">
        <ele>311</ele>
        <time>2019-08-10T08:44:58.997Z</time>
      </trkpt>
      <trkpt lat="44.5784" lon="1.78885">
        <ele>311</ele>
        <time>2019-08-10T08:45:04.005Z</time>
      </trkpt>
      <trkpt lat="44.57836" lon="1.78891">
        <ele>311</ele>
        <time>2019-08-10T08:45:09.013Z</time>
      </trkpt>
      <trkpt lat="44.57832" lon="1.78897">
        <ele>311</ele>
        <time>2019-08-10T08:45:14.003Z</time>
      </trkpt>
      <trkpt lat="44.57828" lon="1.78905">
        <ele>310</ele>
        <time>2019-08-10T08:45:18.976Z</time>
      </trkpt>
      <trkpt lat="44.57826" lon="1.78913">
        <ele>310</ele>
        <time>2019-08-10T08:45:23.001Z</time>
      </trkpt>
      <trkpt lat="44.57821" lon="1.7892">
        <ele>310</ele>
        <time>2019-08-10T08:45:27.995Z</time>
      </trkpt>
      <trkpt lat="44.57817" lon="1.78929">
        <ele>310</ele>
        <time>2019-08-10T08:45:32.997Z</time>
      </trkpt>
      <trkpt lat="44.57815" lon="1.78937">
        <ele>308</ele>
        <time>2019-08-10T08:45:37.995Z</time>
      </trkpt>
      <trkpt lat="44.57811" lon="1.78946">
        <ele>308</ele>
        <time>2019-08-10T08:45:42.988Z</time>
      </trkpt>
      <trkpt lat="44.57807" lon="1.78953">
        <ele>308</ele>
        <time>2019-08-10T08:45:47.999Z</time>
      </trkpt>
      <trkpt lat="44.57803" lon="1.7896">
        <ele>307</ele>
        <time>2019-08-10T08:45:53.001Z</time>
      </trkpt>
      <trkpt lat="44.57802" lon="1.78967">
        <ele>307</ele>
        <time>2019-08-10T08:45:57.990Z</time>
      </trkpt>
      <trkpt lat="44.57802" lon="1.78973">
        <ele>307</ele>
        <time>2019-08-10T08:46:01.999Z</time>
      </trkpt>
      <trkpt lat="44.57798" lon="1.78982">
        <ele>307</ele>
        <time>2019-08-10T08:46:06.997Z</time>
      </trkpt>
      <trkpt lat="44.57794" lon="1.78988">
        <ele>307</ele>
        <time>2019-08-10T08:46:11.998Z</time>
      </trkpt>
      <trkpt lat="44.57791" lon="1.78993">
        <ele>306</ele>
        <time>2019-08-10T08:46:16.997Z</time>
      </trkpt>
      <trkpt lat="44.57787" lon="1.79">
        <ele>306</ele>
        <time>2019-08-10T08:46:21.995Z</time>
      </trkpt>
      <trkpt lat="44.57784" lon="1.79008">
        <ele>306</ele>
        <time>2019-08-10T08:46:26.002Z</time>
      </trkpt>
      <trkpt lat="44.5778" lon="1.79017">
        <ele>304</ele>
        <time>2019-08-10T08:46:31Z</time>
      </trkpt>
      <trkpt lat="44.57776" lon="1.79024">
        <ele>304</ele>
        <time>2019-08-10T08:46:35.994Z</time>
      </trkpt>
      <trkpt lat="44.57772" lon="1.79032">
        <ele>304</ele>
        <time>2019-08-10T08:46:40.997Z</time>
      </trkpt>
      <trkpt lat="44.57768" lon="1.79038">
        <ele>304</ele>
        <time>2019-08-10T08:46:45.997Z</time>
      </trkpt>
      <trkpt lat="44.57764" lon="1.79049">
        <ele>301</ele>
        <time>2019-08-10T08:46:50.994Z</time>
      </trkpt>
      <trkpt lat="44.57764" lon="1.7905">
        <ele>301</ele>
        <time>2019-08-10T08:46:55.998Z</time>
      </trkpt>
      <trkpt lat="44.57761" lon="1.79057">
        <ele>301</ele>
        <time>2019-08-10T08:47:00.984Z</time>
      </trkpt>
      <trkpt lat="44.57757" lon="1.79067">
        <ele>301</ele>
        <time>2019-08-10T08:47:04.994Z</time>
      </trkpt>
      <trkpt lat="44.57755" lon="1.79077">
        <ele>298</ele>
        <time>2019-08-10T08:47:10Z</time>
      </trkpt>
      <trkpt lat="44.57752" lon="1.79084">
        <ele>298</ele>
        <time>2019-08-10T08:47:14.996Z</time>
      </trkpt>
      <trkpt lat="44.57748" lon="1.79093">
        <ele>298</ele>
        <time>2019-08-10T08:47:19.992Z</time>
      </trkpt>
      <trkpt lat="44.57745" lon="1.79102">
        <ele>297</ele>
        <time>2019-08-10T08:47:24.996Z</time>
      </trkpt>
      <trkpt lat="44.57739" lon="1.79112">
        <ele>297</ele>
        <time>2019-08-10T08:47:30Z</time>
      </trkpt>
      <trkpt lat="44.57735" lon="1.79118">
        <ele>296</ele>
        <time>2019-08-10T08:47:34.995Z</time>
      </trkpt>
      <trkpt lat="44.57732" lon="1.79126">
        <ele>295</ele>
        <time>2019-08-10T08:47:39.998Z</time>
      </trkpt>
      <trkpt lat="44.5773" lon="1.79132">
        <ele>295</ele>
        <time>2019-08-10T08:47:44.997Z</time>
      </trkpt>
      <trkpt lat="44.57726" lon="1.79143">
        <ele>295</ele>
        <time>2019-08-10T08:47:49.997Z</time>
      </trkpt>
      <trkpt lat="44.57723" lon="1.79152">
        <ele>295</ele>
        <time>2019-08-10T08:47:54.997Z</time>
      </trkpt>
      <trkpt lat="44.5772" lon="1.79159">
        <ele>294</ele>
        <time>2019-08-10T08:47:59.994Z</time>
      </trkpt>
      <trkpt lat="44.57716" lon="1.79167">
        <ele>294</ele>
        <time>2019-08-10T08:48:04.998Z</time>
      </trkpt>
      <trkpt lat="44.57712" lon="1.79173">
        <ele>294</ele>
        <time>2019-08-10T08:48:09.992Z</time>
      </trkpt>
      <trkpt lat="44.5771" lon="1.7918">
        <ele>294</ele>
        <time>2019-08-10T08:48:14.990Z</time>
      </trkpt>
      <trkpt lat="44.57707" lon="1.79187">
        <ele>289</ele>
        <time>2019-08-10T08:48:19.994Z</time>
      </trkpt>
      <trkpt lat="44.57703" lon="1.79196">
        <ele>289</ele>
        <time>2019-08-10T08:48:24.994Z</time>
      </trkpt>
      <trkpt lat="44.577" lon="1.79202">
        <ele>289</ele>
        <time>2019-08-10T08:48:29.995Z</time>
      </trkpt>
      <trkpt lat="44.57695" lon="1.79212">
        <ele>288</ele>
        <time>2019-08-10T08:48:34.997Z</time>
      </trkpt>
      <trkpt lat="44.57692" lon="1.79219">
        <ele>288</ele>
        <time>2019-08-10T08:48:39.996Z</time>
      </trkpt>
      <trkpt lat="44.57688" lon="1.79228">
        <ele>288</ele>
        <time>2019-08-10T08:48:44.994Z</time>
      </trkpt>
      <trkpt lat="44.57685" lon="1.79234">
        <ele>288</ele>
        <time>2019-08-10T08:48:49.998Z</time>
      </trkpt>
      <trkpt lat="44.5768" lon="1.79245">
        <ele>285</ele>
        <time>2019-08-10T08:48:54.995Z</time>
      </trkpt>
      <trkpt lat="44.57677" lon="1.79254">
        <ele>285</ele>
        <time>2019-08-10T08:48:59.990Z</time>
      </trkpt>
      <trkpt lat="44.57671" lon="1.7926">
        <ele>285</ele>
        <time>2019-08-10T08:49:04.997Z</time>
      </trkpt>
      <trkpt lat="44.57664" lon="1.79262">
        <ele>285</ele>
        <time>2019-08-10T08:49:09.993Z</time>
      </trkpt>
      <trkpt lat="44.57656" lon="1.79264">
        <ele>285</ele>
        <time>2019-08-10T08:49:14.993Z</time>
      </trkpt>
      <trkpt lat="44.57649" lon="1.79267">
        <ele>284</ele>
        <time>2019-08-10T08:49:19.997Z</time>
      </trkpt>
      <trkpt lat="44.57643" lon="1.79269">
        <ele>284</ele>
        <time>2019-08-10T08:49:24.996Z</time>
      </trkpt>
      <trkpt lat="44.57636" lon="1.79272">
        <ele>284</ele>
        <time>2019-08-10T08:49:30Z</time>
      </trkpt>
      <trkpt lat="44.5763" lon="1.79275">
        <ele>284</ele>
        <time>2019-08-10T08:49:34.997Z</time>
      </trkpt>
      <trkpt lat="44.57623" lon="1.79274">
        <ele>284</ele>
        <time>2019-08-10T08:49:39.993Z</time>
      </trkpt>
      <trkpt lat="44.57621" lon="1.79273">
        <ele>284</ele>
        <time>2019-08-10T08:49:44.998Z</time>
      </trkpt>
      <trkpt lat="44.57616" lon="1.79277">
        <ele>284</ele>
        <time>2019-08-10T08:49:50Z</time>
      </trkpt>
      <trkpt lat="44.5761" lon="1.79279">
        <ele>284</ele>
        <time>2019-08-10T08:49:54.995Z</time>
      </trkpt>
      <trkpt lat="44.576" lon="1.79282">
        <ele>284</ele>
        <time>2019-08-10T08:49:59.996Z</time>
      </trkpt>
      <trkpt lat="44.57591" lon="1.79285">
        <ele>283</ele>
        <time>2019-08-10T08:50:04.998Z</time>
      </trkpt>
      <trkpt lat="44.57582" lon="1.79287">
        <ele>283</ele>
        <time>2019-08-10T08:50:09.996Z</time>
      </trkpt>
      <trkpt lat="44.57575" lon="1.7929">
        <ele>283</ele>
        <time>2019-08-10T08:50:14.997Z</time>
      </trkpt>
      <trkpt lat="44.57569" lon="1.7929">
        <ele>283</ele>
        <time>2019-08-10T08:50:20.001Z</time>
      </trkpt>
      <trkpt lat="44.57561" lon="1.7929">
        <ele>283</ele>
        <time>2019-08-10T08:50:24.997Z</time>
      </trkpt>
      <trkpt lat="44.57553" lon="1.79288">
        <ele>283</ele>
        <time>2019-08-10T08:50:29.995Z</time>
      </trkpt>
      <trkpt lat="44.57544" lon="1.79287">
        <ele>283</ele>
        <time>2019-08-10T08:50:34.996Z</time>
      </trkpt>
      <trkpt lat="44.57538" lon="1.79289">
        <ele>281</ele>
        <time>2019-08-10T08:50:39.997Z</time>
      </trkpt>
      <trkpt lat="44.57534" lon="1.79289">
        <ele>281</ele>
        <time>2019-08-10T08:50:44.995Z</time>
      </trkpt>
      <trkpt lat="44.57532" lon="1.79289">
        <ele>281</ele>
        <time>2019-08-10T08:50:49.995Z</time>
      </trkpt>
      <trkpt lat="44.57531" lon="1.79288">
        <ele>281</ele>
        <time>2019-08-10T08:50:54.992Z</time>
      </trkpt>
      <trkpt lat="44.57527" lon="1.79288">
        <ele>281</ele>
        <time>2019-08-10T08:50:59.997Z</time>
      </trkpt>
      <trkpt lat="44.5752" lon="1.79288">
        <ele>281</ele>
        <time>2019-08-10T08:51:04.995Z</time>
      </trkpt>
      <trkpt lat="44.57513" lon="1.79288">
        <ele>279</ele>
        <time>2019-08-10T08:51:10.001Z</time>
      </trkpt>
      <trkpt lat="44.57506" lon="1.79287">
        <ele>279</ele>
        <time>2019-08-10T08:51:14.995Z</time>
      </trkpt>
      <trkpt lat="44.57498" lon="1.79287">
        <ele>279</ele>
        <time>2019-08-10T08:51:19.995Z</time>
      </trkpt>
      <trkpt lat="44.57489" lon="1.79286">
        <ele>279</ele>
        <time>2019-08-10T08:51:24.998Z</time>
      </trkpt>
      <trkpt lat="44.5748" lon="1.79287">
        <ele>278</ele>
        <time>2019-08-10T08:51:30.002Z</time>
      </trkpt>
      <trkpt lat="44.57471" lon="1.79286">
        <ele>278</ele>
        <time>2019-08-10T08:51:34.994Z</time>
      </trkpt>
      <trkpt lat="44.57464" lon="1.79286">
        <ele>278</ele>
        <time>2019-08-10T08:51:39.992Z</time>
      </trkpt>
      <trkpt lat="44.57461" lon="1.79285">
        <ele>278</ele>
        <time>2019-08-10T08:51:45.011Z</time>
      </trkpt>
      <trkpt lat="44.5746" lon="1.79288">
        <ele>278</ele>
        <time>2019-08-10T08:51:50.003Z</time>
      </trkpt>
      <trkpt lat="44.57459" lon="1.79288">
        <ele>278</ele>
        <time>2019-08-10T08:51:54.991Z</time>
      </trkpt>
      <trkpt lat="44.57456" lon="1.79284">
        <ele>275</ele>
        <time>2019-08-10T08:51:59.012Z</time>
      </trkpt>
      <trkpt lat="44.5745" lon="1.79282">
        <ele>275</ele>
        <time>2019-08-10T08:52:04.012Z</time>
      </trkpt>
      <trkpt lat="44.57443" lon="1.79282">
        <ele>275</ele>
        <time>2019-08-10T08:52:09.022Z</time>
      </trkpt>
      <trkpt lat="44.57437" lon="1.79283">
        <ele>275</ele>
        <time>2019-08-10T08:52:14Z</time>
      </trkpt>
      <trkpt lat="44.57429" lon="1.79283">
        <ele>273</ele>
        <time>2019-08-10T08:52:19Z</time>
      </trkpt>
      <trkpt lat="44.57421" lon="1.79283">
        <ele>273</ele>
        <time>2019-08-10T08:52:23.996Z</time>
      </trkpt>
      <trkpt lat="44.57411" lon="1.79283">
        <ele>273</ele>
        <time>2019-08-10T08:52:28.994Z</time>
      </trkpt>
      <trkpt lat="44.57402" lon="1.79282">
        <ele>272</ele>
        <time>2019-08-10T08:52:34.001Z</time>
      </trkpt>
      <trkpt lat="44.57394" lon="1.79282">
        <ele>272</ele>
        <time>2019-08-10T08:52:38.998Z</time>
      </trkpt>
      <trkpt lat="44.57387" lon="1.79282">
        <ele>272</ele>
        <time>2019-08-10T08:52:43.993Z</time>
      </trkpt>
      <trkpt lat="44.57381" lon="1.79286">
        <ele>272</ele>
        <time>2019-08-10T08:52:48.999Z</time>
      </trkpt>
      <trkpt lat="44.57375" lon="1.79288">
        <ele>272</ele>
        <time>2019-08-10T08:52:53.998Z</time>
      </trkpt>
      <trkpt lat="44.5737" lon="1.79291">
        <ele>271</ele>
        <time>2019-08-10T08:52:59Z</time>
      </trkpt>
      <trkpt lat="44.57363" lon="1.79295">
        <ele>265</ele>
        <time>2019-08-10T08:53:03.990Z</time>
      </trkpt>
      <trkpt lat="44.57358" lon="1.79296">
        <ele>265</ele>
        <time>2019-08-10T08:53:08.995Z</time>
      </trkpt>
      <trkpt lat="44.57352" lon="1.79297">
        <ele>265</ele>
        <time>2019-08-10T08:53:13.998Z</time>
      </trkpt>
      <trkpt lat="44.57344" lon="1.79298">
        <ele>264</ele>
        <time>2019-08-10T08:53:18.999Z</time>
      </trkpt>
      <trkpt lat="44.57336" lon="1.793">
        <ele>264</ele>
        <time>2019-08-10T08:53:23.994Z</time>
      </trkpt>
      <trkpt lat="44.57329" lon="1.79302">
        <ele>264</ele>
        <time>2019-08-10T08:53:28.998Z</time>
      </trkpt>
      <trkpt lat="44.57321" lon="1.79306">
        <ele>264</ele>
        <time>2019-08-10T08:53:33.995Z</time>
      </trkpt>
      <trkpt lat="44.57313" lon="1.79308">
        <ele>267</ele>
        <time>2019-08-10T08:53:38.985Z</time>
      </trkpt>
      <trkpt lat="44.57305" lon="1.79311">
        <ele>267</ele>
        <time>2019-08-10T08:53:43.997Z</time>
      </trkpt>
      <trkpt lat="44.57297" lon="1.79311">
        <ele>267</ele>
        <time>2019-08-10T08:53:48.996Z</time>
      </trkpt>
      <trkpt lat="44.57291" lon="1.79313">
        <ele>268</ele>
        <time>2019-08-10T08:53:53.995Z</time>
      </trkpt>
      <trkpt lat="44.57284" lon="1.79315">
        <ele>268</ele>
        <time>2019-08-10T08:53:58.999Z</time>
      </trkpt>
      <trkpt lat="44.57278" lon="1.79317">
        <ele>268</ele>
        <time>2019-08-10T08:54:03.998Z</time>
      </trkpt>
      <trkpt lat="44.5727" lon="1.79318">
        <ele>268</ele>
        <time>2019-08-10T08:54:08.998Z</time>
      </trkpt>
      <trkpt lat="44.57263" lon="1.7932">
        <ele>264</ele>
        <time>2019-08-10T08:54:13.998Z</time>
      </trkpt>
      <trkpt lat="44.57258" lon="1.79323">
        <ele>264</ele>
        <time>2019-08-10T08:54:18.998Z</time>
      </trkpt>
      <trkpt lat="44.57255" lon="1.79329">
        <ele>264</ele>
        <time>2019-08-10T08:54:23.995Z</time>
      </trkpt>
      <trkpt lat="44.57257" lon="1.79329">
        <ele>264</ele>
        <time>2019-08-10T08:54:28.990Z</time>
      </trkpt>
      <trkpt lat="44.57261" lon="1.79326">
        <ele>264</ele>
        <time>2019-08-10T08:54:34Z</time>
      </trkpt>
      <trkpt lat="44.57264" lon="1.79324">
        <ele>264</ele>
        <time>2019-08-10T08:54:38.996Z</time>
      </trkpt>
      <trkpt lat="44.57267" lon="1.79323">
        <ele>261</ele>
        <time>2019-08-10T08:54:43.995Z</time>
      </trkpt>
      <trkpt lat="44.57273" lon="1.79321">
        <ele>261</ele>
        <time>2019-08-10T08:54:48.996Z</time>
      </trkpt>
      <trkpt lat="44.57279" lon="1.79319">
        <ele>268</ele>
        <time>2019-08-10T08:54:53.996Z</time>
      </trkpt>
      <trkpt lat="44.57285" lon="1.7932">
        <ele>261</ele>
        <time>2019-08-10T08:54:58.996Z</time>
      </trkpt>
      <trkpt lat="44.57295" lon="1.79318">
        <ele>267</ele>
        <time>2019-08-10T08:55:03.992Z</time>
      </trkpt>
      <trkpt lat="44.57303" lon="1.79317">
        <ele>267</ele>
        <time>2019-08-10T08:55:08.981Z</time>
      </trkpt>
      <trkpt lat="44.5731" lon="1.79323">
        <ele>259</ele>
        <time>2019-08-10T08:55:13.992Z</time>
      </trkpt>
      <trkpt lat="44.57316" lon="1.79323">
        <ele>259</ele>
        <time>2019-08-10T08:55:17.988Z</time>
      </trkpt>
      <trkpt lat="44.57324" lon="1.79323">
        <ele>258</ele>
        <time>2019-08-10T08:55:22.989Z</time>
      </trkpt>
      <trkpt lat="44.5733" lon="1.79324">
        <ele>258</ele>
        <time>2019-08-10T08:55:27.994Z</time>
      </trkpt>
      <trkpt lat="44.57336" lon="1.79321">
        <ele>258</ele>
        <time>2019-08-10T08:55:32.992Z</time>
      </trkpt>
      <trkpt lat="44.57341" lon="1.79323">
        <ele>258</ele>
        <time>2019-08-10T08:55:37.990Z</time>
      </trkpt>
      <trkpt lat="44.57348" lon="1.79321">
        <ele>258</ele>
        <time>2019-08-10T08:55:42.991Z</time>
      </trkpt>
      <trkpt lat="44.57352" lon="1.7932">
        <ele>258</ele>
        <time>2019-08-10T08:55:47.997Z</time>
      </trkpt>
      <trkpt lat="44.57359" lon="1.7932">
        <ele>258</ele>
        <time>2019-08-10T08:55:52.984Z</time>
      </trkpt>
      <trkpt lat="44.57366" lon="1.79327">
        <ele>258</ele>
        <time>2019-08-10T08:55:57.980Z</time>
      </trkpt>
      <trkpt lat="44.57373" lon="1.79331">
        <ele>258</ele>
        <time>2019-08-10T08:56:02.975Z</time>
      </trkpt>
      <trkpt lat="44.57379" lon="1.79329">
        <ele>261</ele>
        <time>2019-08-10T08:56:06.993Z</time>
      </trkpt>
      <trkpt lat="44.57387" lon="1.79335">
        <ele>261</ele>
        <time>2019-08-10T08:56:11.996Z</time>
      </trkpt>
      <trkpt lat="44.57395" lon="1.79344">
        <ele>261</ele>
        <time>2019-08-10T08:56:16.991Z</time>
      </trkpt>
      <trkpt lat="44.57402" lon="1.79354">
        <ele>260</ele>
        <time>2019-08-10T08:56:21.994Z</time>
      </trkpt>
      <trkpt lat="44.57406" lon="1.79361">
        <ele>266</ele>
        <time>2019-08-10T08:56:26.998Z</time>
      </trkpt>
      <trkpt lat="44.57409" lon="1.79364">
        <ele>266</ele>
        <time>2019-08-10T08:56:31.999Z</time>
      </trkpt>
      <trkpt lat="44.57409" lon="1.79371">
        <ele>266</ele>
        <time>2019-08-10T08:56:36.991Z</time>
      </trkpt>
      <trkpt lat="44.57409" lon="1.79379">
        <ele>269</ele>
        <time>2019-08-10T08:56:41.991Z</time>
      </trkpt>
      <trkpt lat="44.57407" lon="1.79389">
        <ele>269</ele>
        <time>2019-08-10T08:56:45.999Z</time>
      </trkpt>
      <trkpt lat="44.57404" lon="1.79403">
        <ele>269</ele>
        <time>2019-08-10T08:56:50.993Z</time>
      </trkpt>
      <trkpt lat="44.57403" lon="1.79412">
        <ele>272</ele>
        <time>2019-08-10T08:56:55.991Z</time>
      </trkpt>
      <trkpt lat="44.57402" lon="1.79423">
        <ele>267</ele>
        <time>2019-08-10T08:56:59.991Z</time>
      </trkpt>
      <trkpt lat="44.574" lon="1.79433">
        <ele>272</ele>
        <time>2019-08-10T08:57:04.987Z</time>
      </trkpt>
      <trkpt lat="44.574" lon="1.79444">
        <ele>272</ele>
        <time>2019-08-10T08:57:09.979Z</time>
      </trkpt>
      <trkpt lat="44.574" lon="1.79454">
        <ele>272</ele>
        <time>2019-08-10T08:57:13.995Z</time>
      </trkpt>
      <trkpt lat="44.57397" lon="1.79465">
        <ele>275</ele>
        <time>2019-08-10T08:57:18.995Z</time>
      </trkpt>
      <trkpt lat="44.57398" lon="1.79471">
        <ele>275</ele>
        <time>2019-08-10T08:57:23.991Z</time>
      </trkpt>
      <trkpt lat="44.57396" lon="1.79477">
        <ele>275</ele>
        <time>2019-08-10T08:57:28.990Z</time>
      </trkpt>
      <trkpt lat="44.57394" lon="1.79481">
        <ele>275</ele>
        <time>2019-08-10T08:57:33.002Z</time>
      </trkpt>
      <trkpt lat="44.57394" lon="1.79492">
        <ele>279</ele>
        <time>2019-08-10T08:57:37.992Z</time>
      </trkpt>
      <trkpt lat="44.57394" lon="1.79498">
        <ele>279</ele>
        <time>2019-08-10T08:57:42.992Z</time>
      </trkpt>
      <trkpt lat="44.57394" lon="1.795">
        <ele>279</ele>
        <time>2019-08-10T08:57:47.990Z</time>
      </trkpt>
      <trkpt lat="44.57394" lon="1.79506">
        <ele>279</ele>
        <time>2019-08-10T08:57:52.999Z</time>
      </trkpt>
      <trkpt lat="44.57394" lon="1.79515">
        <ele>281</ele>
        <time>2019-08-10T08:57:57.996Z</time>
      </trkpt>
      <trkpt lat="44.57394" lon="1.79522">
        <ele>281</ele>
        <time>2019-08-10T08:58:03Z</time>
      </trkpt>
      <trkpt lat="44.57394" lon="1.79532">
        <ele>281</ele>
        <time>2019-08-10T08:58:07.984Z</time>
      </trkpt>
      <trkpt lat="44.57392" lon="1.79542">
        <ele>283</ele>
        <time>2019-08-10T08:58:11.996Z</time>
      </trkpt>
      <trkpt lat="44.5739" lon="1.79549">
        <ele>283</ele>
        <time>2019-08-10T08:58:16.991Z</time>
      </trkpt>
      <trkpt lat="44.57391" lon="1.79558">
        <ele>283</ele>
        <time>2019-08-10T08:58:21.996Z</time>
      </trkpt>
      <trkpt lat="44.57392" lon="1.79568">
        <ele>283</ele>
        <time>2019-08-10T08:58:26.988Z</time>
      </trkpt>
      <trkpt lat="44.57391" lon="1.79575">
        <ele>287</ele>
        <time>2019-08-10T08:58:31.989Z</time>
      </trkpt>
      <trkpt lat="44.57391" lon="1.79576">
        <ele>287</ele>
        <time>2019-08-10T08:58:36.997Z</time>
      </trkpt>
      <trkpt lat="44.57391" lon="1.79576">
        <ele>287</ele>
        <time>2019-08-10T08:58:41.993Z</time>
      </trkpt>
      <trkpt lat="44.5739" lon="1.79582">
        <ele>287</ele>
        <time>2019-08-10T08:58:46.990Z</time>
      </trkpt>
      <trkpt lat="44.5739" lon="1.79589">
        <ele>287</ele>
        <time>2019-08-10T08:58:51Z</time>
      </trkpt>
      <trkpt lat="44.5739" lon="1.796">
        <ele>287</ele>
        <time>2019-08-10T08:58:55.992Z</time>
      </trkpt>
      <trkpt lat="44.57389" lon="1.79609">
        <ele>287</ele>
        <time>2019-08-10T08:59:00.974Z</time>
      </trkpt>
      <trkpt lat="44.57388" lon="1.79615">
        <ele>287</ele>
        <time>2019-08-10T08:59:04.998Z</time>
      </trkpt>
      <trkpt lat="44.57387" lon="1.7962">
        <ele>287</ele>
        <time>2019-08-10T08:59:09.995Z</time>
      </trkpt>
      <trkpt lat="44.57386" lon="1.79627">
        <ele>286</ele>
        <time>2019-08-10T08:59:14.994Z</time>
      </trkpt>
      <trkpt lat="44.57385" lon="1.79638">
        <ele>286</ele>
        <time>2019-08-10T08:59:19.991Z</time>
      </trkpt>
      <trkpt lat="44.57383" lon="1.79648">
        <ele>286</ele>
        <time>2019-08-10T08:59:24.977Z</time>
      </trkpt>
      <trkpt lat="44.57384" lon="1.79658">
        <ele>284</ele>
        <time>2019-08-10T08:59:28.994Z</time>
      </trkpt>
      <trkpt lat="44.57384" lon="1.79667">
        <ele>284</ele>
        <time>2019-08-10T08:59:33.980Z</time>
      </trkpt>
      <trkpt lat="44.57386" lon="1.79674">
        <ele>284</ele>
        <time>2019-08-10T08:59:37.990Z</time>
      </trkpt>
      <trkpt lat="44.57387" lon="1.79684">
        <ele>284</ele>
        <time>2019-08-10T08:59:42.991Z</time>
      </trkpt>
      <trkpt lat="44.5739" lon="1.79694">
        <ele>284</ele>
        <time>2019-08-10T08:59:47.995Z</time>
      </trkpt>
      <trkpt lat="44.57391" lon="1.79703">
        <ele>284</ele>
        <time>2019-08-10T08:59:52.995Z</time>
      </trkpt>
      <trkpt lat="44.57391" lon="1.79708">
        <ele>284</ele>
        <time>2019-08-10T08:59:57.992Z</time>
      </trkpt>
      <trkpt lat="44.57393" lon="1.79716">
        <ele>285</ele>
        <time>2019-08-10T09:00:02.993Z</time>
      </trkpt>
      <trkpt lat="44.57395" lon="1.7973">
        <ele>285</ele>
        <time>2019-08-10T09:00:07.992Z</time>
      </trkpt>
      <trkpt lat="44.57398" lon="1.7974">
        <ele>285</ele>
        <time>2019-08-10T09:00:12.995Z</time>
      </trkpt>
      <trkpt lat="44.57401" lon="1.79748">
        <ele>285</ele>
        <time>2019-08-10T09:00:17.999Z</time>
      </trkpt>
      <trkpt lat="44.57404" lon="1.79756">
        <ele>289</ele>
        <time>2019-08-10T09:00:23.001Z</time>
      </trkpt>
      <trkpt lat="44.57407" lon="1.79765">
        <ele>288</ele>
        <time>2019-08-10T09:00:27.994Z</time>
      </trkpt>
      <trkpt lat="44.57411" lon="1.79774">
        <ele>288</ele>
        <time>2019-08-10T09:00:32.992Z</time>
      </trkpt>
      <trkpt lat="44.57413" lon="1.7978">
        <ele>288</ele>
        <time>2019-08-10T09:00:37.998Z</time>
      </trkpt>
      <trkpt lat="44.57416" lon="1.79787">
        <ele>288</ele>
        <time>2019-08-10T09:00:42.998Z</time>
      </trkpt>
      <trkpt lat="44.57417" lon="1.79797">
        <ele>288</ele>
        <time>2019-08-10T09:00:47.992Z</time>
      </trkpt>
      <trkpt lat="44.57419" lon="1.79806">
        <ele>288</ele>
        <time>2019-08-10T09:00:52.995Z</time>
      </trkpt>
      <trkpt lat="44.5742" lon="1.79814">
        <ele>288</ele>
        <time>2019-08-10T09:00:57.989Z</time>
      </trkpt>
      <trkpt lat="44.57422" lon="1.7982">
        <ele>287</ele>
        <time>2019-08-10T09:01:02.998Z</time>
      </trkpt>
      <trkpt lat="44.57424" lon="1.79827">
        <ele>287</ele>
        <time>2019-08-10T09:01:07.987Z</time>
      </trkpt>
      <trkpt lat="44.57424" lon="1.79837">
        <ele>287</ele>
        <time>2019-08-10T09:01:12.993Z</time>
      </trkpt>
      <trkpt lat="44.57427" lon="1.79845">
        <ele>287</ele>
        <time>2019-08-10T09:01:17.995Z</time>
      </trkpt>
      <trkpt lat="44.57427" lon="1.79848">
        <ele>285</ele>
        <time>2019-08-10T09:01:22.999Z</time>
      </trkpt>
      <trkpt lat="44.57427" lon="1.7985">
        <ele>285</ele>
        <time>2019-08-10T09:01:27.997Z</time>
      </trkpt>
      <trkpt lat="44.57428" lon="1.79859">
        <ele>285</ele>
        <time>2019-08-10T09:01:32.989Z</time>
      </trkpt>
      <trkpt lat="44.57429" lon="1.79871">
        <ele>285</ele>
        <time>2019-08-10T09:01:37.992Z</time>
      </trkpt>
      <trkpt lat="44.57432" lon="1.7988">
        <ele>290</ele>
        <time>2019-08-10T09:01:42.994Z</time>
      </trkpt>
      <trkpt lat="44.57434" lon="1.79888">
        <ele>290</ele>
        <time>2019-08-10T09:01:47.996Z</time>
      </trkpt>
      <trkpt lat="44.57436" lon="1.79898">
        <ele>290</ele>
        <time>2019-08-10T09:01:52.999Z</time>
      </trkpt>
      <trkpt lat="44.57436" lon="1.79907">
        <ele>291</ele>
        <time>2019-08-10T09:01:57.999Z</time>
      </trkpt>
      <trkpt lat="44.57437" lon="1.79914">
        <ele>291</ele>
        <time>2019-08-10T09:02:02.996Z</time>
      </trkpt>
      <trkpt lat="44.5744" lon="1.79924">
        <ele>291</ele>
        <time>2019-08-10T09:02:07.995Z</time>
      </trkpt>
      <trkpt lat="44.57441" lon="1.79936">
        <ele>291</ele>
        <time>2019-08-10T09:02:12.997Z</time>
      </trkpt>
      <trkpt lat="44.57442" lon="1.79946">
        <ele>291</ele>
        <time>2019-08-10T09:02:17.996Z</time>
      </trkpt>
      <trkpt lat="44.57445" lon="1.79954">
        <ele>291</ele>
        <time>2019-08-10T09:02:22.996Z</time>
      </trkpt>
      <trkpt lat="44.57448" lon="1.79962">
        <ele>291</ele>
        <time>2019-08-10T09:02:28.002Z</time>
      </trkpt>
      <trkpt lat="44.5745" lon="1.79969">
        <ele>291</ele>
        <time>2019-08-10T09:02:32.998Z</time>
      </trkpt>
      <trkpt lat="44.57454" lon="1.79977">
        <ele>291</ele>
        <time>2019-08-10T09:02:37.992Z</time>
      </trkpt>
      <trkpt lat="44.57457" lon="1.79984">
        <ele>291</ele>
        <time>2019-08-10T09:02:43.001Z</time>
      </trkpt>
      <trkpt lat="44.5746" lon="1.79991">
        <ele>293</ele>
        <time>2019-08-10T09:02:47.996Z</time>
      </trkpt>
      <trkpt lat="44.57465" lon="1.79996">
        <ele>293</ele>
        <time>2019-08-10T09:02:52.994Z</time>
      </trkpt>
      <trkpt lat="44.57467" lon="1.80001">
        <ele>293</ele>
        <time>2019-08-10T09:02:57.996Z</time>
      </trkpt>
      <trkpt lat="44.57471" lon="1.80007">
        <ele>293</ele>
        <time>2019-08-10T09:03:02.994Z</time>
      </trkpt>
      <trkpt lat="44.57473" lon="1.80011">
        <ele>293</ele>
        <time>2019-08-10T09:03:07.987Z</time>
      </trkpt>
      <trkpt lat="44.57476" lon="1.80016">
        <ele>294</ele>
        <time>2019-08-10T09:03:12.993Z</time>
      </trkpt>
      <trkpt lat="44.5748" lon="1.80026">
        <ele>294</ele>
        <time>2019-08-10T09:03:17.995Z</time>
      </trkpt>
      <trkpt lat="44.57484" lon="1.80034">
        <ele>294</ele>
        <time>2019-08-10T09:03:22.995Z</time>
      </trkpt>
      <trkpt lat="44.57486" lon="1.8004">
        <ele>294</ele>
        <time>2019-08-10T09:03:28.001Z</time>
      </trkpt>
      <trkpt lat="44.57487" lon="1.80046">
        <ele>295</ele>
        <time>2019-08-10T09:03:32.990Z</time>
      </trkpt>
      <trkpt lat="44.57493" lon="1.80058">
        <ele>295</ele>
        <time>2019-08-10T09:03:37.990Z</time>
      </trkpt>
      <trkpt lat="44.57499" lon="1.80064">
        <ele>295</ele>
        <time>2019-08-10T09:03:42.999Z</time>
      </trkpt>
      <trkpt lat="44.57502" lon="1.8007">
        <ele>295</ele>
        <time>2019-08-10T09:03:47.996Z</time>
      </trkpt>
      <trkpt lat="44.57507" lon="1.80082">
        <ele>295</ele>
        <time>2019-08-10T09:03:52.997Z</time>
      </trkpt>
      <trkpt lat="44.57509" lon="1.8009">
        <ele>295</ele>
        <time>2019-08-10T09:03:57.997Z</time>
      </trkpt>
      <trkpt lat="44.57514" lon="1.80097">
        <ele>295</ele>
        <time>2019-08-10T09:04:02.994Z</time>
      </trkpt>
      <trkpt lat="44.57518" lon="1.80109">
        <ele>297</ele>
        <time>2019-08-10T09:04:07.991Z</time>
      </trkpt>
      <trkpt lat="44.57521" lon="1.80118">
        <ele>297</ele>
        <time>2019-08-10T09:04:12.992Z</time>
      </trkpt>
      <trkpt lat="44.57523" lon="1.80128">
        <ele>296</ele>
        <time>2019-08-10T09:04:17.995Z</time>
      </trkpt>
      <trkpt lat="44.5753" lon="1.80136">
        <ele>296</ele>
        <time>2019-08-10T09:04:22.992Z</time>
      </trkpt>
      <trkpt lat="44.57535" lon="1.80144">
        <ele>296</ele>
        <time>2019-08-10T09:04:27.996Z</time>
      </trkpt>
      <trkpt lat="44.57539" lon="1.80152">
        <ele>296</ele>
        <time>2019-08-10T09:04:32.992Z</time>
      </trkpt>
      <trkpt lat="44.57543" lon="1.80159">
        <ele>300</ele>
        <time>2019-08-10T09:04:37.985Z</time>
      </trkpt>
      <trkpt lat="44.57547" lon="1.80167">
        <ele>300</ele>
        <time>2019-08-10T09:04:43.001Z</time>
      </trkpt>
      <trkpt lat="44.57552" lon="1.80177">
        <ele>300</ele>
        <time>2019-08-10T09:04:47.992Z</time>
      </trkpt>
      <trkpt lat="44.57554" lon="1.80182">
        <ele>301</ele>
        <time>2019-08-10T09:04:52.992Z</time>
      </trkpt>
      <trkpt lat="44.57557" lon="1.8019">
        <ele>301</ele>
        <time>2019-08-10T09:04:57.990Z</time>
      </trkpt>
      <trkpt lat="44.57559" lon="1.80201">
        <ele>301</ele>
        <time>2019-08-10T09:05:02.995Z</time>
      </trkpt>
      <trkpt lat="44.57561" lon="1.8021">
        <ele>301</ele>
        <time>2019-08-10T09:05:07.993Z</time>
      </trkpt>
      <trkpt lat="44.57563" lon="1.80216">
        <ele>301</ele>
        <time>2019-08-10T09:05:12.993Z</time>
      </trkpt>
      <trkpt lat="44.57566" lon="1.80225">
        <ele>301</ele>
        <time>2019-08-10T09:05:17.992Z</time>
      </trkpt>
      <trkpt lat="44.5757" lon="1.80236">
        <ele>300</ele>
        <time>2019-08-10T09:05:22.989Z</time>
      </trkpt>
      <trkpt lat="44.57574" lon="1.80246">
        <ele>300</ele>
        <time>2019-08-10T09:05:27.990Z</time>
      </trkpt>
      <trkpt lat="44.57578" lon="1.80253">
        <ele>300</ele>
        <time>2019-08-10T09:05:31.986Z</time>
      </trkpt>
      <trkpt lat="44.57581" lon="1.80259">
        <ele>300</ele>
        <time>2019-08-10T09:05:35.997Z</time>
      </trkpt>
      <trkpt lat="44.57584" lon="1.80268">
        <ele>300</ele>
        <time>2019-08-10T09:05:40.996Z</time>
      </trkpt>
      <trkpt lat="44.57586" lon="1.80278">
        <ele>300</ele>
        <time>2019-08-10T09:05:45.982Z</time>
      </trkpt>
      <trkpt lat="44.57589" lon="1.80285">
        <ele>300</ele>
        <time>2019-08-10T09:05:49.992Z</time>
      </trkpt>
      <trkpt lat="44.5759" lon="1.80291">
        <ele>300</ele>
        <time>2019-08-10T09:05:54.997Z</time>
      </trkpt>
      <trkpt lat="44.57593" lon="1.80297">
        <ele>300</ele>
        <time>2019-08-10T09:05:59.998Z</time>
      </trkpt>
      <trkpt lat="44.57597" lon="1.80304">
        <ele>300</ele>
        <time>2019-08-10T09:06:04.996Z</time>
      </trkpt>
      <trkpt lat="44.57601" lon="1.80308">
        <ele>301</ele>
        <time>2019-08-10T09:06:09.989Z</time>
      </trkpt>
      <trkpt lat="44.57605" lon="1.80316">
        <ele>301</ele>
        <time>2019-08-10T09:06:15.003Z</time>
      </trkpt>
      <trkpt lat="44.5761" lon="1.80323">
        <ele>302</ele>
        <time>2019-08-10T09:06:19.988Z</time>
      </trkpt>
      <trkpt lat="44.57611" lon="1.80331">
        <ele>302</ele>
        <time>2019-08-10T09:06:25Z</time>
      </trkpt>
      <trkpt lat="44.57613" lon="1.80342">
        <ele>302</ele>
        <time>2019-08-10T09:06:29.994Z</time>
      </trkpt>
      <trkpt lat="44.57615" lon="1.80352">
        <ele>304</ele>
        <time>2019-08-10T09:06:34.994Z</time>
      </trkpt>
      <trkpt lat="44.57618" lon="1.80362">
        <ele>304</ele>
        <time>2019-08-10T09:06:39.990Z</time>
      </trkpt>
      <trkpt lat="44.5762" lon="1.80371">
        <ele>304</ele>
        <time>2019-08-10T09:06:44.996Z</time>
      </trkpt>
      <trkpt lat="44.57621" lon="1.80374">
        <ele>304</ele>
        <time>2019-08-10T09:06:49.991Z</time>
      </trkpt>
      <trkpt lat="44.57623" lon="1.8038">
        <ele>307</ele>
        <time>2019-08-10T09:06:54.998Z</time>
      </trkpt>
      <trkpt lat="44.57625" lon="1.80387">
        <ele>307</ele>
        <time>2019-08-10T09:06:59.995Z</time>
      </trkpt>
      <trkpt lat="44.57628" lon="1.80395">
        <ele>306</ele>
        <time>2019-08-10T09:07:04.994Z</time>
      </trkpt>
      <trkpt lat="44.57632" lon="1.80403">
        <ele>307</ele>
        <time>2019-08-10T09:07:09.982Z</time>
      </trkpt>
      <trkpt lat="44.57635" lon="1.80409">
        <ele>307</ele>
        <time>2019-08-10T09:07:14.981Z</time>
      </trkpt>
      <trkpt lat="44.57639" lon="1.80416">
        <ele>307</ele>
        <time>2019-08-10T09:07:19.987Z</time>
      </trkpt>
      <trkpt lat="44.57645" lon="1.80425">
        <ele>307</ele>
        <time>2019-08-10T09:07:24.996Z</time>
      </trkpt>
      <trkpt lat="44.57649" lon="1.80436">
        <ele>308</ele>
        <time>2019-08-10T09:07:29.982Z</time>
      </trkpt>
      <trkpt lat="44.57653" lon="1.80448">
        <ele>306</ele>
        <time>2019-08-10T09:07:35Z</time>
      </trkpt>
      <trkpt lat="44.57656" lon="1.80457">
        <ele>306</ele>
        <time>2019-08-10T09:07:39.989Z</time>
      </trkpt>
      <trkpt lat="44.57658" lon="1.80466">
        <ele>308</ele>
        <time>2019-08-10T09:07:44.995Z</time>
      </trkpt>
      <trkpt lat="44.5766" lon="1.80474">
        <ele>308</ele>
        <time>2019-08-10T09:07:49.993Z</time>
      </trkpt>
      <trkpt lat="44.57666" lon="1.80489">
        <ele>309</ele>
        <time>2019-08-10T09:08:28.996Z</time>
      </trkpt>
      <trkpt lat="44.57668" lon="1.80491">
        <ele>309</ele>
        <time>2019-08-10T09:08:33.978Z</time>
      </trkpt>
      <trkpt lat="44.5767" lon="1.80497">
        <ele>309</ele>
        <time>2019-08-10T09:08:37.988Z</time>
      </trkpt>
      <trkpt lat="44.57675" lon="1.80505">
        <ele>309</ele>
        <time>2019-08-10T09:08:42.999Z</time>
      </trkpt>
      <trkpt lat="44.57678" lon="1.80512">
        <ele>309</ele>
        <time>2019-08-10T09:08:47.986Z</time>
      </trkpt>
      <trkpt lat="44.57682" lon="1.80521">
        <ele>309</ele>
        <time>2019-08-10T09:08:52.997Z</time>
      </trkpt>
      <trkpt lat="44.57685" lon="1.80527">
        <ele>309</ele>
        <time>2019-08-10T09:08:57.984Z</time>
      </trkpt>
      <trkpt lat="44.57688" lon="1.80535">
        <ele>309</ele>
        <time>2019-08-10T09:09:03.001Z</time>
      </trkpt>
      <trkpt lat="44.5769" lon="1.80541">
        <ele>309</ele>
        <time>2019-08-10T09:09:07.995Z</time>
      </trkpt>
      <trkpt lat="44.57694" lon="1.80548">
        <ele>308</ele>
        <time>2019-08-10T09:09:12.996Z</time>
      </trkpt>
      <trkpt lat="44.57698" lon="1.80555">
        <ele>308</ele>
        <time>2019-08-10T09:09:17.989Z</time>
      </trkpt>
      <trkpt lat="44.57701" lon="1.80561">
        <ele>308</ele>
        <time>2019-08-10T09:09:22.999Z</time>
      </trkpt>
      <trkpt lat="44.57704" lon="1.8057">
        <ele>308</ele>
        <time>2019-08-10T09:09:27.986Z</time>
      </trkpt>
      <trkpt lat="44.57705" lon="1.80576">
        <ele>308</ele>
        <time>2019-08-10T09:09:32.996Z</time>
      </trkpt>
      <trkpt lat="44.57707" lon="1.80584">
        <ele>308</ele>
        <time>2019-08-10T09:09:37.988Z</time>
      </trkpt>
      <trkpt lat="44.5771" lon="1.80597">
        <ele>306</ele>
        <time>2019-08-10T09:09:43.004Z</time>
      </trkpt>
      <trkpt lat="44.57712" lon="1.806">
        <ele>306</ele>
        <time>2019-08-10T09:09:47.988Z</time>
      </trkpt>
      <trkpt lat="44.57712" lon="1.806">
        <ele>306</ele>
        <time>2019-08-10T09:10:07.984Z</time>
      </trkpt>
      <trkpt lat="44.57712" lon="1.806">
        <ele>306</ele>
        <time>2019-08-10T09:10:12.996Z</time>
      </trkpt>
      <trkpt lat="44.57713" lon="1.80601">
        <ele>306</ele>
        <time>2019-08-10T09:10:17.972Z</time>
      </trkpt>
      <trkpt lat="44.57715" lon="1.80608">
        <ele>306</ele>
        <time>2019-08-10T09:10:21.988Z</time>
      </trkpt>
      <trkpt lat="44.57719" lon="1.80618">
        <ele>306</ele>
        <time>2019-08-10T09:10:27.003Z</time>
      </trkpt>
      <trkpt lat="44.57722" lon="1.80626">
        <ele>306</ele>
        <time>2019-08-10T09:10:31.984Z</time>
      </trkpt>
      <trkpt lat="44.57725" lon="1.80632">
        <ele>306</ele>
        <time>2019-08-10T09:10:36.995Z</time>
      </trkpt>
      <trkpt lat="44.57724" lon="1.80639">
        <ele>306</ele>
        <time>2019-08-10T09:10:41.987Z</time>
      </trkpt>
      <trkpt lat="44.57725" lon="1.80646">
        <ele>306</ele>
        <time>2019-08-10T09:10:46.998Z</time>
      </trkpt>
      <trkpt lat="44.57726" lon="1.80652">
        <ele>306</ele>
        <time>2019-08-10T09:10:51.983Z</time>
      </trkpt>
      <trkpt lat="44.5773" lon="1.80657">
        <ele>306</ele>
        <time>2019-08-10T09:10:57.002Z</time>
      </trkpt>
      <trkpt lat="44.57735" lon="1.80663">
        <ele>306</ele>
        <time>2019-08-10T09:11:01.989Z</time>
      </trkpt>
      <trkpt lat="44.57739" lon="1.80669">
        <ele>304</ele>
        <time>2019-08-10T09:11:07Z</time>
      </trkpt>
      <trkpt lat="44.57742" lon="1.80674">
        <ele>304</ele>
        <time>2019-08-10T09:11:10.998Z</time>
      </trkpt>
      <trkpt lat="44.57747" lon="1.80681">
        <ele>304</ele>
        <time>2019-08-10T09:11:15.980Z</time>
      </trkpt>
      <trkpt lat="44.57754" lon="1.80687">
        <ele>304</ele>
        <time>2019-08-10T09:11:20.998Z</time>
      </trkpt>
      <trkpt lat="44.57762" lon="1.80693">
        <ele>304</ele>
        <time>2019-08-10T09:11:25.985Z</time>
      </trkpt>
      <trkpt lat="44.57767" lon="1.80701">
        <ele>303</ele>
        <time>2019-08-10T09:11:30.995Z</time>
      </trkpt>
      <trkpt lat="44.57773" lon="1.8071">
        <ele>304</ele>
        <time>2019-08-10T09:11:35.983Z</time>
      </trkpt>
      <trkpt lat="44.57775" lon="1.80717">
        <ele>304</ele>
        <time>2019-08-10T09:11:41.004Z</time>
      </trkpt>
      <trkpt lat="44.57777" lon="1.80724">
        <ele>304</ele>
        <time>2019-08-10T09:11:45.991Z</time>
      </trkpt>
      <trkpt lat="44.57781" lon="1.80734">
        <ele>304</ele>
        <time>2019-08-10T09:11:51.001Z</time>
      </trkpt>
      <trkpt lat="44.57787" lon="1.8074">
        <ele>303</ele>
        <time>2019-08-10T09:11:55.986Z</time>
      </trkpt>
      <trkpt lat="44.57792" lon="1.80747">
        <ele>303</ele>
        <time>2019-08-10T09:12:00.994Z</time>
      </trkpt>
      <trkpt lat="44.57794" lon="1.80755">
        <ele>304</ele>
        <time>2019-08-10T09:12:05.981Z</time>
      </trkpt>
      <trkpt lat="44.57801" lon="1.80761">
        <ele>304</ele>
        <time>2019-08-10T09:12:10.998Z</time>
      </trkpt>
      <trkpt lat="44.57807" lon="1.8077">
        <ele>304</ele>
        <time>2019-08-10T09:12:15.987Z</time>
      </trkpt>
      <trkpt lat="44.57812" lon="1.80778">
        <ele>304</ele>
        <time>2019-08-10T09:12:20.977Z</time>
      </trkpt>
      <trkpt lat="44.57814" lon="1.80783">
        <ele>304</ele>
        <time>2019-08-10T09:12:25.001Z</time>
      </trkpt>
      <trkpt lat="44.57813" lon="1.80793">
        <ele>303</ele>
        <time>2019-08-10T09:12:29.978Z</time>
      </trkpt>
      <trkpt lat="44.57814" lon="1.80802">
        <ele>303</ele>
        <time>2019-08-10T09:12:33.989Z</time>
      </trkpt>
      <trkpt lat="44.57816" lon="1.80811">
        <ele>303</ele>
        <time>2019-08-10T09:12:38.995Z</time>
      </trkpt>
      <trkpt lat="44.57822" lon="1.80816">
        <ele>304</ele>
        <time>2019-08-10T09:12:43.985Z</time>
      </trkpt>
      <trkpt lat="44.57828" lon="1.80821">
        <ele>302</ele>
        <time>2019-08-10T09:12:49.001Z</time>
      </trkpt>
      <trkpt lat="44.57833" lon="1.80828">
        <ele>302</ele>
        <time>2019-08-10T09:12:53.988Z</time>
      </trkpt>
      <trkpt lat="44.57838" lon="1.8083">
        <ele>302</ele>
        <time>2019-08-10T09:12:58.998Z</time>
      </trkpt>
      <trkpt lat="44.57844" lon="1.80838">
        <ele>302</ele>
        <time>2019-08-10T09:13:03.983Z</time>
      </trkpt>
      <trkpt lat="44.57849" lon="1.80845">
        <ele>303</ele>
        <time>2019-08-10T09:13:08.984Z</time>
      </trkpt>
      <trkpt lat="44.57853" lon="1.8085">
        <ele>303</ele>
        <time>2019-08-10T09:13:13.984Z</time>
      </trkpt>
      <trkpt lat="44.57858" lon="1.80856">
        <ele>303</ele>
        <time>2019-08-10T09:13:19.006Z</time>
      </trkpt>
      <trkpt lat="44.57864" lon="1.80862">
        <ele>303</ele>
        <time>2019-08-10T09:13:23.987Z</time>
      </trkpt>
      <trkpt lat="44.57869" lon="1.80869">
        <ele>303</ele>
        <time>2019-08-10T09:13:28.981Z</time>
      </trkpt>
      <trkpt lat="44.57873" lon="1.80874">
        <ele>303</ele>
        <time>2019-08-10T09:13:33Z</time>
      </trkpt>
      <trkpt lat="44.57879" lon="1.80881">
        <ele>304</ele>
        <time>2019-08-10T09:13:37.988Z</time>
      </trkpt>
      <trkpt lat="44.57883" lon="1.80884">
        <ele>304</ele>
        <time>2019-08-10T09:13:42.996Z</time>
      </trkpt>
      <trkpt lat="44.57887" lon="1.80888">
        <ele>304</ele>
        <time>2019-08-10T09:13:47.991Z</time>
      </trkpt>
      <trkpt lat="44.57892" lon="1.80895">
        <ele>304</ele>
        <time>2019-08-10T09:13:52.997Z</time>
      </trkpt>
      <trkpt lat="44.57896" lon="1.80899">
        <ele>304</ele>
        <time>2019-08-10T09:13:57.984Z</time>
      </trkpt>
      <trkpt lat="44.57901" lon="1.80902">
        <ele>304</ele>
        <time>2019-08-10T09:14:02.997Z</time>
      </trkpt>
      <trkpt lat="44.57909" lon="1.80906">
        <ele>306</ele>
        <time>2019-08-10T09:14:07.991Z</time>
      </trkpt>
      <trkpt lat="44.57916" lon="1.80912">
        <ele>306</ele>
        <time>2019-08-10T09:14:13.002Z</time>
      </trkpt>
      <trkpt lat="44.57921" lon="1.80915">
        <ele>306</ele>
        <time>2019-08-10T09:14:17.987Z</time>
      </trkpt>
      <trkpt lat="44.57927" lon="1.8092">
        <ele>306</ele>
        <time>2019-08-10T09:14:23.003Z</time>
      </trkpt>
      <trkpt lat="44.57934" lon="1.80926">
        <ele>307</ele>
        <time>2019-08-10T09:14:27.985Z</time>
      </trkpt>
      <trkpt lat="44.57939" lon="1.80929">
        <ele>307</ele>
        <time>2019-08-10T09:14:31.992Z</time>
      </trkpt>
      <trkpt lat="44.57947" lon="1.80934">
        <ele>309</ele>
        <time>2019-08-10T09:14:36.981Z</time>
      </trkpt>
      <trkpt lat="44.57952" lon="1.80938">
        <ele>309</ele>
        <time>2019-08-10T09:14:40.997Z</time>
      </trkpt>
      <trkpt lat="44.57957" lon="1.80942">
        <ele>309</ele>
        <time>2019-08-10T09:14:45.984Z</time>
      </trkpt>
      <trkpt lat="44.57962" lon="1.80947">
        <ele>309</ele>
        <time>2019-08-10T09:14:50.995Z</time>
      </trkpt>
      <trkpt lat="44.57969" lon="1.80953">
        <ele>309</ele>
        <time>2019-08-10T09:14:55.988Z</time>
      </trkpt>
      <trkpt lat="44.57975" lon="1.8096">
        <ele>310</ele>
        <time>2019-08-10T09:15:01.002Z</time>
      </trkpt>
      <trkpt lat="44.57981" lon="1.80966">
        <ele>310</ele>
        <time>2019-08-10T09:15:05.983Z</time>
      </trkpt>
      <trkpt lat="44.57984" lon="1.80968">
        <ele>310</ele>
        <time>2019-08-10T09:15:09.989Z</time>
      </trkpt>
      <trkpt lat="44.57987" lon="1.80972">
        <ele>310</ele>
        <time>2019-08-10T09:15:13.991Z</time>
      </trkpt>
      <trkpt lat="44.57993" lon="1.80978">
        <ele>310</ele>
        <time>2019-08-10T09:15:18.998Z</time>
      </trkpt>
      <trkpt lat="44.57998" lon="1.80985">
        <ele>310</ele>
        <time>2019-08-10T09:15:23.985Z</time>
      </trkpt>
      <trkpt lat="44.58004" lon="1.80991">
        <ele>311</ele>
        <time>2019-08-10T09:15:29.001Z</time>
      </trkpt>
      <trkpt lat="44.58008" lon="1.80999">
        <ele>311</ele>
        <time>2019-08-10T09:15:33.980Z</time>
      </trkpt>
      <trkpt lat="44.58012" lon="1.81006">
        <ele>311</ele>
        <time>2019-08-10T09:15:38.997Z</time>
      </trkpt>
      <trkpt lat="44.58016" lon="1.81014">
        <ele>313</ele>
        <time>2019-08-10T09:15:43.990Z</time>
      </trkpt>
      <trkpt lat="44.58021" lon="1.81021">
        <ele>315</ele>
        <time>2019-08-10T09:15:49.002Z</time>
      </trkpt>
      <trkpt lat="44.58023" lon="1.81027">
        <ele>315</ele>
        <time>2019-08-10T09:15:53.987Z</time>
      </trkpt>
      <trkpt lat="44.58025" lon="1.81035">
        <ele>315</ele>
        <time>2019-08-10T09:15:59.001Z</time>
      </trkpt>
      <trkpt lat="44.58032" lon="1.81046">
        <ele>316</ele>
        <time>2019-08-10T09:16:03.991Z</time>
      </trkpt>
      <trkpt lat="44.58043" lon="1.8106">
        <ele>317</ele>
        <time>2019-08-10T09:16:09Z</time>
      </trkpt>
      <trkpt lat="44.58058" lon="1.81081">
        <ele>319</ele>
        <time>2019-08-10T09:16:13.992Z</time>
      </trkpt>
      <trkpt lat="44.58077" lon="1.81104">
        <ele>322</ele>
        <time>2019-08-10T09:16:18.994Z</time>
      </trkpt>
      <trkpt lat="44.58088" lon="1.81115">
        <ele>322</ele>
        <time>2019-08-10T09:16:23.986Z</time>
      </trkpt>
      <trkpt lat="44.58095" lon="1.81134">
        <ele>323</ele>
        <time>2019-08-10T09:16:27.990Z</time>
      </trkpt>
      <trkpt lat="44.58118" lon="1.81168">
        <ele>327</ele>
        <time>2019-08-10T09:16:32.996Z</time>
      </trkpt>
      <trkpt lat="44.58126" lon="1.81184">
        <ele>331</ele>
        <time>2019-08-10T09:16:37.983Z</time>
      </trkpt>
      <trkpt lat="44.58132" lon="1.8119">
        <ele>331</ele>
        <time>2019-08-10T09:16:41.990Z</time>
      </trkpt>
      <trkpt lat="44.58138" lon="1.81198">
        <ele>331</ele>
        <time>2019-08-10T09:16:47.001Z</time>
      </trkpt>
      <trkpt lat="44.58139" lon="1.812">
        <ele>331</ele>
        <time>2019-08-10T09:16:51.990Z</time>
      </trkpt>
      <trkpt lat="44.58142" lon="1.81205">
        <ele>331</ele>
        <time>2019-08-10T09:16:57Z</time>
      </trkpt>
      <trkpt lat="44.58146" lon="1.81214">
        <ele>329</ele>
        <time>2019-08-10T09:17:01.991Z</time>
      </trkpt>
      <trkpt lat="44.58152" lon="1.81218">
        <ele>329</ele>
        <time>2019-08-10T09:17:07.004Z</time>
      </trkpt>
      <trkpt lat="44.58158" lon="1.81222">
        <ele>332</ele>
        <time>2019-08-10T09:17:11.986Z</time>
      </trkpt>
      <trkpt lat="44.58165" lon="1.81229">
        <ele>332</ele>
        <time>2019-08-10T09:17:16.996Z</time>
      </trkpt>
      <trkpt lat="44.58172" lon="1.81238">
        <ele>329</ele>
        <time>2019-08-10T09:17:21.990Z</time>
      </trkpt>
      <trkpt lat="44.58177" lon="1.81243">
        <ele>329</ele>
        <time>2019-08-10T09:17:25.988Z</time>
      </trkpt>
      <trkpt lat="44.58182" lon="1.8125">
        <ele>333</ele>
        <time>2019-08-10T09:17:30.998Z</time>
      </trkpt>
      <trkpt lat="44.58186" lon="1.81258">
        <ele>333</ele>
        <time>2019-08-10T09:17:35.990Z</time>
      </trkpt>
      <trkpt lat="44.5819" lon="1.81264">
        <ele>330</ele>
        <time>2019-08-10T09:17:39.989Z</time>
      </trkpt>
      <trkpt lat="44.58194" lon="1.8127">
        <ele>330</ele>
        <time>2019-08-10T09:17:44.998Z</time>
      </trkpt>
      <trkpt lat="44.58196" lon="1.81277">
        <ele>330</ele>
        <time>2019-08-10T09:17:49.984Z</time>
      </trkpt>
      <trkpt lat="44.58197" lon="1.81284">
        <ele>330</ele>
        <time>2019-08-10T09:17:55.001Z</time>
      </trkpt>
      <trkpt lat="44.582" lon="1.81289">
        <ele>330</ele>
        <time>2019-08-10T09:17:59.981Z</time>
      </trkpt>
      <trkpt lat="44.58204" lon="1.81296">
        <ele>325</ele>
        <time>2019-08-10T09:18:05.002Z</time>
      </trkpt>
      <trkpt lat="44.58208" lon="1.81301">
        <ele>325</ele>
        <time>2019-08-10T09:18:09.991Z</time>
      </trkpt>
      <trkpt lat="44.58212" lon="1.81306">
        <ele>328</ele>
        <time>2019-08-10T09:18:15.004Z</time>
      </trkpt>
      <trkpt lat="44.58217" lon="1.81308">
        <ele>328</ele>
        <time>2019-08-10T09:18:19.981Z</time>
      </trkpt>
      <trkpt lat="44.58218" lon="1.8131">
        <ele>328</ele>
        <time>2019-08-10T09:18:23.988Z</time>
      </trkpt>
      <trkpt lat="44.58219" lon="1.81313">
        <ele>328</ele>
        <time>2019-08-10T09:18:27.986Z</time>
      </trkpt>
      <trkpt lat="44.58222" lon="1.81314">
        <ele>328</ele>
        <time>2019-08-10T09:18:32.994Z</time>
      </trkpt>
      <trkpt lat="44.58225" lon="1.81318">
        <ele>328</ele>
        <time>2019-08-10T09:18:36.999Z</time>
      </trkpt>
      <trkpt lat="44.58227" lon="1.81325">
        <ele>323</ele>
        <time>2019-08-10T09:18:41.994Z</time>
      </trkpt>
      <trkpt lat="44.58233" lon="1.81332">
        <ele>323</ele>
        <time>2019-08-10T09:18:46.998Z</time>
      </trkpt>
      <trkpt lat="44.58239" lon="1.81337">
        <ele>325</ele>
        <time>2019-08-10T09:18:51.999Z</time>
      </trkpt>
      <trkpt lat="44.58244" lon="1.81343">
        <ele>325</ele>
        <time>2019-08-10T09:18:56.997Z</time>
      </trkpt>
      <trkpt lat="44.5825" lon="1.8135">
        <ele>321</ele>
        <time>2019-08-10T09:19:02.002Z</time>
      </trkpt>
      <trkpt lat="44.58254" lon="1.81356">
        <ele>321</ele>
        <time>2019-08-10T09:19:07.003Z</time>
      </trkpt>
      <trkpt lat="44.58257" lon="1.8136">
        <ele>321</ele>
        <time>2019-08-10T09:19:11.998Z</time>
      </trkpt>
      <trkpt lat="44.58262" lon="1.81366">
        <ele>321</ele>
        <time>2019-08-10T09:19:17.002Z</time>
      </trkpt>
      <trkpt lat="44.58267" lon="1.81372">
        <ele>323</ele>
        <time>2019-08-10T09:19:22.004Z</time>
      </trkpt>
      <trkpt lat="44.5827" lon="1.81379">
        <ele>320</ele>
        <time>2019-08-10T09:19:27.003Z</time>
      </trkpt>
      <trkpt lat="44.58275" lon="1.81385">
        <ele>320</ele>
        <time>2019-08-10T09:19:31.999Z</time>
      </trkpt>
      <trkpt lat="44.5828" lon="1.81392">
        <ele>320</ele>
        <time>2019-08-10T09:19:37Z</time>
      </trkpt>
      <trkpt lat="44.58285" lon="1.81396">
        <ele>320</ele>
        <time>2019-08-10T09:19:42.004Z</time>
      </trkpt>
      <trkpt lat="44.5829" lon="1.81406">
        <ele>317</ele>
        <time>2019-08-10T09:19:47.002Z</time>
      </trkpt>
      <trkpt lat="44.58299" lon="1.81412">
        <ele>320</ele>
        <time>2019-08-10T09:19:51.998Z</time>
      </trkpt>
      <trkpt lat="44.58306" lon="1.8142">
        <ele>320</ele>
        <time>2019-08-10T09:19:56.992Z</time>
      </trkpt>
      <trkpt lat="44.58311" lon="1.81427">
        <ele>320</ele>
        <time>2019-08-10T09:20:01.999Z</time>
      </trkpt>
      <trkpt lat="44.58317" lon="1.81436">
        <ele>318</ele>
        <time>2019-08-10T09:20:06.983Z</time>
      </trkpt>
      <trkpt lat="44.58321" lon="1.81441">
        <ele>321</ele>
        <time>2019-08-10T09:20:10.998Z</time>
      </trkpt>
      <trkpt lat="44.58328" lon="1.81449">
        <ele>321</ele>
        <time>2019-08-10T09:20:15.993Z</time>
      </trkpt>
      <trkpt lat="44.58333" lon="1.81457">
        <ele>321</ele>
        <time>2019-08-10T09:20:20.997Z</time>
      </trkpt>
      <trkpt lat="44.58336" lon="1.81462">
        <ele>320</ele>
        <time>2019-08-10T09:20:25.995Z</time>
      </trkpt>
      <trkpt lat="44.58339" lon="1.81468">
        <ele>320</ele>
        <time>2019-08-10T09:20:30.997Z</time>
      </trkpt>
      <trkpt lat="44.58343" lon="1.81476">
        <ele>320</ele>
        <time>2019-08-10T09:20:35.996Z</time>
      </trkpt>
      <trkpt lat="44.58347" lon="1.8148">
        <ele>320</ele>
        <time>2019-08-10T09:20:39.996Z</time>
      </trkpt>
      <trkpt lat="44.58353" lon="1.81483">
        <ele>324</ele>
        <time>2019-08-10T09:20:45.003Z</time>
      </trkpt>
      <trkpt lat="44.58359" lon="1.81496">
        <ele>323</ele>
        <time>2019-08-10T09:20:49.992Z</time>
      </trkpt>
      <trkpt lat="44.58363" lon="1.81503">
        <ele>323</ele>
        <time>2019-08-10T09:20:54.999Z</time>
      </trkpt>
      <trkpt lat="44.58367" lon="1.81507">
        <ele>323</ele>
        <time>2019-08-10T09:20:59.997Z</time>
      </trkpt>
      <trkpt lat="44.58371" lon="1.81517">
        <ele>323</ele>
        <time>2019-08-10T09:21:04.997Z</time>
      </trkpt>
      <trkpt lat="44.58377" lon="1.81523">
        <ele>324</ele>
        <time>2019-08-10T09:21:09.999Z</time>
      </trkpt>
      <trkpt lat="44.58385" lon="1.81529">
        <ele>324</ele>
        <time>2019-08-10T09:21:14.987Z</time>
      </trkpt>
      <trkpt lat="44.58391" lon="1.81536">
        <ele>324</ele>
        <time>2019-08-10T09:21:18.995Z</time>
      </trkpt>
      <trkpt lat="44.58399" lon="1.81539">
        <ele>324</ele>
        <time>2019-08-10T09:21:24.002Z</time>
      </trkpt>
      <trkpt lat="44.58404" lon="1.81547">
        <ele>326</ele>
        <time>2019-08-10T09:21:29.002Z</time>
      </trkpt>
      <trkpt lat="44.58411" lon="1.81551">
        <ele>326</ele>
        <time>2019-08-10T09:21:33.997Z</time>
      </trkpt>
      <trkpt lat="44.58417" lon="1.81558">
        <ele>326</ele>
        <time>2019-08-10T09:21:38.977Z</time>
      </trkpt>
      <trkpt lat="44.58422" lon="1.81563">
        <ele>326</ele>
        <time>2019-08-10T09:21:43.003Z</time>
      </trkpt>
      <trkpt lat="44.58427" lon="1.81569">
        <ele>326</ele>
        <time>2019-08-10T09:21:48.003Z</time>
      </trkpt>
      <trkpt lat="44.58435" lon="1.81572">
        <ele>327</ele>
        <time>2019-08-10T09:21:53.001Z</time>
      </trkpt>
      <trkpt lat="44.58442" lon="1.81576">
        <ele>327</ele>
        <time>2019-08-10T09:21:58.001Z</time>
      </trkpt>
      <trkpt lat="44.5845" lon="1.81582">
        <ele>327</ele>
        <time>2019-08-10T09:22:02.995Z</time>
      </trkpt>
      <trkpt lat="44.58456" lon="1.81588">
        <ele>327</ele>
        <time>2019-08-10T09:22:07.006Z</time>
      </trkpt>
      <trkpt lat="44.58462" lon="1.81594">
        <ele>325</ele>
        <time>2019-08-10T09:22:11.999Z</time>
      </trkpt>
      <trkpt lat="44.58468" lon="1.81599">
        <ele>326</ele>
        <time>2019-08-10T09:22:17.001Z</time>
      </trkpt>
      <trkpt lat="44.58475" lon="1.81603">
        <ele>326</ele>
        <time>2019-08-10T09:22:21.999Z</time>
      </trkpt>
      <trkpt lat="44.58481" lon="1.81611">
        <ele>326</ele>
        <time>2019-08-10T09:22:26.996Z</time>
      </trkpt>
      <trkpt lat="44.58485" lon="1.81619">
        <ele>326</ele>
        <time>2019-08-10T09:22:32.002Z</time>
      </trkpt>
      <trkpt lat="44.58493" lon="1.81628">
        <ele>327</ele>
        <time>2019-08-10T09:22:37.002Z</time>
      </trkpt>
      <trkpt lat="44.58498" lon="1.81637">
        <ele>327</ele>
        <time>2019-08-10T09:22:42.002Z</time>
      </trkpt>
      <trkpt lat="44.58505" lon="1.81642">
        <ele>327</ele>
        <time>2019-08-10T09:22:47.003Z</time>
      </trkpt>
      <trkpt lat="44.5851" lon="1.81646">
        <ele>327</ele>
        <time>2019-08-10T09:22:52Z</time>
      </trkpt>
      <trkpt lat="44.58513" lon="1.81657">
        <ele>328</ele>
        <time>2019-08-10T09:22:56.999Z</time>
      </trkpt>
      <trkpt lat="44.58516" lon="1.81667">
        <ele>329</ele>
        <time>2019-08-10T09:23:02.004Z</time>
      </trkpt>
      <trkpt lat="44.58522" lon="1.81672">
        <ele>329</ele>
        <time>2019-08-10T09:23:07Z</time>
      </trkpt>
      <trkpt lat="44.58528" lon="1.81677">
        <ele>329</ele>
        <time>2019-08-10T09:23:12Z</time>
      </trkpt>
      <trkpt lat="44.58535" lon="1.81681">
        <ele>330</ele>
        <time>2019-08-10T09:23:17Z</time>
      </trkpt>
      <trkpt lat="44.58542" lon="1.81687">
        <ele>331</ele>
        <time>2019-08-10T09:23:21.999Z</time>
      </trkpt>
      <trkpt lat="44.58548" lon="1.8169">
        <ele>331</ele>
        <time>2019-08-10T09:23:27.001Z</time>
      </trkpt>
      <trkpt lat="44.58559" lon="1.81698">
        <ele>331</ele>
        <time>2019-08-10T09:23:31.999Z</time>
      </trkpt>
      <trkpt lat="44.58568" lon="1.81703">
        <ele>331</ele>
        <time>2019-08-10T09:23:36.997Z</time>
      </trkpt>
      <trkpt lat="44.58576" lon="1.81709">
        <ele>333</ele>
        <time>2019-08-10T09:23:42Z</time>
      </trkpt>
      <trkpt lat="44.58585" lon="1.81712">
        <ele>333</ele>
        <time>2019-08-10T09:23:46.996Z</time>
      </trkpt>
      <trkpt lat="44.58592" lon="1.81716">
        <ele>333</ele>
        <time>2019-08-10T09:23:51.999Z</time>
      </trkpt>
      <trkpt lat="44.586" lon="1.8172">
        <ele>330</ele>
        <time>2019-08-10T09:23:56.999Z</time>
      </trkpt>
      <trkpt lat="44.58605" lon="1.81726">
        <ele>330</ele>
        <time>2019-08-10T09:24:02Z</time>
      </trkpt>
      <trkpt lat="44.58613" lon="1.81727">
        <ele>330</ele>
        <time>2019-08-10T09:24:07.003Z</time>
      </trkpt>
      <trkpt lat="44.58619" lon="1.81731">
        <ele>330</ele>
        <time>2019-08-10T09:24:11.990Z</time>
      </trkpt>
      <trkpt lat="44.58623" lon="1.81733">
        <ele>330</ele>
        <time>2019-08-10T09:24:16.006Z</time>
      </trkpt>
      <trkpt lat="44.58632" lon="1.81737">
        <ele>330</ele>
        <time>2019-08-10T09:24:20.997Z</time>
      </trkpt>
      <trkpt lat="44.5864" lon="1.8174">
        <ele>330</ele>
        <time>2019-08-10T09:24:26.001Z</time>
      </trkpt>
      <trkpt lat="44.58646" lon="1.81744">
        <ele>330</ele>
        <time>2019-08-10T09:24:31Z</time>
      </trkpt>
      <trkpt lat="44.58651" lon="1.81747">
        <ele>330</ele>
        <time>2019-08-10T09:24:36.003Z</time>
      </trkpt>
      <trkpt lat="44.58658" lon="1.81748">
        <ele>329</ele>
        <time>2019-08-10T09:24:40.995Z</time>
      </trkpt>
      <trkpt lat="44.58665" lon="1.81756">
        <ele>329</ele>
        <time>2019-08-10T09:24:45.978Z</time>
      </trkpt>
      <trkpt lat="44.58674" lon="1.8177">
        <ele>331</ele>
        <time>2019-08-10T09:24:50.997Z</time>
      </trkpt>
      <trkpt lat="44.58683" lon="1.81778">
        <ele>330</ele>
        <time>2019-08-10T09:24:55.996Z</time>
      </trkpt>
      <trkpt lat="44.5869" lon="1.81785">
        <ele>330</ele>
        <time>2019-08-10T09:25:00.980Z</time>
      </trkpt>
      <trkpt lat="44.58697" lon="1.81795">
        <ele>331</ele>
        <time>2019-08-10T09:25:05.978Z</time>
      </trkpt>
      <trkpt lat="44.58704" lon="1.81801">
        <ele>331</ele>
        <time>2019-08-10T09:25:09.989Z</time>
      </trkpt>
      <trkpt lat="44.58706" lon="1.81804">
        <ele>331</ele>
        <time>2019-08-10T09:25:14.002Z</time>
      </trkpt>
      <trkpt lat="44.58713" lon="1.81809">
        <ele>330</ele>
        <time>2019-08-10T09:25:19.003Z</time>
      </trkpt>
      <trkpt lat="44.58717" lon="1.81814">
        <ele>330</ele>
        <time>2019-08-10T09:25:23.997Z</time>
      </trkpt>
      <trkpt lat="44.58722" lon="1.81823">
        <ele>330</ele>
        <time>2019-08-10T09:25:29.002Z</time>
      </trkpt>
      <trkpt lat="44.58727" lon="1.81834">
        <ele>330</ele>
        <time>2019-08-10T09:25:34.002Z</time>
      </trkpt>
      <trkpt lat="44.58733" lon="1.81841">
        <ele>330</ele>
        <time>2019-08-10T09:25:39.003Z</time>
      </trkpt>
      <trkpt lat="44.5874" lon="1.81845">
        <ele>330</ele>
        <time>2019-08-10T09:25:43.999Z</time>
      </trkpt>
      <trkpt lat="44.58747" lon="1.81847">
        <ele>331</ele>
        <time>2019-08-10T09:25:48.999Z</time>
      </trkpt>
      <trkpt lat="44.58755" lon="1.81849">
        <ele>331</ele>
        <time>2019-08-10T09:25:53.997Z</time>
      </trkpt>
      <trkpt lat="44.58764" lon="1.81848">
        <ele>331</ele>
        <time>2019-08-10T09:25:58.998Z</time>
      </trkpt>
      <trkpt lat="44.5877" lon="1.81849">
        <ele>333</ele>
        <time>2019-08-10T09:26:03.999Z</time>
      </trkpt>
      <trkpt lat="44.58778" lon="1.81853">
        <ele>333</ele>
        <time>2019-08-10T09:26:08.997Z</time>
      </trkpt>
      <trkpt lat="44.58785" lon="1.81859">
        <ele>333</ele>
        <time>2019-08-10T09:26:13.995Z</time>
      </trkpt>
      <trkpt lat="44.58792" lon="1.81861">
        <ele>334</ele>
        <time>2019-08-10T09:26:19.001Z</time>
      </trkpt>
      <trkpt lat="44.58799" lon="1.81862">
        <ele>334</ele>
        <time>2019-08-10T09:26:23.999Z</time>
      </trkpt>
      <trkpt lat="44.58804" lon="1.81866">
        <ele>334</ele>
        <time>2019-08-10T09:26:28.998Z</time>
      </trkpt>
      <trkpt lat="44.58811" lon="1.81875">
        <ele>335</ele>
        <time>2019-08-10T09:26:34Z</time>
      </trkpt>
      <trkpt lat="44.58817" lon="1.81879">
        <ele>335</ele>
        <time>2019-08-10T09:26:39Z</time>
      </trkpt>
      <trkpt lat="44.58825" lon="1.81881">
        <ele>333</ele>
        <time>2019-08-10T09:26:44.002Z</time>
      </trkpt>
      <trkpt lat="44.58831" lon="1.81887">
        <ele>333</ele>
        <time>2019-08-10T09:26:48.998Z</time>
      </trkpt>
      <trkpt lat="44.58843" lon="1.81893">
        <ele>333</ele>
        <time>2019-08-10T09:26:54.001Z</time>
      </trkpt>
      <trkpt lat="44.5886" lon="1.81898">
        <ele>332</ele>
        <time>2019-08-10T09:26:58.999Z</time>
      </trkpt>
      <trkpt lat="44.58885" lon="1.81897">
        <ele>333</ele>
        <time>2019-08-10T09:27:04.003Z</time>
      </trkpt>
      <trkpt lat="44.5891" lon="1.81903">
        <ele>336</ele>
        <time>2019-08-10T09:27:09.007Z</time>
      </trkpt>
      <trkpt lat="44.58928" lon="1.81904">
        <ele>336</ele>
        <time>2019-08-10T09:27:14.003Z</time>
      </trkpt>
      <trkpt lat="44.58949" lon="1.81913">
        <ele>335</ele>
        <time>2019-08-10T09:27:18.998Z</time>
      </trkpt>
      <trkpt lat="44.58963" lon="1.81917">
        <ele>336</ele>
        <time>2019-08-10T09:27:23.998Z</time>
      </trkpt>
      <trkpt lat="44.58975" lon="1.81921">
        <ele>336</ele>
        <time>2019-08-10T09:27:29.001Z</time>
      </trkpt>
      <trkpt lat="44.58984" lon="1.81925">
        <ele>336</ele>
        <time>2019-08-10T09:27:34Z</time>
      </trkpt>
      <trkpt lat="44.58993" lon="1.8193">
        <ele>338</ele>
        <time>2019-08-10T09:27:38.998Z</time>
      </trkpt>
      <trkpt lat="44.59" lon="1.81933">
        <ele>339</ele>
        <time>2019-08-10T09:27:42.991Z</time>
      </trkpt>
      <trkpt lat="44.59006" lon="1.81938">
        <ele>339</ele>
        <time>2019-08-10T09:27:47.999Z</time>
      </trkpt>
      <trkpt lat="44.59014" lon="1.81941">
        <ele>339</ele>
        <time>2019-08-10T09:27:53.001Z</time>
      </trkpt>
      <trkpt lat="44.59021" lon="1.81943">
        <ele>340</ele>
        <time>2019-08-10T09:27:57.991Z</time>
      </trkpt>
      <trkpt lat="44.59028" lon="1.81945">
        <ele>340</ele>
        <time>2019-08-10T09:28:02.986Z</time>
      </trkpt>
      <trkpt lat="44.59034" lon="1.81949">
        <ele>340</ele>
        <time>2019-08-10T09:28:07.988Z</time>
      </trkpt>
      <trkpt lat="44.5904" lon="1.81949">
        <ele>340</ele>
        <time>2019-08-10T09:28:12Z</time>
      </trkpt>
      <trkpt lat="44.59049" lon="1.81951">
        <ele>341</ele>
        <time>2019-08-10T09:28:16.996Z</time>
      </trkpt>
      <trkpt lat="44.59057" lon="1.81951">
        <ele>341</ele>
        <time>2019-08-10T09:28:21.986Z</time>
      </trkpt>
      <trkpt lat="44.59065" lon="1.81951">
        <ele>341</ele>
        <time>2019-08-10T09:28:26.983Z</time>
      </trkpt>
      <trkpt lat="44.59072" lon="1.8195">
        <ele>341</ele>
        <time>2019-08-10T09:28:31.991Z</time>
      </trkpt>
      <trkpt lat="44.59081" lon="1.8195">
        <ele>341</ele>
        <time>2019-08-10T09:28:36.992Z</time>
      </trkpt>
      <trkpt lat="44.59089" lon="1.8195">
        <ele>341</ele>
        <time>2019-08-10T09:28:41.981Z</time>
      </trkpt>
      <trkpt lat="44.59095" lon="1.8195">
        <ele>341</ele>
        <time>2019-08-10T09:28:45.990Z</time>
      </trkpt>
      <trkpt lat="44.59101" lon="1.81951">
        <ele>342</ele>
        <time>2019-08-10T09:28:50.993Z</time>
      </trkpt>
      <trkpt lat="44.59107" lon="1.81952">
        <ele>342</ele>
        <time>2019-08-10T09:28:55.996Z</time>
      </trkpt>
      <trkpt lat="44.59112" lon="1.81953">
        <ele>342</ele>
        <time>2019-08-10T09:29:00.983Z</time>
      </trkpt>
      <trkpt lat="44.59119" lon="1.81954">
        <ele>342</ele>
        <time>2019-08-10T09:29:06.002Z</time>
      </trkpt>
      <trkpt lat="44.59126" lon="1.81954">
        <ele>342</ele>
        <time>2019-08-10T09:29:10.993Z</time>
      </trkpt>
      <trkpt lat="44.59132" lon="1.81954">
        <ele>342</ele>
        <time>2019-08-10T09:29:15.003Z</time>
      </trkpt>
      <trkpt lat="44.5914" lon="1.81954">
        <ele>342</ele>
        <time>2019-08-10T09:29:19.996Z</time>
      </trkpt>
      <trkpt lat="44.59147" lon="1.81949">
        <ele>342</ele>
        <time>2019-08-10T09:29:24.997Z</time>
      </trkpt>
      <trkpt lat="44.59151" lon="1.81947">
        <ele>342</ele>
        <time>2019-08-10T09:29:30.002Z</time>
      </trkpt>
      <trkpt lat="44.5916" lon="1.81945">
        <ele>344</ele>
        <time>2019-08-10T09:29:35Z</time>
      </trkpt>
      <trkpt lat="44.59167" lon="1.81944">
        <ele>344</ele>
        <time>2019-08-10T09:29:39.996Z</time>
      </trkpt>
      <trkpt lat="44.59175" lon="1.81942">
        <ele>344</ele>
        <time>2019-08-10T09:29:44.997Z</time>
      </trkpt>
      <trkpt lat="44.59184" lon="1.81941">
        <ele>346</ele>
        <time>2019-08-10T09:29:50.004Z</time>
      </trkpt>
      <trkpt lat="44.59191" lon="1.8194">
        <ele>346</ele>
        <time>2019-08-10T09:29:54.994Z</time>
      </trkpt>
      <trkpt lat="44.592" lon="1.8194">
        <ele>346</ele>
        <time>2019-08-10T09:29:59.999Z</time>
      </trkpt>
      <trkpt lat="44.59209" lon="1.8194">
        <ele>346</ele>
        <time>2019-08-10T09:30:04.999Z</time>
      </trkpt>
      <trkpt lat="44.59217" lon="1.8194">
        <ele>346</ele>
        <time>2019-08-10T09:30:09.999Z</time>
      </trkpt>
      <trkpt lat="44.59222" lon="1.81939">
        <ele>346</ele>
        <time>2019-08-10T09:30:15.001Z</time>
      </trkpt>
      <trkpt lat="44.59227" lon="1.81933">
        <ele>346</ele>
        <time>2019-08-10T09:30:20.002Z</time>
      </trkpt>
      <trkpt lat="44.59232" lon="1.81932">
        <ele>346</ele>
        <time>2019-08-10T09:30:25Z</time>
      </trkpt>
      <trkpt lat="44.59239" lon="1.81934">
        <ele>347</ele>
        <time>2019-08-10T09:30:30Z</time>
      </trkpt>
      <trkpt lat="44.59247" lon="1.81936">
        <ele>347</ele>
        <time>2019-08-10T09:30:34.998Z</time>
      </trkpt>
      <trkpt lat="44.59253" lon="1.81937">
        <ele>347</ele>
        <time>2019-08-10T09:30:40Z</time>
      </trkpt>
      <trkpt lat="44.59261" lon="1.81939">
        <ele>347</ele>
        <time>2019-08-10T09:30:44.996Z</time>
      </trkpt>
      <trkpt lat="44.59267" lon="1.81941">
        <ele>347</ele>
        <time>2019-08-10T09:30:50.002Z</time>
      </trkpt>
      <trkpt lat="44.59273" lon="1.81941">
        <ele>347</ele>
        <time>2019-08-10T09:30:55.003Z</time>
      </trkpt>
      <trkpt lat="44.59279" lon="1.81938">
        <ele>347</ele>
        <time>2019-08-10T09:31:00.002Z</time>
      </trkpt>
      <trkpt lat="44.59285" lon="1.81936">
        <ele>347</ele>
        <time>2019-08-10T09:31:05Z</time>
      </trkpt>
      <trkpt lat="44.59291" lon="1.81934">
        <ele>347</ele>
        <time>2019-08-10T09:31:10Z</time>
      </trkpt>
      <trkpt lat="44.59297" lon="1.81929">
        <ele>347</ele>
        <time>2019-08-10T09:31:14.998Z</time>
      </trkpt>
      <trkpt lat="44.59304" lon="1.81925">
        <ele>347</ele>
        <time>2019-08-10T09:31:19.996Z</time>
      </trkpt>
      <trkpt lat="44.5931" lon="1.81922">
        <ele>347</ele>
        <time>2019-08-10T09:31:25.001Z</time>
      </trkpt>
      <trkpt lat="44.59316" lon="1.81923">
        <ele>347</ele>
        <time>2019-08-10T09:31:30.003Z</time>
      </trkpt>
      <trkpt lat="44.59323" lon="1.81925">
        <ele>348</ele>
        <time>2019-08-10T09:31:34.995Z</time>
      </trkpt>
      <trkpt lat="44.59329" lon="1.81931">
        <ele>350</ele>
        <time>2019-08-10T09:31:39.005Z</time>
      </trkpt>
      <trkpt lat="44.59337" lon="1.81935">
        <ele>350</ele>
        <time>2019-08-10T09:31:43.999Z</time>
      </trkpt>
      <trkpt lat="44.59345" lon="1.81939">
        <ele>350</ele>
        <time>2019-08-10T09:31:48.999Z</time>
      </trkpt>
      <trkpt lat="44.59351" lon="1.81943">
        <ele>350</ele>
        <time>2019-08-10T09:31:54.002Z</time>
      </trkpt>
      <trkpt lat="44.59358" lon="1.81945">
        <ele>350</ele>
        <time>2019-08-10T09:31:59.004Z</time>
      </trkpt>
      <trkpt lat="44.59363" lon="1.8195">
        <ele>350</ele>
        <time>2019-08-10T09:32:03.996Z</time>
      </trkpt>
      <trkpt lat="44.59371" lon="1.81955">
        <ele>350</ele>
        <time>2019-08-10T09:32:09.001Z</time>
      </trkpt>
      <trkpt lat="44.59378" lon="1.81957">
        <ele>351</ele>
        <time>2019-08-10T09:32:13.998Z</time>
      </trkpt>
      <trkpt lat="44.59383" lon="1.81957">
        <ele>351</ele>
        <time>2019-08-10T09:32:19.001Z</time>
      </trkpt>
      <trkpt lat="44.59389" lon="1.81957">
        <ele>351</ele>
        <time>2019-08-10T09:32:23.998Z</time>
      </trkpt>
      <trkpt lat="44.59396" lon="1.81959">
        <ele>352</ele>
        <time>2019-08-10T09:32:28.998Z</time>
      </trkpt>
      <trkpt lat="44.59404" lon="1.81962">
        <ele>352</ele>
        <time>2019-08-10T09:32:33.994Z</time>
      </trkpt>
      <trkpt lat="44.59412" lon="1.81969">
        <ele>352</ele>
        <time>2019-08-10T09:32:39.001Z</time>
      </trkpt>
      <trkpt lat="44.59417" lon="1.81976">
        <ele>352</ele>
        <time>2019-08-10T09:32:43.999Z</time>
      </trkpt>
      <trkpt lat="44.59422" lon="1.81984">
        <ele>352</ele>
        <time>2019-08-10T09:32:48.984Z</time>
      </trkpt>
      <trkpt lat="44.59431" lon="1.81989">
        <ele>353</ele>
        <time>2019-08-10T09:32:54Z</time>
      </trkpt>
      <trkpt lat="44.59438" lon="1.81991">
        <ele>353</ele>
        <time>2019-08-10T09:32:58.979Z</time>
      </trkpt>
      <trkpt lat="44.59445" lon="1.81993">
        <ele>353</ele>
        <time>2019-08-10T09:33:03.980Z</time>
      </trkpt>
      <trkpt lat="44.59451" lon="1.81996">
        <ele>353</ele>
        <time>2019-08-10T09:33:08.003Z</time>
      </trkpt>
      <trkpt lat="44.59457" lon="1.81999">
        <ele>353</ele>
        <time>2019-08-10T09:33:12.994Z</time>
      </trkpt>
      <trkpt lat="44.59462" lon="1.81997">
        <ele>350</ele>
        <time>2019-08-10T09:33:17.999Z</time>
      </trkpt>
      <trkpt lat="44.59469" lon="1.82">
        <ele>350</ele>
        <time>2019-08-10T09:33:22.997Z</time>
      </trkpt>
      <trkpt lat="44.59475" lon="1.82002">
        <ele>350</ele>
        <time>2019-08-10T09:33:28Z</time>
      </trkpt>
      <trkpt lat="44.59481" lon="1.82002">
        <ele>350</ele>
        <time>2019-08-10T09:33:32.982Z</time>
      </trkpt>
      <trkpt lat="44.59488" lon="1.81999">
        <ele>347</ele>
        <time>2019-08-10T09:33:37.996Z</time>
      </trkpt>
      <trkpt lat="44.59491" lon="1.81996">
        <ele>347</ele>
        <time>2019-08-10T09:33:42.012Z</time>
      </trkpt>
      <trkpt lat="44.59495" lon="1.81991">
        <ele>347</ele>
        <time>2019-08-10T09:33:46.032Z</time>
      </trkpt>
      <trkpt lat="44.59499" lon="1.81982">
        <ele>346</ele>
        <time>2019-08-10T09:33:51.018Z</time>
      </trkpt>
      <trkpt lat="44.59503" lon="1.81975">
        <ele>346</ele>
        <time>2019-08-10T09:33:56.007Z</time>
      </trkpt>
      <trkpt lat="44.59507" lon="1.81969">
        <ele>346</ele>
        <time>2019-08-10T09:34:01.024Z</time>
      </trkpt>
      <trkpt lat="44.59511" lon="1.81963">
        <ele>346</ele>
        <time>2019-08-10T09:34:06.025Z</time>
      </trkpt>
      <trkpt lat="44.59515" lon="1.81959">
        <ele>344</ele>
        <time>2019-08-10T09:34:11.017Z</time>
      </trkpt>
      <trkpt lat="44.5952" lon="1.81954">
        <ele>346</ele>
        <time>2019-08-10T09:34:16.027Z</time>
      </trkpt>
      <trkpt lat="44.59525" lon="1.81949">
        <ele>346</ele>
        <time>2019-08-10T09:34:21.016Z</time>
      </trkpt>
      <trkpt lat="44.5953" lon="1.81943">
        <ele>346</ele>
        <time>2019-08-10T09:34:26.016Z</time>
      </trkpt>
      <trkpt lat="44.59535" lon="1.81936">
        <ele>346</ele>
        <time>2019-08-10T09:34:31.018Z</time>
      </trkpt>
      <trkpt lat="44.59537" lon="1.81933">
        <ele>346</ele>
        <time>2019-08-10T09:34:35.991Z</time>
      </trkpt>
      <trkpt lat="44.59537" lon="1.81932">
        <ele>346</ele>
        <time>2019-08-10T09:34:40.009Z</time>
      </trkpt>
      <trkpt lat="44.59538" lon="1.81932">
        <ele>346</ele>
        <time>2019-08-10T09:34:45.006Z</time>
      </trkpt>
      <trkpt lat="44.59537" lon="1.81932">
        <ele>346</ele>
        <time>2019-08-10T09:34:49.994Z</time>
      </trkpt>
      <trkpt lat="44.5954" lon="1.81926">
        <ele>347</ele>
        <time>2019-08-10T09:34:54.013Z</time>
      </trkpt>
      <trkpt lat="44.59549" lon="1.81913">
        <ele>344</ele>
        <time>2019-08-10T09:34:59.009Z</time>
      </trkpt>
      <trkpt lat="44.59557" lon="1.81897">
        <ele>343</ele>
        <time>2019-08-10T09:35:04.019Z</time>
      </trkpt>
      <trkpt lat="44.59563" lon="1.81889">
        <ele>343</ele>
        <time>2019-08-10T09:35:09.010Z</time>
      </trkpt>
      <trkpt lat="44.59566" lon="1.81883">
        <ele>343</ele>
        <time>2019-08-10T09:35:13.029Z</time>
      </trkpt>
      <trkpt lat="44.5957" lon="1.81875">
        <ele>339</ele>
        <time>2019-08-10T09:35:18.018Z</time>
      </trkpt>
      <trkpt lat="44.59575" lon="1.81866">
        <ele>340</ele>
        <time>2019-08-10T09:35:23.017Z</time>
      </trkpt>
      <trkpt lat="44.59582" lon="1.81858">
        <ele>340</ele>
        <time>2019-08-10T09:35:28.020Z</time>
      </trkpt>
      <trkpt lat="44.59586" lon="1.81849">
        <ele>340</ele>
        <time>2019-08-10T09:35:33.024Z</time>
      </trkpt>
      <trkpt lat="44.59587" lon="1.81846">
        <ele>341</ele>
        <time>2019-08-10T09:35:38.024Z</time>
      </trkpt>
      <trkpt lat="44.59595" lon="1.81846">
        <ele>341</ele>
        <time>2019-08-10T09:39:45.005Z</time>
      </trkpt>
      <trkpt lat="44.59595" lon="1.81846">
        <ele>341</ele>
        <time>2019-08-10T09:39:49.998Z</time>
      </trkpt>
      <trkpt lat="44.59596" lon="1.81846">
        <ele>341</ele>
        <time>2019-08-10T09:39:55.001Z</time>
      </trkpt>
      <trkpt lat="44.59596" lon="1.81845">
        <ele>341</ele>
        <time>2019-08-10T09:39:59.997Z</time>
      </trkpt>
      <trkpt lat="44.59598" lon="1.81843">
        <ele>340</ele>
        <time>2019-08-10T09:40:04.990Z</time>
      </trkpt>
      <trkpt lat="44.59607" lon="1.8184">
        <ele>340</ele>
        <time>2019-08-10T09:40:09.986Z</time>
      </trkpt>
      <trkpt lat="44.59613" lon="1.81836">
        <ele>340</ele>
        <time>2019-08-10T09:40:14.014Z</time>
      </trkpt>
      <trkpt lat="44.59618" lon="1.81833">
        <ele>340</ele>
        <time>2019-08-10T09:40:18.005Z</time>
      </trkpt>
      <trkpt lat="44.59625" lon="1.81831">
        <ele>336</ele>
        <time>2019-08-10T09:40:22.999Z</time>
      </trkpt>
      <trkpt lat="44.5963" lon="1.81827">
        <ele>336</ele>
        <time>2019-08-10T09:40:27.010Z</time>
      </trkpt>
      <trkpt lat="44.59635" lon="1.81825">
        <ele>336</ele>
        <time>2019-08-10T09:40:31.037Z</time>
      </trkpt>
      <trkpt lat="44.59639" lon="1.81824">
        <ele>336</ele>
        <time>2019-08-10T09:40:36.018Z</time>
      </trkpt>
      <trkpt lat="44.59645" lon="1.8182">
        <ele>336</ele>
        <time>2019-08-10T09:40:41.018Z</time>
      </trkpt>
      <trkpt lat="44.59652" lon="1.81817">
        <ele>338</ele>
        <time>2019-08-10T09:40:46.018Z</time>
      </trkpt>
      <trkpt lat="44.59661" lon="1.81812">
        <ele>336</ele>
        <time>2019-08-10T09:40:51.010Z</time>
      </trkpt>
      <trkpt lat="44.59671" lon="1.81805">
        <ele>336</ele>
        <time>2019-08-10T09:40:55.029Z</time>
      </trkpt>
      <trkpt lat="44.59684" lon="1.81799">
        <ele>335</ele>
        <time>2019-08-10T09:41:00.020Z</time>
      </trkpt>
      <trkpt lat="44.59698" lon="1.81793">
        <ele>335</ele>
        <time>2019-08-10T09:41:05.009Z</time>
      </trkpt>
      <trkpt lat="44.59706" lon="1.81792">
        <ele>335</ele>
        <time>2019-08-10T09:41:10.011Z</time>
      </trkpt>
      <trkpt lat="44.59713" lon="1.81789">
        <ele>337</ele>
        <time>2019-08-10T09:41:14.999Z</time>
      </trkpt>
      <trkpt lat="44.59719" lon="1.81788">
        <ele>337</ele>
        <time>2019-08-10T09:41:19.014Z</time>
      </trkpt>
      <trkpt lat="44.59726" lon="1.81782">
        <ele>337</ele>
        <time>2019-08-10T09:41:24.020Z</time>
      </trkpt>
      <trkpt lat="44.59732" lon="1.81779">
        <ele>337</ele>
        <time>2019-08-10T09:41:29.014Z</time>
      </trkpt>
      <trkpt lat="44.59737" lon="1.81772">
        <ele>337</ele>
        <time>2019-08-10T09:41:33.982Z</time>
      </trkpt>
      <trkpt lat="44.59741" lon="1.81768">
        <ele>337</ele>
        <time>2019-08-10T09:41:38.013Z</time>
      </trkpt>
      <trkpt lat="44.59744" lon="1.81765">
        <ele>337</ele>
        <time>2019-08-10T09:41:43.012Z</time>
      </trkpt>
      <trkpt lat="44.59748" lon="1.81762">
        <ele>339</ele>
        <time>2019-08-10T09:41:47.025Z</time>
      </trkpt>
      <trkpt lat="44.59751" lon="1.81758">
        <ele>339</ele>
        <time>2019-08-10T09:41:52.013Z</time>
      </trkpt>
      <trkpt lat="44.59759" lon="1.81755">
        <ele>339</ele>
        <time>2019-08-10T09:41:57.026Z</time>
      </trkpt>
      <trkpt lat="44.59768" lon="1.81751">
        <ele>339</ele>
        <time>2019-08-10T09:42:02.019Z</time>
      </trkpt>
      <trkpt lat="44.59775" lon="1.81746">
        <ele>339</ele>
        <time>2019-08-10T09:42:07.017Z</time>
      </trkpt>
      <trkpt lat="44.59782" lon="1.81742">
        <ele>339</ele>
        <time>2019-08-10T09:42:12.014Z</time>
      </trkpt>
      <trkpt lat="44.59788" lon="1.81735">
        <ele>342</ele>
        <time>2019-08-10T09:42:17.032Z</time>
      </trkpt>
      <trkpt lat="44.59798" lon="1.81722">
        <ele>341</ele>
        <time>2019-08-10T09:42:22.024Z</time>
      </trkpt>
      <trkpt lat="44.59808" lon="1.8171">
        <ele>341</ele>
        <time>2019-08-10T09:42:27.025Z</time>
      </trkpt>
      <trkpt lat="44.59813" lon="1.817">
        <ele>342</ele>
        <time>2019-08-10T09:42:32.013Z</time>
      </trkpt>
      <trkpt lat="44.59816" lon="1.8169">
        <ele>342</ele>
        <time>2019-08-10T09:42:37.022Z</time>
      </trkpt>
      <trkpt lat="44.59821" lon="1.81684">
        <ele>339</ele>
        <time>2019-08-10T09:42:42.032Z</time>
      </trkpt>
      <trkpt lat="44.59826" lon="1.81677">
        <ele>339</ele>
        <time>2019-08-10T09:42:47.019Z</time>
      </trkpt>
      <trkpt lat="44.59833" lon="1.81672">
        <ele>339</ele>
        <time>2019-08-10T09:42:52.015Z</time>
      </trkpt>
      <trkpt lat="44.5984" lon="1.81669">
        <ele>339</ele>
        <time>2019-08-10T09:42:57.002Z</time>
      </trkpt>
      <trkpt lat="44.59844" lon="1.81667">
        <ele>339</ele>
        <time>2019-08-10T09:43:01.022Z</time>
      </trkpt>
      <trkpt lat="44.59848" lon="1.81666">
        <ele>337</ele>
        <time>2019-08-10T09:43:06.023Z</time>
      </trkpt>
      <trkpt lat="44.59854" lon="1.81664">
        <ele>337</ele>
        <time>2019-08-10T09:43:11.016Z</time>
      </trkpt>
      <trkpt lat="44.59858" lon="1.8166">
        <ele>337</ele>
        <time>2019-08-10T09:43:16.016Z</time>
      </trkpt>
      <trkpt lat="44.5986" lon="1.81658">
        <ele>337</ele>
        <time>2019-08-10T09:43:20.053Z</time>
      </trkpt>
      <trkpt lat="44.59868" lon="1.81655">
        <ele>337</ele>
        <time>2019-08-10T09:43:24.998Z</time>
      </trkpt>
      <trkpt lat="44.59878" lon="1.81653">
        <ele>335</ele>
        <time>2019-08-10T09:43:29.994Z</time>
      </trkpt>
      <trkpt lat="44.59882" lon="1.81652">
        <ele>336</ele>
        <time>2019-08-10T09:43:34.996Z</time>
      </trkpt>
      <trkpt lat="44.59883" lon="1.81651">
        <ele>336</ele>
        <time>2019-08-10T09:43:39.013Z</time>
      </trkpt>
      <trkpt lat="44.59885" lon="1.8165">
        <ele>336</ele>
        <time>2019-08-10T09:43:43.999Z</time>
      </trkpt>
      <trkpt lat="44.59889" lon="1.81648">
        <ele>336</ele>
        <time>2019-08-10T09:43:48.992Z</time>
      </trkpt>
      <trkpt lat="44.5989" lon="1.81646">
        <ele>336</ele>
        <time>2019-08-10T09:43:53.006Z</time>
      </trkpt>
      <trkpt lat="44.59901" lon="1.8164">
        <ele>336</ele>
        <time>2019-08-10T09:43:57.994Z</time>
      </trkpt>
      <trkpt lat="44.59908" lon="1.81635">
        <ele>335</ele>
        <time>2019-08-10T09:44:02.982Z</time>
      </trkpt>
      <trkpt lat="44.59911" lon="1.81635">
        <ele>335</ele>
        <time>2019-08-10T09:44:07.020Z</time>
      </trkpt>
      <trkpt lat="44.59914" lon="1.81634">
        <ele>335</ele>
        <time>2019-08-10T09:44:12.014Z</time>
      </trkpt>
      <trkpt lat="44.59916" lon="1.81633">
        <ele>335</ele>
        <time>2019-08-10T09:44:16.990Z</time>
      </trkpt>
      <trkpt lat="44.5992" lon="1.81631">
        <ele>335</ele>
        <time>2019-08-10T09:44:21Z</time>
      </trkpt>
      <trkpt lat="44.59932" lon="1.81626">
        <ele>334</ele>
        <time>2019-08-10T09:44:25.026Z</time>
      </trkpt>
      <trkpt lat="44.59944" lon="1.81621">
        <ele>332</ele>
        <time>2019-08-10T09:44:30.011Z</time>
      </trkpt>
      <trkpt lat="44.59952" lon="1.81615">
        <ele>332</ele>
        <time>2019-08-10T09:44:35.004Z</time>
      </trkpt>
      <trkpt lat="44.59956" lon="1.81613">
        <ele>332</ele>
        <time>2019-08-10T09:44:40.014Z</time>
      </trkpt>
      <trkpt lat="44.59962" lon="1.8161">
        <ele>330</ele>
        <time>2019-08-10T09:44:44.028Z</time>
      </trkpt>
      <trkpt lat="44.59966" lon="1.81607">
        <ele>330</ele>
        <time>2019-08-10T09:44:49.020Z</time>
      </trkpt>
      <trkpt lat="44.59969" lon="1.81604">
        <ele>330</ele>
        <time>2019-08-10T09:44:53.012Z</time>
      </trkpt>
      <trkpt lat="44.59975" lon="1.816">
        <ele>330</ele>
        <time>2019-08-10T09:44:58.012Z</time>
      </trkpt>
      <trkpt lat="44.59982" lon="1.81594">
        <ele>328</ele>
        <time>2019-08-10T09:45:02.991Z</time>
      </trkpt>
      <trkpt lat="44.59987" lon="1.81589">
        <ele>327</ele>
        <time>2019-08-10T09:45:07.034Z</time>
      </trkpt>
      <trkpt lat="44.59993" lon="1.81581">
        <ele>327</ele>
        <time>2019-08-10T09:45:12.014Z</time>
      </trkpt>
      <trkpt lat="44.59996" lon="1.81575">
        <ele>327</ele>
        <time>2019-08-10T09:45:16.997Z</time>
      </trkpt>
      <trkpt lat="44.60001" lon="1.81571">
        <ele>327</ele>
        <time>2019-08-10T09:45:21.015Z</time>
      </trkpt>
      <trkpt lat="44.60009" lon="1.81567">
        <ele>325</ele>
        <time>2019-08-10T09:45:26.019Z</time>
      </trkpt>
      <trkpt lat="44.60014" lon="1.8156">
        <ele>324</ele>
        <time>2019-08-10T09:45:31.002Z</time>
      </trkpt>
      <trkpt lat="44.6002" lon="1.81556">
        <ele>324</ele>
        <time>2019-08-10T09:45:36.008Z</time>
      </trkpt>
      <trkpt lat="44.60027" lon="1.81553">
        <ele>324</ele>
        <time>2019-08-10T09:45:41.005Z</time>
      </trkpt>
      <trkpt lat="44.60031" lon="1.81548">
        <ele>324</ele>
        <time>2019-08-10T09:45:46.010Z</time>
      </trkpt>
      <trkpt lat="44.60039" lon="1.81544">
        <ele>324</ele>
        <time>2019-08-10T09:45:50.985Z</time>
      </trkpt>
      <trkpt lat="44.60043" lon="1.81543">
        <ele>321</ele>
        <time>2019-08-10T09:45:55.011Z</time>
      </trkpt>
      <trkpt lat="44.60045" lon="1.81543">
        <ele>321</ele>
        <time>2019-08-10T09:46:00.014Z</time>
      </trkpt>
      <trkpt lat="44.60049" lon="1.81541">
        <ele>319</ele>
        <time>2019-08-10T09:46:04.993Z</time>
      </trkpt>
      <trkpt lat="44.60053" lon="1.81541">
        <ele>319</ele>
        <time>2019-08-10T09:46:10.021Z</time>
      </trkpt>
      <trkpt lat="44.60061" lon="1.81538">
        <ele>319</ele>
        <time>2019-08-10T09:46:14.995Z</time>
      </trkpt>
      <trkpt lat="44.60065" lon="1.81536">
        <ele>319</ele>
        <time>2019-08-10T09:46:20.014Z</time>
      </trkpt>
      <trkpt lat="44.60075" lon="1.81531">
        <ele>317</ele>
        <time>2019-08-10T09:46:25.010Z</time>
      </trkpt>
      <trkpt lat="44.6008" lon="1.81527">
        <ele>317</ele>
        <time>2019-08-10T09:46:30.018Z</time>
      </trkpt>
      <trkpt lat="44.60087" lon="1.81529">
        <ele>317</ele>
        <time>2019-08-10T09:46:35.003Z</time>
      </trkpt>
      <trkpt lat="44.60093" lon="1.81532">
        <ele>317</ele>
        <time>2019-08-10T09:46:40.036Z</time>
      </trkpt>
      <trkpt lat="44.60102" lon="1.81533">
        <ele>315</ele>
        <time>2019-08-10T09:46:44.995Z</time>
      </trkpt>
      <trkpt lat="44.6011" lon="1.81533">
        <ele>315</ele>
        <time>2019-08-10T09:46:50.014Z</time>
      </trkpt>
      <trkpt lat="44.60115" lon="1.81533">
        <ele>315</ele>
        <time>2019-08-10T09:46:55.002Z</time>
      </trkpt>
      <trkpt lat="44.60121" lon="1.81528">
        <ele>315</ele>
        <time>2019-08-10T09:47:00.020Z</time>
      </trkpt>
      <trkpt lat="44.60126" lon="1.81525">
        <ele>313</ele>
        <time>2019-08-10T09:47:05.008Z</time>
      </trkpt>
      <trkpt lat="44.60131" lon="1.81522">
        <ele>313</ele>
        <time>2019-08-10T09:47:10.035Z</time>
      </trkpt>
      <trkpt lat="44.60135" lon="1.81521">
        <ele>313</ele>
        <time>2019-08-10T09:47:14.994Z</time>
      </trkpt>
      <trkpt lat="44.6014" lon="1.81518">
        <ele>313</ele>
        <time>2019-08-10T09:47:19.005Z</time>
      </trkpt>
      <trkpt lat="44.60144" lon="1.81514">
        <ele>313</ele>
        <time>2019-08-10T09:47:24.020Z</time>
      </trkpt>
      <trkpt lat="44.60146" lon="1.81512">
        <ele>312</ele>
        <time>2019-08-10T09:47:28.996Z</time>
      </trkpt>
      <trkpt lat="44.60148" lon="1.81509">
        <ele>312</ele>
        <time>2019-08-10T09:47:34.021Z</time>
      </trkpt>
      <trkpt lat="44.60158" lon="1.81493">
        <ele>312</ele>
        <time>2019-08-10T09:47:39.004Z</time>
      </trkpt>
      <trkpt lat="44.60161" lon="1.81482">
        <ele>310</ele>
        <time>2019-08-10T09:47:44.017Z</time>
      </trkpt>
      <trkpt lat="44.60165" lon="1.81471">
        <ele>310</ele>
        <time>2019-08-10T09:47:48.995Z</time>
      </trkpt>
      <trkpt lat="44.60167" lon="1.81462">
        <ele>310</ele>
        <time>2019-08-10T09:47:53.013Z</time>
      </trkpt>
      <trkpt lat="44.6017" lon="1.81455">
        <ele>309</ele>
        <time>2019-08-10T09:47:58.021Z</time>
      </trkpt>
      <trkpt lat="44.6017" lon="1.81447">
        <ele>309</ele>
        <time>2019-08-10T09:48:03.001Z</time>
      </trkpt>
      <trkpt lat="44.60172" lon="1.81441">
        <ele>309</ele>
        <time>2019-08-10T09:48:08.027Z</time>
      </trkpt>
      <trkpt lat="44.60174" lon="1.81433">
        <ele>309</ele>
        <time>2019-08-10T09:48:13Z</time>
      </trkpt>
      <trkpt lat="44.60175" lon="1.81427">
        <ele>308</ele>
        <time>2019-08-10T09:48:17.024Z</time>
      </trkpt>
      <trkpt lat="44.60178" lon="1.81418">
        <ele>308</ele>
        <time>2019-08-10T09:48:22.008Z</time>
      </trkpt>
      <trkpt lat="44.60185" lon="1.81417">
        <ele>306</ele>
        <time>2019-08-10T09:48:27.033Z</time>
      </trkpt>
      <trkpt lat="44.6019" lon="1.81409">
        <ele>306</ele>
        <time>2019-08-10T09:48:32.006Z</time>
      </trkpt>
      <trkpt lat="44.60194" lon="1.8141">
        <ele>306</ele>
        <time>2019-08-10T09:48:36.028Z</time>
      </trkpt>
      <trkpt lat="44.602" lon="1.8141">
        <ele>306</ele>
        <time>2019-08-10T09:48:41.021Z</time>
      </trkpt>
      <trkpt lat="44.60209" lon="1.81411">
        <ele>307</ele>
        <time>2019-08-10T09:48:46.011Z</time>
      </trkpt>
      <trkpt lat="44.6022" lon="1.8141">
        <ele>307</ele>
        <time>2019-08-10T09:48:50.993Z</time>
      </trkpt>
      <trkpt lat="44.60227" lon="1.81409">
        <ele>307</ele>
        <time>2019-08-10T09:48:56.015Z</time>
      </trkpt>
      <trkpt lat="44.60233" lon="1.81409">
        <ele>307</ele>
        <time>2019-08-10T09:49:00.026Z</time>
      </trkpt>
      <trkpt lat="44.60243" lon="1.8141">
        <ele>306</ele>
        <time>2019-08-10T09:49:05Z</time>
      </trkpt>
      <trkpt lat="44.60244" lon="1.81408">
        <ele>306</ele>
        <time>2019-08-10T09:49:10.023Z</time>
      </trkpt>
      <trkpt lat="44.60244" lon="1.81408">
        <ele>306</ele>
        <time>2019-08-10T09:49:14.990Z</time>
      </trkpt>
      <trkpt lat="44.60245" lon="1.81408">
        <ele>306</ele>
        <time>2019-08-10T09:49:19.015Z</time>
      </trkpt>
      <trkpt lat="44.60249" lon="1.81409">
        <ele>306</ele>
        <time>2019-08-10T09:49:24.021Z</time>
      </trkpt>
      <trkpt lat="44.60256" lon="1.8141">
        <ele>306</ele>
        <time>2019-08-10T09:49:29.008Z</time>
      </trkpt>
      <trkpt lat="44.60263" lon="1.81411">
        <ele>306</ele>
        <time>2019-08-10T09:49:34.003Z</time>
      </trkpt>
      <trkpt lat="44.60268" lon="1.81409">
        <ele>305</ele>
        <time>2019-08-10T09:49:39.028Z</time>
      </trkpt>
      <trkpt lat="44.60274" lon="1.8141">
        <ele>305</ele>
        <time>2019-08-10T09:49:44.007Z</time>
      </trkpt>
      <trkpt lat="44.60283" lon="1.8141">
        <ele>305</ele>
        <time>2019-08-10T09:49:49.010Z</time>
      </trkpt>
      <trkpt lat="44.60288" lon="1.81407">
        <ele>305</ele>
        <time>2019-08-10T09:49:54.009Z</time>
      </trkpt>
      <trkpt lat="44.60294" lon="1.81404">
        <ele>304</ele>
        <time>2019-08-10T09:49:59.008Z</time>
      </trkpt>
      <trkpt lat="44.60301" lon="1.81399">
        <ele>303</ele>
        <time>2019-08-10T09:50:04.006Z</time>
      </trkpt>
      <trkpt lat="44.60308" lon="1.81397">
        <ele>303</ele>
        <time>2019-08-10T09:50:09.015Z</time>
      </trkpt>
      <trkpt lat="44.60314" lon="1.81392">
        <ele>303</ele>
        <time>2019-08-10T09:50:14.015Z</time>
      </trkpt>
      <trkpt lat="44.6032" lon="1.81386">
        <ele>301</ele>
        <time>2019-08-10T09:50:19.006Z</time>
      </trkpt>
      <trkpt lat="44.60325" lon="1.8138">
        <ele>301</ele>
        <time>2019-08-10T09:50:23.012Z</time>
      </trkpt>
      <trkpt lat="44.6033" lon="1.81374">
        <ele>301</ele>
        <time>2019-08-10T09:50:27.015Z</time>
      </trkpt>
      <trkpt lat="44.60336" lon="1.81369">
        <ele>301</ele>
        <time>2019-08-10T09:50:32.009Z</time>
      </trkpt>
      <trkpt lat="44.60342" lon="1.81363">
        <ele>301</ele>
        <time>2019-08-10T09:50:36.998Z</time>
      </trkpt>
      <trkpt lat="44.60348" lon="1.81356">
        <ele>299</ele>
        <time>2019-08-10T09:50:42.024Z</time>
      </trkpt>
      <trkpt lat="44.60354" lon="1.8135">
        <ele>299</ele>
        <time>2019-08-10T09:50:47.027Z</time>
      </trkpt>
      <trkpt lat="44.60359" lon="1.81342">
        <ele>298</ele>
        <time>2019-08-10T09:50:52.012Z</time>
      </trkpt>
      <trkpt lat="44.60363" lon="1.81336">
        <ele>298</ele>
        <time>2019-08-10T09:50:56.989Z</time>
      </trkpt>
      <trkpt lat="44.60364" lon="1.81331">
        <ele>298</ele>
        <time>2019-08-10T09:51:01.005Z</time>
      </trkpt>
      <trkpt lat="44.60367" lon="1.81325">
        <ele>298</ele>
        <time>2019-08-10T09:51:06.012Z</time>
      </trkpt>
      <trkpt lat="44.60372" lon="1.81319">
        <ele>297</ele>
        <time>2019-08-10T09:51:10.997Z</time>
      </trkpt>
      <trkpt lat="44.60375" lon="1.81314">
        <ele>297</ele>
        <time>2019-08-10T09:51:14.999Z</time>
      </trkpt>
      <trkpt lat="44.6038" lon="1.81308">
        <ele>297</ele>
        <time>2019-08-10T09:51:20.008Z</time>
      </trkpt>
      <trkpt lat="44.60385" lon="1.813">
        <ele>297</ele>
        <time>2019-08-10T09:51:25.013Z</time>
      </trkpt>
      <trkpt lat="44.60392" lon="1.81295">
        <ele>297</ele>
        <time>2019-08-10T09:51:30.016Z</time>
      </trkpt>
      <trkpt lat="44.60399" lon="1.81289">
        <ele>297</ele>
        <time>2019-08-10T09:51:35.020Z</time>
      </trkpt>
      <trkpt lat="44.60404" lon="1.81284">
        <ele>298</ele>
        <time>2019-08-10T09:51:40.008Z</time>
      </trkpt>
      <trkpt lat="44.60406" lon="1.81278">
        <ele>298</ele>
        <time>2019-08-10T09:51:45.014Z</time>
      </trkpt>
      <trkpt lat="44.60411" lon="1.81272">
        <ele>298</ele>
        <time>2019-08-10T09:51:49.041Z</time>
      </trkpt>
      <trkpt lat="44.60418" lon="1.81265">
        <ele>298</ele>
        <time>2019-08-10T09:51:54.006Z</time>
      </trkpt>
      <trkpt lat="44.60424" lon="1.8126">
        <ele>298</ele>
        <time>2019-08-10T09:51:59.004Z</time>
      </trkpt>
      <trkpt lat="44.60431" lon="1.81254">
        <ele>298</ele>
        <time>2019-08-10T09:52:04.017Z</time>
      </trkpt>
      <trkpt lat="44.60436" lon="1.81242">
        <ele>298</ele>
        <time>2019-08-10T09:52:09.014Z</time>
      </trkpt>
      <trkpt lat="44.60442" lon="1.81235">
        <ele>298</ele>
        <time>2019-08-10T09:52:13.005Z</time>
      </trkpt>
      <trkpt lat="44.60448" lon="1.81229">
        <ele>298</ele>
        <time>2019-08-10T09:52:18.019Z</time>
      </trkpt>
      <trkpt lat="44.60455" lon="1.81223">
        <ele>298</ele>
        <time>2019-08-10T09:52:22.998Z</time>
      </trkpt>
      <trkpt lat="44.60462" lon="1.81222">
        <ele>298</ele>
        <time>2019-08-10T09:52:27.001Z</time>
      </trkpt>
      <trkpt lat="44.60464" lon="1.81213">
        <ele>298</ele>
        <time>2019-08-10T09:52:31.010Z</time>
      </trkpt>
      <trkpt lat="44.60468" lon="1.81207">
        <ele>299</ele>
        <time>2019-08-10T09:52:35.999Z</time>
      </trkpt>
      <trkpt lat="44.60472" lon="1.81201">
        <ele>299</ele>
        <time>2019-08-10T09:52:40.016Z</time>
      </trkpt>
      <trkpt lat="44.60478" lon="1.81193">
        <ele>299</ele>
        <time>2019-08-10T09:52:45.007Z</time>
      </trkpt>
      <trkpt lat="44.60483" lon="1.81186">
        <ele>299</ele>
        <time>2019-08-10T09:52:50.016Z</time>
      </trkpt>
      <trkpt lat="44.60488" lon="1.8118">
        <ele>299</ele>
        <time>2019-08-10T09:52:55.044Z</time>
      </trkpt>
      <trkpt lat="44.60495" lon="1.81173">
        <ele>299</ele>
        <time>2019-08-10T09:52:59.996Z</time>
      </trkpt>
      <trkpt lat="44.605" lon="1.81162">
        <ele>299</ele>
        <time>2019-08-10T09:53:05.028Z</time>
      </trkpt>
      <trkpt lat="44.60503" lon="1.81155">
        <ele>299</ele>
        <time>2019-08-10T09:53:10.007Z</time>
      </trkpt>
      <trkpt lat="44.60508" lon="1.81148">
        <ele>299</ele>
        <time>2019-08-10T09:53:15.006Z</time>
      </trkpt>
      <trkpt lat="44.60511" lon="1.81141">
        <ele>299</ele>
        <time>2019-08-10T09:53:20.015Z</time>
      </trkpt>
      <trkpt lat="44.60515" lon="1.81134">
        <ele>298</ele>
        <time>2019-08-10T09:53:25.002Z</time>
      </trkpt>
      <trkpt lat="44.60519" lon="1.81128">
        <ele>298</ele>
        <time>2019-08-10T09:53:29.001Z</time>
      </trkpt>
      <trkpt lat="44.60527" lon="1.81121">
        <ele>300</ele>
        <time>2019-08-10T09:53:34.017Z</time>
      </trkpt>
      <trkpt lat="44.60532" lon="1.81115">
        <ele>300</ele>
        <time>2019-08-10T09:53:39.008Z</time>
      </trkpt>
      <trkpt lat="44.60535" lon="1.81107">
        <ele>300</ele>
        <time>2019-08-10T09:53:44.024Z</time>
      </trkpt>
      <trkpt lat="44.60541" lon="1.811">
        <ele>300</ele>
        <time>2019-08-10T09:53:49.004Z</time>
      </trkpt>
      <trkpt lat="44.60548" lon="1.81092">
        <ele>300</ele>
        <time>2019-08-10T09:53:54.013Z</time>
      </trkpt>
      <trkpt lat="44.60553" lon="1.81085">
        <ele>300</ele>
        <time>2019-08-10T09:53:59.020Z</time>
      </trkpt>
      <trkpt lat="44.60558" lon="1.81079">
        <ele>300</ele>
        <time>2019-08-10T09:54:04.022Z</time>
      </trkpt>
      <trkpt lat="44.60563" lon="1.8107">
        <ele>300</ele>
        <time>2019-08-10T09:54:09.002Z</time>
      </trkpt>
      <trkpt lat="44.60568" lon="1.81064">
        <ele>300</ele>
        <time>2019-08-10T09:54:14.026Z</time>
      </trkpt>
      <trkpt lat="44.60572" lon="1.81059">
        <ele>298</ele>
        <time>2019-08-10T09:54:19.002Z</time>
      </trkpt>
      <trkpt lat="44.60577" lon="1.81054">
        <ele>298</ele>
        <time>2019-08-10T09:54:23.009Z</time>
      </trkpt>
      <trkpt lat="44.60584" lon="1.81048">
        <ele>298</ele>
        <time>2019-08-10T09:54:28.014Z</time>
      </trkpt>
      <trkpt lat="44.60591" lon="1.8104">
        <ele>297</ele>
        <time>2019-08-10T09:54:32.979Z</time>
      </trkpt>
      <trkpt lat="44.60596" lon="1.81034">
        <ele>297</ele>
        <time>2019-08-10T09:54:37.020Z</time>
      </trkpt>
      <trkpt lat="44.60601" lon="1.81028">
        <ele>296</ele>
        <time>2019-08-10T09:54:41.047Z</time>
      </trkpt>
      <trkpt lat="44.60607" lon="1.81021">
        <ele>296</ele>
        <time>2019-08-10T09:54:46.019Z</time>
      </trkpt>
      <trkpt lat="44.60612" lon="1.81015">
        <ele>296</ele>
        <time>2019-08-10T09:54:51.012Z</time>
      </trkpt>
      <trkpt lat="44.60619" lon="1.8101">
        <ele>296</ele>
        <time>2019-08-10T09:54:56.007Z</time>
      </trkpt>
      <trkpt lat="44.60624" lon="1.81004">
        <ele>296</ele>
        <time>2019-08-10T09:55:00.998Z</time>
      </trkpt>
      <trkpt lat="44.60629" lon="1.81">
        <ele>298</ele>
        <time>2019-08-10T09:55:05.075Z</time>
      </trkpt>
      <trkpt lat="44.60636" lon="1.80993">
        <ele>298</ele>
        <time>2019-08-10T09:55:10.014Z</time>
      </trkpt>
      <trkpt lat="44.60643" lon="1.80986">
        <ele>298</ele>
        <time>2019-08-10T09:55:15.035Z</time>
      </trkpt>
      <trkpt lat="44.6065" lon="1.80978">
        <ele>298</ele>
        <time>2019-08-10T09:55:20.015Z</time>
      </trkpt>
      <trkpt lat="44.60655" lon="1.80973">
        <ele>299</ele>
        <time>2019-08-10T09:55:25.010Z</time>
      </trkpt>
      <trkpt lat="44.60659" lon="1.80966">
        <ele>299</ele>
        <time>2019-08-10T09:55:30.015Z</time>
      </trkpt>
      <trkpt lat="44.60664" lon="1.8096">
        <ele>299</ele>
        <time>2019-08-10T09:55:35.007Z</time>
      </trkpt>
      <trkpt lat="44.60668" lon="1.80955">
        <ele>300</ele>
        <time>2019-08-10T09:55:40.020Z</time>
      </trkpt>
      <trkpt lat="44.6067" lon="1.80951">
        <ele>300</ele>
        <time>2019-08-10T09:55:44.998Z</time>
      </trkpt>
      <trkpt lat="44.60673" lon="1.80947">
        <ele>300</ele>
        <time>2019-08-10T09:55:49.043Z</time>
      </trkpt>
      <trkpt lat="44.60679" lon="1.80943">
        <ele>300</ele>
        <time>2019-08-10T09:55:54.015Z</time>
      </trkpt>
      <trkpt lat="44.60686" lon="1.80937">
        <ele>301</ele>
        <time>2019-08-10T09:55:59.013Z</time>
      </trkpt>
      <trkpt lat="44.60691" lon="1.80934">
        <ele>301</ele>
        <time>2019-08-10T09:56:03.040Z</time>
      </trkpt>
      <trkpt lat="44.60698" lon="1.8093">
        <ele>301</ele>
        <time>2019-08-10T09:56:08.016Z</time>
      </trkpt>
      <trkpt lat="44.60704" lon="1.80925">
        <ele>301</ele>
        <time>2019-08-10T09:56:13.026Z</time>
      </trkpt>
      <trkpt lat="44.60709" lon="1.80922">
        <ele>302</ele>
        <time>2019-08-10T09:56:17.012Z</time>
      </trkpt>
      <trkpt lat="44.60715" lon="1.80918">
        <ele>302</ele>
        <time>2019-08-10T09:56:22.015Z</time>
      </trkpt>
      <trkpt lat="44.60723" lon="1.80912">
        <ele>302</ele>
        <time>2019-08-10T09:56:27.017Z</time>
      </trkpt>
      <trkpt lat="44.60731" lon="1.80906">
        <ele>302</ele>
        <time>2019-08-10T09:56:32.007Z</time>
      </trkpt>
      <trkpt lat="44.60735" lon="1.80898">
        <ele>301</ele>
        <time>2019-08-10T09:56:37.019Z</time>
      </trkpt>
      <trkpt lat="44.60736" lon="1.80887">
        <ele>301</ele>
        <time>2019-08-10T09:56:42.023Z</time>
      </trkpt>
      <trkpt lat="44.60739" lon="1.80877">
        <ele>301</ele>
        <time>2019-08-10T09:56:47.011Z</time>
      </trkpt>
      <trkpt lat="44.60742" lon="1.80871">
        <ele>302</ele>
        <time>2019-08-10T09:56:51.016Z</time>
      </trkpt>
      <trkpt lat="44.60745" lon="1.80864">
        <ele>302</ele>
        <time>2019-08-10T09:56:55.081Z</time>
      </trkpt>
      <trkpt lat="44.60748" lon="1.80855">
        <ele>302</ele>
        <time>2019-08-10T09:57:00.010Z</time>
      </trkpt>
      <trkpt lat="44.60751" lon="1.80846">
        <ele>303</ele>
        <time>2019-08-10T09:57:05.010Z</time>
      </trkpt>
      <trkpt lat="44.60754" lon="1.80838">
        <ele>303</ele>
        <time>2019-08-10T09:57:10.019Z</time>
      </trkpt>
      <trkpt lat="44.60757" lon="1.80829">
        <ele>303</ele>
        <time>2019-08-10T09:57:14.996Z</time>
      </trkpt>
      <trkpt lat="44.60762" lon="1.8082">
        <ele>303</ele>
        <time>2019-08-10T09:57:20.010Z</time>
      </trkpt>
      <trkpt lat="44.60764" lon="1.80811">
        <ele>303</ele>
        <time>2019-08-10T09:57:25.013Z</time>
      </trkpt>
      <trkpt lat="44.60768" lon="1.80802">
        <ele>303</ele>
        <time>2019-08-10T09:57:30.009Z</time>
      </trkpt>
      <trkpt lat="44.60772" lon="1.80795">
        <ele>303</ele>
        <time>2019-08-10T09:57:35.046Z</time>
      </trkpt>
      <trkpt lat="44.60776" lon="1.80785">
        <ele>303</ele>
        <time>2019-08-10T09:57:40.006Z</time>
      </trkpt>
      <trkpt lat="44.60779" lon="1.80779">
        <ele>303</ele>
        <time>2019-08-10T09:57:44.020Z</time>
      </trkpt>
      <trkpt lat="44.60784" lon="1.8077">
        <ele>303</ele>
        <time>2019-08-10T09:57:49.051Z</time>
      </trkpt>
      <trkpt lat="44.6079" lon="1.80762">
        <ele>303</ele>
        <time>2019-08-10T09:57:54.028Z</time>
      </trkpt>
      <trkpt lat="44.60796" lon="1.80755">
        <ele>302</ele>
        <time>2019-08-10T09:57:59.032Z</time>
      </trkpt>
      <trkpt lat="44.60801" lon="1.80754">
        <ele>302</ele>
        <time>2019-08-10T09:58:04.015Z</time>
      </trkpt>
      <trkpt lat="44.60803" lon="1.80749">
        <ele>302</ele>
        <time>2019-08-10T09:58:08.988Z</time>
      </trkpt>
      <trkpt lat="44.60807" lon="1.80742">
        <ele>302</ele>
        <time>2019-08-10T09:58:13.023Z</time>
      </trkpt>
      <trkpt lat="44.60813" lon="1.80734">
        <ele>302</ele>
        <time>2019-08-10T09:58:18.024Z</time>
      </trkpt>
      <trkpt lat="44.60819" lon="1.80726">
        <ele>299</ele>
        <time>2019-08-10T09:58:23.026Z</time>
      </trkpt>
      <trkpt lat="44.60824" lon="1.80717">
        <ele>299</ele>
        <time>2019-08-10T09:58:28.025Z</time>
      </trkpt>
      <trkpt lat="44.60827" lon="1.80712">
        <ele>299</ele>
        <time>2019-08-10T09:58:33.021Z</time>
      </trkpt>
      <trkpt lat="44.60831" lon="1.80706">
        <ele>299</ele>
        <time>2019-08-10T09:58:37.047Z</time>
      </trkpt>
      <trkpt lat="44.60837" lon="1.807">
        <ele>299</ele>
        <time>2019-08-10T09:58:42.034Z</time>
      </trkpt>
      <trkpt lat="44.60844" lon="1.80694">
        <ele>299</ele>
        <time>2019-08-10T09:58:47.022Z</time>
      </trkpt>
      <trkpt lat="44.60851" lon="1.80684">
        <ele>298</ele>
        <time>2019-08-10T09:58:52.007Z</time>
      </trkpt>
      <trkpt lat="44.60855" lon="1.80681">
        <ele>298</ele>
        <time>2019-08-10T09:58:56.018Z</time>
      </trkpt>
      <trkpt lat="44.60861" lon="1.80676">
        <ele>297</ele>
        <time>2019-08-10T09:59:01.011Z</time>
      </trkpt>
      <trkpt lat="44.60865" lon="1.8067">
        <ele>297</ele>
        <time>2019-08-10T09:59:06.016Z</time>
      </trkpt>
      <trkpt lat="44.6087" lon="1.80662">
        <ele>297</ele>
        <time>2019-08-10T09:59:11.020Z</time>
      </trkpt>
      <trkpt lat="44.60874" lon="1.80656">
        <ele>297</ele>
        <time>2019-08-10T09:59:16.010Z</time>
      </trkpt>
      <trkpt lat="44.60875" lon="1.80656">
        <ele>297</ele>
        <time>2019-08-10T09:59:21.020Z</time>
      </trkpt>
      <trkpt lat="44.60876" lon="1.80653">
        <ele>296</ele>
        <time>2019-08-10T09:59:26.011Z</time>
      </trkpt>
      <trkpt lat="44.6088" lon="1.80645">
        <ele>294</ele>
        <time>2019-08-10T09:59:31.019Z</time>
      </trkpt>
      <trkpt lat="44.60884" lon="1.80634">
        <ele>294</ele>
        <time>2019-08-10T09:59:36.023Z</time>
      </trkpt>
      <trkpt lat="44.60888" lon="1.80622">
        <ele>292</ele>
        <time>2019-08-10T09:59:41.018Z</time>
      </trkpt>
      <trkpt lat="44.60891" lon="1.80614">
        <ele>292</ele>
        <time>2019-08-10T09:59:46.028Z</time>
      </trkpt>
      <trkpt lat="44.60892" lon="1.80605">
        <ele>292</ele>
        <time>2019-08-10T09:59:51.007Z</time>
      </trkpt>
      <trkpt lat="44.60892" lon="1.80596">
        <ele>290</ele>
        <time>2019-08-10T09:59:56.022Z</time>
      </trkpt>
      <trkpt lat="44.60891" lon="1.80587">
        <ele>290</ele>
        <time>2019-08-10T10:00:01.008Z</time>
      </trkpt>
      <trkpt lat="44.6089" lon="1.80578">
        <ele>290</ele>
        <time>2019-08-10T10:00:06.013Z</time>
      </trkpt>
      <trkpt lat="44.60888" lon="1.80574">
        <ele>290</ele>
        <time>2019-08-10T10:00:11.003Z</time>
      </trkpt>
      <trkpt lat="44.60889" lon="1.80572">
        <ele>290</ele>
        <time>2019-08-10T10:00:16.010Z</time>
      </trkpt>
      <trkpt lat="44.60893" lon="1.80561">
        <ele>287</ele>
        <time>2019-08-10T10:00:21.026Z</time>
      </trkpt>
      <trkpt lat="44.60898" lon="1.80551">
        <ele>287</ele>
        <time>2019-08-10T10:00:26.016Z</time>
      </trkpt>
      <trkpt lat="44.609" lon="1.80541">
        <ele>284</ele>
        <time>2019-08-10T10:00:31.018Z</time>
      </trkpt>
      <trkpt lat="44.60904" lon="1.80534">
        <ele>283</ele>
        <time>2019-08-10T10:00:36.010Z</time>
      </trkpt>
      <trkpt lat="44.6091" lon="1.80522">
        <ele>283</ele>
        <time>2019-08-10T10:00:41.014Z</time>
      </trkpt>
      <trkpt lat="44.60916" lon="1.8052">
        <ele>283</ele>
        <time>2019-08-10T10:00:46.015Z</time>
      </trkpt>
      <trkpt lat="44.60923" lon="1.80519">
        <ele>283</ele>
        <time>2019-08-10T10:00:51.007Z</time>
      </trkpt>
      <trkpt lat="44.60928" lon="1.80516">
        <ele>283</ele>
        <time>2019-08-10T10:00:56.018Z</time>
      </trkpt>
      <trkpt lat="44.60939" lon="1.80513">
        <ele>281</ele>
        <time>2019-08-10T10:01:01.015Z</time>
      </trkpt>
      <trkpt lat="44.60947" lon="1.8051">
        <ele>281</ele>
        <time>2019-08-10T10:01:06.008Z</time>
      </trkpt>
      <trkpt lat="44.60955" lon="1.80503">
        <ele>281</ele>
        <time>2019-08-10T10:01:11.010Z</time>
      </trkpt>
      <trkpt lat="44.60962" lon="1.80498">
        <ele>280</ele>
        <time>2019-08-10T10:01:16.013Z</time>
      </trkpt>
      <trkpt lat="44.60967" lon="1.80491">
        <ele>280</ele>
        <time>2019-08-10T10:01:21.017Z</time>
      </trkpt>
      <trkpt lat="44.60972" lon="1.80487">
        <ele>280</ele>
        <time>2019-08-10T10:01:26.018Z</time>
      </trkpt>
      <trkpt lat="44.60976" lon="1.80482">
        <ele>279</ele>
        <time>2019-08-10T10:01:31.004Z</time>
      </trkpt>
      <trkpt lat="44.6098" lon="1.80475">
        <ele>279</ele>
        <time>2019-08-10T10:01:35.996Z</time>
      </trkpt>
      <trkpt lat="44.60984" lon="1.80464">
        <ele>279</ele>
        <time>2019-08-10T10:01:41.021Z</time>
      </trkpt>
      <trkpt lat="44.60987" lon="1.80457">
        <ele>278</ele>
        <time>2019-08-10T10:01:46.028Z</time>
      </trkpt>
      <trkpt lat="44.6099" lon="1.80451">
        <ele>278</ele>
        <time>2019-08-10T10:01:51.026Z</time>
      </trkpt>
      <trkpt lat="44.60993" lon="1.80442">
        <ele>278</ele>
        <time>2019-08-10T10:01:56.015Z</time>
      </trkpt>
      <trkpt lat="44.60998" lon="1.8043">
        <ele>276</ele>
        <time>2019-08-10T10:02:01.013Z</time>
      </trkpt>
      <trkpt lat="44.61003" lon="1.80422">
        <ele>276</ele>
        <time>2019-08-10T10:02:06.007Z</time>
      </trkpt>
      <trkpt lat="44.61006" lon="1.80415">
        <ele>276</ele>
        <time>2019-08-10T10:02:10.019Z</time>
      </trkpt>
      <trkpt lat="44.61005" lon="1.80414">
        <ele>276</ele>
        <time>2019-08-10T10:02:15.010Z</time>
      </trkpt>
      <trkpt lat="44.61006" lon="1.80413">
        <ele>276</ele>
        <time>2019-08-10T10:02:20.026Z</time>
      </trkpt>
      <trkpt lat="44.6101" lon="1.80409">
        <ele>276</ele>
        <time>2019-08-10T10:02:25.004Z</time>
      </trkpt>
      <trkpt lat="44.61018" lon="1.80401">
        <ele>271</ele>
        <time>2019-08-10T10:02:30.016Z</time>
      </trkpt>
      <trkpt lat="44.61025" lon="1.80391">
        <ele>271</ele>
        <time>2019-08-10T10:02:35.013Z</time>
      </trkpt>
      <trkpt lat="44.61028" lon="1.80388">
        <ele>271</ele>
        <time>2019-08-10T10:02:40.009Z</time>
      </trkpt>
      <trkpt lat="44.61036" lon="1.8038">
        <ele>271</ele>
        <time>2019-08-10T10:02:45.006Z</time>
      </trkpt>
      <trkpt lat="44.61045" lon="1.80372">
        <ele>268</ele>
        <time>2019-08-10T10:02:50.017Z</time>
      </trkpt>
      <trkpt lat="44.61052" lon="1.80363">
        <ele>268</ele>
        <time>2019-08-10T10:02:55.009Z</time>
      </trkpt>
      <trkpt lat="44.61057" lon="1.80356">
        <ele>268</ele>
        <time>2019-08-10T10:03:00.022Z</time>
      </trkpt>
      <trkpt lat="44.61063" lon="1.80351">
        <ele>268</ele>
        <time>2019-08-10T10:03:05.012Z</time>
      </trkpt>
      <trkpt lat="44.61067" lon="1.80347">
        <ele>268</ele>
        <time>2019-08-10T10:03:10.018Z</time>
      </trkpt>
      <trkpt lat="44.61075" lon="1.80336">
        <ele>266</ele>
        <time>2019-08-10T10:03:25.001Z</time>
      </trkpt>
      <trkpt lat="44.61075" lon="1.80336">
        <ele>266</ele>
        <time>2019-08-10T10:03:29.023Z</time>
      </trkpt>
      <trkpt lat="44.61078" lon="1.80333">
        <ele>266</ele>
        <time>2019-08-10T10:03:34.019Z</time>
      </trkpt>
      <trkpt lat="44.61084" lon="1.80328">
        <ele>266</ele>
        <time>2019-08-10T10:03:39.004Z</time>
      </trkpt>
      <trkpt lat="44.61084" lon="1.80327">
        <ele>266</ele>
        <time>2019-08-10T10:03:43.016Z</time>
      </trkpt>
      <trkpt lat="44.61085" lon="1.80324">
        <ele>266</ele>
        <time>2019-08-10T10:03:48.024Z</time>
      </trkpt>
      <trkpt lat="44.6109" lon="1.80314">
        <ele>267</ele>
        <time>2019-08-10T10:03:53.001Z</time>
      </trkpt>
      <trkpt lat="44.61098" lon="1.80299">
        <ele>267</ele>
        <time>2019-08-10T10:03:58.011Z</time>
      </trkpt>
      <trkpt lat="44.61103" lon="1.80286">
        <ele>267</ele>
        <time>2019-08-10T10:04:03.018Z</time>
      </trkpt>
      <trkpt lat="44.61104" lon="1.80286">
        <ele>267</ele>
        <time>2019-08-10T10:04:08.042Z</time>
      </trkpt>
      <trkpt lat="44.61109" lon="1.8028">
        <ele>267</ele>
        <time>2019-08-10T10:04:13.011Z</time>
      </trkpt>
      <trkpt lat="44.61116" lon="1.80271">
        <ele>267</ele>
        <time>2019-08-10T10:04:18.012Z</time>
      </trkpt>
      <trkpt lat="44.61121" lon="1.80262">
        <ele>267</ele>
        <time>2019-08-10T10:04:23.028Z</time>
      </trkpt>
      <trkpt lat="44.61124" lon="1.80254">
        <ele>267</ele>
        <time>2019-08-10T10:04:28.023Z</time>
      </trkpt>
      <trkpt lat="44.61124" lon="1.80248">
        <ele>267</ele>
        <time>2019-08-10T10:04:33.020Z</time>
      </trkpt>
      <trkpt lat="44.61127" lon="1.8024">
        <ele>267</ele>
        <time>2019-08-10T10:04:37.996Z</time>
      </trkpt>
      <trkpt lat="44.61129" lon="1.80235">
        <ele>266</ele>
        <time>2019-08-10T10:04:42.010Z</time>
      </trkpt>
      <trkpt lat="44.61132" lon="1.80229">
        <ele>266</ele>
        <time>2019-08-10T10:04:46.009Z</time>
      </trkpt>
      <trkpt lat="44.61137" lon="1.80223">
        <ele>266</ele>
        <time>2019-08-10T10:04:50.012Z</time>
      </trkpt>
      <trkpt lat="44.6114" lon="1.80216">
        <ele>266</ele>
        <time>2019-08-10T10:04:55.025Z</time>
      </trkpt>
      <trkpt lat="44.61144" lon="1.8021">
        <ele>266</ele>
        <time>2019-08-10T10:05:00.018Z</time>
      </trkpt>
      <trkpt lat="44.61149" lon="1.80206">
        <ele>266</ele>
        <time>2019-08-10T10:05:05.009Z</time>
      </trkpt>
      <trkpt lat="44.6115" lon="1.80199">
        <ele>266</ele>
        <time>2019-08-10T10:05:10.002Z</time>
      </trkpt>
      <trkpt lat="44.61153" lon="1.80192">
        <ele>268</ele>
        <time>2019-08-10T10:05:14.044Z</time>
      </trkpt>
      <trkpt lat="44.61159" lon="1.80187">
        <ele>268</ele>
        <time>2019-08-10T10:05:19.003Z</time>
      </trkpt>
      <trkpt lat="44.61165" lon="1.80178">
        <ele>267</ele>
        <time>2019-08-10T10:05:24.002Z</time>
      </trkpt>
      <trkpt lat="44.61167" lon="1.80169">
        <ele>267</ele>
        <time>2019-08-10T10:05:28.047Z</time>
      </trkpt>
      <trkpt lat="44.61167" lon="1.80167">
        <ele>267</ele>
        <time>2019-08-10T10:05:33.006Z</time>
      </trkpt>
      <trkpt lat="44.61169" lon="1.80165">
        <ele>267</ele>
        <time>2019-08-10T10:05:37.980Z</time>
      </trkpt>
      <trkpt lat="44.61171" lon="1.80159">
        <ele>267</ele>
        <time>2019-08-10T10:05:42.007Z</time>
      </trkpt>
      <trkpt lat="44.61175" lon="1.80153">
        <ele>267</ele>
        <time>2019-08-10T10:05:46.035Z</time>
      </trkpt>
      <trkpt lat="44.61181" lon="1.80148">
        <ele>269</ele>
        <time>2019-08-10T10:05:51.019Z</time>
      </trkpt>
      <trkpt lat="44.61184" lon="1.80144">
        <ele>269</ele>
        <time>2019-08-10T10:05:56.007Z</time>
      </trkpt>
      <trkpt lat="44.61193" lon="1.80138">
        <ele>269</ele>
        <time>2019-08-10T10:06:01.012Z</time>
      </trkpt>
      <trkpt lat="44.61199" lon="1.80131">
        <ele>269</ele>
        <time>2019-08-10T10:06:06.002Z</time>
      </trkpt>
      <trkpt lat="44.61204" lon="1.80127">
        <ele>269</ele>
        <time>2019-08-10T10:06:10.017Z</time>
      </trkpt>
      <trkpt lat="44.6121" lon="1.80121">
        <ele>268</ele>
        <time>2019-08-10T10:06:15.020Z</time>
      </trkpt>
      <trkpt lat="44.61211" lon="1.80115">
        <ele>268</ele>
        <time>2019-08-10T10:06:20.002Z</time>
      </trkpt>
      <trkpt lat="44.61219" lon="1.80111">
        <ele>268</ele>
        <time>2019-08-10T10:06:24.023Z</time>
      </trkpt>
      <trkpt lat="44.61227" lon="1.80104">
        <ele>268</ele>
        <time>2019-08-10T10:06:29.016Z</time>
      </trkpt>
      <trkpt lat="44.61233" lon="1.80096">
        <ele>268</ele>
        <time>2019-08-10T10:06:33.996Z</time>
      </trkpt>
      <trkpt lat="44.6124" lon="1.80092">
        <ele>268</ele>
        <time>2019-08-10T10:06:39.012Z</time>
      </trkpt>
      <trkpt lat="44.61247" lon="1.80089">
        <ele>268</ele>
        <time>2019-08-10T10:06:44.014Z</time>
      </trkpt>
      <trkpt lat="44.61253" lon="1.80089">
        <ele>268</ele>
        <time>2019-08-10T10:06:49.012Z</time>
      </trkpt>
      <trkpt lat="44.61265" lon="1.80087">
        <ele>270</ele>
        <time>2019-08-10T10:06:54.028Z</time>
      </trkpt>
      <trkpt lat="44.61274" lon="1.80079">
        <ele>270</ele>
        <time>2019-08-10T10:06:58Z</time>
      </trkpt>
      <trkpt lat="44.61293" lon="1.80065">
        <ele>270</ele>
        <time>2019-08-10T10:07:03.011Z</time>
      </trkpt>
      <trkpt lat="44.61313" lon="1.80053">
        <ele>270</ele>
        <time>2019-08-10T10:07:08.018Z</time>
      </trkpt>
      <trkpt lat="44.61326" lon="1.80041">
        <ele>269</ele>
        <time>2019-08-10T10:07:12.001Z</time>
      </trkpt>
      <trkpt lat="44.61343" lon="1.8003">
        <ele>269</ele>
        <time>2019-08-10T10:07:17.011Z</time>
      </trkpt>
      <trkpt lat="44.6136" lon="1.80022">
        <ele>267</ele>
        <time>2019-08-10T10:07:21.996Z</time>
      </trkpt>
      <trkpt lat="44.61379" lon="1.80014">
        <ele>268</ele>
        <time>2019-08-10T10:07:27.003Z</time>
      </trkpt>
      <trkpt lat="44.61393" lon="1.80009">
        <ele>268</ele>
        <time>2019-08-10T10:07:31.997Z</time>
      </trkpt>
      <trkpt lat="44.61399" lon="1.80007">
        <ele>268</ele>
        <time>2019-08-10T10:07:36.060Z</time>
      </trkpt>
      <trkpt lat="44.61405" lon="1.80003">
        <ele>269</ele>
        <time>2019-08-10T10:07:41.064Z</time>
      </trkpt>
      <trkpt lat="44.61409" lon="1.79998">
        <ele>269</ele>
        <time>2019-08-10T10:07:46.018Z</time>
      </trkpt>
      <trkpt lat="44.61414" lon="1.7999">
        <ele>269</ele>
        <time>2019-08-10T10:07:51.010Z</time>
      </trkpt>
      <trkpt lat="44.61421" lon="1.79981">
        <ele>268</ele>
        <time>2019-08-10T10:07:56.001Z</time>
      </trkpt>
      <trkpt lat="44.61428" lon="1.79978">
        <ele>268</ele>
        <time>2019-08-10T10:08:00.021Z</time>
      </trkpt>
      <trkpt lat="44.61436" lon="1.7997">
        <ele>268</ele>
        <time>2019-08-10T10:08:05.006Z</time>
      </trkpt>
      <trkpt lat="44.61444" lon="1.79965">
        <ele>268</ele>
        <time>2019-08-10T10:08:10.011Z</time>
      </trkpt>
      <trkpt lat="44.61447" lon="1.79969">
        <ele>268</ele>
        <time>2019-08-10T10:08:15.008Z</time>
      </trkpt>
      <trkpt lat="44.61451" lon="1.79972">
        <ele>268</ele>
        <time>2019-08-10T10:08:19.996Z</time>
      </trkpt>
      <trkpt lat="44.61457" lon="1.79972">
        <ele>268</ele>
        <time>2019-08-10T10:08:24.021Z</time>
      </trkpt>
      <trkpt lat="44.61465" lon="1.79968">
        <ele>268</ele>
        <time>2019-08-10T10:08:28.028Z</time>
      </trkpt>
      <trkpt lat="44.61475" lon="1.79964">
        <ele>268</ele>
        <time>2019-08-10T10:08:32.985Z</time>
      </trkpt>
      <trkpt lat="44.61481" lon="1.79963">
        <ele>268</ele>
        <time>2019-08-10T10:08:37.011Z</time>
      </trkpt>
      <trkpt lat="44.61486" lon="1.79956">
        <ele>268</ele>
        <time>2019-08-10T10:08:41.999Z</time>
      </trkpt>
      <trkpt lat="44.61487" lon="1.79947">
        <ele>268</ele>
        <time>2019-08-10T10:08:46.114Z</time>
      </trkpt>
      <trkpt lat="44.61491" lon="1.7994">
        <ele>268</ele>
        <time>2019-08-10T10:08:51.019Z</time>
      </trkpt>
      <trkpt lat="44.61498" lon="1.79934">
        <ele>268</ele>
        <time>2019-08-10T10:08:56.007Z</time>
      </trkpt>
      <trkpt lat="44.61502" lon="1.79929">
        <ele>269</ele>
        <time>2019-08-10T10:09:00.003Z</time>
      </trkpt>
      <trkpt lat="44.61509" lon="1.79922">
        <ele>269</ele>
        <time>2019-08-10T10:09:05.014Z</time>
      </trkpt>
      <trkpt lat="44.61513" lon="1.79917">
        <ele>269</ele>
        <time>2019-08-10T10:09:10.012Z</time>
      </trkpt>
      <trkpt lat="44.61519" lon="1.7991">
        <ele>268</ele>
        <time>2019-08-10T10:09:15.008Z</time>
      </trkpt>
      <trkpt lat="44.61524" lon="1.79905">
        <ele>268</ele>
        <time>2019-08-10T10:09:20.011Z</time>
      </trkpt>
      <trkpt lat="44.61528" lon="1.79901">
        <ele>269</ele>
        <time>2019-08-10T10:09:25.011Z</time>
      </trkpt>
      <trkpt lat="44.61532" lon="1.79889">
        <ele>269</ele>
        <time>2019-08-10T10:09:30.059Z</time>
      </trkpt>
      <trkpt lat="44.61539" lon="1.7988">
        <ele>269</ele>
        <time>2019-08-10T10:09:35.018Z</time>
      </trkpt>
      <trkpt lat="44.61544" lon="1.79875">
        <ele>267</ele>
        <time>2019-08-10T10:09:40.011Z</time>
      </trkpt>
      <trkpt lat="44.61551" lon="1.7987">
        <ele>269</ele>
        <time>2019-08-10T10:09:44.989Z</time>
      </trkpt>
      <trkpt lat="44.61555" lon="1.79866">
        <ele>269</ele>
        <time>2019-08-10T10:09:49.016Z</time>
      </trkpt>
      <trkpt lat="44.61561" lon="1.79861">
        <ele>269</ele>
        <time>2019-08-10T10:09:53.999Z</time>
      </trkpt>
      <trkpt lat="44.61565" lon="1.79858">
        <ele>269</ele>
        <time>2019-08-10T10:09:58.011Z</time>
      </trkpt>
      <trkpt lat="44.61569" lon="1.79856">
        <ele>269</ele>
        <time>2019-08-10T10:10:02.025Z</time>
      </trkpt>
      <trkpt lat="44.61578" lon="1.79846">
        <ele>270</ele>
        <time>2019-08-10T10:10:07.013Z</time>
      </trkpt>
      <trkpt lat="44.61586" lon="1.79839">
        <ele>270</ele>
        <time>2019-08-10T10:10:12.014Z</time>
      </trkpt>
      <trkpt lat="44.61589" lon="1.79836">
        <ele>270</ele>
        <time>2019-08-10T10:10:16.018Z</time>
      </trkpt>
      <trkpt lat="44.61594" lon="1.79829">
        <ele>270</ele>
        <time>2019-08-10T10:10:21.036Z</time>
      </trkpt>
      <trkpt lat="44.61603" lon="1.79822">
        <ele>270</ele>
        <time>2019-08-10T10:10:26.002Z</time>
      </trkpt>
      <trkpt lat="44.61609" lon="1.79817">
        <ele>270</ele>
        <time>2019-08-10T10:10:30.008Z</time>
      </trkpt>
      <trkpt lat="44.61612" lon="1.79809">
        <ele>270</ele>
        <time>2019-08-10T10:10:34.019Z</time>
      </trkpt>
      <trkpt lat="44.61619" lon="1.798">
        <ele>270</ele>
        <time>2019-08-10T10:10:39.006Z</time>
      </trkpt>
      <trkpt lat="44.61625" lon="1.79793">
        <ele>270</ele>
        <time>2019-08-10T10:10:44.008Z</time>
      </trkpt>
      <trkpt lat="44.61628" lon="1.7979">
        <ele>269</ele>
        <time>2019-08-10T10:10:48.014Z</time>
      </trkpt>
      <trkpt lat="44.61631" lon="1.79789">
        <ele>269</ele>
        <time>2019-08-10T10:10:53.009Z</time>
      </trkpt>
      <trkpt lat="44.61638" lon="1.79784">
        <ele>269</ele>
        <time>2019-08-10T10:10:58.010Z</time>
      </trkpt>
      <trkpt lat="44.61644" lon="1.79781">
        <ele>269</ele>
        <time>2019-08-10T10:11:02.982Z</time>
      </trkpt>
      <trkpt lat="44.6165" lon="1.79779">
        <ele>269</ele>
        <time>2019-08-10T10:11:07.011Z</time>
      </trkpt>
      <trkpt lat="44.61655" lon="1.79776">
        <ele>268</ele>
        <time>2019-08-10T10:11:12.020Z</time>
      </trkpt>
      <trkpt lat="44.61662" lon="1.79771">
        <ele>268</ele>
        <time>2019-08-10T10:11:16.042Z</time>
      </trkpt>
      <trkpt lat="44.61672" lon="1.79769">
        <ele>268</ele>
        <time>2019-08-10T10:11:21.015Z</time>
      </trkpt>
      <trkpt lat="44.61695" lon="1.7976">
        <ele>268</ele>
        <time>2019-08-10T10:11:26.121Z</time>
      </trkpt>
      <trkpt lat="44.61725" lon="1.79744">
        <ele>268</ele>
        <time>2019-08-10T10:11:31.010Z</time>
      </trkpt>
      <trkpt lat="44.61755" lon="1.79719">
        <ele>268</ele>
        <time>2019-08-10T10:11:36.022Z</time>
      </trkpt>
      <trkpt lat="44.61779" lon="1.79699">
        <ele>267</ele>
        <time>2019-08-10T10:11:40.056Z</time>
      </trkpt>
      <trkpt lat="44.61796" lon="1.79685">
        <ele>267</ele>
        <time>2019-08-10T10:11:45.010Z</time>
      </trkpt>
      <trkpt lat="44.61801" lon="1.79678">
        <ele>269</ele>
        <time>2019-08-10T10:11:50.032Z</time>
      </trkpt>
      <trkpt lat="44.61806" lon="1.79673">
        <ele>269</ele>
        <time>2019-08-10T10:11:54.048Z</time>
      </trkpt>
      <trkpt lat="44.61811" lon="1.7967">
        <ele>269</ele>
        <time>2019-08-10T10:11:59.002Z</time>
      </trkpt>
      <trkpt lat="44.61816" lon="1.79664">
        <ele>269</ele>
        <time>2019-08-10T10:12:04.035Z</time>
      </trkpt>
      <trkpt lat="44.61823" lon="1.79656">
        <ele>270</ele>
        <time>2019-08-10T10:12:09.012Z</time>
      </trkpt>
      <trkpt lat="44.6183" lon="1.79651">
        <ele>272</ele>
        <time>2019-08-10T10:12:14.009Z</time>
      </trkpt>
      <trkpt lat="44.61836" lon="1.79645">
        <ele>272</ele>
        <time>2019-08-10T10:12:18.027Z</time>
      </trkpt>
      <trkpt lat="44.61843" lon="1.79642">
        <ele>272</ele>
        <time>2019-08-10T10:12:23.013Z</time>
      </trkpt>
      <trkpt lat="44.61851" lon="1.79635">
        <ele>271</ele>
        <time>2019-08-10T10:12:28.043Z</time>
      </trkpt>
      <trkpt lat="44.61857" lon="1.79629">
        <ele>271</ele>
        <time>2019-08-10T10:12:32.070Z</time>
      </trkpt>
      <trkpt lat="44.61857" lon="1.79619">
        <ele>272</ele>
        <time>2019-08-10T10:12:37.004Z</time>
      </trkpt>
      <trkpt lat="44.61859" lon="1.79614">
        <ele>272</ele>
        <time>2019-08-10T10:12:41.016Z</time>
      </trkpt>
      <trkpt lat="44.61863" lon="1.79605">
        <ele>272</ele>
        <time>2019-08-10T10:12:46.018Z</time>
      </trkpt>
      <trkpt lat="44.61867" lon="1.79599">
        <ele>272</ele>
        <time>2019-08-10T10:12:51.020Z</time>
      </trkpt>
      <trkpt lat="44.61867" lon="1.79596">
        <ele>273</ele>
        <time>2019-08-10T10:12:56.018Z</time>
      </trkpt>
      <trkpt lat="44.6187" lon="1.79591">
        <ele>273</ele>
        <time>2019-08-10T10:13:00.026Z</time>
      </trkpt>
      <trkpt lat="44.61875" lon="1.7958">
        <ele>272</ele>
        <time>2019-08-10T10:13:05.032Z</time>
      </trkpt>
      <trkpt lat="44.61881" lon="1.79572">
        <ele>272</ele>
        <time>2019-08-10T10:13:10.073Z</time>
      </trkpt>
      <trkpt lat="44.61886" lon="1.79562">
        <ele>271</ele>
        <time>2019-08-10T10:13:15.004Z</time>
      </trkpt>
      <trkpt lat="44.61891" lon="1.79554">
        <ele>271</ele>
        <time>2019-08-10T10:13:20.022Z</time>
      </trkpt>
      <trkpt lat="44.61895" lon="1.79547">
        <ele>271</ele>
        <time>2019-08-10T10:13:25.007Z</time>
      </trkpt>
      <trkpt lat="44.61899" lon="1.79538">
        <ele>271</ele>
        <time>2019-08-10T10:13:30.029Z</time>
      </trkpt>
      <trkpt lat="44.61905" lon="1.79529">
        <ele>269</ele>
        <time>2019-08-10T10:13:35.006Z</time>
      </trkpt>
      <trkpt lat="44.61913" lon="1.79522">
        <ele>269</ele>
        <time>2019-08-10T10:13:40.018Z</time>
      </trkpt>
      <trkpt lat="44.61915" lon="1.79512">
        <ele>270</ele>
        <time>2019-08-10T10:13:45.007Z</time>
      </trkpt>
      <trkpt lat="44.6192" lon="1.79501">
        <ele>270</ele>
        <time>2019-08-10T10:13:50.013Z</time>
      </trkpt>
      <trkpt lat="44.61926" lon="1.79494">
        <ele>270</ele>
        <time>2019-08-10T10:13:55.005Z</time>
      </trkpt>
      <trkpt lat="44.6193" lon="1.79485">
        <ele>272</ele>
        <time>2019-08-10T10:14:00.006Z</time>
      </trkpt>
      <trkpt lat="44.61935" lon="1.79479">
        <ele>271</ele>
        <time>2019-08-10T10:14:05.014Z</time>
      </trkpt>
      <trkpt lat="44.6194" lon="1.79467">
        <ele>271</ele>
        <time>2019-08-10T10:14:10.003Z</time>
      </trkpt>
      <trkpt lat="44.61943" lon="1.79456">
        <ele>272</ele>
        <time>2019-08-10T10:14:15.002Z</time>
      </trkpt>
      <trkpt lat="44.61946" lon="1.7945">
        <ele>272</ele>
        <time>2019-08-10T10:14:20.016Z</time>
      </trkpt>
      <trkpt lat="44.61951" lon="1.79446">
        <ele>272</ele>
        <time>2019-08-10T10:14:25.015Z</time>
      </trkpt>
      <trkpt lat="44.61956" lon="1.7944">
        <ele>272</ele>
        <time>2019-08-10T10:14:30.016Z</time>
      </trkpt>
      <trkpt lat="44.61959" lon="1.79436">
        <ele>270</ele>
        <time>2019-08-10T10:14:35.002Z</time>
      </trkpt>
      <trkpt lat="44.61961" lon="1.79427">
        <ele>270</ele>
        <time>2019-08-10T10:14:40.047Z</time>
      </trkpt>
      <trkpt lat="44.61965" lon="1.79419">
        <ele>270</ele>
        <time>2019-08-10T10:14:44.031Z</time>
      </trkpt>
      <trkpt lat="44.61968" lon="1.79404">
        <ele>270</ele>
        <time>2019-08-10T10:14:49.019Z</time>
      </trkpt>
      <trkpt lat="44.61976" lon="1.79382">
        <ele>272</ele>
        <time>2019-08-10T10:14:54.012Z</time>
      </trkpt>
      <trkpt lat="44.6199" lon="1.79359">
        <ele>272</ele>
        <time>2019-08-10T10:14:58.005Z</time>
      </trkpt>
      <trkpt lat="44.6201" lon="1.79325">
        <ele>273</ele>
        <time>2019-08-10T10:15:03.009Z</time>
      </trkpt>
      <trkpt lat="44.6202" lon="1.79308">
        <ele>272</ele>
        <time>2019-08-10T10:15:08.025Z</time>
      </trkpt>
      <trkpt lat="44.62025" lon="1.79297">
        <ele>272</ele>
        <time>2019-08-10T10:15:13.004Z</time>
      </trkpt>
      <trkpt lat="44.6203" lon="1.79286">
        <ele>273</ele>
        <time>2019-08-10T10:15:17.976Z</time>
      </trkpt>
      <trkpt lat="44.62033" lon="1.79276">
        <ele>273</ele>
        <time>2019-08-10T10:15:22.035Z</time>
      </trkpt>
      <trkpt lat="44.62039" lon="1.79268">
        <ele>273</ele>
        <time>2019-08-10T10:15:27.025Z</time>
      </trkpt>
      <trkpt lat="44.62049" lon="1.79264">
        <ele>271</ele>
        <time>2019-08-10T10:15:32.007Z</time>
      </trkpt>
      <trkpt lat="44.62051" lon="1.79267">
        <ele>271</ele>
        <time>2019-08-10T10:15:36.012Z</time>
      </trkpt>
      <trkpt lat="44.6206" lon="1.79268">
        <ele>271</ele>
        <time>2019-08-10T10:15:41.005Z</time>
      </trkpt>
      <trkpt lat="44.62071" lon="1.79267">
        <ele>271</ele>
        <time>2019-08-10T10:15:46.007Z</time>
      </trkpt>
      <trkpt lat="44.62078" lon="1.79265">
        <ele>271</ele>
        <time>2019-08-10T10:15:51.011Z</time>
      </trkpt>
      <trkpt lat="44.62084" lon="1.79262">
        <ele>273</ele>
        <time>2019-08-10T10:15:56.015Z</time>
      </trkpt>
      <trkpt lat="44.62089" lon="1.79254">
        <ele>273</ele>
        <time>2019-08-10T10:16:00.038Z</time>
      </trkpt>
      <trkpt lat="44.62094" lon="1.79246">
        <ele>273</ele>
        <time>2019-08-10T10:16:05.013Z</time>
      </trkpt>
      <trkpt lat="44.62099" lon="1.79245">
        <ele>276</ele>
        <time>2019-08-10T10:16:10.019Z</time>
      </trkpt>
      <trkpt lat="44.62105" lon="1.79239">
        <ele>276</ele>
        <time>2019-08-10T10:16:14.985Z</time>
      </trkpt>
      <trkpt lat="44.62108" lon="1.79232">
        <ele>278</ele>
        <time>2019-08-10T10:16:19.007Z</time>
      </trkpt>
      <trkpt lat="44.62113" lon="1.79229">
        <ele>278</ele>
        <time>2019-08-10T10:16:24.037Z</time>
      </trkpt>
      <trkpt lat="44.6212" lon="1.79227">
        <ele>278</ele>
        <time>2019-08-10T10:16:29.016Z</time>
      </trkpt>
      <trkpt lat="44.62127" lon="1.79221">
        <ele>280</ele>
        <time>2019-08-10T10:16:34.031Z</time>
      </trkpt>
      <trkpt lat="44.62134" lon="1.79216">
        <ele>280</ele>
        <time>2019-08-10T10:16:39.003Z</time>
      </trkpt>
      <trkpt lat="44.62142" lon="1.79214">
        <ele>280</ele>
        <time>2019-08-10T10:16:44.035Z</time>
      </trkpt>
      <trkpt lat="44.6215" lon="1.79212">
        <ele>280</ele>
        <time>2019-08-10T10:16:49.005Z</time>
      </trkpt>
      <trkpt lat="44.62156" lon="1.79209">
        <ele>281</ele>
        <time>2019-08-10T10:16:54.016Z</time>
      </trkpt>
      <trkpt lat="44.62163" lon="1.79208">
        <ele>283</ele>
        <time>2019-08-10T10:16:59.014Z</time>
      </trkpt>
      <trkpt lat="44.62164" lon="1.79207">
        <ele>283</ele>
        <time>2019-08-10T10:17:04.002Z</time>
      </trkpt>
      <trkpt lat="44.6217" lon="1.792">
        <ele>283</ele>
        <time>2019-08-10T10:17:08.013Z</time>
      </trkpt>
      <trkpt lat="44.62177" lon="1.79194">
        <ele>283</ele>
        <time>2019-08-10T10:17:13.018Z</time>
      </trkpt>
      <trkpt lat="44.62183" lon="1.79187">
        <ele>281</ele>
        <time>2019-08-10T10:17:18.002Z</time>
      </trkpt>
      <trkpt lat="44.62187" lon="1.79179">
        <ele>284</ele>
        <time>2019-08-10T10:17:23.009Z</time>
      </trkpt>
      <trkpt lat="44.62191" lon="1.79173">
        <ele>284</ele>
        <time>2019-08-10T10:17:27.995Z</time>
      </trkpt>
      <trkpt lat="44.62195" lon="1.79165">
        <ele>284</ele>
        <time>2019-08-10T10:17:32.998Z</time>
      </trkpt>
      <trkpt lat="44.622" lon="1.79158">
        <ele>284</ele>
        <time>2019-08-10T10:17:37.007Z</time>
      </trkpt>
      <trkpt lat="44.62203" lon="1.79152">
        <ele>284</ele>
        <time>2019-08-10T10:17:42.022Z</time>
      </trkpt>
      <trkpt lat="44.62207" lon="1.79142">
        <ele>284</ele>
        <time>2019-08-10T10:17:47.012Z</time>
      </trkpt>
      <trkpt lat="44.62213" lon="1.7913">
        <ele>282</ele>
        <time>2019-08-10T10:17:52.031Z</time>
      </trkpt>
      <trkpt lat="44.62219" lon="1.79122">
        <ele>282</ele>
        <time>2019-08-10T10:17:57.013Z</time>
      </trkpt>
      <trkpt lat="44.62225" lon="1.79114">
        <ele>282</ele>
        <time>2019-08-10T10:18:01.980Z</time>
      </trkpt>
      <trkpt lat="44.62227" lon="1.79104">
        <ele>282</ele>
        <time>2019-08-10T10:18:06.052Z</time>
      </trkpt>
      <trkpt lat="44.62232" lon="1.79096">
        <ele>284</ele>
        <time>2019-08-10T10:18:11.010Z</time>
      </trkpt>
      <trkpt lat="44.62233" lon="1.79091">
        <ele>284</ele>
        <time>2019-08-10T10:18:16.011Z</time>
      </trkpt>
      <trkpt lat="44.62235" lon="1.79081">
        <ele>284</ele>
        <time>2019-08-10T10:18:21.021Z</time>
      </trkpt>
      <trkpt lat="44.62239" lon="1.79073">
        <ele>283</ele>
        <time>2019-08-10T10:18:26.014Z</time>
      </trkpt>
      <trkpt lat="44.62241" lon="1.79065">
        <ele>284</ele>
        <time>2019-08-10T10:18:31.012Z</time>
      </trkpt>
      <trkpt lat="44.62244" lon="1.79057">
        <ele>284</ele>
        <time>2019-08-10T10:18:35.990Z</time>
      </trkpt>
      <trkpt lat="44.62249" lon="1.79044">
        <ele>284</ele>
        <time>2019-08-10T10:18:41.019Z</time>
      </trkpt>
      <trkpt lat="44.62249" lon="1.79033">
        <ele>284</ele>
        <time>2019-08-10T10:18:46Z</time>
      </trkpt>
      <trkpt lat="44.6225" lon="1.79022">
        <ele>284</ele>
        <time>2019-08-10T10:18:51.018Z</time>
      </trkpt>
      <trkpt lat="44.6225" lon="1.79013">
        <ele>284</ele>
        <time>2019-08-10T10:18:56.010Z</time>
      </trkpt>
      <trkpt lat="44.62251" lon="1.79003">
        <ele>284</ele>
        <time>2019-08-10T10:19:01.019Z</time>
      </trkpt>
      <trkpt lat="44.6225" lon="1.78991">
        <ele>284</ele>
        <time>2019-08-10T10:19:06.016Z</time>
      </trkpt>
      <trkpt lat="44.62251" lon="1.78981">
        <ele>285</ele>
        <time>2019-08-10T10:19:11.021Z</time>
      </trkpt>
      <trkpt lat="44.62252" lon="1.7897">
        <ele>285</ele>
        <time>2019-08-10T10:19:16.016Z</time>
      </trkpt>
      <trkpt lat="44.62252" lon="1.78962">
        <ele>285</ele>
        <time>2019-08-10T10:19:21.016Z</time>
      </trkpt>
      <trkpt lat="44.62251" lon="1.78952">
        <ele>286</ele>
        <time>2019-08-10T10:19:25.998Z</time>
      </trkpt>
      <trkpt lat="44.62253" lon="1.78941">
        <ele>286</ele>
        <time>2019-08-10T10:19:31.017Z</time>
      </trkpt>
      <trkpt lat="44.62255" lon="1.7893">
        <ele>287</ele>
        <time>2019-08-10T10:19:36.011Z</time>
      </trkpt>
      <trkpt lat="44.62259" lon="1.7892">
        <ele>287</ele>
        <time>2019-08-10T10:19:41.015Z</time>
      </trkpt>
      <trkpt lat="44.62259" lon="1.78918">
        <ele>287</ele>
        <time>2019-08-10T10:19:46.029Z</time>
      </trkpt>
      <trkpt lat="44.6226" lon="1.78915">
        <ele>287</ele>
        <time>2019-08-10T10:19:51.015Z</time>
      </trkpt>
      <trkpt lat="44.62258" lon="1.78911">
        <ele>287</ele>
        <time>2019-08-10T10:19:56.014Z</time>
      </trkpt>
      <trkpt lat="44.62261" lon="1.78905">
        <ele>287</ele>
        <time>2019-08-10T10:20:01.012Z</time>
      </trkpt>
      <trkpt lat="44.62265" lon="1.78896">
        <ele>285</ele>
        <time>2019-08-10T10:20:06.021Z</time>
      </trkpt>
      <trkpt lat="44.62268" lon="1.78888">
        <ele>285</ele>
        <time>2019-08-10T10:20:11.008Z</time>
      </trkpt>
      <trkpt lat="44.6227" lon="1.78878">
        <ele>285</ele>
        <time>2019-08-10T10:20:16.025Z</time>
      </trkpt>
      <trkpt lat="44.62274" lon="1.78867">
        <ele>285</ele>
        <time>2019-08-10T10:20:21.010Z</time>
      </trkpt>
      <trkpt lat="44.62277" lon="1.78859">
        <ele>285</ele>
        <time>2019-08-10T10:20:26.012Z</time>
      </trkpt>
      <trkpt lat="44.62279" lon="1.78849">
        <ele>285</ele>
        <time>2019-08-10T10:20:31.022Z</time>
      </trkpt>
      <trkpt lat="44.6228" lon="1.78841">
        <ele>286</ele>
        <time>2019-08-10T10:20:36.015Z</time>
      </trkpt>
      <trkpt lat="44.62281" lon="1.7883">
        <ele>286</ele>
        <time>2019-08-10T10:20:41.003Z</time>
      </trkpt>
      <trkpt lat="44.62284" lon="1.78818">
        <ele>287</ele>
        <time>2019-08-10T10:20:46.018Z</time>
      </trkpt>
      <trkpt lat="44.62283" lon="1.7881">
        <ele>287</ele>
        <time>2019-08-10T10:20:51.012Z</time>
      </trkpt>
      <trkpt lat="44.62283" lon="1.78801">
        <ele>287</ele>
        <time>2019-08-10T10:20:56.014Z</time>
      </trkpt>
      <trkpt lat="44.62283" lon="1.78786">
        <ele>288</ele>
        <time>2019-08-10T10:21:01.022Z</time>
      </trkpt>
      <trkpt lat="44.62286" lon="1.78773">
        <ele>288</ele>
        <time>2019-08-10T10:21:05.987Z</time>
      </trkpt>
      <trkpt lat="44.62288" lon="1.78768">
        <ele>288</ele>
        <time>2019-08-10T10:21:10.008Z</time>
      </trkpt>
      <trkpt lat="44.62291" lon="1.78757">
        <ele>288</ele>
        <time>2019-08-10T10:21:15.022Z</time>
      </trkpt>
      <trkpt lat="44.62289" lon="1.7875">
        <ele>288</ele>
        <time>2019-08-10T10:21:20.014Z</time>
      </trkpt>
      <trkpt lat="44.62293" lon="1.78728">
        <ele>288</ele>
        <time>2019-08-10T10:21:25.019Z</time>
      </trkpt>
      <trkpt lat="44.62307" lon="1.78695">
        <ele>289</ele>
        <time>2019-08-10T10:21:29.993Z</time>
      </trkpt>
      <trkpt lat="44.62314" lon="1.78667">
        <ele>291</ele>
        <time>2019-08-10T10:21:34.010Z</time>
      </trkpt>
      <trkpt lat="44.6232" lon="1.78651">
        <ele>292</ele>
        <time>2019-08-10T10:21:39.020Z</time>
      </trkpt>
      <trkpt lat="44.6232" lon="1.78641">
        <ele>292</ele>
        <time>2019-08-10T10:21:44.012Z</time>
      </trkpt>
      <trkpt lat="44.62322" lon="1.78633">
        <ele>292</ele>
        <time>2019-08-10T10:21:49.016Z</time>
      </trkpt>
      <trkpt lat="44.62325" lon="1.78625">
        <ele>294</ele>
        <time>2019-08-10T10:21:54.007Z</time>
      </trkpt>
      <trkpt lat="44.62327" lon="1.78613">
        <ele>294</ele>
        <time>2019-08-10T10:21:59.023Z</time>
      </trkpt>
      <trkpt lat="44.62328" lon="1.78602">
        <ele>294</ele>
        <time>2019-08-10T10:22:04.023Z</time>
      </trkpt>
      <trkpt lat="44.62331" lon="1.78592">
        <ele>296</ele>
        <time>2019-08-10T10:22:09.004Z</time>
      </trkpt>
      <trkpt lat="44.62331" lon="1.78584">
        <ele>296</ele>
        <time>2019-08-10T10:22:13.018Z</time>
      </trkpt>
      <trkpt lat="44.62333" lon="1.78575">
        <ele>296</ele>
        <time>2019-08-10T10:22:18.020Z</time>
      </trkpt>
      <trkpt lat="44.62335" lon="1.78567">
        <ele>299</ele>
        <time>2019-08-10T10:22:23.021Z</time>
      </trkpt>
      <trkpt lat="44.6234" lon="1.78557">
        <ele>299</ele>
        <time>2019-08-10T10:22:28.023Z</time>
      </trkpt>
      <trkpt lat="44.62344" lon="1.78549">
        <ele>299</ele>
        <time>2019-08-10T10:22:33.013Z</time>
      </trkpt>
      <trkpt lat="44.6235" lon="1.78541">
        <ele>296</ele>
        <time>2019-08-10T10:22:38.007Z</time>
      </trkpt>
      <trkpt lat="44.62357" lon="1.78531">
        <ele>296</ele>
        <time>2019-08-10T10:22:43.021Z</time>
      </trkpt>
      <trkpt lat="44.62362" lon="1.78523">
        <ele>296</ele>
        <time>2019-08-10T10:22:48.015Z</time>
      </trkpt>
      <trkpt lat="44.62366" lon="1.78519">
        <ele>296</ele>
        <time>2019-08-10T10:22:53.016Z</time>
      </trkpt>
      <trkpt lat="44.62369" lon="1.78513">
        <ele>297</ele>
        <time>2019-08-10T10:22:58.020Z</time>
      </trkpt>
      <trkpt lat="44.62375" lon="1.785">
        <ele>297</ele>
        <time>2019-08-10T10:23:03.006Z</time>
      </trkpt>
      <trkpt lat="44.62377" lon="1.78492">
        <ele>296</ele>
        <time>2019-08-10T10:23:08.023Z</time>
      </trkpt>
      <trkpt lat="44.62376" lon="1.78482">
        <ele>297</ele>
        <time>2019-08-10T10:23:13.022Z</time>
      </trkpt>
      <trkpt lat="44.6238" lon="1.7847">
        <ele>297</ele>
        <time>2019-08-10T10:23:18.009Z</time>
      </trkpt>
      <trkpt lat="44.62384" lon="1.78456">
        <ele>298</ele>
        <time>2019-08-10T10:23:23.011Z</time>
      </trkpt>
      <trkpt lat="44.62389" lon="1.7845">
        <ele>298</ele>
        <time>2019-08-10T10:23:28.012Z</time>
      </trkpt>
      <trkpt lat="44.62394" lon="1.78444">
        <ele>298</ele>
        <time>2019-08-10T10:23:33.023Z</time>
      </trkpt>
      <trkpt lat="44.62399" lon="1.7844">
        <ele>298</ele>
        <time>2019-08-10T10:23:38.003Z</time>
      </trkpt>
      <trkpt lat="44.62406" lon="1.78432">
        <ele>299</ele>
        <time>2019-08-10T10:23:43.016Z</time>
      </trkpt>
      <trkpt lat="44.62411" lon="1.78429">
        <ele>301</ele>
        <time>2019-08-10T10:23:48.025Z</time>
      </trkpt>
      <trkpt lat="44.62418" lon="1.78422">
        <ele>301</ele>
        <time>2019-08-10T10:23:53.018Z</time>
      </trkpt>
      <trkpt lat="44.62425" lon="1.78421">
        <ele>301</ele>
        <time>2019-08-10T10:23:58.012Z</time>
      </trkpt>
      <trkpt lat="44.62431" lon="1.78418">
        <ele>302</ele>
        <time>2019-08-10T10:24:03.018Z</time>
      </trkpt>
      <trkpt lat="44.62437" lon="1.78414">
        <ele>302</ele>
        <time>2019-08-10T10:24:08.019Z</time>
      </trkpt>
      <trkpt lat="44.62444" lon="1.78406">
        <ele>302</ele>
        <time>2019-08-10T10:24:13.015Z</time>
      </trkpt>
      <trkpt lat="44.6245" lon="1.784">
        <ele>304</ele>
        <time>2019-08-10T10:24:18.005Z</time>
      </trkpt>
      <trkpt lat="44.62453" lon="1.78397">
        <ele>304</ele>
        <time>2019-08-10T10:24:22.018Z</time>
      </trkpt>
      <trkpt lat="44.62458" lon="1.78388">
        <ele>304</ele>
        <time>2019-08-10T10:24:27.012Z</time>
      </trkpt>
      <trkpt lat="44.6246" lon="1.78383">
        <ele>303</ele>
        <time>2019-08-10T10:24:32.011Z</time>
      </trkpt>
      <trkpt lat="44.62459" lon="1.78374">
        <ele>305</ele>
        <time>2019-08-10T10:24:37.022Z</time>
      </trkpt>
      <trkpt lat="44.62463" lon="1.78366">
        <ele>305</ele>
        <time>2019-08-10T10:24:42.023Z</time>
      </trkpt>
      <trkpt lat="44.62466" lon="1.7836">
        <ele>305</ele>
        <time>2019-08-10T10:24:47.019Z</time>
      </trkpt>
      <trkpt lat="44.6247" lon="1.78354">
        <ele>305</ele>
        <time>2019-08-10T10:24:52.017Z</time>
      </trkpt>
      <trkpt lat="44.62474" lon="1.78346">
        <ele>306</ele>
        <time>2019-08-10T10:24:57.028Z</time>
      </trkpt>
      <trkpt lat="44.62478" lon="1.78336">
        <ele>306</ele>
        <time>2019-08-10T10:25:02.016Z</time>
      </trkpt>
      <trkpt lat="44.62481" lon="1.78323">
        <ele>306</ele>
        <time>2019-08-10T10:25:07.010Z</time>
      </trkpt>
      <trkpt lat="44.62483" lon="1.78316">
        <ele>307</ele>
        <time>2019-08-10T10:25:12.027Z</time>
      </trkpt>
      <trkpt lat="44.62486" lon="1.78307">
        <ele>307</ele>
        <time>2019-08-10T10:25:17.022Z</time>
      </trkpt>
      <trkpt lat="44.62488" lon="1.78298">
        <ele>305</ele>
        <time>2019-08-10T10:25:22.035Z</time>
      </trkpt>
      <trkpt lat="44.62491" lon="1.78288">
        <ele>306</ele>
        <time>2019-08-10T10:25:27.011Z</time>
      </trkpt>
      <trkpt lat="44.62495" lon="1.78284">
        <ele>306</ele>
        <time>2019-08-10T10:25:32Z</time>
      </trkpt>
      <trkpt lat="44.62497" lon="1.78279">
        <ele>306</ele>
        <time>2019-08-10T10:25:36.024Z</time>
      </trkpt>
      <trkpt lat="44.62499" lon="1.78271">
        <ele>306</ele>
        <time>2019-08-10T10:25:40.998Z</time>
      </trkpt>
      <trkpt lat="44.62501" lon="1.78265">
        <ele>306</ele>
        <time>2019-08-10T10:25:45.017Z</time>
      </trkpt>
      <trkpt lat="44.62503" lon="1.78257">
        <ele>308</ele>
        <time>2019-08-10T10:25:50.016Z</time>
      </trkpt>
      <trkpt lat="44.62507" lon="1.78244">
        <ele>308</ele>
        <time>2019-08-10T10:25:55.016Z</time>
      </trkpt>
      <trkpt lat="44.62513" lon="1.78233">
        <ele>310</ele>
        <time>2019-08-10T10:26:00.021Z</time>
      </trkpt>
      <trkpt lat="44.62517" lon="1.78226">
        <ele>308</ele>
        <time>2019-08-10T10:26:05.009Z</time>
      </trkpt>
      <trkpt lat="44.62522" lon="1.78219">
        <ele>308</ele>
        <time>2019-08-10T10:26:10.021Z</time>
      </trkpt>
      <trkpt lat="44.62525" lon="1.78215">
        <ele>308</ele>
        <time>2019-08-10T10:26:15.014Z</time>
      </trkpt>
      <trkpt lat="44.62527" lon="1.78208">
        <ele>308</ele>
        <time>2019-08-10T10:26:20.027Z</time>
      </trkpt>
      <trkpt lat="44.62532" lon="1.782">
        <ele>309</ele>
        <time>2019-08-10T10:26:25.010Z</time>
      </trkpt>
      <trkpt lat="44.62535" lon="1.78198">
        <ele>309</ele>
        <time>2019-08-10T10:26:29.027Z</time>
      </trkpt>
      <trkpt lat="44.62537" lon="1.78194">
        <ele>309</ele>
        <time>2019-08-10T10:26:34.016Z</time>
      </trkpt>
      <trkpt lat="44.62544" lon="1.78181">
        <ele>309</ele>
        <time>2019-08-10T10:26:39.016Z</time>
      </trkpt>
      <trkpt lat="44.62548" lon="1.78181">
        <ele>309</ele>
        <time>2019-08-10T10:26:43.994Z</time>
      </trkpt>
      <trkpt lat="44.62551" lon="1.78171">
        <ele>311</ele>
        <time>2019-08-10T10:26:48.012Z</time>
      </trkpt>
      <trkpt lat="44.62557" lon="1.78163">
        <ele>311</ele>
        <time>2019-08-10T10:26:52.999Z</time>
      </trkpt>
      <trkpt lat="44.62558" lon="1.78158">
        <ele>311</ele>
        <time>2019-08-10T10:26:57.999Z</time>
      </trkpt>
      <trkpt lat="44.62562" lon="1.78151">
        <ele>312</ele>
        <time>2019-08-10T10:27:02.023Z</time>
      </trkpt>
      <trkpt lat="44.62567" lon="1.78143">
        <ele>312</ele>
        <time>2019-08-10T10:27:07.006Z</time>
      </trkpt>
      <trkpt lat="44.6257" lon="1.78135">
        <ele>312</ele>
        <time>2019-08-10T10:27:12.010Z</time>
      </trkpt>
      <trkpt lat="44.62573" lon="1.78129">
        <ele>312</ele>
        <time>2019-08-10T10:27:16.016Z</time>
      </trkpt>
      <trkpt lat="44.6258" lon="1.78122">
        <ele>313</ele>
        <time>2019-08-10T10:27:21.020Z</time>
      </trkpt>
      <trkpt lat="44.62585" lon="1.78112">
        <ele>313</ele>
        <time>2019-08-10T10:27:26.017Z</time>
      </trkpt>
      <trkpt lat="44.62586" lon="1.78109">
        <ele>313</ele>
        <time>2019-08-10T10:27:31.020Z</time>
      </trkpt>
      <trkpt lat="44.62589" lon="1.78099">
        <ele>313</ele>
        <time>2019-08-10T10:27:35.996Z</time>
      </trkpt>
      <trkpt lat="44.62591" lon="1.78093">
        <ele>314</ele>
        <time>2019-08-10T10:27:40.008Z</time>
      </trkpt>
      <trkpt lat="44.62593" lon="1.78083">
        <ele>314</ele>
        <time>2019-08-10T10:27:45.021Z</time>
      </trkpt>
      <trkpt lat="44.62599" lon="1.78076">
        <ele>315</ele>
        <time>2019-08-10T10:27:50.010Z</time>
      </trkpt>
      <trkpt lat="44.62604" lon="1.78072">
        <ele>315</ele>
        <time>2019-08-10T10:27:54.020Z</time>
      </trkpt>
      <trkpt lat="44.62606" lon="1.7807">
        <ele>315</ele>
        <time>2019-08-10T10:27:59.009Z</time>
      </trkpt>
      <trkpt lat="44.62613" lon="1.78065">
        <ele>315</ele>
        <time>2019-08-10T10:28:04.023Z</time>
      </trkpt>
      <trkpt lat="44.62622" lon="1.78057">
        <ele>315</ele>
        <time>2019-08-10T10:28:09.014Z</time>
      </trkpt>
      <trkpt lat="44.62628" lon="1.78046">
        <ele>316</ele>
        <time>2019-08-10T10:28:14.030Z</time>
      </trkpt>
      <trkpt lat="44.62635" lon="1.78041">
        <ele>315</ele>
        <time>2019-08-10T10:28:19.019Z</time>
      </trkpt>
      <trkpt lat="44.62642" lon="1.78038">
        <ele>315</ele>
        <time>2019-08-10T10:28:24.010Z</time>
      </trkpt>
      <trkpt lat="44.62647" lon="1.78034">
        <ele>315</ele>
        <time>2019-08-10T10:28:29.026Z</time>
      </trkpt>
      <trkpt lat="44.62653" lon="1.78025">
        <ele>316</ele>
        <time>2019-08-10T10:28:34.020Z</time>
      </trkpt>
      <trkpt lat="44.62658" lon="1.78018">
        <ele>316</ele>
        <time>2019-08-10T10:28:39.013Z</time>
      </trkpt>
      <trkpt lat="44.62662" lon="1.78013">
        <ele>316</ele>
        <time>2019-08-10T10:28:43.037Z</time>
      </trkpt>
      <trkpt lat="44.62664" lon="1.7801">
        <ele>316</ele>
        <time>2019-08-10T10:28:48.018Z</time>
      </trkpt>
      <trkpt lat="44.62667" lon="1.78006">
        <ele>316</ele>
        <time>2019-08-10T10:28:52.026Z</time>
      </trkpt>
      <trkpt lat="44.62671" lon="1.78002">
        <ele>316</ele>
        <time>2019-08-10T10:28:57.014Z</time>
      </trkpt>
      <trkpt lat="44.62676" lon="1.77998">
        <ele>316</ele>
        <time>2019-08-10T10:29:02.014Z</time>
      </trkpt>
      <trkpt lat="44.62683" lon="1.77988">
        <ele>316</ele>
        <time>2019-08-10T10:29:07.020Z</time>
      </trkpt>
      <trkpt lat="44.62689" lon="1.77982">
        <ele>317</ele>
        <time>2019-08-10T10:29:12.014Z</time>
      </trkpt>
      <trkpt lat="44.62694" lon="1.77979">
        <ele>317</ele>
        <time>2019-08-10T10:29:17.030Z</time>
      </trkpt>
      <trkpt lat="44.62701" lon="1.77971">
        <ele>317</ele>
        <time>2019-08-10T10:29:22.005Z</time>
      </trkpt>
      <trkpt lat="44.6271" lon="1.77967">
        <ele>317</ele>
        <time>2019-08-10T10:29:27.005Z</time>
      </trkpt>
      <trkpt lat="44.62714" lon="1.77966">
        <ele>317</ele>
        <time>2019-08-10T10:29:32.010Z</time>
      </trkpt>
      <trkpt lat="44.6272" lon="1.77958">
        <ele>317</ele>
        <time>2019-08-10T10:29:37.028Z</time>
      </trkpt>
      <trkpt lat="44.62726" lon="1.77949">
        <ele>317</ele>
        <time>2019-08-10T10:29:42.013Z</time>
      </trkpt>
      <trkpt lat="44.62731" lon="1.77941">
        <ele>317</ele>
        <time>2019-08-10T10:29:46.030Z</time>
      </trkpt>
      <trkpt lat="44.62738" lon="1.77932">
        <ele>318</ele>
        <time>2019-08-10T10:29:51.025Z</time>
      </trkpt>
      <trkpt lat="44.62742" lon="1.77921">
        <ele>321</ele>
        <time>2019-08-10T10:29:56.006Z</time>
      </trkpt>
      <trkpt lat="44.62745" lon="1.77912">
        <ele>321</ele>
        <time>2019-08-10T10:30:01.029Z</time>
      </trkpt>
      <trkpt lat="44.62749" lon="1.77903">
        <ele>321</ele>
        <time>2019-08-10T10:30:06.014Z</time>
      </trkpt>
      <trkpt lat="44.62753" lon="1.77893">
        <ele>322</ele>
        <time>2019-08-10T10:30:11.029Z</time>
      </trkpt>
      <trkpt lat="44.62755" lon="1.77883">
        <ele>322</ele>
        <time>2019-08-10T10:30:16.010Z</time>
      </trkpt>
      <trkpt lat="44.6276" lon="1.77872">
        <ele>323</ele>
        <time>2019-08-10T10:30:21.035Z</time>
      </trkpt>
      <trkpt lat="44.62766" lon="1.77867">
        <ele>323</ele>
        <time>2019-08-10T10:30:26.009Z</time>
      </trkpt>
      <trkpt lat="44.62772" lon="1.77862">
        <ele>323</ele>
        <time>2019-08-10T10:30:31.047Z</time>
      </trkpt>
      <trkpt lat="44.62779" lon="1.77857">
        <ele>323</ele>
        <time>2019-08-10T10:30:36.020Z</time>
      </trkpt>
      <trkpt lat="44.62787" lon="1.77851">
        <ele>323</ele>
        <time>2019-08-10T10:30:41.028Z</time>
      </trkpt>
      <trkpt lat="44.62795" lon="1.77847">
        <ele>323</ele>
        <time>2019-08-10T10:30:46.024Z</time>
      </trkpt>
      <trkpt lat="44.62799" lon="1.77846">
        <ele>323</ele>
        <time>2019-08-10T10:30:51.019Z</time>
      </trkpt>
      <trkpt lat="44.62806" lon="1.77837">
        <ele>323</ele>
        <time>2019-08-10T10:30:56.022Z</time>
      </trkpt>
      <trkpt lat="44.62811" lon="1.77836">
        <ele>323</ele>
        <time>2019-08-10T10:31:01.021Z</time>
      </trkpt>
      <trkpt lat="44.62817" lon="1.7783">
        <ele>323</ele>
        <time>2019-08-10T10:31:05.087Z</time>
      </trkpt>
      <trkpt lat="44.62823" lon="1.77827">
        <ele>322</ele>
        <time>2019-08-10T10:31:10.003Z</time>
      </trkpt>
      <trkpt lat="44.62827" lon="1.77823">
        <ele>322</ele>
        <time>2019-08-10T10:31:15.027Z</time>
      </trkpt>
      <trkpt lat="44.62834" lon="1.77821">
        <ele>322</ele>
        <time>2019-08-10T10:31:20.014Z</time>
      </trkpt>
      <trkpt lat="44.62838" lon="1.77814">
        <ele>323</ele>
        <time>2019-08-10T10:31:25.026Z</time>
      </trkpt>
      <trkpt lat="44.62844" lon="1.77804">
        <ele>323</ele>
        <time>2019-08-10T10:31:30.011Z</time>
      </trkpt>
      <trkpt lat="44.62851" lon="1.77798">
        <ele>322</ele>
        <time>2019-08-10T10:31:34.990Z</time>
      </trkpt>
      <trkpt lat="44.62858" lon="1.77789">
        <ele>322</ele>
        <time>2019-08-10T10:31:40.013Z</time>
      </trkpt>
      <trkpt lat="44.62864" lon="1.77785">
        <ele>322</ele>
        <time>2019-08-10T10:31:45.026Z</time>
      </trkpt>
      <trkpt lat="44.62872" lon="1.77777">
        <ele>322</ele>
        <time>2019-08-10T10:31:50.012Z</time>
      </trkpt>
      <trkpt lat="44.62877" lon="1.77774">
        <ele>322</ele>
        <time>2019-08-10T10:31:55.018Z</time>
      </trkpt>
      <trkpt lat="44.62882" lon="1.77773">
        <ele>322</ele>
        <time>2019-08-10T10:32:00.009Z</time>
      </trkpt>
      <trkpt lat="44.62887" lon="1.77767">
        <ele>322</ele>
        <time>2019-08-10T10:32:05.062Z</time>
      </trkpt>
      <trkpt lat="44.62894" lon="1.77759">
        <ele>322</ele>
        <time>2019-08-10T10:32:10.020Z</time>
      </trkpt>
      <trkpt lat="44.629" lon="1.77755">
        <ele>322</ele>
        <time>2019-08-10T10:32:15.019Z</time>
      </trkpt>
      <trkpt lat="44.62907" lon="1.77753">
        <ele>322</ele>
        <time>2019-08-10T10:32:20.019Z</time>
      </trkpt>
      <trkpt lat="44.62914" lon="1.77746">
        <ele>322</ele>
        <time>2019-08-10T10:32:25.018Z</time>
      </trkpt>
      <trkpt lat="44.6292" lon="1.77743">
        <ele>322</ele>
        <time>2019-08-10T10:32:30.007Z</time>
      </trkpt>
      <trkpt lat="44.62928" lon="1.77739">
        <ele>322</ele>
        <time>2019-08-10T10:32:35.018Z</time>
      </trkpt>
      <trkpt lat="44.62934" lon="1.77732">
        <ele>323</ele>
        <time>2019-08-10T10:32:39.020Z</time>
      </trkpt>
      <trkpt lat="44.6294" lon="1.77727">
        <ele>323</ele>
        <time>2019-08-10T10:32:43.080Z</time>
      </trkpt>
      <trkpt lat="44.62945" lon="1.7772">
        <ele>323</ele>
        <time>2019-08-10T10:32:48.016Z</time>
      </trkpt>
      <trkpt lat="44.62947" lon="1.77711">
        <ele>323</ele>
        <time>2019-08-10T10:32:52.018Z</time>
      </trkpt>
      <trkpt lat="44.62948" lon="1.77704">
        <ele>323</ele>
        <time>2019-08-10T10:32:57.021Z</time>
      </trkpt>
      <trkpt lat="44.62954" lon="1.77692">
        <ele>323</ele>
        <time>2019-08-10T10:33:02.010Z</time>
      </trkpt>
      <trkpt lat="44.62958" lon="1.77679">
        <ele>324</ele>
        <time>2019-08-10T10:33:07.013Z</time>
      </trkpt>
      <trkpt lat="44.62962" lon="1.77674">
        <ele>324</ele>
        <time>2019-08-10T10:33:11.994Z</time>
      </trkpt>
      <trkpt lat="44.62965" lon="1.77663">
        <ele>324</ele>
        <time>2019-08-10T10:33:16.016Z</time>
      </trkpt>
      <trkpt lat="44.62968" lon="1.77655">
        <ele>324</ele>
        <time>2019-08-10T10:33:21.016Z</time>
      </trkpt>
      <trkpt lat="44.62971" lon="1.77642">
        <ele>325</ele>
        <time>2019-08-10T10:33:26.017Z</time>
      </trkpt>
      <trkpt lat="44.62978" lon="1.77635">
        <ele>325</ele>
        <time>2019-08-10T10:33:31.026Z</time>
      </trkpt>
      <trkpt lat="44.62982" lon="1.77631">
        <ele>325</ele>
        <time>2019-08-10T10:33:36.016Z</time>
      </trkpt>
      <trkpt lat="44.62986" lon="1.77622">
        <ele>325</ele>
        <time>2019-08-10T10:33:41.024Z</time>
      </trkpt>
      <trkpt lat="44.62993" lon="1.77613">
        <ele>323</ele>
        <time>2019-08-10T10:33:46.027Z</time>
      </trkpt>
      <trkpt lat="44.62999" lon="1.7761">
        <ele>323</ele>
        <time>2019-08-10T10:33:51.012Z</time>
      </trkpt>
      <trkpt lat="44.63004" lon="1.77606">
        <ele>323</ele>
        <time>2019-08-10T10:33:55.987Z</time>
      </trkpt>
      <trkpt lat="44.63006" lon="1.77605">
        <ele>323</ele>
        <time>2019-08-10T10:34:00.019Z</time>
      </trkpt>
      <trkpt lat="44.63007" lon="1.77603">
        <ele>323</ele>
        <time>2019-08-10T10:34:05.029Z</time>
      </trkpt>
      <trkpt lat="44.63009" lon="1.77597">
        <ele>323</ele>
        <time>2019-08-10T10:34:09.018Z</time>
      </trkpt>
      <trkpt lat="44.63014" lon="1.77588">
        <ele>320</ele>
        <time>2019-08-10T10:34:14Z</time>
      </trkpt>
      <trkpt lat="44.63018" lon="1.77582">
        <ele>320</ele>
        <time>2019-08-10T10:34:18.015Z</time>
      </trkpt>
      <trkpt lat="44.63024" lon="1.77572">
        <ele>320</ele>
        <time>2019-08-10T10:34:23.009Z</time>
      </trkpt>
      <trkpt lat="44.63031" lon="1.77561">
        <ele>322</ele>
        <time>2019-08-10T10:34:27.038Z</time>
      </trkpt>
      <trkpt lat="44.63039" lon="1.77549">
        <ele>322</ele>
        <time>2019-08-10T10:34:32.040Z</time>
      </trkpt>
      <trkpt lat="44.63046" lon="1.7754">
        <ele>320</ele>
        <time>2019-08-10T10:34:37.011Z</time>
      </trkpt>
      <trkpt lat="44.63049" lon="1.77542">
        <ele>318</ele>
        <time>2019-08-10T10:34:41.016Z</time>
      </trkpt>
      <trkpt lat="44.63054" lon="1.77534">
        <ele>320</ele>
        <time>2019-08-10T10:34:46.021Z</time>
      </trkpt>
      <trkpt lat="44.63061" lon="1.77526">
        <ele>320</ele>
        <time>2019-08-10T10:34:51.016Z</time>
      </trkpt>
      <trkpt lat="44.63067" lon="1.7752">
        <ele>320</ele>
        <time>2019-08-10T10:34:55.026Z</time>
      </trkpt>
      <trkpt lat="44.63074" lon="1.77515">
        <ele>319</ele>
        <time>2019-08-10T10:35:00.015Z</time>
      </trkpt>
      <trkpt lat="44.63078" lon="1.77516">
        <ele>319</ele>
        <time>2019-08-10T10:35:04.998Z</time>
      </trkpt>
      <trkpt lat="44.6308" lon="1.77517">
        <ele>319</ele>
        <time>2019-08-10T10:35:09.012Z</time>
      </trkpt>
      <trkpt lat="44.63083" lon="1.77514">
        <ele>321</ele>
        <time>2019-08-10T10:35:14.023Z</time>
      </trkpt>
      <trkpt lat="44.63086" lon="1.77508">
        <ele>321</ele>
        <time>2019-08-10T10:35:19.009Z</time>
      </trkpt>
      <trkpt lat="44.63089" lon="1.775">
        <ele>321</ele>
        <time>2019-08-10T10:35:23.042Z</time>
      </trkpt>
      <trkpt lat="44.63094" lon="1.77494">
        <ele>321</ele>
        <time>2019-08-10T10:35:28.016Z</time>
      </trkpt>
      <trkpt lat="44.63102" lon="1.77487">
        <ele>324</ele>
        <time>2019-08-10T10:35:32.994Z</time>
      </trkpt>
      <trkpt lat="44.63111" lon="1.77477">
        <ele>327</ele>
        <time>2019-08-10T10:35:38.009Z</time>
      </trkpt>
      <trkpt lat="44.63117" lon="1.77476">
        <ele>327</ele>
        <time>2019-08-10T10:35:43.018Z</time>
      </trkpt>
      <trkpt lat="44.63122" lon="1.7747">
        <ele>327</ele>
        <time>2019-08-10T10:35:48.013Z</time>
      </trkpt>
      <trkpt lat="44.63125" lon="1.77469">
        <ele>327</ele>
        <time>2019-08-10T10:35:53.020Z</time>
      </trkpt>
      <trkpt lat="44.63132" lon="1.77461">
        <ele>328</ele>
        <time>2019-08-10T10:35:58.022Z</time>
      </trkpt>
      <trkpt lat="44.63139" lon="1.77458">
        <ele>329</ele>
        <time>2019-08-10T10:36:03.007Z</time>
      </trkpt>
      <trkpt lat="44.63143" lon="1.77453">
        <ele>329</ele>
        <time>2019-08-10T10:36:08.005Z</time>
      </trkpt>
      <trkpt lat="44.6315" lon="1.77449">
        <ele>329</ele>
        <time>2019-08-10T10:36:13.005Z</time>
      </trkpt>
      <trkpt lat="44.63156" lon="1.77444">
        <ele>331</ele>
        <time>2019-08-10T10:36:18.013Z</time>
      </trkpt>
      <trkpt lat="44.63161" lon="1.77436">
        <ele>331</ele>
        <time>2019-08-10T10:36:22.022Z</time>
      </trkpt>
      <trkpt lat="44.63168" lon="1.77437">
        <ele>331</ele>
        <time>2019-08-10T10:36:27.012Z</time>
      </trkpt>
      <trkpt lat="44.63175" lon="1.77434">
        <ele>331</ele>
        <time>2019-08-10T10:36:32.020Z</time>
      </trkpt>
      <trkpt lat="44.63178" lon="1.77425">
        <ele>331</ele>
        <time>2019-08-10T10:36:37.020Z</time>
      </trkpt>
      <trkpt lat="44.63182" lon="1.77412">
        <ele>332</ele>
        <time>2019-08-10T10:36:42.011Z</time>
      </trkpt>
      <trkpt lat="44.63188" lon="1.77404">
        <ele>332</ele>
        <time>2019-08-10T10:36:47.013Z</time>
      </trkpt>
      <trkpt lat="44.63192" lon="1.77393">
        <ele>332</ele>
        <time>2019-08-10T10:36:52.012Z</time>
      </trkpt>
      <trkpt lat="44.63198" lon="1.77389">
        <ele>332</ele>
        <time>2019-08-10T10:36:57.013Z</time>
      </trkpt>
      <trkpt lat="44.63202" lon="1.77383">
        <ele>332</ele>
        <time>2019-08-10T10:37:01.020Z</time>
      </trkpt>
      <trkpt lat="44.63205" lon="1.77376">
        <ele>332</ele>
        <time>2019-08-10T10:37:06.011Z</time>
      </trkpt>
      <trkpt lat="44.63211" lon="1.77364">
        <ele>330</ele>
        <time>2019-08-10T10:37:11.006Z</time>
      </trkpt>
      <trkpt lat="44.63219" lon="1.77358">
        <ele>330</ele>
        <time>2019-08-10T10:37:16.021Z</time>
      </trkpt>
      <trkpt lat="44.63226" lon="1.77352">
        <ele>330</ele>
        <time>2019-08-10T10:37:21.030Z</time>
      </trkpt>
      <trkpt lat="44.63232" lon="1.77347">
        <ele>330</ele>
        <time>2019-08-10T10:37:26.019Z</time>
      </trkpt>
      <trkpt lat="44.63237" lon="1.77343">
        <ele>331</ele>
        <time>2019-08-10T10:37:31.007Z</time>
      </trkpt>
      <trkpt lat="44.63243" lon="1.7734">
        <ele>331</ele>
        <time>2019-08-10T10:37:36.012Z</time>
      </trkpt>
      <trkpt lat="44.63251" lon="1.77341">
        <ele>331</ele>
        <time>2019-08-10T10:37:41.022Z</time>
      </trkpt>
      <trkpt lat="44.63256" lon="1.7733">
        <ele>331</ele>
        <time>2019-08-10T10:37:46.011Z</time>
      </trkpt>
      <trkpt lat="44.63261" lon="1.77321">
        <ele>331</ele>
        <time>2019-08-10T10:37:51.012Z</time>
      </trkpt>
      <trkpt lat="44.63267" lon="1.77312">
        <ele>333</ele>
        <time>2019-08-10T10:37:56.019Z</time>
      </trkpt>
      <trkpt lat="44.63272" lon="1.77308">
        <ele>333</ele>
        <time>2019-08-10T10:38:00.989Z</time>
      </trkpt>
      <trkpt lat="44.63279" lon="1.77302">
        <ele>333</ele>
        <time>2019-08-10T10:38:05.002Z</time>
      </trkpt>
      <trkpt lat="44.6328" lon="1.77302">
        <ele>333</ele>
        <time>2019-08-10T10:38:09.018Z</time>
      </trkpt>
      <trkpt lat="44.6328" lon="1.77302">
        <ele>333</ele>
        <time>2019-08-10T10:38:14.016Z</time>
      </trkpt>
      <trkpt lat="44.6328" lon="1.77302">
        <ele>333</ele>
        <time>2019-08-10T10:38:19.008Z</time>
      </trkpt>
      <trkpt lat="44.63285" lon="1.77298">
        <ele>333</ele>
        <time>2019-08-10T10:38:23.017Z</time>
      </trkpt>
      <trkpt lat="44.63293" lon="1.77295">
        <ele>333</ele>
        <time>2019-08-10T10:38:28.021Z</time>
      </trkpt>
      <trkpt lat="44.633" lon="1.77294">
        <ele>333</ele>
        <time>2019-08-10T10:38:32.005Z</time>
      </trkpt>
      <trkpt lat="44.63304" lon="1.77302">
        <ele>333</ele>
        <time>2019-08-10T10:38:37.011Z</time>
      </trkpt>
      <trkpt lat="44.63312" lon="1.773">
        <ele>333</ele>
        <time>2019-08-10T10:38:42.006Z</time>
      </trkpt>
      <trkpt lat="44.63321" lon="1.77295">
        <ele>332</ele>
        <time>2019-08-10T10:38:47.012Z</time>
      </trkpt>
      <trkpt lat="44.63326" lon="1.77299">
        <ele>332</ele>
        <time>2019-08-10T10:38:52.014Z</time>
      </trkpt>
      <trkpt lat="44.63329" lon="1.773">
        <ele>332</ele>
        <time>2019-08-10T10:38:57.028Z</time>
      </trkpt>
      <trkpt lat="44.63335" lon="1.77294">
        <ele>332</ele>
        <time>2019-08-10T10:39:02.012Z</time>
      </trkpt>
      <trkpt lat="44.63342" lon="1.77291">
        <ele>334</ele>
        <time>2019-08-10T10:39:07.008Z</time>
      </trkpt>
      <trkpt lat="44.63346" lon="1.77287">
        <ele>334</ele>
        <time>2019-08-10T10:39:11.022Z</time>
      </trkpt>
      <trkpt lat="44.63351" lon="1.77278">
        <ele>333</ele>
        <time>2019-08-10T10:39:16.017Z</time>
      </trkpt>
      <trkpt lat="44.63361" lon="1.7727">
        <ele>333</ele>
        <time>2019-08-10T10:39:21.020Z</time>
      </trkpt>
      <trkpt lat="44.6337" lon="1.77265">
        <ele>333</ele>
        <time>2019-08-10T10:39:26.014Z</time>
      </trkpt>
      <trkpt lat="44.63377" lon="1.77264">
        <ele>333</ele>
        <time>2019-08-10T10:39:31.021Z</time>
      </trkpt>
      <trkpt lat="44.63383" lon="1.77261">
        <ele>334</ele>
        <time>2019-08-10T10:39:36.002Z</time>
      </trkpt>
      <trkpt lat="44.63389" lon="1.77259">
        <ele>334</ele>
        <time>2019-08-10T10:39:40.018Z</time>
      </trkpt>
      <trkpt lat="44.63397" lon="1.77257">
        <ele>334</ele>
        <time>2019-08-10T10:39:45.012Z</time>
      </trkpt>
      <trkpt lat="44.63404" lon="1.77255">
        <ele>334</ele>
        <time>2019-08-10T10:39:50.013Z</time>
      </trkpt>
      <trkpt lat="44.6341" lon="1.77255">
        <ele>334</ele>
        <time>2019-08-10T10:39:55.022Z</time>
      </trkpt>
      <trkpt lat="44.63418" lon="1.77255">
        <ele>334</ele>
        <time>2019-08-10T10:40:00.009Z</time>
      </trkpt>
      <trkpt lat="44.63426" lon="1.77256">
        <ele>334</ele>
        <time>2019-08-10T10:40:05.013Z</time>
      </trkpt>
      <trkpt lat="44.63431" lon="1.77258">
        <ele>337</ele>
        <time>2019-08-10T10:40:10.022Z</time>
      </trkpt>
      <trkpt lat="44.63438" lon="1.7726">
        <ele>337</ele>
        <time>2019-08-10T10:40:15.019Z</time>
      </trkpt>
      <trkpt lat="44.63444" lon="1.77263">
        <ele>337</ele>
        <time>2019-08-10T10:40:20.031Z</time>
      </trkpt>
      <trkpt lat="44.6345" lon="1.77266">
        <ele>336</ele>
        <time>2019-08-10T10:40:25.021Z</time>
      </trkpt>
      <trkpt lat="44.63459" lon="1.77261">
        <ele>338</ele>
        <time>2019-08-10T10:40:30.017Z</time>
      </trkpt>
      <trkpt lat="44.63467" lon="1.77256">
        <ele>338</ele>
        <time>2019-08-10T10:40:35.008Z</time>
      </trkpt>
      <trkpt lat="44.63475" lon="1.77254">
        <ele>338</ele>
        <time>2019-08-10T10:40:40.036Z</time>
      </trkpt>
      <trkpt lat="44.63483" lon="1.77253">
        <ele>338</ele>
        <time>2019-08-10T10:40:45.017Z</time>
      </trkpt>
      <trkpt lat="44.63491" lon="1.77256">
        <ele>338</ele>
        <time>2019-08-10T10:40:50.012Z</time>
      </trkpt>
      <trkpt lat="44.63497" lon="1.7726">
        <ele>338</ele>
        <time>2019-08-10T10:40:55.019Z</time>
      </trkpt>
      <trkpt lat="44.63501" lon="1.77261">
        <ele>338</ele>
        <time>2019-08-10T10:41:00.021Z</time>
      </trkpt>
      <trkpt lat="44.63505" lon="1.77262">
        <ele>338</ele>
        <time>2019-08-10T10:41:05.013Z</time>
      </trkpt>
      <trkpt lat="44.63514" lon="1.77265">
        <ele>343</ele>
        <time>2019-08-10T10:41:10.012Z</time>
      </trkpt>
      <trkpt lat="44.63521" lon="1.77265">
        <ele>343</ele>
        <time>2019-08-10T10:41:15.017Z</time>
      </trkpt>
      <trkpt lat="44.63532" lon="1.7726">
        <ele>342</ele>
        <time>2019-08-10T10:41:20.010Z</time>
      </trkpt>
      <trkpt lat="44.63539" lon="1.77265">
        <ele>343</ele>
        <time>2019-08-10T10:41:25.018Z</time>
      </trkpt>
      <trkpt lat="44.63548" lon="1.77263">
        <ele>344</ele>
        <time>2019-08-10T10:41:30.017Z</time>
      </trkpt>
      <trkpt lat="44.63555" lon="1.7726">
        <ele>344</ele>
        <time>2019-08-10T10:41:35.023Z</time>
      </trkpt>
      <trkpt lat="44.63563" lon="1.77258">
        <ele>344</ele>
        <time>2019-08-10T10:41:40.020Z</time>
      </trkpt>
      <trkpt lat="44.6357" lon="1.77261">
        <ele>344</ele>
        <time>2019-08-10T10:41:45.020Z</time>
      </trkpt>
      <trkpt lat="44.63578" lon="1.7726">
        <ele>344</ele>
        <time>2019-08-10T10:41:50.013Z</time>
      </trkpt>
      <trkpt lat="44.63585" lon="1.77265">
        <ele>344</ele>
        <time>2019-08-10T10:41:55.021Z</time>
      </trkpt>
      <trkpt lat="44.63586" lon="1.77272">
        <ele>344</ele>
        <time>2019-08-10T10:42:00.011Z</time>
      </trkpt>
      <trkpt lat="44.63583" lon="1.77277">
        <ele>344</ele>
        <time>2019-08-10T10:42:05.015Z</time>
      </trkpt>
      <trkpt lat="44.63585" lon="1.77281">
        <ele>344</ele>
        <time>2019-08-10T10:42:25.012Z</time>
      </trkpt>
      <trkpt lat="44.63586" lon="1.77283">
        <ele>344</ele>
        <time>2019-08-10T10:42:30.007Z</time>
      </trkpt>
      <trkpt lat="44.63587" lon="1.77283">
        <ele>344</ele>
        <time>2019-08-10T10:42:35.012Z</time>
      </trkpt>
      <trkpt lat="44.63588" lon="1.77284">
        <ele>344</ele>
        <time>2019-08-10T10:42:40.019Z</time>
      </trkpt>
      <trkpt lat="44.63591" lon="1.77288">
        <ele>344</ele>
        <time>2019-08-10T10:42:45.007Z</time>
      </trkpt>
      <trkpt lat="44.6358" lon="1.77301">
        <ele>343</ele>
        <time>2019-08-10T11:53:35.553Z</time>
      </trkpt>
      <trkpt lat="44.63581" lon="1.77307">
        <ele>343</ele>
        <time>2019-08-10T11:53:40.557Z</time>
      </trkpt>
      <trkpt lat="44.63579" lon="1.77314">
        <ele>343</ele>
        <time>2019-08-10T11:53:45.538Z</time>
      </trkpt>
      <trkpt lat="44.63574" lon="1.77324">
        <ele>340</ele>
        <time>2019-08-10T11:53:50.560Z</time>
      </trkpt>
      <trkpt lat="44.63569" lon="1.77336">
        <ele>340</ele>
        <time>2019-08-10T11:53:55.546Z</time>
      </trkpt>
      <trkpt lat="44.63567" lon="1.77345">
        <ele>342</ele>
        <time>2019-08-10T11:53:59.542Z</time>
      </trkpt>
      <trkpt lat="44.63565" lon="1.77351">
        <ele>340</ele>
        <time>2019-08-10T11:54:03.544Z</time>
      </trkpt>
      <trkpt lat="44.63567" lon="1.77362">
        <ele>340</ele>
        <time>2019-08-10T11:54:08.537Z</time>
      </trkpt>
      <trkpt lat="44.63567" lon="1.77369">
        <ele>340</ele>
        <time>2019-08-10T11:54:12.540Z</time>
      </trkpt>
      <trkpt lat="44.63565" lon="1.77376">
        <ele>338</ele>
        <time>2019-08-10T11:54:16.545Z</time>
      </trkpt>
      <trkpt lat="44.63565" lon="1.7738">
        <ele>338</ele>
        <time>2019-08-10T11:54:21.540Z</time>
      </trkpt>
      <trkpt lat="44.63564" lon="1.77388">
        <ele>338</ele>
        <time>2019-08-10T11:54:25.543Z</time>
      </trkpt>
      <trkpt lat="44.63564" lon="1.77395">
        <ele>338</ele>
        <time>2019-08-10T11:54:30.565Z</time>
      </trkpt>
      <trkpt lat="44.63565" lon="1.77402">
        <ele>338</ele>
        <time>2019-08-10T11:54:35.552Z</time>
      </trkpt>
      <trkpt lat="44.63569" lon="1.77409">
        <ele>337</ele>
        <time>2019-08-10T11:54:40.557Z</time>
      </trkpt>
      <trkpt lat="44.63573" lon="1.77412">
        <ele>337</ele>
        <time>2019-08-10T11:54:44.547Z</time>
      </trkpt>
      <trkpt lat="44.6358" lon="1.77417">
        <ele>337</ele>
        <time>2019-08-10T11:54:49.546Z</time>
      </trkpt>
      <trkpt lat="44.63585" lon="1.77422">
        <ele>337</ele>
        <time>2019-08-10T11:54:53.558Z</time>
      </trkpt>
      <trkpt lat="44.63591" lon="1.77429">
        <ele>337</ele>
        <time>2019-08-10T11:54:58.548Z</time>
      </trkpt>
      <trkpt lat="44.63594" lon="1.77431">
        <ele>337</ele>
        <time>2019-08-10T11:55:03.543Z</time>
      </trkpt>
      <trkpt lat="44.63596" lon="1.77436">
        <ele>337</ele>
        <time>2019-08-10T11:55:07.548Z</time>
      </trkpt>
      <trkpt lat="44.63601" lon="1.77439">
        <ele>338</ele>
        <time>2019-08-10T11:55:11.553Z</time>
      </trkpt>
      <trkpt lat="44.63604" lon="1.77443">
        <ele>338</ele>
        <time>2019-08-10T11:55:16.558Z</time>
      </trkpt>
      <trkpt lat="44.63607" lon="1.77453">
        <ele>338</ele>
        <time>2019-08-10T11:55:21.541Z</time>
      </trkpt>
      <trkpt lat="44.63608" lon="1.77461">
        <ele>337</ele>
        <time>2019-08-10T11:55:25.531Z</time>
      </trkpt>
      <trkpt lat="44.6361" lon="1.7747">
        <ele>337</ele>
        <time>2019-08-10T11:55:30.557Z</time>
      </trkpt>
      <trkpt lat="44.6361" lon="1.77477">
        <ele>337</ele>
        <time>2019-08-10T11:55:35.549Z</time>
      </trkpt>
      <trkpt lat="44.63611" lon="1.77483">
        <ele>337</ele>
        <time>2019-08-10T11:55:39.544Z</time>
      </trkpt>
      <trkpt lat="44.63612" lon="1.77491">
        <ele>335</ele>
        <time>2019-08-10T11:55:44.545Z</time>
      </trkpt>
      <trkpt lat="44.63614" lon="1.77499">
        <ele>335</ele>
        <time>2019-08-10T11:55:49.577Z</time>
      </trkpt>
      <trkpt lat="44.63615" lon="1.77505">
        <ele>335</ele>
        <time>2019-08-10T11:55:53.540Z</time>
      </trkpt>
      <trkpt lat="44.63615" lon="1.77512">
        <ele>335</ele>
        <time>2019-08-10T11:55:58.538Z</time>
      </trkpt>
      <trkpt lat="44.63616" lon="1.77519">
        <ele>333</ele>
        <time>2019-08-10T11:56:03.559Z</time>
      </trkpt>
      <trkpt lat="44.63618" lon="1.77523">
        <ele>333</ele>
        <time>2019-08-10T11:56:07.530Z</time>
      </trkpt>
      <trkpt lat="44.63616" lon="1.77528">
        <ele>333</ele>
        <time>2019-08-10T11:56:12.550Z</time>
      </trkpt>
      <trkpt lat="44.63613" lon="1.77527">
        <ele>333</ele>
        <time>2019-08-10T11:56:17.561Z</time>
      </trkpt>
      <trkpt lat="44.6361" lon="1.77531">
        <ele>333</ele>
        <time>2019-08-10T11:56:22.547Z</time>
      </trkpt>
      <trkpt lat="44.63605" lon="1.77541">
        <ele>333</ele>
        <time>2019-08-10T11:56:27.554Z</time>
      </trkpt>
      <trkpt lat="44.636" lon="1.77552">
        <ele>331</ele>
        <time>2019-08-10T11:56:32.546Z</time>
      </trkpt>
      <trkpt lat="44.63595" lon="1.77558">
        <ele>332</ele>
        <time>2019-08-10T11:56:36.555Z</time>
      </trkpt>
      <trkpt lat="44.63592" lon="1.77566">
        <ele>332</ele>
        <time>2019-08-10T11:56:41.549Z</time>
      </trkpt>
      <trkpt lat="44.63586" lon="1.77565">
        <ele>332</ele>
        <time>2019-08-10T11:56:45.577Z</time>
      </trkpt>
      <trkpt lat="44.63582" lon="1.7757">
        <ele>330</ele>
        <time>2019-08-10T11:56:50.556Z</time>
      </trkpt>
      <trkpt lat="44.63578" lon="1.77577">
        <ele>330</ele>
        <time>2019-08-10T11:56:55.550Z</time>
      </trkpt>
      <trkpt lat="44.63575" lon="1.77582">
        <ele>330</ele>
        <time>2019-08-10T11:56:59.552Z</time>
      </trkpt>
      <trkpt lat="44.6357" lon="1.77589">
        <ele>330</ele>
        <time>2019-08-10T11:57:04.547Z</time>
      </trkpt>
      <trkpt lat="44.63565" lon="1.77595">
        <ele>331</ele>
        <time>2019-08-10T11:57:09.528Z</time>
      </trkpt>
      <trkpt lat="44.63561" lon="1.77599">
        <ele>330</ele>
        <time>2019-08-10T11:57:13.529Z</time>
      </trkpt>
      <trkpt lat="44.63558" lon="1.77604">
        <ele>330</ele>
        <time>2019-08-10T11:57:17.551Z</time>
      </trkpt>
      <trkpt lat="44.63553" lon="1.77609">
        <ele>330</ele>
        <time>2019-08-10T11:57:22.536Z</time>
      </trkpt>
      <trkpt lat="44.63549" lon="1.77609">
        <ele>330</ele>
        <time>2019-08-10T11:57:26.549Z</time>
      </trkpt>
      <trkpt lat="44.63548" lon="1.77614">
        <ele>330</ele>
        <time>2019-08-10T11:57:31.558Z</time>
      </trkpt>
      <trkpt lat="44.63545" lon="1.77622">
        <ele>330</ele>
        <time>2019-08-10T11:57:36.536Z</time>
      </trkpt>
      <trkpt lat="44.63541" lon="1.7763">
        <ele>329</ele>
        <time>2019-08-10T11:57:41.542Z</time>
      </trkpt>
      <trkpt lat="44.63537" lon="1.77639">
        <ele>329</ele>
        <time>2019-08-10T11:57:46.543Z</time>
      </trkpt>
      <trkpt lat="44.63534" lon="1.77646">
        <ele>329</ele>
        <time>2019-08-10T11:57:51.533Z</time>
      </trkpt>
      <trkpt lat="44.63529" lon="1.77654">
        <ele>328</ele>
        <time>2019-08-10T11:57:56.561Z</time>
      </trkpt>
      <trkpt lat="44.63524" lon="1.7766">
        <ele>328</ele>
        <time>2019-08-10T11:58:01.547Z</time>
      </trkpt>
      <trkpt lat="44.63519" lon="1.77667">
        <ele>328</ele>
        <time>2019-08-10T11:58:06.553Z</time>
      </trkpt>
      <trkpt lat="44.63514" lon="1.77672">
        <ele>328</ele>
        <time>2019-08-10T11:58:11.549Z</time>
      </trkpt>
      <trkpt lat="44.63509" lon="1.77675">
        <ele>328</ele>
        <time>2019-08-10T11:58:16.546Z</time>
      </trkpt>
      <trkpt lat="44.63504" lon="1.77677">
        <ele>328</ele>
        <time>2019-08-10T11:58:21.550Z</time>
      </trkpt>
      <trkpt lat="44.63499" lon="1.77679">
        <ele>328</ele>
        <time>2019-08-10T11:58:25.543Z</time>
      </trkpt>
      <trkpt lat="44.63493" lon="1.77681">
        <ele>327</ele>
        <time>2019-08-10T11:58:30.553Z</time>
      </trkpt>
      <trkpt lat="44.63488" lon="1.77685">
        <ele>327</ele>
        <time>2019-08-10T11:58:35.545Z</time>
      </trkpt>
      <trkpt lat="44.63482" lon="1.77683">
        <ele>326</ele>
        <time>2019-08-10T11:58:40.532Z</time>
      </trkpt>
      <trkpt lat="44.6348" lon="1.77681">
        <ele>326</ele>
        <time>2019-08-10T11:58:45.571Z</time>
      </trkpt>
      <trkpt lat="44.6348" lon="1.77686">
        <ele>326</ele>
        <time>2019-08-10T11:58:50.541Z</time>
      </trkpt>
      <trkpt lat="44.63476" lon="1.77694">
        <ele>326</ele>
        <time>2019-08-10T11:58:54.545Z</time>
      </trkpt>
      <trkpt lat="44.63473" lon="1.77702">
        <ele>326</ele>
        <time>2019-08-10T11:58:58.550Z</time>
      </trkpt>
      <trkpt lat="44.63469" lon="1.77711">
        <ele>325</ele>
        <time>2019-08-10T11:59:03.552Z</time>
      </trkpt>
      <trkpt lat="44.63466" lon="1.77721">
        <ele>325</ele>
        <time>2019-08-10T11:59:08.562Z</time>
      </trkpt>
      <trkpt lat="44.63467" lon="1.77727">
        <ele>325</ele>
        <time>2019-08-10T11:59:12.553Z</time>
      </trkpt>
      <trkpt lat="44.63467" lon="1.77736">
        <ele>323</ele>
        <time>2019-08-10T11:59:17.536Z</time>
      </trkpt>
      <trkpt lat="44.63466" lon="1.77745">
        <ele>323</ele>
        <time>2019-08-10T11:59:22.535Z</time>
      </trkpt>
      <trkpt lat="44.63465" lon="1.77752">
        <ele>323</ele>
        <time>2019-08-10T11:59:27.541Z</time>
      </trkpt>
      <trkpt lat="44.63464" lon="1.77759">
        <ele>323</ele>
        <time>2019-08-10T11:59:32.538Z</time>
      </trkpt>
      <trkpt lat="44.63461" lon="1.77766">
        <ele>321</ele>
        <time>2019-08-10T11:59:37.542Z</time>
      </trkpt>
      <trkpt lat="44.63458" lon="1.77773">
        <ele>321</ele>
        <time>2019-08-10T11:59:41.535Z</time>
      </trkpt>
      <trkpt lat="44.63454" lon="1.77779">
        <ele>321</ele>
        <time>2019-08-10T11:59:46.557Z</time>
      </trkpt>
      <trkpt lat="44.63451" lon="1.77785">
        <ele>321</ele>
        <time>2019-08-10T11:59:51.544Z</time>
      </trkpt>
      <trkpt lat="44.63448" lon="1.7779">
        <ele>321</ele>
        <time>2019-08-10T11:59:55.558Z</time>
      </trkpt>
      <trkpt lat="44.63444" lon="1.77797">
        <ele>320</ele>
        <time>2019-08-10T11:59:59.538Z</time>
      </trkpt>
      <trkpt lat="44.6344" lon="1.77803">
        <ele>320</ele>
        <time>2019-08-10T12:00:04.552Z</time>
      </trkpt>
      <trkpt lat="44.63436" lon="1.77809">
        <ele>320</ele>
        <time>2019-08-10T12:00:08.545Z</time>
      </trkpt>
      <trkpt lat="44.63432" lon="1.77818">
        <ele>320</ele>
        <time>2019-08-10T12:00:13.536Z</time>
      </trkpt>
      <trkpt lat="44.63428" lon="1.77823">
        <ele>318</ele>
        <time>2019-08-10T12:00:17.543Z</time>
      </trkpt>
      <trkpt lat="44.63425" lon="1.7783">
        <ele>318</ele>
        <time>2019-08-10T12:00:22.559Z</time>
      </trkpt>
      <trkpt lat="44.63422" lon="1.77837">
        <ele>318</ele>
        <time>2019-08-10T12:00:27.538Z</time>
      </trkpt>
      <trkpt lat="44.63419" lon="1.77844">
        <ele>318</ele>
        <time>2019-08-10T12:00:32.552Z</time>
      </trkpt>
      <trkpt lat="44.63417" lon="1.77852">
        <ele>317</ele>
        <time>2019-08-10T12:00:36.560Z</time>
      </trkpt>
      <trkpt lat="44.63415" lon="1.77861">
        <ele>317</ele>
        <time>2019-08-10T12:00:41.550Z</time>
      </trkpt>
      <trkpt lat="44.63412" lon="1.77868">
        <ele>317</ele>
        <time>2019-08-10T12:00:46.536Z</time>
      </trkpt>
      <trkpt lat="44.63412" lon="1.77876">
        <ele>316</ele>
        <time>2019-08-10T12:00:50.561Z</time>
      </trkpt>
      <trkpt lat="44.63411" lon="1.77886">
        <ele>316</ele>
        <time>2019-08-10T12:00:55.550Z</time>
      </trkpt>
      <trkpt lat="44.63411" lon="1.77896">
        <ele>316</ele>
        <time>2019-08-10T12:01:00.548Z</time>
      </trkpt>
      <trkpt lat="44.63411" lon="1.77904">
        <ele>316</ele>
        <time>2019-08-10T12:01:05.546Z</time>
      </trkpt>
      <trkpt lat="44.63411" lon="1.7791">
        <ele>316</ele>
        <time>2019-08-10T12:01:10.538Z</time>
      </trkpt>
      <trkpt lat="44.63411" lon="1.77918">
        <ele>316</ele>
        <time>2019-08-10T12:01:14.539Z</time>
      </trkpt>
      <trkpt lat="44.63412" lon="1.77927">
        <ele>316</ele>
        <time>2019-08-10T12:01:19.551Z</time>
      </trkpt>
      <trkpt lat="44.63413" lon="1.77934">
        <ele>316</ele>
        <time>2019-08-10T12:01:24.538Z</time>
      </trkpt>
      <trkpt lat="44.63415" lon="1.77943">
        <ele>316</ele>
        <time>2019-08-10T12:01:29.557Z</time>
      </trkpt>
      <trkpt lat="44.63419" lon="1.77951">
        <ele>316</ele>
        <time>2019-08-10T12:01:34.539Z</time>
      </trkpt>
      <trkpt lat="44.63425" lon="1.77956">
        <ele>316</ele>
        <time>2019-08-10T12:01:38.539Z</time>
      </trkpt>
      <trkpt lat="44.63427" lon="1.77962">
        <ele>315</ele>
        <time>2019-08-10T12:01:42.562Z</time>
      </trkpt>
      <trkpt lat="44.63431" lon="1.7797">
        <ele>316</ele>
        <time>2019-08-10T12:01:47.547Z</time>
      </trkpt>
      <trkpt lat="44.63434" lon="1.77978">
        <ele>316</ele>
        <time>2019-08-10T12:01:52.554Z</time>
      </trkpt>
      <trkpt lat="44.63435" lon="1.77983">
        <ele>316</ele>
        <time>2019-08-10T12:01:56.559Z</time>
      </trkpt>
      <trkpt lat="44.63438" lon="1.77991">
        <ele>314</ele>
        <time>2019-08-10T12:02:01.544Z</time>
      </trkpt>
      <trkpt lat="44.63439" lon="1.78003">
        <ele>314</ele>
        <time>2019-08-10T12:02:06.546Z</time>
      </trkpt>
      <trkpt lat="44.63439" lon="1.7801">
        <ele>314</ele>
        <time>2019-08-10T12:02:10.543Z</time>
      </trkpt>
      <trkpt lat="44.63438" lon="1.78016">
        <ele>313</ele>
        <time>2019-08-10T12:02:14.560Z</time>
      </trkpt>
      <trkpt lat="44.63437" lon="1.78025">
        <ele>313</ele>
        <time>2019-08-10T12:02:19.540Z</time>
      </trkpt>
      <trkpt lat="44.63437" lon="1.78035">
        <ele>313</ele>
        <time>2019-08-10T12:02:24.558Z</time>
      </trkpt>
      <trkpt lat="44.63436" lon="1.78043">
        <ele>313</ele>
        <time>2019-08-10T12:02:29.567Z</time>
      </trkpt>
      <trkpt lat="44.63437" lon="1.78051">
        <ele>313</ele>
        <time>2019-08-10T12:02:34.548Z</time>
      </trkpt>
      <trkpt lat="44.63438" lon="1.78059">
        <ele>313</ele>
        <time>2019-08-10T12:02:39.548Z</time>
      </trkpt>
      <trkpt lat="44.63441" lon="1.78069">
        <ele>313</ele>
        <time>2019-08-10T12:02:44.554Z</time>
      </trkpt>
      <trkpt lat="44.63443" lon="1.78076">
        <ele>313</ele>
        <time>2019-08-10T12:02:48.561Z</time>
      </trkpt>
      <trkpt lat="44.63446" lon="1.78082">
        <ele>313</ele>
        <time>2019-08-10T12:02:53.575Z</time>
      </trkpt>
      <trkpt lat="44.63449" lon="1.78089">
        <ele>313</ele>
        <time>2019-08-10T12:02:58.516Z</time>
      </trkpt>
      <trkpt lat="44.6345" lon="1.78095">
        <ele>313</ele>
        <time>2019-08-10T12:03:02.544Z</time>
      </trkpt>
      <trkpt lat="44.63453" lon="1.78105">
        <ele>312</ele>
        <time>2019-08-10T12:03:07.553Z</time>
      </trkpt>
      <trkpt lat="44.63454" lon="1.78112">
        <ele>312</ele>
        <time>2019-08-10T12:03:11.569Z</time>
      </trkpt>
      <trkpt lat="44.63455" lon="1.78121">
        <ele>312</ele>
        <time>2019-08-10T12:03:16.533Z</time>
      </trkpt>
      <trkpt lat="44.63456" lon="1.78128">
        <ele>310</ele>
        <time>2019-08-10T12:03:20.557Z</time>
      </trkpt>
      <trkpt lat="44.63457" lon="1.78139">
        <ele>310</ele>
        <time>2019-08-10T12:03:25.553Z</time>
      </trkpt>
      <trkpt lat="44.63456" lon="1.78146">
        <ele>310</ele>
        <time>2019-08-10T12:03:30.578Z</time>
      </trkpt>
      <trkpt lat="44.63455" lon="1.78155">
        <ele>309</ele>
        <time>2019-08-10T12:03:35.544Z</time>
      </trkpt>
      <trkpt lat="44.63453" lon="1.78162">
        <ele>309</ele>
        <time>2019-08-10T12:03:39.557Z</time>
      </trkpt>
      <trkpt lat="44.63451" lon="1.78168">
        <ele>309</ele>
        <time>2019-08-10T12:03:43.557Z</time>
      </trkpt>
      <trkpt lat="44.63449" lon="1.78174">
        <ele>309</ele>
        <time>2019-08-10T12:03:47.551Z</time>
      </trkpt>
      <trkpt lat="44.63447" lon="1.7818">
        <ele>309</ele>
        <time>2019-08-10T12:03:52.561Z</time>
      </trkpt>
      <trkpt lat="44.63444" lon="1.78188">
        <ele>309</ele>
        <time>2019-08-10T12:03:57.543Z</time>
      </trkpt>
      <trkpt lat="44.63441" lon="1.78194">
        <ele>309</ele>
        <time>2019-08-10T12:04:01.554Z</time>
      </trkpt>
      <trkpt lat="44.63437" lon="1.78202">
        <ele>309</ele>
        <time>2019-08-10T12:04:06.545Z</time>
      </trkpt>
      <trkpt lat="44.63434" lon="1.78211">
        <ele>308</ele>
        <time>2019-08-10T12:04:11.545Z</time>
      </trkpt>
      <trkpt lat="44.63432" lon="1.78218">
        <ele>308</ele>
        <time>2019-08-10T12:04:16.547Z</time>
      </trkpt>
      <trkpt lat="44.6343" lon="1.78229">
        <ele>308</ele>
        <time>2019-08-10T12:04:21.568Z</time>
      </trkpt>
      <trkpt lat="44.63428" lon="1.7824">
        <ele>308</ele>
        <time>2019-08-10T12:04:26.565Z</time>
      </trkpt>
      <trkpt lat="44.63427" lon="1.78248">
        <ele>308</ele>
        <time>2019-08-10T12:04:31.557Z</time>
      </trkpt>
      <trkpt lat="44.63425" lon="1.78259">
        <ele>308</ele>
        <time>2019-08-10T12:04:36.543Z</time>
      </trkpt>
      <trkpt lat="44.63423" lon="1.78268">
        <ele>307</ele>
        <time>2019-08-10T12:04:41.536Z</time>
      </trkpt>
      <trkpt lat="44.63422" lon="1.78275">
        <ele>307</ele>
        <time>2019-08-10T12:04:46.563Z</time>
      </trkpt>
      <trkpt lat="44.63421" lon="1.78284">
        <ele>307</ele>
        <time>2019-08-10T12:04:51.564Z</time>
      </trkpt>
      <trkpt lat="44.6342" lon="1.78292">
        <ele>305</ele>
        <time>2019-08-10T12:04:56.550Z</time>
      </trkpt>
      <trkpt lat="44.6342" lon="1.78302">
        <ele>305</ele>
        <time>2019-08-10T12:05:01.532Z</time>
      </trkpt>
      <trkpt lat="44.63422" lon="1.78312">
        <ele>305</ele>
        <time>2019-08-10T12:05:06.545Z</time>
      </trkpt>
      <trkpt lat="44.63421" lon="1.78323">
        <ele>303</ele>
        <time>2019-08-10T12:05:11.550Z</time>
      </trkpt>
      <trkpt lat="44.63424" lon="1.78332">
        <ele>303</ele>
        <time>2019-08-10T12:05:16.555Z</time>
      </trkpt>
      <trkpt lat="44.63425" lon="1.78341">
        <ele>303</ele>
        <time>2019-08-10T12:05:21.538Z</time>
      </trkpt>
      <trkpt lat="44.63426" lon="1.78349">
        <ele>302</ele>
        <time>2019-08-10T12:05:25.542Z</time>
      </trkpt>
      <trkpt lat="44.63426" lon="1.7836">
        <ele>302</ele>
        <time>2019-08-10T12:05:30.537Z</time>
      </trkpt>
      <trkpt lat="44.63426" lon="1.78372">
        <ele>302</ele>
        <time>2019-08-10T12:05:35.551Z</time>
      </trkpt>
      <trkpt lat="44.63423" lon="1.78381">
        <ele>301</ele>
        <time>2019-08-10T12:05:40.550Z</time>
      </trkpt>
      <trkpt lat="44.63423" lon="1.78393">
        <ele>301</ele>
        <time>2019-08-10T12:05:45.530Z</time>
      </trkpt>
      <trkpt lat="44.63424" lon="1.78402">
        <ele>301</ele>
        <time>2019-08-10T12:05:49.539Z</time>
      </trkpt>
      <trkpt lat="44.63423" lon="1.78416">
        <ele>301</ele>
        <time>2019-08-10T12:05:54.550Z</time>
      </trkpt>
      <trkpt lat="44.63423" lon="1.78424">
        <ele>301</ele>
        <time>2019-08-10T12:05:58.538Z</time>
      </trkpt>
      <trkpt lat="44.63424" lon="1.7843">
        <ele>301</ele>
        <time>2019-08-10T12:06:03.546Z</time>
      </trkpt>
      <trkpt lat="44.6343" lon="1.78436">
        <ele>301</ele>
        <time>2019-08-10T12:06:08.536Z</time>
      </trkpt>
      <trkpt lat="44.63433" lon="1.78439">
        <ele>302</ele>
        <time>2019-08-10T12:06:13.538Z</time>
      </trkpt>
      <trkpt lat="44.63433" lon="1.78441">
        <ele>302</ele>
        <time>2019-08-10T12:06:17.543Z</time>
      </trkpt>
      <trkpt lat="44.63434" lon="1.78441">
        <ele>302</ele>
        <time>2019-08-10T12:06:22.532Z</time>
      </trkpt>
      <trkpt lat="44.63438" lon="1.78444">
        <ele>302</ele>
        <time>2019-08-10T12:06:27.538Z</time>
      </trkpt>
      <trkpt lat="44.63445" lon="1.7845">
        <ele>302</ele>
        <time>2019-08-10T12:06:32.555Z</time>
      </trkpt>
      <trkpt lat="44.63455" lon="1.78454">
        <ele>302</ele>
        <time>2019-08-10T12:06:37.556Z</time>
      </trkpt>
      <trkpt lat="44.63459" lon="1.78462">
        <ele>303</ele>
        <time>2019-08-10T12:06:42.533Z</time>
      </trkpt>
      <trkpt lat="44.63455" lon="1.7847">
        <ele>302</ele>
        <time>2019-08-10T12:06:47.535Z</time>
      </trkpt>
      <trkpt lat="44.63451" lon="1.78476">
        <ele>302</ele>
        <time>2019-08-10T12:06:51.534Z</time>
      </trkpt>
      <trkpt lat="44.63446" lon="1.78486">
        <ele>301</ele>
        <time>2019-08-10T12:06:56.545Z</time>
      </trkpt>
      <trkpt lat="44.63442" lon="1.78498">
        <ele>301</ele>
        <time>2019-08-10T12:07:01.544Z</time>
      </trkpt>
      <trkpt lat="44.63439" lon="1.78508">
        <ele>301</ele>
        <time>2019-08-10T12:07:06.534Z</time>
      </trkpt>
      <trkpt lat="44.63438" lon="1.78516">
        <ele>300</ele>
        <time>2019-08-10T12:07:10.541Z</time>
      </trkpt>
      <trkpt lat="44.63436" lon="1.78524">
        <ele>300</ele>
        <time>2019-08-10T12:07:15.533Z</time>
      </trkpt>
      <trkpt lat="44.63436" lon="1.78532">
        <ele>300</ele>
        <time>2019-08-10T12:07:19.551Z</time>
      </trkpt>
      <trkpt lat="44.63432" lon="1.78544">
        <ele>299</ele>
        <time>2019-08-10T12:07:24.556Z</time>
      </trkpt>
      <trkpt lat="44.63432" lon="1.78554">
        <ele>299</ele>
        <time>2019-08-10T12:07:29.544Z</time>
      </trkpt>
      <trkpt lat="44.63433" lon="1.78562">
        <ele>299</ele>
        <time>2019-08-10T12:07:34.539Z</time>
      </trkpt>
      <trkpt lat="44.6343" lon="1.78569">
        <ele>297</ele>
        <time>2019-08-10T12:07:38.558Z</time>
      </trkpt>
      <trkpt lat="44.63426" lon="1.78576">
        <ele>297</ele>
        <time>2019-08-10T12:07:43.539Z</time>
      </trkpt>
      <trkpt lat="44.63421" lon="1.78582">
        <ele>297</ele>
        <time>2019-08-10T12:07:47.540Z</time>
      </trkpt>
      <trkpt lat="44.63416" lon="1.78587">
        <ele>297</ele>
        <time>2019-08-10T12:07:52.532Z</time>
      </trkpt>
      <trkpt lat="44.63409" lon="1.78592">
        <ele>297</ele>
        <time>2019-08-10T12:07:56.558Z</time>
      </trkpt>
      <trkpt lat="44.63404" lon="1.78593">
        <ele>297</ele>
        <time>2019-08-10T12:08:00.561Z</time>
      </trkpt>
      <trkpt lat="44.634" lon="1.78597">
        <ele>297</ele>
        <time>2019-08-10T12:08:05.538Z</time>
      </trkpt>
      <trkpt lat="44.63394" lon="1.786">
        <ele>297</ele>
        <time>2019-08-10T12:08:10.542Z</time>
      </trkpt>
      <trkpt lat="44.63387" lon="1.78606">
        <ele>297</ele>
        <time>2019-08-10T12:08:15.532Z</time>
      </trkpt>
      <trkpt lat="44.63382" lon="1.78611">
        <ele>297</ele>
        <time>2019-08-10T12:08:20.548Z</time>
      </trkpt>
      <trkpt lat="44.63378" lon="1.78619">
        <ele>297</ele>
        <time>2019-08-10T12:08:25.539Z</time>
      </trkpt>
      <trkpt lat="44.63375" lon="1.78624">
        <ele>299</ele>
        <time>2019-08-10T12:08:29.547Z</time>
      </trkpt>
      <trkpt lat="44.63371" lon="1.78633">
        <ele>299</ele>
        <time>2019-08-10T12:08:34.544Z</time>
      </trkpt>
      <trkpt lat="44.63369" lon="1.78642">
        <ele>299</ele>
        <time>2019-08-10T12:08:38.578Z</time>
      </trkpt>
      <trkpt lat="44.63366" lon="1.78651">
        <ele>299</ele>
        <time>2019-08-10T12:08:43.542Z</time>
      </trkpt>
      <trkpt lat="44.63365" lon="1.7866">
        <ele>299</ele>
        <time>2019-08-10T12:08:48.551Z</time>
      </trkpt>
      <trkpt lat="44.63363" lon="1.78669">
        <ele>299</ele>
        <time>2019-08-10T12:08:53.549Z</time>
      </trkpt>
      <trkpt lat="44.63359" lon="1.78678">
        <ele>299</ele>
        <time>2019-08-10T12:08:58.537Z</time>
      </trkpt>
      <trkpt lat="44.63357" lon="1.78685">
        <ele>298</ele>
        <time>2019-08-10T12:09:02.540Z</time>
      </trkpt>
      <trkpt lat="44.63355" lon="1.78698">
        <ele>298</ele>
        <time>2019-08-10T12:09:07.564Z</time>
      </trkpt>
      <trkpt lat="44.6335" lon="1.78711">
        <ele>298</ele>
        <time>2019-08-10T12:09:12.544Z</time>
      </trkpt>
      <trkpt lat="44.63345" lon="1.78721">
        <ele>300</ele>
        <time>2019-08-10T12:09:17.546Z</time>
      </trkpt>
      <trkpt lat="44.63342" lon="1.78729">
        <ele>300</ele>
        <time>2019-08-10T12:09:22.531Z</time>
      </trkpt>
      <trkpt lat="44.63336" lon="1.78739">
        <ele>299</ele>
        <time>2019-08-10T12:09:27.558Z</time>
      </trkpt>
      <trkpt lat="44.63333" lon="1.78745">
        <ele>299</ele>
        <time>2019-08-10T12:09:31.544Z</time>
      </trkpt>
      <trkpt lat="44.63328" lon="1.78754">
        <ele>299</ele>
        <time>2019-08-10T12:09:36.558Z</time>
      </trkpt>
      <trkpt lat="44.63324" lon="1.78763">
        <ele>299</ele>
        <time>2019-08-10T12:09:41.551Z</time>
      </trkpt>
      <trkpt lat="44.63321" lon="1.78771">
        <ele>297</ele>
        <time>2019-08-10T12:09:46.544Z</time>
      </trkpt>
      <trkpt lat="44.63317" lon="1.7878">
        <ele>298</ele>
        <time>2019-08-10T12:09:51.557Z</time>
      </trkpt>
      <trkpt lat="44.63313" lon="1.78791">
        <ele>298</ele>
        <time>2019-08-10T12:09:56.537Z</time>
      </trkpt>
      <trkpt lat="44.63307" lon="1.78803">
        <ele>297</ele>
        <time>2019-08-10T12:10:01.541Z</time>
      </trkpt>
      <trkpt lat="44.63303" lon="1.78811">
        <ele>297</ele>
        <time>2019-08-10T12:10:06.584Z</time>
      </trkpt>
      <trkpt lat="44.63299" lon="1.7882">
        <ele>298</ele>
        <time>2019-08-10T12:10:11.540Z</time>
      </trkpt>
      <trkpt lat="44.63295" lon="1.78827">
        <ele>298</ele>
        <time>2019-08-10T12:10:15.533Z</time>
      </trkpt>
      <trkpt lat="44.63292" lon="1.78833">
        <ele>298</ele>
        <time>2019-08-10T12:10:19.546Z</time>
      </trkpt>
      <trkpt lat="44.63288" lon="1.78842">
        <ele>301</ele>
        <time>2019-08-10T12:10:24.558Z</time>
      </trkpt>
      <trkpt lat="44.63285" lon="1.7885">
        <ele>302</ele>
        <time>2019-08-10T12:10:29.534Z</time>
      </trkpt>
      <trkpt lat="44.63282" lon="1.78856">
        <ele>302</ele>
        <time>2019-08-10T12:10:33.530Z</time>
      </trkpt>
      <trkpt lat="44.63279" lon="1.78863">
        <ele>302</ele>
        <time>2019-08-10T12:10:37.552Z</time>
      </trkpt>
      <trkpt lat="44.63276" lon="1.78871">
        <ele>302</ele>
        <time>2019-08-10T12:10:41.551Z</time>
      </trkpt>
      <trkpt lat="44.63272" lon="1.78879">
        <ele>300</ele>
        <time>2019-08-10T12:10:46.505Z</time>
      </trkpt>
      <trkpt lat="44.63271" lon="1.78883">
        <ele>300</ele>
        <time>2019-08-10T12:10:50.539Z</time>
      </trkpt>
      <trkpt lat="44.63268" lon="1.78891">
        <ele>300</ele>
        <time>2019-08-10T12:10:55.552Z</time>
      </trkpt>
      <trkpt lat="44.63265" lon="1.78899">
        <ele>300</ele>
        <time>2019-08-10T12:11:00.519Z</time>
      </trkpt>
      <trkpt lat="44.63262" lon="1.78908">
        <ele>299</ele>
        <time>2019-08-10T12:11:04.535Z</time>
      </trkpt>
      <trkpt lat="44.63259" lon="1.78919">
        <ele>299</ele>
        <time>2019-08-10T12:11:09.532Z</time>
      </trkpt>
      <trkpt lat="44.63257" lon="1.78931">
        <ele>299</ele>
        <time>2019-08-10T12:11:14.554Z</time>
      </trkpt>
      <trkpt lat="44.63256" lon="1.78941">
        <ele>299</ele>
        <time>2019-08-10T12:11:19.554Z</time>
      </trkpt>
      <trkpt lat="44.63255" lon="1.78951">
        <ele>299</ele>
        <time>2019-08-10T12:11:24.559Z</time>
      </trkpt>
      <trkpt lat="44.63255" lon="1.78961">
        <ele>299</ele>
        <time>2019-08-10T12:11:29.530Z</time>
      </trkpt>
      <trkpt lat="44.63251" lon="1.78972">
        <ele>299</ele>
        <time>2019-08-10T12:11:34.542Z</time>
      </trkpt>
      <trkpt lat="44.6325" lon="1.7898">
        <ele>299</ele>
        <time>2019-08-10T12:11:38.557Z</time>
      </trkpt>
      <trkpt lat="44.63249" lon="1.7899">
        <ele>298</ele>
        <time>2019-08-10T12:11:43.526Z</time>
      </trkpt>
      <trkpt lat="44.63248" lon="1.78998">
        <ele>298</ele>
        <time>2019-08-10T12:11:47.537Z</time>
      </trkpt>
      <trkpt lat="44.63246" lon="1.79008">
        <ele>298</ele>
        <time>2019-08-10T12:11:52.569Z</time>
      </trkpt>
      <trkpt lat="44.63243" lon="1.79017">
        <ele>297</ele>
        <time>2019-08-10T12:11:57.550Z</time>
      </trkpt>
      <trkpt lat="44.63238" lon="1.79026">
        <ele>297</ele>
        <time>2019-08-10T12:12:02.547Z</time>
      </trkpt>
      <trkpt lat="44.63235" lon="1.79035">
        <ele>298</ele>
        <time>2019-08-10T12:12:07.523Z</time>
      </trkpt>
      <trkpt lat="44.63231" lon="1.79044">
        <ele>299</ele>
        <time>2019-08-10T12:12:12.533Z</time>
      </trkpt>
      <trkpt lat="44.63227" lon="1.79052">
        <ele>299</ele>
        <time>2019-08-10T12:12:16.546Z</time>
      </trkpt>
      <trkpt lat="44.63225" lon="1.79062">
        <ele>299</ele>
        <time>2019-08-10T12:12:21.553Z</time>
      </trkpt>
      <trkpt lat="44.63222" lon="1.79071">
        <ele>300</ele>
        <time>2019-08-10T12:12:26.529Z</time>
      </trkpt>
      <trkpt lat="44.63217" lon="1.7908">
        <ele>300</ele>
        <time>2019-08-10T12:12:31.545Z</time>
      </trkpt>
      <trkpt lat="44.6322" lon="1.79082">
        <ele>300</ele>
        <time>2019-08-10T12:12:40.536Z</time>
      </trkpt>
      <trkpt lat="44.6322" lon="1.79083">
        <ele>300</ele>
        <time>2019-08-10T12:12:44.548Z</time>
      </trkpt>
      <trkpt lat="44.63219" lon="1.79087">
        <ele>300</ele>
        <time>2019-08-10T12:12:49.527Z</time>
      </trkpt>
      <trkpt lat="44.63218" lon="1.79093">
        <ele>300</ele>
        <time>2019-08-10T12:12:54.549Z</time>
      </trkpt>
      <trkpt lat="44.63214" lon="1.79105">
        <ele>300</ele>
        <time>2019-08-10T12:12:59.536Z</time>
      </trkpt>
      <trkpt lat="44.6321" lon="1.79118">
        <ele>300</ele>
        <time>2019-08-10T12:13:04.561Z</time>
      </trkpt>
      <trkpt lat="44.63207" lon="1.79126">
        <ele>299</ele>
        <time>2019-08-10T12:13:09.562Z</time>
      </trkpt>
      <trkpt lat="44.63205" lon="1.79137">
        <ele>299</ele>
        <time>2019-08-10T12:13:14.535Z</time>
      </trkpt>
      <trkpt lat="44.63203" lon="1.79147">
        <ele>299</ele>
        <time>2019-08-10T12:13:18.538Z</time>
      </trkpt>
      <trkpt lat="44.63201" lon="1.79161">
        <ele>298</ele>
        <time>2019-08-10T12:13:23.533Z</time>
      </trkpt>
      <trkpt lat="44.63201" lon="1.79171">
        <ele>298</ele>
        <time>2019-08-10T12:13:27.537Z</time>
      </trkpt>
      <trkpt lat="44.63198" lon="1.7918">
        <ele>298</ele>
        <time>2019-08-10T12:13:31.549Z</time>
      </trkpt>
      <trkpt lat="44.63196" lon="1.79189">
        <ele>298</ele>
        <time>2019-08-10T12:13:36.525Z</time>
      </trkpt>
      <trkpt lat="44.63192" lon="1.79206">
        <ele>298</ele>
        <time>2019-08-10T12:13:54.564Z</time>
      </trkpt>
      <trkpt lat="44.63193" lon="1.79206">
        <ele>298</ele>
        <time>2019-08-10T12:13:59.568Z</time>
      </trkpt>
      <trkpt lat="44.63193" lon="1.79207">
        <ele>298</ele>
        <time>2019-08-10T12:14:04.532Z</time>
      </trkpt>
      <trkpt lat="44.63192" lon="1.79211">
        <ele>297</ele>
        <time>2019-08-10T12:14:09.544Z</time>
      </trkpt>
      <trkpt lat="44.63192" lon="1.79219">
        <ele>297</ele>
        <time>2019-08-10T12:14:14.534Z</time>
      </trkpt>
      <trkpt lat="44.6319" lon="1.79229">
        <ele>297</ele>
        <time>2019-08-10T12:14:19.541Z</time>
      </trkpt>
      <trkpt lat="44.6319" lon="1.79237">
        <ele>297</ele>
        <time>2019-08-10T12:14:24.540Z</time>
      </trkpt>
      <trkpt lat="44.6319" lon="1.79242">
        <ele>297</ele>
        <time>2019-08-10T12:14:28.572Z</time>
      </trkpt>
      <trkpt lat="44.63191" lon="1.79248">
        <ele>297</ele>
        <time>2019-08-10T12:14:32.566Z</time>
      </trkpt>
      <trkpt lat="44.63194" lon="1.79256">
        <ele>297</ele>
        <time>2019-08-10T12:14:37.552Z</time>
      </trkpt>
      <trkpt lat="44.63196" lon="1.79265">
        <ele>297</ele>
        <time>2019-08-10T12:14:42.526Z</time>
      </trkpt>
      <trkpt lat="44.63198" lon="1.79273">
        <ele>297</ele>
        <time>2019-08-10T12:14:46.570Z</time>
      </trkpt>
      <trkpt lat="44.63198" lon="1.79282">
        <ele>297</ele>
        <time>2019-08-10T12:14:51.553Z</time>
      </trkpt>
      <trkpt lat="44.63197" lon="1.7929">
        <ele>297</ele>
        <time>2019-08-10T12:14:56.528Z</time>
      </trkpt>
      <trkpt lat="44.63195" lon="1.79298">
        <ele>296</ele>
        <time>2019-08-10T12:15:01.561Z</time>
      </trkpt>
      <trkpt lat="44.63192" lon="1.79306">
        <ele>296</ele>
        <time>2019-08-10T12:15:06.530Z</time>
      </trkpt>
      <trkpt lat="44.6319" lon="1.79316">
        <ele>296</ele>
        <time>2019-08-10T12:15:11.519Z</time>
      </trkpt>
      <trkpt lat="44.63188" lon="1.79324">
        <ele>296</ele>
        <time>2019-08-10T12:15:15.540Z</time>
      </trkpt>
      <trkpt lat="44.63187" lon="1.79331">
        <ele>296</ele>
        <time>2019-08-10T12:15:20.553Z</time>
      </trkpt>
      <trkpt lat="44.63185" lon="1.79341">
        <ele>296</ele>
        <time>2019-08-10T12:15:25.531Z</time>
      </trkpt>
      <trkpt lat="44.63183" lon="1.7935">
        <ele>294</ele>
        <time>2019-08-10T12:15:30.541Z</time>
      </trkpt>
      <trkpt lat="44.63182" lon="1.79355">
        <ele>294</ele>
        <time>2019-08-10T12:15:34.554Z</time>
      </trkpt>
      <trkpt lat="44.63182" lon="1.79362">
        <ele>294</ele>
        <time>2019-08-10T12:15:39.549Z</time>
      </trkpt>
      <trkpt lat="44.63179" lon="1.79372">
        <ele>293</ele>
        <time>2019-08-10T12:15:44.551Z</time>
      </trkpt>
      <trkpt lat="44.63177" lon="1.79378">
        <ele>291</ele>
        <time>2019-08-10T12:15:48.559Z</time>
      </trkpt>
      <trkpt lat="44.63175" lon="1.79385">
        <ele>291</ele>
        <time>2019-08-10T12:15:53.538Z</time>
      </trkpt>
      <trkpt lat="44.63172" lon="1.7939">
        <ele>291</ele>
        <time>2019-08-10T12:15:57.555Z</time>
      </trkpt>
      <trkpt lat="44.6317" lon="1.79394">
        <ele>291</ele>
        <time>2019-08-10T12:16:02.518Z</time>
      </trkpt>
      <trkpt lat="44.63169" lon="1.79395">
        <ele>291</ele>
        <time>2019-08-10T12:16:06.564Z</time>
      </trkpt>
      <trkpt lat="44.63168" lon="1.79399">
        <ele>291</ele>
        <time>2019-08-10T12:16:11.552Z</time>
      </trkpt>
      <trkpt lat="44.63164" lon="1.79406">
        <ele>288</ele>
        <time>2019-08-10T12:16:16.517Z</time>
      </trkpt>
      <trkpt lat="44.63162" lon="1.79412">
        <ele>288</ele>
        <time>2019-08-10T12:16:20.528Z</time>
      </trkpt>
      <trkpt lat="44.63159" lon="1.79419">
        <ele>288</ele>
        <time>2019-08-10T12:16:25.560Z</time>
      </trkpt>
      <trkpt lat="44.63155" lon="1.79427">
        <ele>288</ele>
        <time>2019-08-10T12:16:30.522Z</time>
      </trkpt>
      <trkpt lat="44.63152" lon="1.79434">
        <ele>283</ele>
        <time>2019-08-10T12:16:35.553Z</time>
      </trkpt>
      <trkpt lat="44.63148" lon="1.79442">
        <ele>283</ele>
        <time>2019-08-10T12:16:40.511Z</time>
      </trkpt>
      <trkpt lat="44.63145" lon="1.79446">
        <ele>283</ele>
        <time>2019-08-10T12:16:44.528Z</time>
      </trkpt>
      <trkpt lat="44.63141" lon="1.79454">
        <ele>283</ele>
        <time>2019-08-10T12:16:49.549Z</time>
      </trkpt>
      <trkpt lat="44.63139" lon="1.7946">
        <ele>281</ele>
        <time>2019-08-10T12:16:54.541Z</time>
      </trkpt>
      <trkpt lat="44.63136" lon="1.79465">
        <ele>281</ele>
        <time>2019-08-10T12:16:59.545Z</time>
      </trkpt>
      <trkpt lat="44.63131" lon="1.79471">
        <ele>281</ele>
        <time>2019-08-10T12:17:04.527Z</time>
      </trkpt>
      <trkpt lat="44.63126" lon="1.79477">
        <ele>281</ele>
        <time>2019-08-10T12:17:08.538Z</time>
      </trkpt>
      <trkpt lat="44.63123" lon="1.79485">
        <ele>280</ele>
        <time>2019-08-10T12:17:13.519Z</time>
      </trkpt>
      <trkpt lat="44.63121" lon="1.7949">
        <ele>280</ele>
        <time>2019-08-10T12:17:17.542Z</time>
      </trkpt>
      <trkpt lat="44.63118" lon="1.79496">
        <ele>280</ele>
        <time>2019-08-10T12:17:21.550Z</time>
      </trkpt>
      <trkpt lat="44.63115" lon="1.79504">
        <ele>280</ele>
        <time>2019-08-10T12:17:26.521Z</time>
      </trkpt>
      <trkpt lat="44.63114" lon="1.79513">
        <ele>280</ele>
        <time>2019-08-10T12:17:31.548Z</time>
      </trkpt>
      <trkpt lat="44.63114" lon="1.7952">
        <ele>279</ele>
        <time>2019-08-10T12:17:35.564Z</time>
      </trkpt>
      <trkpt lat="44.63116" lon="1.79528">
        <ele>279</ele>
        <time>2019-08-10T12:17:39.537Z</time>
      </trkpt>
      <trkpt lat="44.63119" lon="1.79538">
        <ele>279</ele>
        <time>2019-08-10T12:17:44.524Z</time>
      </trkpt>
      <trkpt lat="44.63121" lon="1.79547">
        <ele>278</ele>
        <time>2019-08-10T12:17:49.530Z</time>
      </trkpt>
      <trkpt lat="44.63124" lon="1.79555">
        <ele>278</ele>
        <time>2019-08-10T12:17:53.521Z</time>
      </trkpt>
      <trkpt lat="44.63126" lon="1.79563">
        <ele>278</ele>
        <time>2019-08-10T12:17:57.553Z</time>
      </trkpt>
      <trkpt lat="44.6313" lon="1.79571">
        <ele>276</ele>
        <time>2019-08-10T12:18:02.533Z</time>
      </trkpt>
      <trkpt lat="44.63132" lon="1.7958">
        <ele>276</ele>
        <time>2019-08-10T12:18:07.553Z</time>
      </trkpt>
      <trkpt lat="44.63135" lon="1.79585">
        <ele>276</ele>
        <time>2019-08-10T12:18:11.525Z</time>
      </trkpt>
      <trkpt lat="44.63138" lon="1.7959">
        <ele>276</ele>
        <time>2019-08-10T12:18:15.548Z</time>
      </trkpt>
      <trkpt lat="44.63141" lon="1.79599">
        <ele>275</ele>
        <time>2019-08-10T12:18:20.553Z</time>
      </trkpt>
      <trkpt lat="44.63141" lon="1.796">
        <ele>275</ele>
        <time>2019-08-10T12:18:25.557Z</time>
      </trkpt>
      <trkpt lat="44.63137" lon="1.79607">
        <ele>275</ele>
        <time>2019-08-10T12:18:30.524Z</time>
      </trkpt>
      <trkpt lat="44.63129" lon="1.7961">
        <ele>275</ele>
        <time>2019-08-10T12:18:34.526Z</time>
      </trkpt>
      <trkpt lat="44.63121" lon="1.79613">
        <ele>277</ele>
        <time>2019-08-10T12:18:39.557Z</time>
      </trkpt>
      <trkpt lat="44.63113" lon="1.79615">
        <ele>277</ele>
        <time>2019-08-10T12:18:44.535Z</time>
      </trkpt>
      <trkpt lat="44.63106" lon="1.79616">
        <ele>277</ele>
        <time>2019-08-10T12:18:49.529Z</time>
      </trkpt>
      <trkpt lat="44.631" lon="1.79616">
        <ele>277</ele>
        <time>2019-08-10T12:18:53.518Z</time>
      </trkpt>
      <trkpt lat="44.63092" lon="1.79616">
        <ele>277</ele>
        <time>2019-08-10T12:18:58.526Z</time>
      </trkpt>
      <trkpt lat="44.63085" lon="1.79619">
        <ele>277</ele>
        <time>2019-08-10T12:19:03.529Z</time>
      </trkpt>
      <trkpt lat="44.63079" lon="1.7962">
        <ele>277</ele>
        <time>2019-08-10T12:19:07.542Z</time>
      </trkpt>
      <trkpt lat="44.63073" lon="1.79622">
        <ele>277</ele>
        <time>2019-08-10T12:19:11.540Z</time>
      </trkpt>
      <trkpt lat="44.63066" lon="1.79624">
        <ele>276</ele>
        <time>2019-08-10T12:19:16.524Z</time>
      </trkpt>
      <trkpt lat="44.63059" lon="1.79624">
        <ele>276</ele>
        <time>2019-08-10T12:19:21.549Z</time>
      </trkpt>
      <trkpt lat="44.63053" lon="1.79625">
        <ele>276</ele>
        <time>2019-08-10T12:19:26.521Z</time>
      </trkpt>
      <trkpt lat="44.63041" lon="1.79627">
        <ele>278</ele>
        <time>2019-08-10T12:19:34.519Z</time>
      </trkpt>
      <trkpt lat="44.63035" lon="1.7963">
        <ele>278</ele>
        <time>2019-08-10T12:19:38.521Z</time>
      </trkpt>
      <trkpt lat="44.63029" lon="1.79633">
        <ele>278</ele>
        <time>2019-08-10T12:19:43.540Z</time>
      </trkpt>
      <trkpt lat="44.63022" lon="1.79637">
        <ele>278</ele>
        <time>2019-08-10T12:19:48.535Z</time>
      </trkpt>
      <trkpt lat="44.63017" lon="1.79641">
        <ele>278</ele>
        <time>2019-08-10T12:19:52.536Z</time>
      </trkpt>
      <trkpt lat="44.63013" lon="1.79644">
        <ele>278</ele>
        <time>2019-08-10T12:19:56.538Z</time>
      </trkpt>
      <trkpt lat="44.63009" lon="1.79651">
        <ele>278</ele>
        <time>2019-08-10T12:20:01.540Z</time>
      </trkpt>
      <trkpt lat="44.63004" lon="1.79657">
        <ele>279</ele>
        <time>2019-08-10T12:20:06.515Z</time>
      </trkpt>
      <trkpt lat="44.62999" lon="1.79662">
        <ele>279</ele>
        <time>2019-08-10T12:20:10.536Z</time>
      </trkpt>
      <trkpt lat="44.62994" lon="1.79668">
        <ele>279</ele>
        <time>2019-08-10T12:20:15.540Z</time>
      </trkpt>
      <trkpt lat="44.6299" lon="1.79674">
        <ele>279</ele>
        <time>2019-08-10T12:20:19.554Z</time>
      </trkpt>
      <trkpt lat="44.62984" lon="1.7968">
        <ele>280</ele>
        <time>2019-08-10T12:20:24.530Z</time>
      </trkpt>
      <trkpt lat="44.6298" lon="1.79686">
        <ele>282</ele>
        <time>2019-08-10T12:20:29.522Z</time>
      </trkpt>
      <trkpt lat="44.62977" lon="1.79692">
        <ele>282</ele>
        <time>2019-08-10T12:20:33.566Z</time>
      </trkpt>
      <trkpt lat="44.62972" lon="1.79698">
        <ele>282</ele>
        <time>2019-08-10T12:20:38.537Z</time>
      </trkpt>
      <trkpt lat="44.62966" lon="1.79703">
        <ele>282</ele>
        <time>2019-08-10T12:20:43.541Z</time>
      </trkpt>
      <trkpt lat="44.62963" lon="1.79709">
        <ele>285</ele>
        <time>2019-08-10T12:20:47.529Z</time>
      </trkpt>
      <trkpt lat="44.62958" lon="1.79716">
        <ele>285</ele>
        <time>2019-08-10T12:20:52.520Z</time>
      </trkpt>
      <trkpt lat="44.62953" lon="1.79723">
        <ele>285</ele>
        <time>2019-08-10T12:20:57.545Z</time>
      </trkpt>
      <trkpt lat="44.62949" lon="1.79728">
        <ele>285</ele>
        <time>2019-08-10T12:21:01.561Z</time>
      </trkpt>
      <trkpt lat="44.62945" lon="1.79734">
        <ele>285</ele>
        <time>2019-08-10T12:21:06.524Z</time>
      </trkpt>
      <trkpt lat="44.62941" lon="1.7974">
        <ele>287</ele>
        <time>2019-08-10T12:21:10.517Z</time>
      </trkpt>
      <trkpt lat="44.62937" lon="1.79746">
        <ele>287</ele>
        <time>2019-08-10T12:21:14.527Z</time>
      </trkpt>
      <trkpt lat="44.62935" lon="1.79753">
        <ele>287</ele>
        <time>2019-08-10T12:21:19.557Z</time>
      </trkpt>
      <trkpt lat="44.62931" lon="1.79763">
        <ele>287</ele>
        <time>2019-08-10T12:21:24.518Z</time>
      </trkpt>
      <trkpt lat="44.62932" lon="1.79773">
        <ele>288</ele>
        <time>2019-08-10T12:21:29.542Z</time>
      </trkpt>
      <trkpt lat="44.62933" lon="1.79783">
        <ele>288</ele>
        <time>2019-08-10T12:21:34.551Z</time>
      </trkpt>
      <trkpt lat="44.62934" lon="1.79788">
        <ele>288</ele>
        <time>2019-08-10T12:21:39.522Z</time>
      </trkpt>
      <trkpt lat="44.62934" lon="1.79791">
        <ele>288</ele>
        <time>2019-08-10T12:21:43.521Z</time>
      </trkpt>
      <trkpt lat="44.62937" lon="1.798">
        <ele>289</ele>
        <time>2019-08-10T12:21:48.518Z</time>
      </trkpt>
      <trkpt lat="44.62939" lon="1.79807">
        <ele>289</ele>
        <time>2019-08-10T12:21:53.530Z</time>
      </trkpt>
      <trkpt lat="44.62939" lon="1.79813">
        <ele>289</ele>
        <time>2019-08-10T12:21:57.520Z</time>
      </trkpt>
      <trkpt lat="44.62944" lon="1.79821">
        <ele>290</ele>
        <time>2019-08-10T12:22:02.517Z</time>
      </trkpt>
      <trkpt lat="44.62946" lon="1.7983">
        <ele>290</ele>
        <time>2019-08-10T12:22:07.499Z</time>
      </trkpt>
      <trkpt lat="44.62947" lon="1.79839">
        <ele>290</ele>
        <time>2019-08-10T12:22:11.525Z</time>
      </trkpt>
      <trkpt lat="44.62947" lon="1.79849">
        <ele>291</ele>
        <time>2019-08-10T12:22:16.530Z</time>
      </trkpt>
      <trkpt lat="44.62947" lon="1.79858">
        <ele>291</ele>
        <time>2019-08-10T12:22:21.528Z</time>
      </trkpt>
      <trkpt lat="44.62948" lon="1.79868">
        <ele>291</ele>
        <time>2019-08-10T12:22:26.527Z</time>
      </trkpt>
      <trkpt lat="44.62948" lon="1.79877">
        <ele>293</ele>
        <time>2019-08-10T12:22:31.527Z</time>
      </trkpt>
      <trkpt lat="44.6295" lon="1.79886">
        <ele>293</ele>
        <time>2019-08-10T12:22:36.521Z</time>
      </trkpt>
      <trkpt lat="44.6295" lon="1.79896">
        <ele>293</ele>
        <time>2019-08-10T12:22:41.530Z</time>
      </trkpt>
      <trkpt lat="44.6295" lon="1.79916">
        <ele>294</ele>
        <time>2019-08-10T12:22:46.525Z</time>
      </trkpt>
      <trkpt lat="44.62946" lon="1.7994">
        <ele>297</ele>
        <time>2019-08-10T12:22:51.527Z</time>
      </trkpt>
      <trkpt lat="44.62937" lon="1.79964">
        <ele>299</ele>
        <time>2019-08-10T12:22:56.529Z</time>
      </trkpt>
      <trkpt lat="44.62936" lon="1.79979">
        <ele>299</ele>
        <time>2019-08-10T12:23:01.522Z</time>
      </trkpt>
      <trkpt lat="44.62936" lon="1.79988">
        <ele>302</ele>
        <time>2019-08-10T12:23:06.530Z</time>
      </trkpt>
      <trkpt lat="44.62939" lon="1.79997">
        <ele>302</ele>
        <time>2019-08-10T12:23:11.518Z</time>
      </trkpt>
      <trkpt lat="44.62943" lon="1.80005">
        <ele>302</ele>
        <time>2019-08-10T12:23:16.514Z</time>
      </trkpt>
      <trkpt lat="44.62948" lon="1.80011">
        <ele>302</ele>
        <time>2019-08-10T12:23:20.526Z</time>
      </trkpt>
      <trkpt lat="44.62954" lon="1.80017">
        <ele>303</ele>
        <time>2019-08-10T12:23:25.505Z</time>
      </trkpt>
      <trkpt lat="44.62959" lon="1.80022">
        <ele>304</ele>
        <time>2019-08-10T12:23:29.522Z</time>
      </trkpt>
      <trkpt lat="44.62965" lon="1.80026">
        <ele>304</ele>
        <time>2019-08-10T12:23:33.520Z</time>
      </trkpt>
      <trkpt lat="44.62972" lon="1.80031">
        <ele>304</ele>
        <time>2019-08-10T12:23:38.516Z</time>
      </trkpt>
      <trkpt lat="44.62977" lon="1.80036">
        <ele>304</ele>
        <time>2019-08-10T12:23:43.514Z</time>
      </trkpt>
      <trkpt lat="44.6298" lon="1.8004">
        <ele>304</ele>
        <time>2019-08-10T12:23:46.520Z</time>
      </trkpt>
      <trkpt lat="44.62985" lon="1.80048">
        <ele>305</ele>
        <time>2019-08-10T12:23:51.519Z</time>
      </trkpt>
      <trkpt lat="44.62989" lon="1.80054">
        <ele>306</ele>
        <time>2019-08-10T12:23:55.526Z</time>
      </trkpt>
      <trkpt lat="44.62989" lon="1.80066">
        <ele>306</ele>
        <time>2019-08-10T12:24:00.528Z</time>
      </trkpt>
      <trkpt lat="44.62986" lon="1.80075">
        <ele>306</ele>
        <time>2019-08-10T12:24:05.529Z</time>
      </trkpt>
      <trkpt lat="44.62985" lon="1.80076">
        <ele>306</ele>
        <time>2019-08-10T12:24:10.505Z</time>
      </trkpt>
      <trkpt lat="44.62985" lon="1.80082">
        <ele>306</ele>
        <time>2019-08-10T12:24:14.516Z</time>
      </trkpt>
      <trkpt lat="44.62983" lon="1.8009">
        <ele>306</ele>
        <time>2019-08-10T12:24:19.521Z</time>
      </trkpt>
      <trkpt lat="44.62983" lon="1.80094">
        <ele>306</ele>
        <time>2019-08-10T12:24:24.531Z</time>
      </trkpt>
      <trkpt lat="44.62983" lon="1.80102">
        <ele>308</ele>
        <time>2019-08-10T12:24:29.524Z</time>
      </trkpt>
      <trkpt lat="44.62981" lon="1.80113">
        <ele>308</ele>
        <time>2019-08-10T12:24:34.519Z</time>
      </trkpt>
      <trkpt lat="44.6298" lon="1.80122">
        <ele>308</ele>
        <time>2019-08-10T12:24:38.518Z</time>
      </trkpt>
      <trkpt lat="44.62978" lon="1.80132">
        <ele>309</ele>
        <time>2019-08-10T12:24:43.529Z</time>
      </trkpt>
      <trkpt lat="44.62975" lon="1.80142">
        <ele>309</ele>
        <time>2019-08-10T12:24:48.516Z</time>
      </trkpt>
      <trkpt lat="44.62974" lon="1.80151">
        <ele>309</ele>
        <time>2019-08-10T12:24:52.519Z</time>
      </trkpt>
      <trkpt lat="44.62974" lon="1.80157">
        <ele>310</ele>
        <time>2019-08-10T12:24:57.512Z</time>
      </trkpt>
      <trkpt lat="44.62974" lon="1.80163">
        <ele>310</ele>
        <time>2019-08-10T12:25:02.522Z</time>
      </trkpt>
      <trkpt lat="44.62974" lon="1.80171">
        <ele>310</ele>
        <time>2019-08-10T12:25:06.527Z</time>
      </trkpt>
      <trkpt lat="44.62973" lon="1.80183">
        <ele>311</ele>
        <time>2019-08-10T12:25:11.527Z</time>
      </trkpt>
      <trkpt lat="44.62969" lon="1.80191">
        <ele>311</ele>
        <time>2019-08-10T12:25:15.528Z</time>
      </trkpt>
      <trkpt lat="44.62965" lon="1.80202">
        <ele>311</ele>
        <time>2019-08-10T12:25:20.529Z</time>
      </trkpt>
      <trkpt lat="44.6296" lon="1.80209">
        <ele>312</ele>
        <time>2019-08-10T12:25:25.529Z</time>
      </trkpt>
      <trkpt lat="44.62954" lon="1.80213">
        <ele>313</ele>
        <time>2019-08-10T12:25:29.532Z</time>
      </trkpt>
      <trkpt lat="44.62947" lon="1.80215">
        <ele>313</ele>
        <time>2019-08-10T12:25:34.523Z</time>
      </trkpt>
      <trkpt lat="44.62941" lon="1.80218">
        <ele>313</ele>
        <time>2019-08-10T12:25:38.519Z</time>
      </trkpt>
      <trkpt lat="44.62933" lon="1.80221">
        <ele>313</ele>
        <time>2019-08-10T12:25:43.520Z</time>
      </trkpt>
      <trkpt lat="44.62928" lon="1.80226">
        <ele>311</ele>
        <time>2019-08-10T12:25:47.523Z</time>
      </trkpt>
      <trkpt lat="44.62923" lon="1.8023">
        <ele>311</ele>
        <time>2019-08-10T12:25:51.514Z</time>
      </trkpt>
      <trkpt lat="44.6292" lon="1.80239">
        <ele>314</ele>
        <time>2019-08-10T12:25:56.537Z</time>
      </trkpt>
      <trkpt lat="44.6292" lon="1.80247">
        <ele>314</ele>
        <time>2019-08-10T12:26:01.516Z</time>
      </trkpt>
      <trkpt lat="44.62923" lon="1.80254">
        <ele>314</ele>
        <time>2019-08-10T12:26:05.532Z</time>
      </trkpt>
      <trkpt lat="44.62928" lon="1.80259">
        <ele>314</ele>
        <time>2019-08-10T12:26:10.526Z</time>
      </trkpt>
      <trkpt lat="44.62932" lon="1.80266">
        <ele>317</ele>
        <time>2019-08-10T12:26:15.523Z</time>
      </trkpt>
      <trkpt lat="44.62934" lon="1.8027">
        <ele>317</ele>
        <time>2019-08-10T12:26:19.539Z</time>
      </trkpt>
      <trkpt lat="44.62943" lon="1.80274">
        <ele>317</ele>
        <time>2019-08-10T12:26:24.518Z</time>
      </trkpt>
      <trkpt lat="44.62949" lon="1.80277">
        <ele>317</ele>
        <time>2019-08-10T12:26:28.524Z</time>
      </trkpt>
      <trkpt lat="44.62955" lon="1.80282">
        <ele>317</ele>
        <time>2019-08-10T12:26:33.527Z</time>
      </trkpt>
      <trkpt lat="44.62967" lon="1.80288">
        <ele>317</ele>
        <time>2019-08-10T12:26:37.525Z</time>
      </trkpt>
      <trkpt lat="44.62987" lon="1.80297">
        <ele>319</ele>
        <time>2019-08-10T12:26:42.523Z</time>
      </trkpt>
      <trkpt lat="44.63005" lon="1.80307">
        <ele>319</ele>
        <time>2019-08-10T12:26:46.513Z</time>
      </trkpt>
      <trkpt lat="44.63028" lon="1.80319">
        <ele>320</ele>
        <time>2019-08-10T12:26:51.542Z</time>
      </trkpt>
      <trkpt lat="44.63037" lon="1.80322">
        <ele>321</ele>
        <time>2019-08-10T12:26:56.519Z</time>
      </trkpt>
      <trkpt lat="44.63044" lon="1.80325">
        <ele>322</ele>
        <time>2019-08-10T12:27:00.526Z</time>
      </trkpt>
      <trkpt lat="44.63052" lon="1.80329">
        <ele>322</ele>
        <time>2019-08-10T12:27:05.523Z</time>
      </trkpt>
      <trkpt lat="44.63066" lon="1.80338">
        <ele>322</ele>
        <time>2019-08-10T12:27:10.526Z</time>
      </trkpt>
      <trkpt lat="44.63084" lon="1.80355">
        <ele>325</ele>
        <time>2019-08-10T12:27:15.528Z</time>
      </trkpt>
      <trkpt lat="44.63097" lon="1.80362">
        <ele>325</ele>
        <time>2019-08-10T12:27:20.519Z</time>
      </trkpt>
      <trkpt lat="44.63105" lon="1.80366">
        <ele>325</ele>
        <time>2019-08-10T12:27:24.533Z</time>
      </trkpt>
      <trkpt lat="44.63111" lon="1.80371">
        <ele>325</ele>
        <time>2019-08-10T12:27:28.517Z</time>
      </trkpt>
      <trkpt lat="44.63119" lon="1.80375">
        <ele>327</ele>
        <time>2019-08-10T12:27:33.511Z</time>
      </trkpt>
      <trkpt lat="44.63126" lon="1.80378">
        <ele>325</ele>
        <time>2019-08-10T12:27:38.514Z</time>
      </trkpt>
      <trkpt lat="44.63135" lon="1.80382">
        <ele>325</ele>
        <time>2019-08-10T12:27:43.529Z</time>
      </trkpt>
      <trkpt lat="44.63143" lon="1.80382">
        <ele>325</ele>
        <time>2019-08-10T12:27:48.534Z</time>
      </trkpt>
      <trkpt lat="44.63152" lon="1.80383">
        <ele>325</ele>
        <time>2019-08-10T12:27:53.553Z</time>
      </trkpt>
      <trkpt lat="44.6316" lon="1.80383">
        <ele>325</ele>
        <time>2019-08-10T12:27:58.521Z</time>
      </trkpt>
      <trkpt lat="44.63165" lon="1.80384">
        <ele>325</ele>
        <time>2019-08-10T12:28:02.524Z</time>
      </trkpt>
      <trkpt lat="44.63172" lon="1.80387">
        <ele>325</ele>
        <time>2019-08-10T12:28:07.528Z</time>
      </trkpt>
      <trkpt lat="44.6318" lon="1.8039">
        <ele>325</ele>
        <time>2019-08-10T12:28:12.513Z</time>
      </trkpt>
      <trkpt lat="44.63187" lon="1.80393">
        <ele>324</ele>
        <time>2019-08-10T12:28:16.518Z</time>
      </trkpt>
      <trkpt lat="44.63197" lon="1.80399">
        <ele>324</ele>
        <time>2019-08-10T12:28:21.524Z</time>
      </trkpt>
      <trkpt lat="44.63204" lon="1.80403">
        <ele>327</ele>
        <time>2019-08-10T12:28:25.569Z</time>
      </trkpt>
      <trkpt lat="44.6321" lon="1.80407">
        <ele>328</ele>
        <time>2019-08-10T12:28:30.525Z</time>
      </trkpt>
      <trkpt lat="44.63218" lon="1.80412">
        <ele>328</ele>
        <time>2019-08-10T12:28:35.517Z</time>
      </trkpt>
      <trkpt lat="44.63223" lon="1.80416">
        <ele>328</ele>
        <time>2019-08-10T12:28:39.532Z</time>
      </trkpt>
      <trkpt lat="44.63232" lon="1.80418">
        <ele>328</ele>
        <time>2019-08-10T12:28:44.528Z</time>
      </trkpt>
      <trkpt lat="44.63239" lon="1.80422">
        <ele>327</ele>
        <time>2019-08-10T12:28:48.521Z</time>
      </trkpt>
      <trkpt lat="44.63246" lon="1.80428">
        <ele>327</ele>
        <time>2019-08-10T12:28:53.525Z</time>
      </trkpt>
      <trkpt lat="44.63253" lon="1.80432">
        <ele>330</ele>
        <time>2019-08-10T12:28:57.528Z</time>
      </trkpt>
      <trkpt lat="44.63261" lon="1.80437">
        <ele>330</ele>
        <time>2019-08-10T12:29:01.528Z</time>
      </trkpt>
      <trkpt lat="44.6327" lon="1.80443">
        <ele>328</ele>
        <time>2019-08-10T12:29:06.539Z</time>
      </trkpt>
      <trkpt lat="44.63275" lon="1.8045">
        <ele>328</ele>
        <time>2019-08-10T12:29:11.525Z</time>
      </trkpt>
      <trkpt lat="44.63281" lon="1.80456">
        <ele>328</ele>
        <time>2019-08-10T12:29:16.529Z</time>
      </trkpt>
      <trkpt lat="44.63287" lon="1.80461">
        <ele>330</ele>
        <time>2019-08-10T12:29:21.531Z</time>
      </trkpt>
      <trkpt lat="44.63294" lon="1.8047">
        <ele>326</ele>
        <time>2019-08-10T12:29:26.525Z</time>
      </trkpt>
      <trkpt lat="44.63298" lon="1.80479">
        <ele>326</ele>
        <time>2019-08-10T12:29:31.537Z</time>
      </trkpt>
      <trkpt lat="44.63301" lon="1.80489">
        <ele>328</ele>
        <time>2019-08-10T12:29:36.519Z</time>
      </trkpt>
      <trkpt lat="44.63304" lon="1.80496">
        <ele>328</ele>
        <time>2019-08-10T12:29:40.517Z</time>
      </trkpt>
      <trkpt lat="44.6331" lon="1.80503">
        <ele>328</ele>
        <time>2019-08-10T12:29:45.513Z</time>
      </trkpt>
      <trkpt lat="44.63313" lon="1.80509">
        <ele>328</ele>
        <time>2019-08-10T12:29:50.524Z</time>
      </trkpt>
      <trkpt lat="44.63314" lon="1.80509">
        <ele>328</ele>
        <time>2019-08-10T12:29:54.535Z</time>
      </trkpt>
      <trkpt lat="44.63315" lon="1.80511">
        <ele>328</ele>
        <time>2019-08-10T12:29:59.549Z</time>
      </trkpt>
      <trkpt lat="44.63319" lon="1.80519">
        <ele>330</ele>
        <time>2019-08-10T12:30:04.528Z</time>
      </trkpt>
      <trkpt lat="44.63321" lon="1.80524">
        <ele>326</ele>
        <time>2019-08-10T12:30:09.515Z</time>
      </trkpt>
      <trkpt lat="44.63322" lon="1.80534">
        <ele>326</ele>
        <time>2019-08-10T12:30:13.532Z</time>
      </trkpt>
      <trkpt lat="44.63325" lon="1.80541">
        <ele>326</ele>
        <time>2019-08-10T12:30:18.517Z</time>
      </trkpt>
      <trkpt lat="44.63327" lon="1.80548">
        <ele>329</ele>
        <time>2019-08-10T12:30:22.524Z</time>
      </trkpt>
      <trkpt lat="44.63333" lon="1.80557">
        <ele>329</ele>
        <time>2019-08-10T12:30:27.522Z</time>
      </trkpt>
      <trkpt lat="44.63337" lon="1.80565">
        <ele>329</ele>
        <time>2019-08-10T12:30:32.523Z</time>
      </trkpt>
      <trkpt lat="44.6334" lon="1.80572">
        <ele>332</ele>
        <time>2019-08-10T12:30:37.525Z</time>
      </trkpt>
      <trkpt lat="44.6334" lon="1.80577">
        <ele>332</ele>
        <time>2019-08-10T12:30:41.528Z</time>
      </trkpt>
      <trkpt lat="44.63346" lon="1.80585">
        <ele>332</ele>
        <time>2019-08-10T12:30:46.524Z</time>
      </trkpt>
      <trkpt lat="44.63351" lon="1.80591">
        <ele>329</ele>
        <time>2019-08-10T12:30:51.518Z</time>
      </trkpt>
      <trkpt lat="44.63357" lon="1.80598">
        <ele>331</ele>
        <time>2019-08-10T12:30:56.504Z</time>
      </trkpt>
      <trkpt lat="44.63362" lon="1.80603">
        <ele>331</ele>
        <time>2019-08-10T12:31:00.515Z</time>
      </trkpt>
      <trkpt lat="44.63367" lon="1.80608">
        <ele>331</ele>
        <time>2019-08-10T12:31:04.508Z</time>
      </trkpt>
      <trkpt lat="44.63371" lon="1.80615">
        <ele>331</ele>
        <time>2019-08-10T12:31:09.517Z</time>
      </trkpt>
      <trkpt lat="44.63375" lon="1.80623">
        <ele>329</ele>
        <time>2019-08-10T12:31:14.515Z</time>
      </trkpt>
      <trkpt lat="44.63379" lon="1.8063">
        <ele>330</ele>
        <time>2019-08-10T12:31:19.523Z</time>
      </trkpt>
      <trkpt lat="44.63383" lon="1.80635">
        <ele>330</ele>
        <time>2019-08-10T12:31:23.526Z</time>
      </trkpt>
      <trkpt lat="44.63387" lon="1.80641">
        <ele>330</ele>
        <time>2019-08-10T12:31:28.528Z</time>
      </trkpt>
      <trkpt lat="44.63391" lon="1.80648">
        <ele>330</ele>
        <time>2019-08-10T12:31:32.530Z</time>
      </trkpt>
      <trkpt lat="44.63393" lon="1.80656">
        <ele>330</ele>
        <time>2019-08-10T12:31:37.525Z</time>
      </trkpt>
      <trkpt lat="44.63398" lon="1.80663">
        <ele>330</ele>
        <time>2019-08-10T12:31:42.532Z</time>
      </trkpt>
      <trkpt lat="44.63401" lon="1.80668">
        <ele>330</ele>
        <time>2019-08-10T12:31:46.521Z</time>
      </trkpt>
      <trkpt lat="44.63405" lon="1.80676">
        <ele>329</ele>
        <time>2019-08-10T12:31:51.517Z</time>
      </trkpt>
      <trkpt lat="44.63408" lon="1.80681">
        <ele>330</ele>
        <time>2019-08-10T12:31:55.514Z</time>
      </trkpt>
      <trkpt lat="44.63415" lon="1.80686">
        <ele>330</ele>
        <time>2019-08-10T12:32:00.525Z</time>
      </trkpt>
      <trkpt lat="44.63421" lon="1.80692">
        <ele>330</ele>
        <time>2019-08-10T12:32:05.574Z</time>
      </trkpt>
      <trkpt lat="44.63428" lon="1.80699">
        <ele>330</ele>
        <time>2019-08-10T12:32:10.520Z</time>
      </trkpt>
      <trkpt lat="44.63433" lon="1.80704">
        <ele>329</ele>
        <time>2019-08-10T12:32:14.525Z</time>
      </trkpt>
      <trkpt lat="44.63437" lon="1.80711">
        <ele>331</ele>
        <time>2019-08-10T12:32:19.523Z</time>
      </trkpt>
      <trkpt lat="44.6344" lon="1.80718">
        <ele>331</ele>
        <time>2019-08-10T12:32:24.524Z</time>
      </trkpt>
      <trkpt lat="44.63442" lon="1.80727">
        <ele>331</ele>
        <time>2019-08-10T12:32:29.517Z</time>
      </trkpt>
      <trkpt lat="44.63439" lon="1.80736">
        <ele>331</ele>
        <time>2019-08-10T12:32:34.519Z</time>
      </trkpt>
      <trkpt lat="44.63435" lon="1.80739">
        <ele>333</ele>
        <time>2019-08-10T12:32:38.526Z</time>
      </trkpt>
      <trkpt lat="44.63432" lon="1.80745">
        <ele>333</ele>
        <time>2019-08-10T12:32:43.521Z</time>
      </trkpt>
      <trkpt lat="44.63429" lon="1.8075">
        <ele>332</ele>
        <time>2019-08-10T12:32:48.510Z</time>
      </trkpt>
      <trkpt lat="44.63426" lon="1.80755">
        <ele>332</ele>
        <time>2019-08-10T12:32:52.527Z</time>
      </trkpt>
      <trkpt lat="44.63422" lon="1.80758">
        <ele>332</ele>
        <time>2019-08-10T12:32:57.529Z</time>
      </trkpt>
      <trkpt lat="44.6342" lon="1.80759">
        <ele>332</ele>
        <time>2019-08-10T12:33:02.517Z</time>
      </trkpt>
      <trkpt lat="44.6342" lon="1.80765">
        <ele>334</ele>
        <time>2019-08-10T12:33:06.516Z</time>
      </trkpt>
      <trkpt lat="44.63417" lon="1.80771">
        <ele>334</ele>
        <time>2019-08-10T12:33:11.532Z</time>
      </trkpt>
      <trkpt lat="44.63415" lon="1.80775">
        <ele>334</ele>
        <time>2019-08-10T12:33:16.520Z</time>
      </trkpt>
      <trkpt lat="44.63414" lon="1.80777">
        <ele>334</ele>
        <time>2019-08-10T12:33:20.536Z</time>
      </trkpt>
      <trkpt lat="44.63412" lon="1.80786">
        <ele>334</ele>
        <time>2019-08-10T12:33:25.525Z</time>
      </trkpt>
      <trkpt lat="44.6341" lon="1.80789">
        <ele>334</ele>
        <time>2019-08-10T12:33:30.518Z</time>
      </trkpt>
      <trkpt lat="44.63409" lon="1.80792">
        <ele>334</ele>
        <time>2019-08-10T12:33:34.528Z</time>
      </trkpt>
      <trkpt lat="44.63407" lon="1.80797">
        <ele>335</ele>
        <time>2019-08-10T12:33:39.502Z</time>
      </trkpt>
      <trkpt lat="44.63403" lon="1.80801">
        <ele>334</ele>
        <time>2019-08-10T12:33:43.525Z</time>
      </trkpt>
      <trkpt lat="44.634" lon="1.80812">
        <ele>334</ele>
        <time>2019-08-10T12:33:48.528Z</time>
      </trkpt>
      <trkpt lat="44.63396" lon="1.80818">
        <ele>334</ele>
        <time>2019-08-10T12:33:52.522Z</time>
      </trkpt>
      <trkpt lat="44.63395" lon="1.8083">
        <ele>334</ele>
        <time>2019-08-10T12:33:56.527Z</time>
      </trkpt>
      <trkpt lat="44.63392" lon="1.80838">
        <ele>334</ele>
        <time>2019-08-10T12:34:01.526Z</time>
      </trkpt>
      <trkpt lat="44.63388" lon="1.80842">
        <ele>334</ele>
        <time>2019-08-10T12:34:06.525Z</time>
      </trkpt>
      <trkpt lat="44.63387" lon="1.80848">
        <ele>334</ele>
        <time>2019-08-10T12:34:11.499Z</time>
      </trkpt>
      <trkpt lat="44.63379" lon="1.80863">
        <ele>334</ele>
        <time>2019-08-10T12:34:15.501Z</time>
      </trkpt>
      <trkpt lat="44.63379" lon="1.80874">
        <ele>334</ele>
        <time>2019-08-10T12:34:19.525Z</time>
      </trkpt>
      <trkpt lat="44.63377" lon="1.8088">
        <ele>334</ele>
        <time>2019-08-10T12:34:24.531Z</time>
      </trkpt>
      <trkpt lat="44.63376" lon="1.80889">
        <ele>334</ele>
        <time>2019-08-10T12:34:28.535Z</time>
      </trkpt>
      <trkpt lat="44.63373" lon="1.80899">
        <ele>332</ele>
        <time>2019-08-10T12:34:33.500Z</time>
      </trkpt>
      <trkpt lat="44.63373" lon="1.80902">
        <ele>332</ele>
        <time>2019-08-10T12:34:37.535Z</time>
      </trkpt>
      <trkpt lat="44.63369" lon="1.80909">
        <ele>333</ele>
        <time>2019-08-10T12:34:41.526Z</time>
      </trkpt>
      <trkpt lat="44.63366" lon="1.80918">
        <ele>333</ele>
        <time>2019-08-10T12:34:46.545Z</time>
      </trkpt>
      <trkpt lat="44.63365" lon="1.80925">
        <ele>333</ele>
        <time>2019-08-10T12:34:51.542Z</time>
      </trkpt>
      <trkpt lat="44.63362" lon="1.80933">
        <ele>334</ele>
        <time>2019-08-10T12:34:56.561Z</time>
      </trkpt>
      <trkpt lat="44.63357" lon="1.80943">
        <ele>334</ele>
        <time>2019-08-10T12:35:01.536Z</time>
      </trkpt>
      <trkpt lat="44.63355" lon="1.80948">
        <ele>334</ele>
        <time>2019-08-10T12:35:05.542Z</time>
      </trkpt>
      <trkpt lat="44.63354" lon="1.80953">
        <ele>334</ele>
        <time>2019-08-10T12:35:10.548Z</time>
      </trkpt>
      <trkpt lat="44.63348" lon="1.8096">
        <ele>334</ele>
        <time>2019-08-10T12:35:15.549Z</time>
      </trkpt>
      <trkpt lat="44.63349" lon="1.80968">
        <ele>334</ele>
        <time>2019-08-10T12:35:20.564Z</time>
      </trkpt>
      <trkpt lat="44.63345" lon="1.80976">
        <ele>332</ele>
        <time>2019-08-10T12:35:25.544Z</time>
      </trkpt>
      <trkpt lat="44.63342" lon="1.80984">
        <ele>332</ele>
        <time>2019-08-10T12:35:29.557Z</time>
      </trkpt>
      <trkpt lat="44.63338" lon="1.80998">
        <ele>329</ele>
        <time>2019-08-10T12:35:34.542Z</time>
      </trkpt>
      <trkpt lat="44.63338" lon="1.81006">
        <ele>329</ele>
        <time>2019-08-10T12:35:38.546Z</time>
      </trkpt>
      <trkpt lat="44.63333" lon="1.81015">
        <ele>328</ele>
        <time>2019-08-10T12:35:43.552Z</time>
      </trkpt>
      <trkpt lat="44.63332" lon="1.81024">
        <ele>328</ele>
        <time>2019-08-10T12:35:48.537Z</time>
      </trkpt>
      <trkpt lat="44.63331" lon="1.81031">
        <ele>328</ele>
        <time>2019-08-10T12:35:52.546Z</time>
      </trkpt>
      <trkpt lat="44.63326" lon="1.81046">
        <ele>327</ele>
        <time>2019-08-10T12:35:57.555Z</time>
      </trkpt>
      <trkpt lat="44.63321" lon="1.8106">
        <ele>327</ele>
        <time>2019-08-10T12:36:02.545Z</time>
      </trkpt>
      <trkpt lat="44.63316" lon="1.81071">
        <ele>328</ele>
        <time>2019-08-10T12:36:07.558Z</time>
      </trkpt>
      <trkpt lat="44.63316" lon="1.81078">
        <ele>328</ele>
        <time>2019-08-10T12:36:12.533Z</time>
      </trkpt>
      <trkpt lat="44.63315" lon="1.81087">
        <ele>328</ele>
        <time>2019-08-10T12:36:16.525Z</time>
      </trkpt>
      <trkpt lat="44.63312" lon="1.81096">
        <ele>328</ele>
        <time>2019-08-10T12:36:21.535Z</time>
      </trkpt>
      <trkpt lat="44.63311" lon="1.81102">
        <ele>326</ele>
        <time>2019-08-10T12:36:26.563Z</time>
      </trkpt>
      <trkpt lat="44.63307" lon="1.8111">
        <ele>326</ele>
        <time>2019-08-10T12:36:31.514Z</time>
      </trkpt>
      <trkpt lat="44.63304" lon="1.8112">
        <ele>326</ele>
        <time>2019-08-10T12:36:35.535Z</time>
      </trkpt>
      <trkpt lat="44.63304" lon="1.8113">
        <ele>324</ele>
        <time>2019-08-10T12:36:40.547Z</time>
      </trkpt>
      <trkpt lat="44.63303" lon="1.81138">
        <ele>324</ele>
        <time>2019-08-10T12:36:45.557Z</time>
      </trkpt>
      <trkpt lat="44.63302" lon="1.81144">
        <ele>324</ele>
        <time>2019-08-10T12:36:50.543Z</time>
      </trkpt>
      <trkpt lat="44.633" lon="1.8115">
        <ele>324</ele>
        <time>2019-08-10T12:36:55.554Z</time>
      </trkpt>
      <trkpt lat="44.63296" lon="1.81165">
        <ele>322</ele>
        <time>2019-08-10T12:37:00.540Z</time>
      </trkpt>
      <trkpt lat="44.63291" lon="1.81175">
        <ele>321</ele>
        <time>2019-08-10T12:37:04.556Z</time>
      </trkpt>
      <trkpt lat="44.63291" lon="1.8118">
        <ele>321</ele>
        <time>2019-08-10T12:37:09.554Z</time>
      </trkpt>
      <trkpt lat="44.63288" lon="1.81191">
        <ele>319</ele>
        <time>2019-08-10T12:37:14.558Z</time>
      </trkpt>
      <trkpt lat="44.63286" lon="1.812">
        <ele>319</ele>
        <time>2019-08-10T12:37:19.549Z</time>
      </trkpt>
      <trkpt lat="44.63284" lon="1.81204">
        <ele>319</ele>
        <time>2019-08-10T12:37:23.550Z</time>
      </trkpt>
      <trkpt lat="44.63282" lon="1.81209">
        <ele>319</ele>
        <time>2019-08-10T12:37:28.532Z</time>
      </trkpt>
      <trkpt lat="44.63278" lon="1.81217">
        <ele>319</ele>
        <time>2019-08-10T12:37:32.548Z</time>
      </trkpt>
      <trkpt lat="44.63275" lon="1.81221">
        <ele>319</ele>
        <time>2019-08-10T12:37:37.535Z</time>
      </trkpt>
      <trkpt lat="44.63271" lon="1.81226">
        <ele>319</ele>
        <time>2019-08-10T12:37:41.544Z</time>
      </trkpt>
      <trkpt lat="44.63263" lon="1.81243">
        <ele>321</ele>
        <time>2019-08-10T12:37:46.536Z</time>
      </trkpt>
      <trkpt lat="44.63259" lon="1.81248">
        <ele>321</ele>
        <time>2019-08-10T12:37:50.565Z</time>
      </trkpt>
      <trkpt lat="44.63255" lon="1.81248">
        <ele>321</ele>
        <time>2019-08-10T12:37:55.532Z</time>
      </trkpt>
      <trkpt lat="44.6325" lon="1.81247">
        <ele>321</ele>
        <time>2019-08-10T12:37:59.538Z</time>
      </trkpt>
      <trkpt lat="44.63244" lon="1.8125">
        <ele>321</ele>
        <time>2019-08-10T12:38:03.538Z</time>
      </trkpt>
      <trkpt lat="44.63238" lon="1.8126">
        <ele>321</ele>
        <time>2019-08-10T12:38:08.529Z</time>
      </trkpt>
      <trkpt lat="44.63234" lon="1.81264">
        <ele>321</ele>
        <time>2019-08-10T12:38:13.550Z</time>
      </trkpt>
      <trkpt lat="44.63234" lon="1.81267">
        <ele>321</ele>
        <time>2019-08-10T12:38:18.533Z</time>
      </trkpt>
      <trkpt lat="44.63231" lon="1.81271">
        <ele>321</ele>
        <time>2019-08-10T12:38:22.561Z</time>
      </trkpt>
      <trkpt lat="44.63226" lon="1.81279">
        <ele>321</ele>
        <time>2019-08-10T12:38:27.541Z</time>
      </trkpt>
      <trkpt lat="44.63221" lon="1.81285">
        <ele>321</ele>
        <time>2019-08-10T12:38:32.538Z</time>
      </trkpt>
      <trkpt lat="44.63215" lon="1.81293">
        <ele>321</ele>
        <time>2019-08-10T12:38:37.539Z</time>
      </trkpt>
      <trkpt lat="44.63212" lon="1.813">
        <ele>321</ele>
        <time>2019-08-10T12:38:41.560Z</time>
      </trkpt>
      <trkpt lat="44.63207" lon="1.81307">
        <ele>319</ele>
        <time>2019-08-10T12:38:46.548Z</time>
      </trkpt>
      <trkpt lat="44.63201" lon="1.81315">
        <ele>319</ele>
        <time>2019-08-10T12:38:51.574Z</time>
      </trkpt>
      <trkpt lat="44.63196" lon="1.81324">
        <ele>318</ele>
        <time>2019-08-10T12:38:56.571Z</time>
      </trkpt>
      <trkpt lat="44.6319" lon="1.81332">
        <ele>318</ele>
        <time>2019-08-10T12:39:01.553Z</time>
      </trkpt>
      <trkpt lat="44.63185" lon="1.8134">
        <ele>318</ele>
        <time>2019-08-10T12:39:06.551Z</time>
      </trkpt>
      <trkpt lat="44.63179" lon="1.81347">
        <ele>317</ele>
        <time>2019-08-10T12:39:11.535Z</time>
      </trkpt>
      <trkpt lat="44.63174" lon="1.81353">
        <ele>317</ele>
        <time>2019-08-10T12:39:15.543Z</time>
      </trkpt>
      <trkpt lat="44.63169" lon="1.81361">
        <ele>317</ele>
        <time>2019-08-10T12:39:19.554Z</time>
      </trkpt>
      <trkpt lat="44.63162" lon="1.81369">
        <ele>317</ele>
        <time>2019-08-10T12:39:24.551Z</time>
      </trkpt>
      <trkpt lat="44.63157" lon="1.81372">
        <ele>317</ele>
        <time>2019-08-10T12:39:29.547Z</time>
      </trkpt>
      <trkpt lat="44.6315" lon="1.81378">
        <ele>317</ele>
        <time>2019-08-10T12:39:34.573Z</time>
      </trkpt>
      <trkpt lat="44.63141" lon="1.81383">
        <ele>317</ele>
        <time>2019-08-10T12:39:39.550Z</time>
      </trkpt>
      <trkpt lat="44.63135" lon="1.81387">
        <ele>317</ele>
        <time>2019-08-10T12:39:44.551Z</time>
      </trkpt>
      <trkpt lat="44.63128" lon="1.8139">
        <ele>317</ele>
        <time>2019-08-10T12:39:49.541Z</time>
      </trkpt>
      <trkpt lat="44.63123" lon="1.81394">
        <ele>315</ele>
        <time>2019-08-10T12:39:54.547Z</time>
      </trkpt>
      <trkpt lat="44.63119" lon="1.81395">
        <ele>315</ele>
        <time>2019-08-10T12:39:58.551Z</time>
      </trkpt>
      <trkpt lat="44.63112" lon="1.81396">
        <ele>315</ele>
        <time>2019-08-10T12:40:03.546Z</time>
      </trkpt>
      <trkpt lat="44.63106" lon="1.81397">
        <ele>315</ele>
        <time>2019-08-10T12:40:07.551Z</time>
      </trkpt>
      <trkpt lat="44.63098" lon="1.81398">
        <ele>315</ele>
        <time>2019-08-10T12:40:12.524Z</time>
      </trkpt>
      <trkpt lat="44.63093" lon="1.81401">
        <ele>314</ele>
        <time>2019-08-10T12:40:16.556Z</time>
      </trkpt>
      <trkpt lat="44.63087" lon="1.81406">
        <ele>314</ele>
        <time>2019-08-10T12:40:20.552Z</time>
      </trkpt>
      <trkpt lat="44.63081" lon="1.81411">
        <ele>314</ele>
        <time>2019-08-10T12:40:25.536Z</time>
      </trkpt>
      <trkpt lat="44.63077" lon="1.81417">
        <ele>314</ele>
        <time>2019-08-10T12:40:30.542Z</time>
      </trkpt>
      <trkpt lat="44.63073" lon="1.81423">
        <ele>314</ele>
        <time>2019-08-10T12:40:34.542Z</time>
      </trkpt>
      <trkpt lat="44.63068" lon="1.8143">
        <ele>316</ele>
        <time>2019-08-10T12:40:39.526Z</time>
      </trkpt>
      <trkpt lat="44.63063" lon="1.81434">
        <ele>316</ele>
        <time>2019-08-10T12:40:44.548Z</time>
      </trkpt>
      <trkpt lat="44.63058" lon="1.81439">
        <ele>316</ele>
        <time>2019-08-10T12:40:48.548Z</time>
      </trkpt>
      <trkpt lat="44.63054" lon="1.81448">
        <ele>316</ele>
        <time>2019-08-10T12:40:52.557Z</time>
      </trkpt>
      <trkpt lat="44.6305" lon="1.8145">
        <ele>316</ele>
        <time>2019-08-10T12:40:57.532Z</time>
      </trkpt>
      <trkpt lat="44.63045" lon="1.81456">
        <ele>316</ele>
        <time>2019-08-10T12:41:02.536Z</time>
      </trkpt>
      <trkpt lat="44.63041" lon="1.81464">
        <ele>317</ele>
        <time>2019-08-10T12:41:07.541Z</time>
      </trkpt>
      <trkpt lat="44.63035" lon="1.81469">
        <ele>317</ele>
        <time>2019-08-10T12:41:12.548Z</time>
      </trkpt>
      <trkpt lat="44.63031" lon="1.81472">
        <ele>317</ele>
        <time>2019-08-10T12:41:16.540Z</time>
      </trkpt>
      <trkpt lat="44.63027" lon="1.81476">
        <ele>317</ele>
        <time>2019-08-10T12:41:20.534Z</time>
      </trkpt>
      <trkpt lat="44.63022" lon="1.8148">
        <ele>317</ele>
        <time>2019-08-10T12:41:25.534Z</time>
      </trkpt>
      <trkpt lat="44.63018" lon="1.81487">
        <ele>318</ele>
        <time>2019-08-10T12:41:30.530Z</time>
      </trkpt>
      <trkpt lat="44.63011" lon="1.8149">
        <ele>317</ele>
        <time>2019-08-10T12:41:35.535Z</time>
      </trkpt>
      <trkpt lat="44.63004" lon="1.81496">
        <ele>317</ele>
        <time>2019-08-10T12:41:40.509Z</time>
      </trkpt>
      <trkpt lat="44.63002" lon="1.81505">
        <ele>317</ele>
        <time>2019-08-10T12:41:45.549Z</time>
      </trkpt>
      <trkpt lat="44.63003" lon="1.81514">
        <ele>317</ele>
        <time>2019-08-10T12:41:50.551Z</time>
      </trkpt>
      <trkpt lat="44.63003" lon="1.81524">
        <ele>317</ele>
        <time>2019-08-10T12:41:54.573Z</time>
      </trkpt>
      <trkpt lat="44.63001" lon="1.81534">
        <ele>317</ele>
        <time>2019-08-10T12:41:58.553Z</time>
      </trkpt>
      <trkpt lat="44.62997" lon="1.8155">
        <ele>316</ele>
        <time>2019-08-10T12:42:03.532Z</time>
      </trkpt>
      <trkpt lat="44.62999" lon="1.81561">
        <ele>316</ele>
        <time>2019-08-10T12:42:07.541Z</time>
      </trkpt>
      <trkpt lat="44.62998" lon="1.81568">
        <ele>316</ele>
        <time>2019-08-10T12:42:11.546Z</time>
      </trkpt>
      <trkpt lat="44.63" lon="1.81573">
        <ele>314</ele>
        <time>2019-08-10T12:42:16.536Z</time>
      </trkpt>
      <trkpt lat="44.63001" lon="1.81587">
        <ele>314</ele>
        <time>2019-08-10T12:42:21.543Z</time>
      </trkpt>
      <trkpt lat="44.63006" lon="1.81589">
        <ele>314</ele>
        <time>2019-08-10T12:42:26.545Z</time>
      </trkpt>
      <trkpt lat="44.63015" lon="1.81587">
        <ele>314</ele>
        <time>2019-08-10T12:42:31.552Z</time>
      </trkpt>
      <trkpt lat="44.63028" lon="1.81583">
        <ele>314</ele>
        <time>2019-08-10T12:42:36.558Z</time>
      </trkpt>
      <trkpt lat="44.63043" lon="1.81579">
        <ele>315</ele>
        <time>2019-08-10T12:42:41.544Z</time>
      </trkpt>
      <trkpt lat="44.63052" lon="1.81573">
        <ele>315</ele>
        <time>2019-08-10T12:42:45.546Z</time>
      </trkpt>
      <trkpt lat="44.63067" lon="1.81564">
        <ele>316</ele>
        <time>2019-08-10T12:42:50.566Z</time>
      </trkpt>
      <trkpt lat="44.63089" lon="1.81557">
        <ele>316</ele>
        <time>2019-08-10T12:42:55.535Z</time>
      </trkpt>
      <trkpt lat="44.63104" lon="1.8155">
        <ele>316</ele>
        <time>2019-08-10T12:42:59.555Z</time>
      </trkpt>
      <trkpt lat="44.63119" lon="1.81551">
        <ele>316</ele>
        <time>2019-08-10T12:43:04.523Z</time>
      </trkpt>
      <trkpt lat="44.6313" lon="1.81547">
        <ele>317</ele>
        <time>2019-08-10T12:43:09.529Z</time>
      </trkpt>
      <trkpt lat="44.63137" lon="1.81548">
        <ele>317</ele>
        <time>2019-08-10T12:43:13.521Z</time>
      </trkpt>
      <trkpt lat="44.63148" lon="1.81552">
        <ele>317</ele>
        <time>2019-08-10T12:43:18.526Z</time>
      </trkpt>
      <trkpt lat="44.63156" lon="1.81555">
        <ele>319</ele>
        <time>2019-08-10T12:43:23.519Z</time>
      </trkpt>
      <trkpt lat="44.63163" lon="1.81554">
        <ele>319</ele>
        <time>2019-08-10T12:43:28.529Z</time>
      </trkpt>
      <trkpt lat="44.63172" lon="1.81557">
        <ele>319</ele>
        <time>2019-08-10T12:43:32.534Z</time>
      </trkpt>
      <trkpt lat="44.63179" lon="1.81557">
        <ele>319</ele>
        <time>2019-08-10T12:43:37.535Z</time>
      </trkpt>
      <trkpt lat="44.63186" lon="1.81553">
        <ele>320</ele>
        <time>2019-08-10T12:43:42.524Z</time>
      </trkpt>
      <trkpt lat="44.63194" lon="1.8155">
        <ele>320</ele>
        <time>2019-08-10T12:43:47.527Z</time>
      </trkpt>
      <trkpt lat="44.63201" lon="1.81549">
        <ele>320</ele>
        <time>2019-08-10T12:43:52.526Z</time>
      </trkpt>
      <trkpt lat="44.63212" lon="1.81549">
        <ele>321</ele>
        <time>2019-08-10T12:43:57.532Z</time>
      </trkpt>
      <trkpt lat="44.63223" lon="1.81546">
        <ele>321</ele>
        <time>2019-08-10T12:44:02.518Z</time>
      </trkpt>
      <trkpt lat="44.63228" lon="1.81545">
        <ele>321</ele>
        <time>2019-08-10T12:44:06.531Z</time>
      </trkpt>
      <trkpt lat="44.63233" lon="1.81543">
        <ele>321</ele>
        <time>2019-08-10T12:44:11.531Z</time>
      </trkpt>
      <trkpt lat="44.63238" lon="1.81542">
        <ele>320</ele>
        <time>2019-08-10T12:44:16.522Z</time>
      </trkpt>
      <trkpt lat="44.63245" lon="1.81541">
        <ele>321</ele>
        <time>2019-08-10T12:44:21.534Z</time>
      </trkpt>
      <trkpt lat="44.63248" lon="1.8154">
        <ele>321</ele>
        <time>2019-08-10T12:44:26.527Z</time>
      </trkpt>
      <trkpt lat="44.63253" lon="1.81542">
        <ele>320</ele>
        <time>2019-08-10T12:44:31.529Z</time>
      </trkpt>
      <trkpt lat="44.63261" lon="1.81544">
        <ele>320</ele>
        <time>2019-08-10T12:44:36.546Z</time>
      </trkpt>
      <trkpt lat="44.6327" lon="1.81545">
        <ele>319</ele>
        <time>2019-08-10T12:44:41.518Z</time>
      </trkpt>
      <trkpt lat="44.63277" lon="1.81542">
        <ele>319</ele>
        <time>2019-08-10T12:44:46.536Z</time>
      </trkpt>
      <trkpt lat="44.63285" lon="1.81541">
        <ele>321</ele>
        <time>2019-08-10T12:44:51.529Z</time>
      </trkpt>
      <trkpt lat="44.6329" lon="1.8154">
        <ele>321</ele>
        <time>2019-08-10T12:44:55.517Z</time>
      </trkpt>
      <trkpt lat="44.63295" lon="1.81539">
        <ele>322</ele>
        <time>2019-08-10T12:45:00.518Z</time>
      </trkpt>
      <trkpt lat="44.63301" lon="1.81537">
        <ele>322</ele>
        <time>2019-08-10T12:45:04.519Z</time>
      </trkpt>
      <trkpt lat="44.63307" lon="1.81537">
        <ele>322</ele>
        <time>2019-08-10T12:45:08.532Z</time>
      </trkpt>
      <trkpt lat="44.63314" lon="1.81537">
        <ele>322</ele>
        <time>2019-08-10T12:45:13.526Z</time>
      </trkpt>
      <trkpt lat="44.63318" lon="1.81535">
        <ele>322</ele>
        <time>2019-08-10T12:45:18.535Z</time>
      </trkpt>
      <trkpt lat="44.63322" lon="1.81531">
        <ele>324</ele>
        <time>2019-08-10T12:45:23.510Z</time>
      </trkpt>
      <trkpt lat="44.63329" lon="1.8153">
        <ele>324</ele>
        <time>2019-08-10T12:45:27.525Z</time>
      </trkpt>
      <trkpt lat="44.63336" lon="1.8153">
        <ele>324</ele>
        <time>2019-08-10T12:45:32.527Z</time>
      </trkpt>
      <trkpt lat="44.63339" lon="1.81529">
        <ele>324</ele>
        <time>2019-08-10T12:45:36.538Z</time>
      </trkpt>
      <trkpt lat="44.63345" lon="1.81528">
        <ele>324</ele>
        <time>2019-08-10T12:45:41.533Z</time>
      </trkpt>
      <trkpt lat="44.63353" lon="1.81526">
        <ele>324</ele>
        <time>2019-08-10T12:45:46.519Z</time>
      </trkpt>
      <trkpt lat="44.63358" lon="1.81524">
        <ele>324</ele>
        <time>2019-08-10T12:45:51.534Z</time>
      </trkpt>
      <trkpt lat="44.63365" lon="1.81523">
        <ele>324</ele>
        <time>2019-08-10T12:45:56.530Z</time>
      </trkpt>
      <trkpt lat="44.63374" lon="1.81519">
        <ele>324</ele>
        <time>2019-08-10T12:46:01.520Z</time>
      </trkpt>
      <trkpt lat="44.63383" lon="1.81519">
        <ele>325</ele>
        <time>2019-08-10T12:46:06.530Z</time>
      </trkpt>
      <trkpt lat="44.63391" lon="1.81519">
        <ele>325</ele>
        <time>2019-08-10T12:46:11.515Z</time>
      </trkpt>
      <trkpt lat="44.634" lon="1.81518">
        <ele>325</ele>
        <time>2019-08-10T12:46:16.530Z</time>
      </trkpt>
      <trkpt lat="44.63407" lon="1.81516">
        <ele>327</ele>
        <time>2019-08-10T12:46:20.528Z</time>
      </trkpt>
      <trkpt lat="44.63415" lon="1.81516">
        <ele>327</ele>
        <time>2019-08-10T12:46:25.530Z</time>
      </trkpt>
      <trkpt lat="44.63423" lon="1.81513">
        <ele>329</ele>
        <time>2019-08-10T12:46:30.530Z</time>
      </trkpt>
      <trkpt lat="44.63431" lon="1.81509">
        <ele>329</ele>
        <time>2019-08-10T12:46:35.519Z</time>
      </trkpt>
      <trkpt lat="44.63437" lon="1.81505">
        <ele>329</ele>
        <time>2019-08-10T12:46:40.526Z</time>
      </trkpt>
      <trkpt lat="44.63442" lon="1.81502">
        <ele>329</ele>
        <time>2019-08-10T12:46:45.522Z</time>
      </trkpt>
      <trkpt lat="44.63445" lon="1.81498">
        <ele>329</ele>
        <time>2019-08-10T12:46:49.533Z</time>
      </trkpt>
      <trkpt lat="44.6345" lon="1.81494">
        <ele>329</ele>
        <time>2019-08-10T12:46:54.513Z</time>
      </trkpt>
      <trkpt lat="44.63453" lon="1.81489">
        <ele>329</ele>
        <time>2019-08-10T12:46:58.528Z</time>
      </trkpt>
      <trkpt lat="44.63458" lon="1.81482">
        <ele>330</ele>
        <time>2019-08-10T12:47:03.529Z</time>
      </trkpt>
      <trkpt lat="44.63465" lon="1.81472">
        <ele>331</ele>
        <time>2019-08-10T12:47:08.530Z</time>
      </trkpt>
      <trkpt lat="44.63473" lon="1.81469">
        <ele>331</ele>
        <time>2019-08-10T12:47:13.513Z</time>
      </trkpt>
      <trkpt lat="44.63477" lon="1.81464">
        <ele>331</ele>
        <time>2019-08-10T12:47:17.531Z</time>
      </trkpt>
      <trkpt lat="44.63483" lon="1.81463">
        <ele>331</ele>
        <time>2019-08-10T12:47:21.532Z</time>
      </trkpt>
      <trkpt lat="44.63491" lon="1.81461">
        <ele>332</ele>
        <time>2019-08-10T12:47:26.527Z</time>
      </trkpt>
      <trkpt lat="44.63497" lon="1.8146">
        <ele>332</ele>
        <time>2019-08-10T12:47:30.531Z</time>
      </trkpt>
      <trkpt lat="44.63504" lon="1.81455">
        <ele>333</ele>
        <time>2019-08-10T12:47:35.525Z</time>
      </trkpt>
      <trkpt lat="44.63512" lon="1.81453">
        <ele>333</ele>
        <time>2019-08-10T12:47:40.524Z</time>
      </trkpt>
      <trkpt lat="44.63519" lon="1.81449">
        <ele>332</ele>
        <time>2019-08-10T12:47:45.526Z</time>
      </trkpt>
      <trkpt lat="44.63525" lon="1.81446">
        <ele>332</ele>
        <time>2019-08-10T12:47:49.532Z</time>
      </trkpt>
      <trkpt lat="44.63531" lon="1.81444">
        <ele>332</ele>
        <time>2019-08-10T12:47:54.521Z</time>
      </trkpt>
      <trkpt lat="44.63537" lon="1.81442">
        <ele>332</ele>
        <time>2019-08-10T12:47:59.526Z</time>
      </trkpt>
      <trkpt lat="44.63543" lon="1.81437">
        <ele>330</ele>
        <time>2019-08-10T12:48:04.531Z</time>
      </trkpt>
      <trkpt lat="44.6355" lon="1.81437">
        <ele>330</ele>
        <time>2019-08-10T12:48:08.536Z</time>
      </trkpt>
      <trkpt lat="44.63558" lon="1.81435">
        <ele>330</ele>
        <time>2019-08-10T12:48:13.520Z</time>
      </trkpt>
      <trkpt lat="44.63562" lon="1.81429">
        <ele>329</ele>
        <time>2019-08-10T12:48:17.529Z</time>
      </trkpt>
      <trkpt lat="44.63573" lon="1.81432">
        <ele>329</ele>
        <time>2019-08-10T12:48:22.525Z</time>
      </trkpt>
      <trkpt lat="44.63581" lon="1.81432">
        <ele>329</ele>
        <time>2019-08-10T12:48:27.530Z</time>
      </trkpt>
      <trkpt lat="44.63587" lon="1.8143">
        <ele>328</ele>
        <time>2019-08-10T12:48:32.522Z</time>
      </trkpt>
      <trkpt lat="44.63592" lon="1.81426">
        <ele>328</ele>
        <time>2019-08-10T12:48:37.531Z</time>
      </trkpt>
      <trkpt lat="44.63601" lon="1.81424">
        <ele>328</ele>
        <time>2019-08-10T12:48:42.528Z</time>
      </trkpt>
      <trkpt lat="44.63611" lon="1.81421">
        <ele>328</ele>
        <time>2019-08-10T12:48:47.531Z</time>
      </trkpt>
      <trkpt lat="44.63618" lon="1.81417">
        <ele>328</ele>
        <time>2019-08-10T12:48:52.522Z</time>
      </trkpt>
      <trkpt lat="44.63624" lon="1.81413">
        <ele>328</ele>
        <time>2019-08-10T12:48:57.524Z</time>
      </trkpt>
      <trkpt lat="44.63634" lon="1.81413">
        <ele>329</ele>
        <time>2019-08-10T12:49:02.527Z</time>
      </trkpt>
      <trkpt lat="44.63645" lon="1.8141">
        <ele>329</ele>
        <time>2019-08-10T12:49:07.523Z</time>
      </trkpt>
      <trkpt lat="44.63652" lon="1.81406">
        <ele>329</ele>
        <time>2019-08-10T12:49:12.528Z</time>
      </trkpt>
      <trkpt lat="44.63661" lon="1.81406">
        <ele>327</ele>
        <time>2019-08-10T12:49:17.528Z</time>
      </trkpt>
      <trkpt lat="44.63667" lon="1.81405">
        <ele>327</ele>
        <time>2019-08-10T12:49:21.518Z</time>
      </trkpt>
      <trkpt lat="44.63675" lon="1.81403">
        <ele>325</ele>
        <time>2019-08-10T12:49:26.519Z</time>
      </trkpt>
      <trkpt lat="44.63678" lon="1.81403">
        <ele>325</ele>
        <time>2019-08-10T12:49:30.526Z</time>
      </trkpt>
      <trkpt lat="44.63684" lon="1.81401">
        <ele>323</ele>
        <time>2019-08-10T12:49:34.525Z</time>
      </trkpt>
      <trkpt lat="44.63691" lon="1.814">
        <ele>323</ele>
        <time>2019-08-10T12:49:44.526Z</time>
      </trkpt>
      <trkpt lat="44.63691" lon="1.814">
        <ele>323</ele>
        <time>2019-08-10T12:49:49.532Z</time>
      </trkpt>
      <trkpt lat="44.63692" lon="1.81399">
        <ele>323</ele>
        <time>2019-08-10T12:49:54.528Z</time>
      </trkpt>
      <trkpt lat="44.63696" lon="1.81396">
        <ele>323</ele>
        <time>2019-08-10T12:49:58.530Z</time>
      </trkpt>
      <trkpt lat="44.63701" lon="1.81394">
        <ele>323</ele>
        <time>2019-08-10T12:50:03.517Z</time>
      </trkpt>
      <trkpt lat="44.63707" lon="1.81394">
        <ele>323</ele>
        <time>2019-08-10T12:50:07.528Z</time>
      </trkpt>
      <trkpt lat="44.63716" lon="1.81391">
        <ele>324</ele>
        <time>2019-08-10T12:50:12.528Z</time>
      </trkpt>
      <trkpt lat="44.63724" lon="1.81388">
        <ele>324</ele>
        <time>2019-08-10T12:50:17.530Z</time>
      </trkpt>
      <trkpt lat="44.63731" lon="1.81384">
        <ele>324</ele>
        <time>2019-08-10T12:50:22.531Z</time>
      </trkpt>
      <trkpt lat="44.63737" lon="1.81381">
        <ele>324</ele>
        <time>2019-08-10T12:50:27.531Z</time>
      </trkpt>
      <trkpt lat="44.63743" lon="1.81382">
        <ele>324</ele>
        <time>2019-08-10T12:50:32.529Z</time>
      </trkpt>
      <trkpt lat="44.63748" lon="1.81383">
        <ele>324</ele>
        <time>2019-08-10T12:50:36.522Z</time>
      </trkpt>
      <trkpt lat="44.63755" lon="1.8138">
        <ele>324</ele>
        <time>2019-08-10T12:50:41.528Z</time>
      </trkpt>
      <trkpt lat="44.63764" lon="1.81376">
        <ele>324</ele>
        <time>2019-08-10T12:50:46.521Z</time>
      </trkpt>
      <trkpt lat="44.63771" lon="1.81375">
        <ele>324</ele>
        <time>2019-08-10T12:50:50.536Z</time>
      </trkpt>
      <trkpt lat="44.63777" lon="1.81375">
        <ele>324</ele>
        <time>2019-08-10T12:50:55.527Z</time>
      </trkpt>
      <trkpt lat="44.63787" lon="1.81372">
        <ele>321</ele>
        <time>2019-08-10T12:51:00.533Z</time>
      </trkpt>
      <trkpt lat="44.63796" lon="1.8137">
        <ele>320</ele>
        <time>2019-08-10T12:51:05.523Z</time>
      </trkpt>
      <trkpt lat="44.63803" lon="1.81367">
        <ele>320</ele>
        <time>2019-08-10T12:51:10.534Z</time>
      </trkpt>
      <trkpt lat="44.63811" lon="1.81365">
        <ele>320</ele>
        <time>2019-08-10T12:51:15.523Z</time>
      </trkpt>
      <trkpt lat="44.63819" lon="1.81363">
        <ele>318</ele>
        <time>2019-08-10T12:51:20.525Z</time>
      </trkpt>
      <trkpt lat="44.63827" lon="1.81363">
        <ele>318</ele>
        <time>2019-08-10T12:51:25.532Z</time>
      </trkpt>
      <trkpt lat="44.63833" lon="1.81362">
        <ele>318</ele>
        <time>2019-08-10T12:51:30.523Z</time>
      </trkpt>
      <trkpt lat="44.6384" lon="1.81359">
        <ele>318</ele>
        <time>2019-08-10T12:51:35.526Z</time>
      </trkpt>
      <trkpt lat="44.63847" lon="1.81355">
        <ele>317</ele>
        <time>2019-08-10T12:51:40.533Z</time>
      </trkpt>
      <trkpt lat="44.63855" lon="1.81353">
        <ele>317</ele>
        <time>2019-08-10T12:51:45.525Z</time>
      </trkpt>
      <trkpt lat="44.63862" lon="1.81353">
        <ele>317</ele>
        <time>2019-08-10T12:51:49.515Z</time>
      </trkpt>
      <trkpt lat="44.63868" lon="1.81351">
        <ele>317</ele>
        <time>2019-08-10T12:51:53.529Z</time>
      </trkpt>
      <trkpt lat="44.63877" lon="1.81351">
        <ele>316</ele>
        <time>2019-08-10T12:51:58.519Z</time>
      </trkpt>
      <trkpt lat="44.63882" lon="1.8135">
        <ele>316</ele>
        <time>2019-08-10T12:52:02.527Z</time>
      </trkpt>
      <trkpt lat="44.63889" lon="1.8135">
        <ele>316</ele>
        <time>2019-08-10T12:52:07.523Z</time>
      </trkpt>
      <trkpt lat="44.63896" lon="1.81351">
        <ele>316</ele>
        <time>2019-08-10T12:52:12.511Z</time>
      </trkpt>
      <trkpt lat="44.63899" lon="1.81352">
        <ele>316</ele>
        <time>2019-08-10T12:52:16.539Z</time>
      </trkpt>
      <trkpt lat="44.63905" lon="1.81358">
        <ele>319</ele>
        <time>2019-08-10T12:52:21.527Z</time>
      </trkpt>
      <trkpt lat="44.63912" lon="1.8136">
        <ele>319</ele>
        <time>2019-08-10T12:52:26.529Z</time>
      </trkpt>
      <trkpt lat="44.6392" lon="1.81362">
        <ele>319</ele>
        <time>2019-08-10T12:52:31.535Z</time>
      </trkpt>
      <trkpt lat="44.63924" lon="1.81365">
        <ele>319</ele>
        <time>2019-08-10T12:52:36.533Z</time>
      </trkpt>
      <trkpt lat="44.63931" lon="1.81369">
        <ele>321</ele>
        <time>2019-08-10T12:52:41.531Z</time>
      </trkpt>
      <trkpt lat="44.63939" lon="1.81372">
        <ele>321</ele>
        <time>2019-08-10T12:52:46.535Z</time>
      </trkpt>
      <trkpt lat="44.63945" lon="1.81373">
        <ele>321</ele>
        <time>2019-08-10T12:52:51.529Z</time>
      </trkpt>
      <trkpt lat="44.63949" lon="1.81376">
        <ele>322</ele>
        <time>2019-08-10T12:52:56.523Z</time>
      </trkpt>
      <trkpt lat="44.63955" lon="1.81378">
        <ele>322</ele>
        <time>2019-08-10T12:53:00.529Z</time>
      </trkpt>
      <trkpt lat="44.63962" lon="1.81381">
        <ele>323</ele>
        <time>2019-08-10T12:53:05.522Z</time>
      </trkpt>
      <trkpt lat="44.63968" lon="1.81382">
        <ele>323</ele>
        <time>2019-08-10T12:53:09.531Z</time>
      </trkpt>
      <trkpt lat="44.63972" lon="1.81386">
        <ele>323</ele>
        <time>2019-08-10T12:53:13.529Z</time>
      </trkpt>
      <trkpt lat="44.63977" lon="1.81392">
        <ele>323</ele>
        <time>2019-08-10T12:53:23.534Z</time>
      </trkpt>
      <trkpt lat="44.63979" lon="1.81393">
        <ele>323</ele>
        <time>2019-08-10T12:53:28.527Z</time>
      </trkpt>
      <trkpt lat="44.63983" lon="1.81393">
        <ele>323</ele>
        <time>2019-08-10T12:53:32.524Z</time>
      </trkpt>
      <trkpt lat="44.63985" lon="1.81395">
        <ele>323</ele>
        <time>2019-08-10T12:53:36.536Z</time>
      </trkpt>
      <trkpt lat="44.6399" lon="1.81397">
        <ele>323</ele>
        <time>2019-08-10T12:53:41.523Z</time>
      </trkpt>
      <trkpt lat="44.63999" lon="1.814">
        <ele>323</ele>
        <time>2019-08-10T12:53:46.527Z</time>
      </trkpt>
      <trkpt lat="44.64001" lon="1.81401">
        <ele>323</ele>
        <time>2019-08-10T12:53:51.529Z</time>
      </trkpt>
      <trkpt lat="44.64002" lon="1.814">
        <ele>323</ele>
        <time>2019-08-10T12:53:56.520Z</time>
      </trkpt>
      <trkpt lat="44.64007" lon="1.81402">
        <ele>323</ele>
        <time>2019-08-10T12:54:00.533Z</time>
      </trkpt>
      <trkpt lat="44.64013" lon="1.81406">
        <ele>324</ele>
        <time>2019-08-10T12:54:05.524Z</time>
      </trkpt>
      <trkpt lat="44.6402" lon="1.81411">
        <ele>326</ele>
        <time>2019-08-10T12:54:10.531Z</time>
      </trkpt>
      <trkpt lat="44.64024" lon="1.81413">
        <ele>326</ele>
        <time>2019-08-10T12:54:15.527Z</time>
      </trkpt>
      <trkpt lat="44.6403" lon="1.81416">
        <ele>326</ele>
        <time>2019-08-10T12:54:20.528Z</time>
      </trkpt>
      <trkpt lat="44.64035" lon="1.8142">
        <ele>326</ele>
        <time>2019-08-10T12:54:24.525Z</time>
      </trkpt>
      <trkpt lat="44.6404" lon="1.81426">
        <ele>326</ele>
        <time>2019-08-10T12:54:29.517Z</time>
      </trkpt>
      <trkpt lat="44.64045" lon="1.81429">
        <ele>327</ele>
        <time>2019-08-10T12:54:33.551Z</time>
      </trkpt>
      <trkpt lat="44.64056" lon="1.81429">
        <ele>327</ele>
        <time>2019-08-10T12:54:38.528Z</time>
      </trkpt>
      <trkpt lat="44.64063" lon="1.81431">
        <ele>327</ele>
        <time>2019-08-10T12:54:43.520Z</time>
      </trkpt>
      <trkpt lat="44.64068" lon="1.81428">
        <ele>327</ele>
        <time>2019-08-10T12:54:47.531Z</time>
      </trkpt>
      <trkpt lat="44.64076" lon="1.81427">
        <ele>327</ele>
        <time>2019-08-10T12:54:52.523Z</time>
      </trkpt>
      <trkpt lat="44.64083" lon="1.81429">
        <ele>327</ele>
        <time>2019-08-10T12:54:57.521Z</time>
      </trkpt>
      <trkpt lat="44.64089" lon="1.8143">
        <ele>327</ele>
        <time>2019-08-10T12:55:01.524Z</time>
      </trkpt>
      <trkpt lat="44.64098" lon="1.81434">
        <ele>326</ele>
        <time>2019-08-10T12:55:06.528Z</time>
      </trkpt>
      <trkpt lat="44.64108" lon="1.81433">
        <ele>326</ele>
        <time>2019-08-10T12:55:11.533Z</time>
      </trkpt>
      <trkpt lat="44.64115" lon="1.81433">
        <ele>326</ele>
        <time>2019-08-10T12:55:16.504Z</time>
      </trkpt>
      <trkpt lat="44.6412" lon="1.81433">
        <ele>326</ele>
        <time>2019-08-10T12:55:20.507Z</time>
      </trkpt>
      <trkpt lat="44.64127" lon="1.81433">
        <ele>326</ele>
        <time>2019-08-10T12:55:24.522Z</time>
      </trkpt>
      <trkpt lat="44.64132" lon="1.81435">
        <ele>326</ele>
        <time>2019-08-10T12:55:28.531Z</time>
      </trkpt>
      <trkpt lat="44.64139" lon="1.81437">
        <ele>326</ele>
        <time>2019-08-10T12:55:33.526Z</time>
      </trkpt>
      <trkpt lat="44.64144" lon="1.81437">
        <ele>326</ele>
        <time>2019-08-10T12:55:37.531Z</time>
      </trkpt>
      <trkpt lat="44.6415" lon="1.81438">
        <ele>326</ele>
        <time>2019-08-10T12:55:41.527Z</time>
      </trkpt>
      <trkpt lat="44.64156" lon="1.81439">
        <ele>325</ele>
        <time>2019-08-10T12:55:46.525Z</time>
      </trkpt>
      <trkpt lat="44.64163" lon="1.81438">
        <ele>325</ele>
        <time>2019-08-10T12:55:51.528Z</time>
      </trkpt>
      <trkpt lat="44.6417" lon="1.81438">
        <ele>325</ele>
        <time>2019-08-10T12:55:56.528Z</time>
      </trkpt>
      <trkpt lat="44.64178" lon="1.81439">
        <ele>325</ele>
        <time>2019-08-10T12:56:01.534Z</time>
      </trkpt>
      <trkpt lat="44.64186" lon="1.81441">
        <ele>327</ele>
        <time>2019-08-10T12:56:06.526Z</time>
      </trkpt>
      <trkpt lat="44.64193" lon="1.81442">
        <ele>327</ele>
        <time>2019-08-10T12:56:10.526Z</time>
      </trkpt>
      <trkpt lat="44.64202" lon="1.81444">
        <ele>327</ele>
        <time>2019-08-10T12:56:15.520Z</time>
      </trkpt>
      <trkpt lat="44.64207" lon="1.81443">
        <ele>327</ele>
        <time>2019-08-10T12:56:20.530Z</time>
      </trkpt>
      <trkpt lat="44.64207" lon="1.81437">
        <ele>327</ele>
        <time>2019-08-10T12:56:25.521Z</time>
      </trkpt>
      <trkpt lat="44.64207" lon="1.81437">
        <ele>327</ele>
        <time>2019-08-10T12:56:30.528Z</time>
      </trkpt>
      <trkpt lat="44.64208" lon="1.81435">
        <ele>327</ele>
        <time>2019-08-10T12:56:34.518Z</time>
      </trkpt>
      <trkpt lat="44.64213" lon="1.81428">
        <ele>327</ele>
        <time>2019-08-10T12:56:39.515Z</time>
      </trkpt>
      <trkpt lat="44.64219" lon="1.8142">
        <ele>327</ele>
        <time>2019-08-10T12:56:43.524Z</time>
      </trkpt>
      <trkpt lat="44.64224" lon="1.81417">
        <ele>327</ele>
        <time>2019-08-10T12:56:47.528Z</time>
      </trkpt>
      <trkpt lat="44.64234" lon="1.81423">
        <ele>327</ele>
        <time>2019-08-10T12:56:52.521Z</time>
      </trkpt>
      <trkpt lat="44.64239" lon="1.81423">
        <ele>328</ele>
        <time>2019-08-10T12:56:56.529Z</time>
      </trkpt>
      <trkpt lat="44.64246" lon="1.81426">
        <ele>328</ele>
        <time>2019-08-10T12:57:01.522Z</time>
      </trkpt>
      <trkpt lat="44.64252" lon="1.8143">
        <ele>328</ele>
        <time>2019-08-10T12:57:06.529Z</time>
      </trkpt>
      <trkpt lat="44.6426" lon="1.81432">
        <ele>328</ele>
        <time>2019-08-10T12:57:11.525Z</time>
      </trkpt>
      <trkpt lat="44.64265" lon="1.81437">
        <ele>329</ele>
        <time>2019-08-10T12:57:16.510Z</time>
      </trkpt>
      <trkpt lat="44.6427" lon="1.81439">
        <ele>329</ele>
        <time>2019-08-10T12:57:20.518Z</time>
      </trkpt>
      <trkpt lat="44.64276" lon="1.81441">
        <ele>329</ele>
        <time>2019-08-10T12:57:24.522Z</time>
      </trkpt>
      <trkpt lat="44.64282" lon="1.81444">
        <ele>329</ele>
        <time>2019-08-10T12:57:29.512Z</time>
      </trkpt>
      <trkpt lat="44.64288" lon="1.81446">
        <ele>329</ele>
        <time>2019-08-10T12:57:33.520Z</time>
      </trkpt>
      <trkpt lat="44.64294" lon="1.81449">
        <ele>329</ele>
        <time>2019-08-10T12:57:37.528Z</time>
      </trkpt>
      <trkpt lat="44.643" lon="1.81455">
        <ele>329</ele>
        <time>2019-08-10T12:57:42.526Z</time>
      </trkpt>
      <trkpt lat="44.64306" lon="1.81457">
        <ele>329</ele>
        <time>2019-08-10T12:57:47.521Z</time>
      </trkpt>
      <trkpt lat="44.64312" lon="1.81458">
        <ele>329</ele>
        <time>2019-08-10T12:57:51.527Z</time>
      </trkpt>
      <trkpt lat="44.64317" lon="1.81461">
        <ele>329</ele>
        <time>2019-08-10T12:57:56.521Z</time>
      </trkpt>
      <trkpt lat="44.64322" lon="1.81464">
        <ele>330</ele>
        <time>2019-08-10T12:58:00.534Z</time>
      </trkpt>
      <trkpt lat="44.64327" lon="1.81467">
        <ele>330</ele>
        <time>2019-08-10T12:58:05.535Z</time>
      </trkpt>
      <trkpt lat="44.64335" lon="1.81474">
        <ele>330</ele>
        <time>2019-08-10T12:58:10.521Z</time>
      </trkpt>
      <trkpt lat="44.64339" lon="1.81477">
        <ele>330</ele>
        <time>2019-08-10T12:58:14.522Z</time>
      </trkpt>
      <trkpt lat="44.64346" lon="1.81482">
        <ele>330</ele>
        <time>2019-08-10T12:58:19.522Z</time>
      </trkpt>
      <trkpt lat="44.64349" lon="1.81483">
        <ele>333</ele>
        <time>2019-08-10T12:58:23.528Z</time>
      </trkpt>
      <trkpt lat="44.64353" lon="1.81487">
        <ele>332</ele>
        <time>2019-08-10T12:58:27.518Z</time>
      </trkpt>
      <trkpt lat="44.64357" lon="1.8149">
        <ele>332</ele>
        <time>2019-08-10T12:58:31.520Z</time>
      </trkpt>
      <trkpt lat="44.64362" lon="1.81494">
        <ele>332</ele>
        <time>2019-08-10T12:58:35.534Z</time>
      </trkpt>
      <trkpt lat="44.64371" lon="1.81503">
        <ele>332</ele>
        <time>2019-08-10T12:58:40.525Z</time>
      </trkpt>
      <trkpt lat="44.64376" lon="1.81508">
        <ele>332</ele>
        <time>2019-08-10T12:58:45.523Z</time>
      </trkpt>
      <trkpt lat="44.64382" lon="1.81514">
        <ele>331</ele>
        <time>2019-08-10T12:58:50.527Z</time>
      </trkpt>
      <trkpt lat="44.64387" lon="1.8152">
        <ele>331</ele>
        <time>2019-08-10T12:58:54.524Z</time>
      </trkpt>
      <trkpt lat="44.64393" lon="1.81525">
        <ele>331</ele>
        <time>2019-08-10T12:58:59.516Z</time>
      </trkpt>
      <trkpt lat="44.64399" lon="1.81531">
        <ele>331</ele>
        <time>2019-08-10T12:59:04.525Z</time>
      </trkpt>
      <trkpt lat="44.64405" lon="1.81538">
        <ele>331</ele>
        <time>2019-08-10T12:59:09.532Z</time>
      </trkpt>
      <trkpt lat="44.64411" lon="1.81546">
        <ele>331</ele>
        <time>2019-08-10T12:59:14.512Z</time>
      </trkpt>
      <trkpt lat="44.64413" lon="1.81549">
        <ele>331</ele>
        <time>2019-08-10T12:59:18.523Z</time>
      </trkpt>
      <trkpt lat="44.64414" lon="1.8155">
        <ele>331</ele>
        <time>2019-08-10T12:59:22.532Z</time>
      </trkpt>
      <trkpt lat="44.64418" lon="1.81556">
        <ele>331</ele>
        <time>2019-08-10T12:59:27.512Z</time>
      </trkpt>
      <trkpt lat="44.64422" lon="1.81562">
        <ele>331</ele>
        <time>2019-08-10T12:59:31.528Z</time>
      </trkpt>
      <trkpt lat="44.64429" lon="1.81569">
        <ele>331</ele>
        <time>2019-08-10T12:59:36.530Z</time>
      </trkpt>
      <trkpt lat="44.64436" lon="1.81576">
        <ele>332</ele>
        <time>2019-08-10T12:59:41.528Z</time>
      </trkpt>
      <trkpt lat="44.64441" lon="1.81583">
        <ele>332</ele>
        <time>2019-08-10T12:59:46.530Z</time>
      </trkpt>
      <trkpt lat="44.64446" lon="1.81589">
        <ele>332</ele>
        <time>2019-08-10T12:59:51.536Z</time>
      </trkpt>
      <trkpt lat="44.64451" lon="1.81594">
        <ele>332</ele>
        <time>2019-08-10T12:59:56.528Z</time>
      </trkpt>
      <trkpt lat="44.64456" lon="1.816">
        <ele>331</ele>
        <time>2019-08-10T13:00:01.534Z</time>
      </trkpt>
      <trkpt lat="44.64463" lon="1.81606">
        <ele>333</ele>
        <time>2019-08-10T13:00:06.518Z</time>
      </trkpt>
      <trkpt lat="44.6447" lon="1.81613">
        <ele>333</ele>
        <time>2019-08-10T13:00:11.527Z</time>
      </trkpt>
      <trkpt lat="44.64475" lon="1.81619">
        <ele>333</ele>
        <time>2019-08-10T13:00:15.520Z</time>
      </trkpt>
      <trkpt lat="44.6448" lon="1.81623">
        <ele>333</ele>
        <time>2019-08-10T13:00:19.518Z</time>
      </trkpt>
      <trkpt lat="44.64485" lon="1.8163">
        <ele>331</ele>
        <time>2019-08-10T13:00:23.530Z</time>
      </trkpt>
      <trkpt lat="44.64491" lon="1.81636">
        <ele>332</ele>
        <time>2019-08-10T13:00:28.519Z</time>
      </trkpt>
      <trkpt lat="44.64497" lon="1.81644">
        <ele>332</ele>
        <time>2019-08-10T13:00:33.521Z</time>
      </trkpt>
      <trkpt lat="44.64501" lon="1.8165">
        <ele>332</ele>
        <time>2019-08-10T13:00:37.529Z</time>
      </trkpt>
      <trkpt lat="44.64505" lon="1.81658">
        <ele>332</ele>
        <time>2019-08-10T13:00:42.531Z</time>
      </trkpt>
      <trkpt lat="44.64509" lon="1.81665">
        <ele>332</ele>
        <time>2019-08-10T13:00:47.525Z</time>
      </trkpt>
      <trkpt lat="44.64514" lon="1.81671">
        <ele>332</ele>
        <time>2019-08-10T13:00:52.527Z</time>
      </trkpt>
      <trkpt lat="44.64517" lon="1.81673">
        <ele>331</ele>
        <time>2019-08-10T13:00:56.523Z</time>
      </trkpt>
      <trkpt lat="44.64523" lon="1.81678">
        <ele>331</ele>
        <time>2019-08-10T13:01:06.532Z</time>
      </trkpt>
      <trkpt lat="44.64525" lon="1.81677">
        <ele>331</ele>
        <time>2019-08-10T13:01:11.526Z</time>
      </trkpt>
      <trkpt lat="44.64526" lon="1.81678">
        <ele>331</ele>
        <time>2019-08-10T13:01:16.515Z</time>
      </trkpt>
      <trkpt lat="44.6453" lon="1.81677">
        <ele>331</ele>
        <time>2019-08-10T13:01:21.518Z</time>
      </trkpt>
      <trkpt lat="44.64537" lon="1.81678">
        <ele>331</ele>
        <time>2019-08-10T13:01:26.531Z</time>
      </trkpt>
      <trkpt lat="44.64545" lon="1.81679">
        <ele>330</ele>
        <time>2019-08-10T13:01:31.528Z</time>
      </trkpt>
      <trkpt lat="44.64553" lon="1.81679">
        <ele>330</ele>
        <time>2019-08-10T13:01:36.536Z</time>
      </trkpt>
      <trkpt lat="44.64561" lon="1.81679">
        <ele>330</ele>
        <time>2019-08-10T13:01:41.523Z</time>
      </trkpt>
      <trkpt lat="44.64569" lon="1.81678">
        <ele>330</ele>
        <time>2019-08-10T13:01:46.525Z</time>
      </trkpt>
      <trkpt lat="44.64577" lon="1.81678">
        <ele>330</ele>
        <time>2019-08-10T13:01:51.518Z</time>
      </trkpt>
      <trkpt lat="44.64584" lon="1.81677">
        <ele>330</ele>
        <time>2019-08-10T13:01:55.525Z</time>
      </trkpt>
      <trkpt lat="44.64591" lon="1.81677">
        <ele>330</ele>
        <time>2019-08-10T13:02:00.525Z</time>
      </trkpt>
      <trkpt lat="44.646" lon="1.81676">
        <ele>332</ele>
        <time>2019-08-10T13:02:05.534Z</time>
      </trkpt>
      <trkpt lat="44.64608" lon="1.81675">
        <ele>332</ele>
        <time>2019-08-10T13:02:10.499Z</time>
      </trkpt>
      <trkpt lat="44.64614" lon="1.81675">
        <ele>332</ele>
        <time>2019-08-10T13:02:14.535Z</time>
      </trkpt>
      <trkpt lat="44.64621" lon="1.81674">
        <ele>332</ele>
        <time>2019-08-10T13:02:19.519Z</time>
      </trkpt>
      <trkpt lat="44.64626" lon="1.81674">
        <ele>333</ele>
        <time>2019-08-10T13:02:23.525Z</time>
      </trkpt>
      <trkpt lat="44.64632" lon="1.81674">
        <ele>333</ele>
        <time>2019-08-10T13:02:28.524Z</time>
      </trkpt>
      <trkpt lat="44.64639" lon="1.81674">
        <ele>333</ele>
        <time>2019-08-10T13:02:33.523Z</time>
      </trkpt>
      <trkpt lat="44.64645" lon="1.81675">
        <ele>333</ele>
        <time>2019-08-10T13:02:37.530Z</time>
      </trkpt>
      <trkpt lat="44.64652" lon="1.81675">
        <ele>333</ele>
        <time>2019-08-10T13:02:41.524Z</time>
      </trkpt>
      <trkpt lat="44.64662" lon="1.81675">
        <ele>334</ele>
        <time>2019-08-10T13:02:46.524Z</time>
      </trkpt>
      <trkpt lat="44.64671" lon="1.81675">
        <ele>334</ele>
        <time>2019-08-10T13:02:51.520Z</time>
      </trkpt>
      <trkpt lat="44.64675" lon="1.81676">
        <ele>334</ele>
        <time>2019-08-10T13:02:55.534Z</time>
      </trkpt>
      <trkpt lat="44.64682" lon="1.81677">
        <ele>335</ele>
        <time>2019-08-10T13:03:00.521Z</time>
      </trkpt>
      <trkpt lat="44.64687" lon="1.81677">
        <ele>335</ele>
        <time>2019-08-10T13:03:04.530Z</time>
      </trkpt>
      <trkpt lat="44.64694" lon="1.81676">
        <ele>335</ele>
        <time>2019-08-10T13:03:09.523Z</time>
      </trkpt>
      <trkpt lat="44.64701" lon="1.81676">
        <ele>335</ele>
        <time>2019-08-10T13:03:14.527Z</time>
      </trkpt>
      <trkpt lat="44.64709" lon="1.81676">
        <ele>335</ele>
        <time>2019-08-10T13:03:19.519Z</time>
      </trkpt>
      <trkpt lat="44.64715" lon="1.81674">
        <ele>335</ele>
        <time>2019-08-10T13:03:23.527Z</time>
      </trkpt>
      <trkpt lat="44.6472" lon="1.81674">
        <ele>335</ele>
        <time>2019-08-10T13:03:27.523Z</time>
      </trkpt>
      <trkpt lat="44.64727" lon="1.81675">
        <ele>335</ele>
        <time>2019-08-10T13:03:32.533Z</time>
      </trkpt>
      <trkpt lat="44.64734" lon="1.81675">
        <ele>335</ele>
        <time>2019-08-10T13:03:37.524Z</time>
      </trkpt>
      <trkpt lat="44.64741" lon="1.81675">
        <ele>335</ele>
        <time>2019-08-10T13:03:42.538Z</time>
      </trkpt>
      <trkpt lat="44.64748" lon="1.81674">
        <ele>335</ele>
        <time>2019-08-10T13:03:47.525Z</time>
      </trkpt>
      <trkpt lat="44.64755" lon="1.81674">
        <ele>335</ele>
        <time>2019-08-10T13:03:52.530Z</time>
      </trkpt>
      <trkpt lat="44.64762" lon="1.81674">
        <ele>335</ele>
        <time>2019-08-10T13:03:57.531Z</time>
      </trkpt>
      <trkpt lat="44.64767" lon="1.81673">
        <ele>335</ele>
        <time>2019-08-10T13:04:01.525Z</time>
      </trkpt>
      <trkpt lat="44.64774" lon="1.81673">
        <ele>335</ele>
        <time>2019-08-10T13:04:06.522Z</time>
      </trkpt>
      <trkpt lat="44.64781" lon="1.81673">
        <ele>335</ele>
        <time>2019-08-10T13:04:11.527Z</time>
      </trkpt>
      <trkpt lat="44.64787" lon="1.81673">
        <ele>335</ele>
        <time>2019-08-10T13:04:16.519Z</time>
      </trkpt>
      <trkpt lat="44.64796" lon="1.81673">
        <ele>335</ele>
        <time>2019-08-10T13:04:21.525Z</time>
      </trkpt>
      <trkpt lat="44.64803" lon="1.81671">
        <ele>335</ele>
        <time>2019-08-10T13:04:26.535Z</time>
      </trkpt>
      <trkpt lat="44.64812" lon="1.81671">
        <ele>335</ele>
        <time>2019-08-10T13:04:31.522Z</time>
      </trkpt>
      <trkpt lat="44.6482" lon="1.81671">
        <ele>337</ele>
        <time>2019-08-10T13:04:36.519Z</time>
      </trkpt>
      <trkpt lat="44.64825" lon="1.8167">
        <ele>337</ele>
        <time>2019-08-10T13:04:40.525Z</time>
      </trkpt>
      <trkpt lat="44.64832" lon="1.81669">
        <ele>337</ele>
        <time>2019-08-10T13:04:45.510Z</time>
      </trkpt>
      <trkpt lat="44.64837" lon="1.81669">
        <ele>337</ele>
        <time>2019-08-10T13:04:49.537Z</time>
      </trkpt>
      <trkpt lat="44.64842" lon="1.81669">
        <ele>337</ele>
        <time>2019-08-10T13:04:53.506Z</time>
      </trkpt>
      <trkpt lat="44.64848" lon="1.81668">
        <ele>338</ele>
        <time>2019-08-10T13:04:57.527Z</time>
      </trkpt>
      <trkpt lat="44.64856" lon="1.81668">
        <ele>338</ele>
        <time>2019-08-10T13:05:02.533Z</time>
      </trkpt>
      <trkpt lat="44.6486" lon="1.81668">
        <ele>338</ele>
        <time>2019-08-10T13:05:06.536Z</time>
      </trkpt>
      <trkpt lat="44.64864" lon="1.8167">
        <ele>338</ele>
        <time>2019-08-10T13:05:10.515Z</time>
      </trkpt>
      <trkpt lat="44.64869" lon="1.81675">
        <ele>338</ele>
        <time>2019-08-10T13:05:14.532Z</time>
      </trkpt>
      <trkpt lat="44.64873" lon="1.81683">
        <ele>338</ele>
        <time>2019-08-10T13:05:19.533Z</time>
      </trkpt>
      <trkpt lat="44.64874" lon="1.8169">
        <ele>338</ele>
        <time>2019-08-10T13:05:23.534Z</time>
      </trkpt>
      <trkpt lat="44.64872" lon="1.81702">
        <ele>338</ele>
        <time>2019-08-10T13:05:28.506Z</time>
      </trkpt>
      <trkpt lat="44.64869" lon="1.81713">
        <ele>336</ele>
        <time>2019-08-10T13:05:33.529Z</time>
      </trkpt>
      <trkpt lat="44.64868" lon="1.8172">
        <ele>336</ele>
        <time>2019-08-10T13:05:37.518Z</time>
      </trkpt>
      <trkpt lat="44.64867" lon="1.81727">
        <ele>336</ele>
        <time>2019-08-10T13:05:41.528Z</time>
      </trkpt>
      <trkpt lat="44.64866" lon="1.81735">
        <ele>336</ele>
        <time>2019-08-10T13:05:45.530Z</time>
      </trkpt>
      <trkpt lat="44.64864" lon="1.81745">
        <ele>334</ele>
        <time>2019-08-10T13:05:50.533Z</time>
      </trkpt>
      <trkpt lat="44.64861" lon="1.81753">
        <ele>334</ele>
        <time>2019-08-10T13:05:55.532Z</time>
      </trkpt>
      <trkpt lat="44.6486" lon="1.81761">
        <ele>334</ele>
        <time>2019-08-10T13:06:00.562Z</time>
      </trkpt>
      <trkpt lat="44.64858" lon="1.81768">
        <ele>331</ele>
        <time>2019-08-10T13:06:05.537Z</time>
      </trkpt>
      <trkpt lat="44.64857" lon="1.81774">
        <ele>331</ele>
        <time>2019-08-10T13:06:10.530Z</time>
      </trkpt>
      <trkpt lat="44.64854" lon="1.81783">
        <ele>331</ele>
        <time>2019-08-10T13:06:15.534Z</time>
      </trkpt>
      <trkpt lat="44.64853" lon="1.81787">
        <ele>331</ele>
        <time>2019-08-10T13:06:20.533Z</time>
      </trkpt>
      <trkpt lat="44.64852" lon="1.81794">
        <ele>329</ele>
        <time>2019-08-10T13:06:24.533Z</time>
      </trkpt>
      <trkpt lat="44.64852" lon="1.81802">
        <ele>329</ele>
        <time>2019-08-10T13:06:28.532Z</time>
      </trkpt>
      <trkpt lat="44.64852" lon="1.81811">
        <ele>329</ele>
        <time>2019-08-10T13:06:33.525Z</time>
      </trkpt>
      <trkpt lat="44.64849" lon="1.81816">
        <ele>329</ele>
        <time>2019-08-10T13:06:37.533Z</time>
      </trkpt>
      <trkpt lat="44.64849" lon="1.81816">
        <ele>329</ele>
        <time>2019-08-10T13:06:41.529Z</time>
      </trkpt>
      <trkpt lat="44.64849" lon="1.81816">
        <ele>329</ele>
        <time>2019-08-10T13:06:46.536Z</time>
      </trkpt>
      <trkpt lat="44.64849" lon="1.81817">
        <ele>329</ele>
        <time>2019-08-10T13:06:51.520Z</time>
      </trkpt>
      <trkpt lat="44.64849" lon="1.81819">
        <ele>329</ele>
        <time>2019-08-10T13:06:56.535Z</time>
      </trkpt>
      <trkpt lat="44.64848" lon="1.81825">
        <ele>327</ele>
        <time>2019-08-10T13:07:01.529Z</time>
      </trkpt>
      <trkpt lat="44.64848" lon="1.81833">
        <ele>327</ele>
        <time>2019-08-10T13:07:06.529Z</time>
      </trkpt>
      <trkpt lat="44.64848" lon="1.8184">
        <ele>327</ele>
        <time>2019-08-10T13:07:10.557Z</time>
      </trkpt>
      <trkpt lat="44.64846" lon="1.8185">
        <ele>325</ele>
        <time>2019-08-10T13:07:15.530Z</time>
      </trkpt>
      <trkpt lat="44.64845" lon="1.81857">
        <ele>325</ele>
        <time>2019-08-10T13:07:19.525Z</time>
      </trkpt>
      <trkpt lat="44.64846" lon="1.81862">
        <ele>325</ele>
        <time>2019-08-10T13:07:24.530Z</time>
      </trkpt>
      <trkpt lat="44.64847" lon="1.8187">
        <ele>325</ele>
        <time>2019-08-10T13:07:29.528Z</time>
      </trkpt>
      <trkpt lat="44.64848" lon="1.8188">
        <ele>321</ele>
        <time>2019-08-10T13:07:34.517Z</time>
      </trkpt>
      <trkpt lat="44.64848" lon="1.81887">
        <ele>321</ele>
        <time>2019-08-10T13:07:38.529Z</time>
      </trkpt>
      <trkpt lat="44.64847" lon="1.81897">
        <ele>322</ele>
        <time>2019-08-10T13:07:43.521Z</time>
      </trkpt>
      <trkpt lat="44.64848" lon="1.81906">
        <ele>319</ele>
        <time>2019-08-10T13:07:48.524Z</time>
      </trkpt>
      <trkpt lat="44.64848" lon="1.81914">
        <ele>319</ele>
        <time>2019-08-10T13:07:52.536Z</time>
      </trkpt>
      <trkpt lat="44.6485" lon="1.81924">
        <ele>319</ele>
        <time>2019-08-10T13:07:57.535Z</time>
      </trkpt>
      <trkpt lat="44.64849" lon="1.81933">
        <ele>317</ele>
        <time>2019-08-10T13:08:02.530Z</time>
      </trkpt>
      <trkpt lat="44.64845" lon="1.81935">
        <ele>319</ele>
        <time>2019-08-10T13:10:06.504Z</time>
      </trkpt>
      <trkpt lat="44.64845" lon="1.81936">
        <ele>319</ele>
        <time>2019-08-10T13:10:11.514Z</time>
      </trkpt>
      <trkpt lat="44.64845" lon="1.81936">
        <ele>319</ele>
        <time>2019-08-10T13:10:15.517Z</time>
      </trkpt>
      <trkpt lat="44.64845" lon="1.81938">
        <ele>319</ele>
        <time>2019-08-10T13:10:20.517Z</time>
      </trkpt>
      <trkpt lat="44.64845" lon="1.81947">
        <ele>319</ele>
        <time>2019-08-10T13:10:25.521Z</time>
      </trkpt>
      <trkpt lat="44.64843" lon="1.81961">
        <ele>318</ele>
        <time>2019-08-10T13:10:30.506Z</time>
      </trkpt>
      <trkpt lat="44.64841" lon="1.81972">
        <ele>318</ele>
        <time>2019-08-10T13:10:35.520Z</time>
      </trkpt>
      <trkpt lat="44.6484" lon="1.81981">
        <ele>318</ele>
        <time>2019-08-10T13:10:40.500Z</time>
      </trkpt>
      <trkpt lat="44.6484" lon="1.8199">
        <ele>317</ele>
        <time>2019-08-10T13:10:44.515Z</time>
      </trkpt>
      <trkpt lat="44.64838" lon="1.81997">
        <ele>317</ele>
        <time>2019-08-10T13:10:48.531Z</time>
      </trkpt>
      <trkpt lat="44.64836" lon="1.82003">
        <ele>317</ele>
        <time>2019-08-10T13:10:53.506Z</time>
      </trkpt>
      <trkpt lat="44.64835" lon="1.82002">
        <ele>317</ele>
        <time>2019-08-10T13:10:58.535Z</time>
      </trkpt>
      <trkpt lat="44.64835" lon="1.82012">
        <ele>317</ele>
        <time>2019-08-10T13:11:03.517Z</time>
      </trkpt>
      <trkpt lat="44.64836" lon="1.82022">
        <ele>315</ele>
        <time>2019-08-10T13:11:07.525Z</time>
      </trkpt>
      <trkpt lat="44.64836" lon="1.8203">
        <ele>315</ele>
        <time>2019-08-10T13:11:11.535Z</time>
      </trkpt>
      <trkpt lat="44.64835" lon="1.82041">
        <ele>315</ele>
        <time>2019-08-10T13:11:16.521Z</time>
      </trkpt>
      <trkpt lat="44.64835" lon="1.82049">
        <ele>315</ele>
        <time>2019-08-10T13:11:20.528Z</time>
      </trkpt>
      <trkpt lat="44.64835" lon="1.82058">
        <ele>315</ele>
        <time>2019-08-10T13:11:25.516Z</time>
      </trkpt>
      <trkpt lat="44.64834" lon="1.82067">
        <ele>315</ele>
        <time>2019-08-10T13:11:30.525Z</time>
      </trkpt>
      <trkpt lat="44.64831" lon="1.82073">
        <ele>313</ele>
        <time>2019-08-10T13:11:34.518Z</time>
      </trkpt>
      <trkpt lat="44.64827" lon="1.82084">
        <ele>313</ele>
        <time>2019-08-10T13:11:39.528Z</time>
      </trkpt>
      <trkpt lat="44.64829" lon="1.82097">
        <ele>313</ele>
        <time>2019-08-10T13:11:44.523Z</time>
      </trkpt>
      <trkpt lat="44.64829" lon="1.82104">
        <ele>312</ele>
        <time>2019-08-10T13:11:48.516Z</time>
      </trkpt>
      <trkpt lat="44.64829" lon="1.82109">
        <ele>312</ele>
        <time>2019-08-10T13:11:53.520Z</time>
      </trkpt>
      <trkpt lat="44.64829" lon="1.82111">
        <ele>312</ele>
        <time>2019-08-10T13:11:58.526Z</time>
      </trkpt>
      <trkpt lat="44.64831" lon="1.82115">
        <ele>312</ele>
        <time>2019-08-10T13:12:03.515Z</time>
      </trkpt>
      <trkpt lat="44.64832" lon="1.8212">
        <ele>312</ele>
        <time>2019-08-10T13:12:07.525Z</time>
      </trkpt>
      <trkpt lat="44.64831" lon="1.82128">
        <ele>311</ele>
        <time>2019-08-10T13:12:12.531Z</time>
      </trkpt>
      <trkpt lat="44.6483" lon="1.82134">
        <ele>311</ele>
        <time>2019-08-10T13:12:17.533Z</time>
      </trkpt>
      <trkpt lat="44.64831" lon="1.82142">
        <ele>311</ele>
        <time>2019-08-10T13:12:22.523Z</time>
      </trkpt>
      <trkpt lat="44.64831" lon="1.82142">
        <ele>311</ele>
        <time>2019-08-10T13:12:26.562Z</time>
      </trkpt>
      <trkpt lat="44.64832" lon="1.82147">
        <ele>311</ele>
        <time>2019-08-10T13:12:31.526Z</time>
      </trkpt>
      <trkpt lat="44.64833" lon="1.82154">
        <ele>310</ele>
        <time>2019-08-10T13:12:35.527Z</time>
      </trkpt>
      <trkpt lat="44.64832" lon="1.82163">
        <ele>310</ele>
        <time>2019-08-10T13:12:40.525Z</time>
      </trkpt>
      <trkpt lat="44.64833" lon="1.82176">
        <ele>310</ele>
        <time>2019-08-10T13:12:45.527Z</time>
      </trkpt>
      <trkpt lat="44.64833" lon="1.82184">
        <ele>309</ele>
        <time>2019-08-10T13:12:50.524Z</time>
      </trkpt>
      <trkpt lat="44.64832" lon="1.82192">
        <ele>309</ele>
        <time>2019-08-10T13:12:55.523Z</time>
      </trkpt>
      <trkpt lat="44.64832" lon="1.822">
        <ele>309</ele>
        <time>2019-08-10T13:13:00.522Z</time>
      </trkpt>
      <trkpt lat="44.64833" lon="1.82214">
        <ele>308</ele>
        <time>2019-08-10T13:13:04.532Z</time>
      </trkpt>
      <trkpt lat="44.64831" lon="1.8224">
        <ele>309</ele>
        <time>2019-08-10T13:13:09.521Z</time>
      </trkpt>
      <trkpt lat="44.64831" lon="1.82255">
        <ele>309</ele>
        <time>2019-08-10T13:13:14.524Z</time>
      </trkpt>
      <trkpt lat="44.64829" lon="1.8226">
        <ele>309</ele>
        <time>2019-08-10T13:13:19.528Z</time>
      </trkpt>
      <trkpt lat="44.64831" lon="1.82265">
        <ele>310</ele>
        <time>2019-08-10T13:13:24.523Z</time>
      </trkpt>
      <trkpt lat="44.6483" lon="1.82272">
        <ele>310</ele>
        <time>2019-08-10T13:13:28.531Z</time>
      </trkpt>
      <trkpt lat="44.64829" lon="1.82283">
        <ele>310</ele>
        <time>2019-08-10T13:13:33.515Z</time>
      </trkpt>
      <trkpt lat="44.6483" lon="1.82291">
        <ele>310</ele>
        <time>2019-08-10T13:13:37.528Z</time>
      </trkpt>
      <trkpt lat="44.64829" lon="1.82297">
        <ele>312</ele>
        <time>2019-08-10T13:13:42.522Z</time>
      </trkpt>
      <trkpt lat="44.6483" lon="1.82307">
        <ele>312</ele>
        <time>2019-08-10T13:13:46.538Z</time>
      </trkpt>
      <trkpt lat="44.64831" lon="1.8232">
        <ele>312</ele>
        <time>2019-08-10T13:13:51.527Z</time>
      </trkpt>
      <trkpt lat="44.64829" lon="1.82326">
        <ele>312</ele>
        <time>2019-08-10T13:13:56.534Z</time>
      </trkpt>
      <trkpt lat="44.6483" lon="1.82336">
        <ele>312</ele>
        <time>2019-08-10T13:14:01.520Z</time>
      </trkpt>
      <trkpt lat="44.6483" lon="1.82344">
        <ele>312</ele>
        <time>2019-08-10T13:14:06.530Z</time>
      </trkpt>
      <trkpt lat="44.6483" lon="1.82351">
        <ele>311</ele>
        <time>2019-08-10T13:14:11.549Z</time>
      </trkpt>
      <trkpt lat="44.64828" lon="1.8236">
        <ele>311</ele>
        <time>2019-08-10T13:14:16.526Z</time>
      </trkpt>
      <trkpt lat="44.64826" lon="1.82363">
        <ele>311</ele>
        <time>2019-08-10T13:14:21.530Z</time>
      </trkpt>
      <trkpt lat="44.64819" lon="1.82369">
        <ele>310</ele>
        <time>2019-08-10T13:14:26.526Z</time>
      </trkpt>
      <trkpt lat="44.64819" lon="1.82383">
        <ele>309</ele>
        <time>2019-08-10T13:14:31.525Z</time>
      </trkpt>
      <trkpt lat="44.64821" lon="1.82393">
        <ele>309</ele>
        <time>2019-08-10T13:14:36.519Z</time>
      </trkpt>
      <trkpt lat="44.6482" lon="1.82404">
        <ele>307</ele>
        <time>2019-08-10T13:14:41.521Z</time>
      </trkpt>
      <trkpt lat="44.64821" lon="1.82416">
        <ele>307</ele>
        <time>2019-08-10T13:14:46.536Z</time>
      </trkpt>
      <trkpt lat="44.6482" lon="1.82426">
        <ele>307</ele>
        <time>2019-08-10T13:14:51.517Z</time>
      </trkpt>
      <trkpt lat="44.64821" lon="1.8243">
        <ele>307</ele>
        <time>2019-08-10T13:14:56.529Z</time>
      </trkpt>
      <trkpt lat="44.64821" lon="1.82432">
        <ele>307</ele>
        <time>2019-08-10T13:15:01.525Z</time>
      </trkpt>
      <trkpt lat="44.64823" lon="1.82442">
        <ele>307</ele>
        <time>2019-08-10T13:15:06.530Z</time>
      </trkpt>
      <trkpt lat="44.64823" lon="1.82449">
        <ele>307</ele>
        <time>2019-08-10T13:15:11.526Z</time>
      </trkpt>
      <trkpt lat="44.64823" lon="1.82458">
        <ele>308</ele>
        <time>2019-08-10T13:15:16.521Z</time>
      </trkpt>
      <trkpt lat="44.64821" lon="1.82469">
        <ele>308</ele>
        <time>2019-08-10T13:15:21.517Z</time>
      </trkpt>
      <trkpt lat="44.6482" lon="1.8248">
        <ele>308</ele>
        <time>2019-08-10T13:15:25.517Z</time>
      </trkpt>
      <trkpt lat="44.64819" lon="1.82487">
        <ele>307</ele>
        <time>2019-08-10T13:15:29.516Z</time>
      </trkpt>
      <trkpt lat="44.6482" lon="1.82496">
        <ele>308</ele>
        <time>2019-08-10T13:15:34.516Z</time>
      </trkpt>
      <trkpt lat="44.6482" lon="1.82503">
        <ele>308</ele>
        <time>2019-08-10T13:15:39.523Z</time>
      </trkpt>
      <trkpt lat="44.64826" lon="1.82513">
        <ele>308</ele>
        <time>2019-08-10T13:15:44.515Z</time>
      </trkpt>
      <trkpt lat="44.64827" lon="1.82525">
        <ele>308</ele>
        <time>2019-08-10T13:15:49.526Z</time>
      </trkpt>
      <trkpt lat="44.64827" lon="1.82535">
        <ele>308</ele>
        <time>2019-08-10T13:15:54.518Z</time>
      </trkpt>
      <trkpt lat="44.6483" lon="1.82545">
        <ele>307</ele>
        <time>2019-08-10T13:15:59.521Z</time>
      </trkpt>
      <trkpt lat="44.64832" lon="1.82554">
        <ele>307</ele>
        <time>2019-08-10T13:16:03.522Z</time>
      </trkpt>
      <trkpt lat="44.64834" lon="1.82564">
        <ele>307</ele>
        <time>2019-08-10T13:16:08.517Z</time>
      </trkpt>
      <trkpt lat="44.64836" lon="1.8257">
        <ele>307</ele>
        <time>2019-08-10T13:16:13.514Z</time>
      </trkpt>
      <trkpt lat="44.64837" lon="1.82578">
        <ele>307</ele>
        <time>2019-08-10T13:16:18.519Z</time>
      </trkpt>
      <trkpt lat="44.64836" lon="1.82592">
        <ele>307</ele>
        <time>2019-08-10T13:16:23.521Z</time>
      </trkpt>
      <trkpt lat="44.64837" lon="1.82604">
        <ele>305</ele>
        <time>2019-08-10T13:16:28.521Z</time>
      </trkpt>
      <trkpt lat="44.64839" lon="1.82615">
        <ele>305</ele>
        <time>2019-08-10T13:16:32.524Z</time>
      </trkpt>
      <trkpt lat="44.64838" lon="1.82624">
        <ele>305</ele>
        <time>2019-08-10T13:16:37.529Z</time>
      </trkpt>
      <trkpt lat="44.64834" lon="1.82632">
        <ele>303</ele>
        <time>2019-08-10T13:16:42.526Z</time>
      </trkpt>
      <trkpt lat="44.64836" lon="1.82645">
        <ele>303</ele>
        <time>2019-08-10T13:16:47.522Z</time>
      </trkpt>
      <trkpt lat="44.64833" lon="1.82652">
        <ele>303</ele>
        <time>2019-08-10T13:16:52.518Z</time>
      </trkpt>
      <trkpt lat="44.64834" lon="1.8266">
        <ele>304</ele>
        <time>2019-08-10T13:16:57.508Z</time>
      </trkpt>
      <trkpt lat="44.64835" lon="1.82665">
        <ele>304</ele>
        <time>2019-08-10T13:17:01.520Z</time>
      </trkpt>
      <trkpt lat="44.64832" lon="1.8267">
        <ele>304</ele>
        <time>2019-08-10T13:17:06.542Z</time>
      </trkpt>
      <trkpt lat="44.64831" lon="1.82673">
        <ele>304</ele>
        <time>2019-08-10T13:17:11.521Z</time>
      </trkpt>
      <trkpt lat="44.64831" lon="1.82679">
        <ele>304</ele>
        <time>2019-08-10T13:17:16.525Z</time>
      </trkpt>
      <trkpt lat="44.64832" lon="1.82686">
        <ele>306</ele>
        <time>2019-08-10T13:17:21.521Z</time>
      </trkpt>
      <trkpt lat="44.64832" lon="1.82695">
        <ele>306</ele>
        <time>2019-08-10T13:17:26.525Z</time>
      </trkpt>
      <trkpt lat="44.64832" lon="1.82706">
        <ele>306</ele>
        <time>2019-08-10T13:17:31.514Z</time>
      </trkpt>
      <trkpt lat="44.6483" lon="1.82714">
        <ele>307</ele>
        <time>2019-08-10T13:17:35.527Z</time>
      </trkpt>
      <trkpt lat="44.64829" lon="1.82723">
        <ele>307</ele>
        <time>2019-08-10T13:17:40.504Z</time>
      </trkpt>
      <trkpt lat="44.64829" lon="1.82728">
        <ele>307</ele>
        <time>2019-08-10T13:17:44.517Z</time>
      </trkpt>
      <trkpt lat="44.64827" lon="1.82733">
        <ele>307</ele>
        <time>2019-08-10T13:17:48.514Z</time>
      </trkpt>
      <trkpt lat="44.64826" lon="1.82743">
        <ele>308</ele>
        <time>2019-08-10T13:17:53.510Z</time>
      </trkpt>
      <trkpt lat="44.64826" lon="1.82756">
        <ele>308</ele>
        <time>2019-08-10T13:17:58.512Z</time>
      </trkpt>
      <trkpt lat="44.64825" lon="1.82768">
        <ele>308</ele>
        <time>2019-08-10T13:18:02.524Z</time>
      </trkpt>
      <trkpt lat="44.64825" lon="1.8278">
        <ele>308</ele>
        <time>2019-08-10T13:18:07.531Z</time>
      </trkpt>
      <trkpt lat="44.64826" lon="1.8279">
        <ele>308</ele>
        <time>2019-08-10T13:18:12.522Z</time>
      </trkpt>
      <trkpt lat="44.64827" lon="1.82807">
        <ele>309</ele>
        <time>2019-08-10T13:18:16.531Z</time>
      </trkpt>
      <trkpt lat="44.64827" lon="1.8282">
        <ele>310</ele>
        <time>2019-08-10T13:18:21.519Z</time>
      </trkpt>
      <trkpt lat="44.64827" lon="1.82823">
        <ele>310</ele>
        <time>2019-08-10T13:18:25.518Z</time>
      </trkpt>
      <trkpt lat="44.64826" lon="1.82826">
        <ele>310</ele>
        <time>2019-08-10T13:18:30.519Z</time>
      </trkpt>
      <trkpt lat="44.64827" lon="1.82832">
        <ele>310</ele>
        <time>2019-08-10T13:18:35.514Z</time>
      </trkpt>
      <trkpt lat="44.64828" lon="1.82843">
        <ele>310</ele>
        <time>2019-08-10T13:18:40.523Z</time>
      </trkpt>
      <trkpt lat="44.64827" lon="1.82849">
        <ele>310</ele>
        <time>2019-08-10T13:18:45.528Z</time>
      </trkpt>
      <trkpt lat="44.64827" lon="1.8285">
        <ele>310</ele>
        <time>2019-08-10T13:18:50.515Z</time>
      </trkpt>
      <trkpt lat="44.64827" lon="1.82852">
        <ele>310</ele>
        <time>2019-08-10T13:18:54.526Z</time>
      </trkpt>
      <trkpt lat="44.64826" lon="1.82856">
        <ele>310</ele>
        <time>2019-08-10T13:18:59.524Z</time>
      </trkpt>
      <trkpt lat="44.64826" lon="1.82868">
        <ele>310</ele>
        <time>2019-08-10T13:19:04.528Z</time>
      </trkpt>
      <trkpt lat="44.64826" lon="1.82877">
        <ele>309</ele>
        <time>2019-08-10T13:19:09.515Z</time>
      </trkpt>
      <trkpt lat="44.64825" lon="1.82883">
        <ele>309</ele>
        <time>2019-08-10T13:19:14.516Z</time>
      </trkpt>
      <trkpt lat="44.64824" lon="1.82888">
        <ele>309</ele>
        <time>2019-08-10T13:19:18.520Z</time>
      </trkpt>
      <trkpt lat="44.64824" lon="1.82899">
        <ele>309</ele>
        <time>2019-08-10T13:19:23.502Z</time>
      </trkpt>
      <trkpt lat="44.64825" lon="1.82908">
        <ele>309</ele>
        <time>2019-08-10T13:19:27.524Z</time>
      </trkpt>
      <trkpt lat="44.64826" lon="1.82919">
        <ele>309</ele>
        <time>2019-08-10T13:19:32.523Z</time>
      </trkpt>
      <trkpt lat="44.64826" lon="1.8293">
        <ele>309</ele>
        <time>2019-08-10T13:19:37.523Z</time>
      </trkpt>
      <trkpt lat="44.64827" lon="1.8294">
        <ele>308</ele>
        <time>2019-08-10T13:19:42.522Z</time>
      </trkpt>
      <trkpt lat="44.64827" lon="1.82948">
        <ele>308</ele>
        <time>2019-08-10T13:19:46.520Z</time>
      </trkpt>
      <trkpt lat="44.64826" lon="1.82954">
        <ele>308</ele>
        <time>2019-08-10T13:19:51.522Z</time>
      </trkpt>
      <trkpt lat="44.64826" lon="1.82962">
        <ele>306</ele>
        <time>2019-08-10T13:19:56.516Z</time>
      </trkpt>
      <trkpt lat="44.64826" lon="1.8297">
        <ele>306</ele>
        <time>2019-08-10T13:20:00.509Z</time>
      </trkpt>
      <trkpt lat="44.64826" lon="1.82978">
        <ele>306</ele>
        <time>2019-08-10T13:20:04.516Z</time>
      </trkpt>
      <trkpt lat="44.64826" lon="1.82987">
        <ele>305</ele>
        <time>2019-08-10T13:20:09.502Z</time>
      </trkpt>
      <trkpt lat="44.64825" lon="1.82996">
        <ele>305</ele>
        <time>2019-08-10T13:20:13.516Z</time>
      </trkpt>
      <trkpt lat="44.64823" lon="1.83007">
        <ele>305</ele>
        <time>2019-08-10T13:20:18.524Z</time>
      </trkpt>
      <trkpt lat="44.64821" lon="1.83015">
        <ele>303</ele>
        <time>2019-08-10T13:20:23.520Z</time>
      </trkpt>
      <trkpt lat="44.64819" lon="1.83025">
        <ele>303</ele>
        <time>2019-08-10T13:20:28.512Z</time>
      </trkpt>
      <trkpt lat="44.6482" lon="1.83032">
        <ele>303</ele>
        <time>2019-08-10T13:20:32.531Z</time>
      </trkpt>
      <trkpt lat="44.6482" lon="1.83034">
        <ele>303</ele>
        <time>2019-08-10T13:20:37.512Z</time>
      </trkpt>
      <trkpt lat="44.64818" lon="1.83042">
        <ele>305</ele>
        <time>2019-08-10T13:20:42.500Z</time>
      </trkpt>
      <trkpt lat="44.64817" lon="1.83045">
        <ele>304</ele>
        <time>2019-08-10T13:20:46.525Z</time>
      </trkpt>
      <trkpt lat="44.64817" lon="1.83051">
        <ele>304</ele>
        <time>2019-08-10T13:20:51.513Z</time>
      </trkpt>
      <trkpt lat="44.64817" lon="1.83058">
        <ele>304</ele>
        <time>2019-08-10T13:20:56.517Z</time>
      </trkpt>
      <trkpt lat="44.64818" lon="1.83062">
        <ele>304</ele>
        <time>2019-08-10T13:21:01.528Z</time>
      </trkpt>
      <trkpt lat="44.64818" lon="1.8307">
        <ele>302</ele>
        <time>2019-08-10T13:21:06.517Z</time>
      </trkpt>
      <trkpt lat="44.64818" lon="1.83076">
        <ele>302</ele>
        <time>2019-08-10T13:21:10.518Z</time>
      </trkpt>
      <trkpt lat="44.64816" lon="1.83083">
        <ele>302</ele>
        <time>2019-08-10T13:21:15.519Z</time>
      </trkpt>
      <trkpt lat="44.64815" lon="1.83094">
        <ele>302</ele>
        <time>2019-08-10T13:21:20.525Z</time>
      </trkpt>
      <trkpt lat="44.64814" lon="1.83103">
        <ele>300</ele>
        <time>2019-08-10T13:21:25.525Z</time>
      </trkpt>
      <trkpt lat="44.64815" lon="1.83111">
        <ele>300</ele>
        <time>2019-08-10T13:21:30.522Z</time>
      </trkpt>
      <trkpt lat="44.64816" lon="1.83119">
        <ele>300</ele>
        <time>2019-08-10T13:21:35.517Z</time>
      </trkpt>
      <trkpt lat="44.64817" lon="1.8313">
        <ele>299</ele>
        <time>2019-08-10T13:21:40.512Z</time>
      </trkpt>
      <trkpt lat="44.64819" lon="1.83139">
        <ele>299</ele>
        <time>2019-08-10T13:21:44.525Z</time>
      </trkpt>
      <trkpt lat="44.6482" lon="1.83147">
        <ele>298</ele>
        <time>2019-08-10T13:21:48.534Z</time>
      </trkpt>
      <trkpt lat="44.6482" lon="1.83158">
        <ele>298</ele>
        <time>2019-08-10T13:21:53.527Z</time>
      </trkpt>
      <trkpt lat="44.64821" lon="1.83164">
        <ele>298</ele>
        <time>2019-08-10T13:21:57.523Z</time>
      </trkpt>
      <trkpt lat="44.64822" lon="1.83171">
        <ele>298</ele>
        <time>2019-08-10T13:22:02.513Z</time>
      </trkpt>
      <trkpt lat="44.64819" lon="1.8318">
        <ele>299</ele>
        <time>2019-08-10T13:22:07.513Z</time>
      </trkpt>
      <trkpt lat="44.64814" lon="1.83193">
        <ele>300</ele>
        <time>2019-08-10T13:22:11.515Z</time>
      </trkpt>
      <trkpt lat="44.64812" lon="1.83226">
        <ele>302</ele>
        <time>2019-08-10T13:22:16.517Z</time>
      </trkpt>
      <trkpt lat="44.64812" lon="1.83257">
        <ele>303</ele>
        <time>2019-08-10T13:22:20.523Z</time>
      </trkpt>
      <trkpt lat="44.64818" lon="1.83272">
        <ele>304</ele>
        <time>2019-08-10T13:22:25.524Z</time>
      </trkpt>
      <trkpt lat="44.64822" lon="1.83277">
        <ele>301</ele>
        <time>2019-08-10T13:22:30.519Z</time>
      </trkpt>
      <trkpt lat="44.64823" lon="1.83281">
        <ele>301</ele>
        <time>2019-08-10T13:22:35.535Z</time>
      </trkpt>
      <trkpt lat="44.6483" lon="1.83283">
        <ele>301</ele>
        <time>2019-08-10T13:22:40.516Z</time>
      </trkpt>
      <trkpt lat="44.64841" lon="1.83289">
        <ele>301</ele>
        <time>2019-08-10T13:22:45.515Z</time>
      </trkpt>
      <trkpt lat="44.64851" lon="1.83299">
        <ele>302</ele>
        <time>2019-08-10T13:22:49.519Z</time>
      </trkpt>
      <trkpt lat="44.64866" lon="1.83331">
        <ele>304</ele>
        <time>2019-08-10T13:22:54.517Z</time>
      </trkpt>
      <trkpt lat="44.64871" lon="1.83344">
        <ele>304</ele>
        <time>2019-08-10T13:22:59.523Z</time>
      </trkpt>
      <trkpt lat="44.64874" lon="1.83354">
        <ele>306</ele>
        <time>2019-08-10T13:23:04.528Z</time>
      </trkpt>
      <trkpt lat="44.64876" lon="1.83369">
        <ele>305</ele>
        <time>2019-08-10T13:23:09.523Z</time>
      </trkpt>
      <trkpt lat="44.64877" lon="1.83383">
        <ele>307</ele>
        <time>2019-08-10T13:23:14.496Z</time>
      </trkpt>
      <trkpt lat="44.6488" lon="1.83393">
        <ele>307</ele>
        <time>2019-08-10T13:23:18.508Z</time>
      </trkpt>
      <trkpt lat="44.64884" lon="1.83405">
        <ele>309</ele>
        <time>2019-08-10T13:23:22.521Z</time>
      </trkpt>
      <trkpt lat="44.64887" lon="1.83411">
        <ele>309</ele>
        <time>2019-08-10T13:23:26.522Z</time>
      </trkpt>
      <trkpt lat="44.64888" lon="1.8342">
        <ele>309</ele>
        <time>2019-08-10T13:23:30.512Z</time>
      </trkpt>
      <trkpt lat="44.64889" lon="1.8343">
        <ele>309</ele>
        <time>2019-08-10T13:23:35.522Z</time>
      </trkpt>
      <trkpt lat="44.64889" lon="1.83439">
        <ele>310</ele>
        <time>2019-08-10T13:23:40.512Z</time>
      </trkpt>
      <trkpt lat="44.6489" lon="1.83447">
        <ele>310</ele>
        <time>2019-08-10T13:23:45.521Z</time>
      </trkpt>
      <trkpt lat="44.6489" lon="1.83452">
        <ele>310</ele>
        <time>2019-08-10T13:23:50.525Z</time>
      </trkpt>
      <trkpt lat="44.64891" lon="1.83461">
        <ele>311</ele>
        <time>2019-08-10T13:23:55.521Z</time>
      </trkpt>
      <trkpt lat="44.64891" lon="1.8347">
        <ele>311</ele>
        <time>2019-08-10T13:23:59.514Z</time>
      </trkpt>
      <trkpt lat="44.64889" lon="1.83477">
        <ele>311</ele>
        <time>2019-08-10T13:24:04.520Z</time>
      </trkpt>
      <trkpt lat="44.64888" lon="1.83486">
        <ele>312</ele>
        <time>2019-08-10T13:24:08.526Z</time>
      </trkpt>
      <trkpt lat="44.64888" lon="1.83495">
        <ele>312</ele>
        <time>2019-08-10T13:24:13.514Z</time>
      </trkpt>
      <trkpt lat="44.64888" lon="1.83505">
        <ele>312</ele>
        <time>2019-08-10T13:24:18.517Z</time>
      </trkpt>
      <trkpt lat="44.64888" lon="1.83513">
        <ele>312</ele>
        <time>2019-08-10T13:24:23.518Z</time>
      </trkpt>
      <trkpt lat="44.64888" lon="1.83518">
        <ele>313</ele>
        <time>2019-08-10T13:24:28.515Z</time>
      </trkpt>
      <trkpt lat="44.64888" lon="1.83528">
        <ele>313</ele>
        <time>2019-08-10T13:24:33.514Z</time>
      </trkpt>
      <trkpt lat="44.64888" lon="1.83538">
        <ele>313</ele>
        <time>2019-08-10T13:24:38.538Z</time>
      </trkpt>
      <trkpt lat="44.64888" lon="1.8355">
        <ele>313</ele>
        <time>2019-08-10T13:24:43.524Z</time>
      </trkpt>
      <trkpt lat="44.64889" lon="1.83559">
        <ele>313</ele>
        <time>2019-08-10T13:24:48.524Z</time>
      </trkpt>
      <trkpt lat="44.6489" lon="1.83567">
        <ele>313</ele>
        <time>2019-08-10T13:24:53.524Z</time>
      </trkpt>
      <trkpt lat="44.64891" lon="1.83573">
        <ele>313</ele>
        <time>2019-08-10T13:24:58.514Z</time>
      </trkpt>
      <trkpt lat="44.64892" lon="1.83575">
        <ele>313</ele>
        <time>2019-08-10T13:25:03.512Z</time>
      </trkpt>
      <trkpt lat="44.64892" lon="1.83576">
        <ele>313</ele>
        <time>2019-08-10T13:25:08.514Z</time>
      </trkpt>
      <trkpt lat="44.64892" lon="1.83577">
        <ele>313</ele>
        <time>2019-08-10T13:25:13.524Z</time>
      </trkpt>
      <trkpt lat="44.64894" lon="1.83581">
        <ele>313</ele>
        <time>2019-08-10T13:25:18.532Z</time>
      </trkpt>
      <trkpt lat="44.64896" lon="1.83583">
        <ele>313</ele>
        <time>2019-08-10T13:25:23.523Z</time>
      </trkpt>
      <trkpt lat="44.64902" lon="1.83587">
        <ele>313</ele>
        <time>2019-08-10T13:25:27.526Z</time>
      </trkpt>
      <trkpt lat="44.64907" lon="1.83593">
        <ele>313</ele>
        <time>2019-08-10T13:25:31.517Z</time>
      </trkpt>
      <trkpt lat="44.64908" lon="1.83598">
        <ele>313</ele>
        <time>2019-08-10T13:25:36.530Z</time>
      </trkpt>
      <trkpt lat="44.64912" lon="1.83596">
        <ele>313</ele>
        <time>2019-08-10T13:25:41.519Z</time>
      </trkpt>
      <trkpt lat="44.64917" lon="1.83594">
        <ele>313</ele>
        <time>2019-08-10T13:25:46.518Z</time>
      </trkpt>
      <trkpt lat="44.64923" lon="1.83589">
        <ele>313</ele>
        <time>2019-08-10T13:25:51.528Z</time>
      </trkpt>
      <trkpt lat="44.64928" lon="1.83582">
        <ele>313</ele>
        <time>2019-08-10T13:25:56.515Z</time>
      </trkpt>
      <trkpt lat="44.64934" lon="1.83577">
        <ele>313</ele>
        <time>2019-08-10T13:26:01.520Z</time>
      </trkpt>
      <trkpt lat="44.6494" lon="1.83571">
        <ele>313</ele>
        <time>2019-08-10T13:26:06.515Z</time>
      </trkpt>
      <trkpt lat="44.64945" lon="1.83565">
        <ele>314</ele>
        <time>2019-08-10T13:26:11.511Z</time>
      </trkpt>
      <trkpt lat="44.6495" lon="1.8356">
        <ele>314</ele>
        <time>2019-08-10T13:26:16.514Z</time>
      </trkpt>
      <trkpt lat="44.64955" lon="1.83556">
        <ele>314</ele>
        <time>2019-08-10T13:26:20.529Z</time>
      </trkpt>
      <trkpt lat="44.64961" lon="1.8355">
        <ele>315</ele>
        <time>2019-08-10T13:26:25.512Z</time>
      </trkpt>
      <trkpt lat="44.64966" lon="1.83545">
        <ele>315</ele>
        <time>2019-08-10T13:26:29.515Z</time>
      </trkpt>
      <trkpt lat="44.64972" lon="1.83538">
        <ele>315</ele>
        <time>2019-08-10T13:26:34.515Z</time>
      </trkpt>
      <trkpt lat="44.64977" lon="1.83534">
        <ele>315</ele>
        <time>2019-08-10T13:26:39.515Z</time>
      </trkpt>
      <trkpt lat="44.64981" lon="1.83531">
        <ele>315</ele>
        <time>2019-08-10T13:26:44.510Z</time>
      </trkpt>
      <trkpt lat="44.64986" lon="1.83533">
        <ele>315</ele>
        <time>2019-08-10T13:26:49.523Z</time>
      </trkpt>
      <trkpt lat="44.64994" lon="1.83538">
        <ele>317</ele>
        <time>2019-08-10T13:26:54.525Z</time>
      </trkpt>
      <trkpt lat="44.65" lon="1.83545">
        <ele>317</ele>
        <time>2019-08-10T13:26:59.518Z</time>
      </trkpt>
      <trkpt lat="44.65005" lon="1.83554">
        <ele>317</ele>
        <time>2019-08-10T13:27:04.529Z</time>
      </trkpt>
      <trkpt lat="44.65006" lon="1.83564">
        <ele>317</ele>
        <time>2019-08-10T13:27:09.516Z</time>
      </trkpt>
      <trkpt lat="44.65008" lon="1.83575">
        <ele>316</ele>
        <time>2019-08-10T13:27:14.518Z</time>
      </trkpt>
      <trkpt lat="44.6501" lon="1.83583">
        <ele>316</ele>
        <time>2019-08-10T13:27:18.517Z</time>
      </trkpt>
      <trkpt lat="44.65015" lon="1.83594">
        <ele>318</ele>
        <time>2019-08-10T13:27:23.514Z</time>
      </trkpt>
      <trkpt lat="44.65019" lon="1.83601">
        <ele>316</ele>
        <time>2019-08-10T13:27:28.518Z</time>
      </trkpt>
      <trkpt lat="44.65021" lon="1.83606">
        <ele>316</ele>
        <time>2019-08-10T13:27:33.523Z</time>
      </trkpt>
      <trkpt lat="44.65026" lon="1.83611">
        <ele>316</ele>
        <time>2019-08-10T13:27:38.522Z</time>
      </trkpt>
      <trkpt lat="44.65032" lon="1.83616">
        <ele>316</ele>
        <time>2019-08-10T13:27:43.512Z</time>
      </trkpt>
      <trkpt lat="44.65038" lon="1.8362">
        <ele>316</ele>
        <time>2019-08-10T13:27:47.518Z</time>
      </trkpt>
      <trkpt lat="44.65043" lon="1.83624">
        <ele>318</ele>
        <time>2019-08-10T13:27:52.515Z</time>
      </trkpt>
      <trkpt lat="44.65045" lon="1.83623">
        <ele>318</ele>
        <time>2019-08-10T13:27:57.522Z</time>
      </trkpt>
      <trkpt lat="44.6505" lon="1.83627">
        <ele>317</ele>
        <time>2019-08-10T13:28:02.519Z</time>
      </trkpt>
      <trkpt lat="44.65056" lon="1.83634">
        <ele>317</ele>
        <time>2019-08-10T13:28:07.513Z</time>
      </trkpt>
      <trkpt lat="44.65059" lon="1.83641">
        <ele>317</ele>
        <time>2019-08-10T13:28:11.515Z</time>
      </trkpt>
      <trkpt lat="44.6506" lon="1.83646">
        <ele>317</ele>
        <time>2019-08-10T13:28:15.504Z</time>
      </trkpt>
      <trkpt lat="44.65065" lon="1.83653">
        <ele>316</ele>
        <time>2019-08-10T13:28:19.519Z</time>
      </trkpt>
      <trkpt lat="44.65067" lon="1.83659">
        <ele>316</ele>
        <time>2019-08-10T13:28:23.519Z</time>
      </trkpt>
      <trkpt lat="44.65068" lon="1.83667">
        <ele>316</ele>
        <time>2019-08-10T13:28:28.516Z</time>
      </trkpt>
      <trkpt lat="44.65067" lon="1.83677">
        <ele>316</ele>
        <time>2019-08-10T13:28:33.514Z</time>
      </trkpt>
      <trkpt lat="44.65067" lon="1.83686">
        <ele>315</ele>
        <time>2019-08-10T13:28:37.518Z</time>
      </trkpt>
      <trkpt lat="44.65066" lon="1.83693">
        <ele>315</ele>
        <time>2019-08-10T13:28:41.514Z</time>
      </trkpt>
      <trkpt lat="44.65066" lon="1.837">
        <ele>315</ele>
        <time>2019-08-10T13:28:45.519Z</time>
      </trkpt>
      <trkpt lat="44.65064" lon="1.83711">
        <ele>315</ele>
        <time>2019-08-10T13:28:50.513Z</time>
      </trkpt>
      <trkpt lat="44.65062" lon="1.83718">
        <ele>315</ele>
        <time>2019-08-10T13:28:54.518Z</time>
      </trkpt>
      <trkpt lat="44.65061" lon="1.83729">
        <ele>315</ele>
        <time>2019-08-10T13:28:59.535Z</time>
      </trkpt>
      <trkpt lat="44.65063" lon="1.83739">
        <ele>314</ele>
        <time>2019-08-10T13:29:04.524Z</time>
      </trkpt>
      <trkpt lat="44.65066" lon="1.83747">
        <ele>314</ele>
        <time>2019-08-10T13:29:09.530Z</time>
      </trkpt>
      <trkpt lat="44.65069" lon="1.83752">
        <ele>314</ele>
        <time>2019-08-10T13:29:14.519Z</time>
      </trkpt>
      <trkpt lat="44.65073" lon="1.83755">
        <ele>315</ele>
        <time>2019-08-10T13:29:19.517Z</time>
      </trkpt>
      <trkpt lat="44.65078" lon="1.83758">
        <ele>315</ele>
        <time>2019-08-10T13:29:23.510Z</time>
      </trkpt>
      <trkpt lat="44.65085" lon="1.8376">
        <ele>315</ele>
        <time>2019-08-10T13:29:28.516Z</time>
      </trkpt>
      <trkpt lat="44.65093" lon="1.83762">
        <ele>315</ele>
        <time>2019-08-10T13:29:33.524Z</time>
      </trkpt>
      <trkpt lat="44.65098" lon="1.83767">
        <ele>313</ele>
        <time>2019-08-10T13:29:38.521Z</time>
      </trkpt>
      <trkpt lat="44.65104" lon="1.83768">
        <ele>313</ele>
        <time>2019-08-10T13:29:43.520Z</time>
      </trkpt>
      <trkpt lat="44.65106" lon="1.83769">
        <ele>313</ele>
        <time>2019-08-10T13:29:47.528Z</time>
      </trkpt>
      <trkpt lat="44.65107" lon="1.83769">
        <ele>313</ele>
        <time>2019-08-10T13:29:51.529Z</time>
      </trkpt>
      <trkpt lat="44.65108" lon="1.83771">
        <ele>313</ele>
        <time>2019-08-10T13:29:56.515Z</time>
      </trkpt>
      <trkpt lat="44.6511" lon="1.83775">
        <ele>313</ele>
        <time>2019-08-10T13:30:00.513Z</time>
      </trkpt>
      <trkpt lat="44.65114" lon="1.83777">
        <ele>313</ele>
        <time>2019-08-10T13:30:05.509Z</time>
      </trkpt>
      <trkpt lat="44.65116" lon="1.83776">
        <ele>313</ele>
        <time>2019-08-10T13:30:10.515Z</time>
      </trkpt>
      <trkpt lat="44.65123" lon="1.83778">
        <ele>313</ele>
        <time>2019-08-10T13:30:18.515Z</time>
      </trkpt>
      <trkpt lat="44.65127" lon="1.8378">
        <ele>312</ele>
        <time>2019-08-10T13:30:22.530Z</time>
      </trkpt>
      <trkpt lat="44.65131" lon="1.83782">
        <ele>312</ele>
        <time>2019-08-10T13:30:26.534Z</time>
      </trkpt>
      <trkpt lat="44.65138" lon="1.83787">
        <ele>312</ele>
        <time>2019-08-10T13:30:31.548Z</time>
      </trkpt>
      <trkpt lat="44.65145" lon="1.83792">
        <ele>311</ele>
        <time>2019-08-10T13:30:36.537Z</time>
      </trkpt>
      <trkpt lat="44.6515" lon="1.83798">
        <ele>311</ele>
        <time>2019-08-10T13:30:41.528Z</time>
      </trkpt>
      <trkpt lat="44.65154" lon="1.83802">
        <ele>311</ele>
        <time>2019-08-10T13:30:45.528Z</time>
      </trkpt>
      <trkpt lat="44.65159" lon="1.83802">
        <ele>311</ele>
        <time>2019-08-10T13:30:49.537Z</time>
      </trkpt>
      <trkpt lat="44.65166" lon="1.83803">
        <ele>311</ele>
        <time>2019-08-10T13:30:54.523Z</time>
      </trkpt>
      <trkpt lat="44.65173" lon="1.83803">
        <ele>311</ele>
        <time>2019-08-10T13:30:59.540Z</time>
      </trkpt>
      <trkpt lat="44.65177" lon="1.83803">
        <ele>311</ele>
        <time>2019-08-10T13:31:03.556Z</time>
      </trkpt>
      <trkpt lat="44.65182" lon="1.83801">
        <ele>310</ele>
        <time>2019-08-10T13:31:08.538Z</time>
      </trkpt>
      <trkpt lat="44.6519" lon="1.83798">
        <ele>310</ele>
        <time>2019-08-10T13:31:13.536Z</time>
      </trkpt>
      <trkpt lat="44.652" lon="1.83792">
        <ele>310</ele>
        <time>2019-08-10T13:31:18.540Z</time>
      </trkpt>
      <trkpt lat="44.65206" lon="1.8379">
        <ele>310</ele>
        <time>2019-08-10T13:31:22.541Z</time>
      </trkpt>
      <trkpt lat="44.65211" lon="1.83785">
        <ele>311</ele>
        <time>2019-08-10T13:31:26.543Z</time>
      </trkpt>
      <trkpt lat="44.65219" lon="1.83778">
        <ele>311</ele>
        <time>2019-08-10T13:31:31.534Z</time>
      </trkpt>
      <trkpt lat="44.65227" lon="1.83769">
        <ele>311</ele>
        <time>2019-08-10T13:31:36.528Z</time>
      </trkpt>
      <trkpt lat="44.65233" lon="1.83763">
        <ele>311</ele>
        <time>2019-08-10T13:31:41.532Z</time>
      </trkpt>
      <trkpt lat="44.65239" lon="1.83758">
        <ele>313</ele>
        <time>2019-08-10T13:31:45.558Z</time>
      </trkpt>
      <trkpt lat="44.65245" lon="1.83752">
        <ele>313</ele>
        <time>2019-08-10T13:31:50.571Z</time>
      </trkpt>
      <trkpt lat="44.65253" lon="1.83747">
        <ele>313</ele>
        <time>2019-08-10T13:31:55.538Z</time>
      </trkpt>
      <trkpt lat="44.65259" lon="1.83742">
        <ele>313</ele>
        <time>2019-08-10T13:32:00.532Z</time>
      </trkpt>
      <trkpt lat="44.65263" lon="1.83739">
        <ele>313</ele>
        <time>2019-08-10T13:32:04.568Z</time>
      </trkpt>
      <trkpt lat="44.65265" lon="1.83738">
        <ele>314</ele>
        <time>2019-08-10T13:32:08.553Z</time>
      </trkpt>
      <trkpt lat="44.65267" lon="1.83735">
        <ele>316</ele>
        <time>2019-08-10T13:32:13.524Z</time>
      </trkpt>
      <trkpt lat="44.65269" lon="1.83733">
        <ele>316</ele>
        <time>2019-08-10T13:32:17.530Z</time>
      </trkpt>
      <trkpt lat="44.65274" lon="1.8373">
        <ele>316</ele>
        <time>2019-08-10T13:32:22.536Z</time>
      </trkpt>
      <trkpt lat="44.65279" lon="1.83727">
        <ele>316</ele>
        <time>2019-08-10T13:32:27.524Z</time>
      </trkpt>
      <trkpt lat="44.65286" lon="1.83723">
        <ele>316</ele>
        <time>2019-08-10T13:32:31.516Z</time>
      </trkpt>
      <trkpt lat="44.65292" lon="1.83718">
        <ele>316</ele>
        <time>2019-08-10T13:32:36.514Z</time>
      </trkpt>
      <trkpt lat="44.65297" lon="1.83715">
        <ele>318</ele>
        <time>2019-08-10T13:32:41.507Z</time>
      </trkpt>
      <trkpt lat="44.65297" lon="1.83714">
        <ele>318</ele>
        <time>2019-08-10T13:32:45.528Z</time>
      </trkpt>
      <trkpt lat="44.65299" lon="1.83712">
        <ele>318</ele>
        <time>2019-08-10T13:32:50.521Z</time>
      </trkpt>
      <trkpt lat="44.65304" lon="1.83708">
        <ele>320</ele>
        <time>2019-08-10T13:32:54.539Z</time>
      </trkpt>
      <trkpt lat="44.65309" lon="1.83705">
        <ele>320</ele>
        <time>2019-08-10T13:32:59.518Z</time>
      </trkpt>
      <trkpt lat="44.65313" lon="1.83703">
        <ele>320</ele>
        <time>2019-08-10T13:33:04.512Z</time>
      </trkpt>
      <trkpt lat="44.65316" lon="1.837">
        <ele>320</ele>
        <time>2019-08-10T13:33:08.540Z</time>
      </trkpt>
      <trkpt lat="44.6532" lon="1.83698">
        <ele>320</ele>
        <time>2019-08-10T13:33:13.545Z</time>
      </trkpt>
      <trkpt lat="44.65325" lon="1.83697">
        <ele>320</ele>
        <time>2019-08-10T13:33:17.526Z</time>
      </trkpt>
      <trkpt lat="44.65328" lon="1.83695">
        <ele>320</ele>
        <time>2019-08-10T13:33:22.525Z</time>
      </trkpt>
      <trkpt lat="44.65332" lon="1.83692">
        <ele>320</ele>
        <time>2019-08-10T13:33:26.557Z</time>
      </trkpt>
      <trkpt lat="44.65339" lon="1.83687">
        <ele>320</ele>
        <time>2019-08-10T13:33:30.556Z</time>
      </trkpt>
      <trkpt lat="44.65347" lon="1.83686">
        <ele>317</ele>
        <time>2019-08-10T13:33:35.521Z</time>
      </trkpt>
      <trkpt lat="44.65354" lon="1.83688">
        <ele>317</ele>
        <time>2019-08-10T13:33:40.517Z</time>
      </trkpt>
      <trkpt lat="44.65358" lon="1.83688">
        <ele>317</ele>
        <time>2019-08-10T13:33:45.541Z</time>
      </trkpt>
      <trkpt lat="44.65359" lon="1.83688">
        <ele>317</ele>
        <time>2019-08-10T13:33:50.544Z</time>
      </trkpt>
      <trkpt lat="44.65364" lon="1.83686">
        <ele>317</ele>
        <time>2019-08-10T13:33:54.550Z</time>
      </trkpt>
      <trkpt lat="44.65371" lon="1.83682">
        <ele>317</ele>
        <time>2019-08-10T13:33:59.541Z</time>
      </trkpt>
      <trkpt lat="44.65382" lon="1.83674">
        <ele>317</ele>
        <time>2019-08-10T13:34:08.550Z</time>
      </trkpt>
      <trkpt lat="44.65382" lon="1.83674">
        <ele>317</ele>
        <time>2019-08-10T13:34:13.537Z</time>
      </trkpt>
      <trkpt lat="44.65383" lon="1.83671">
        <ele>317</ele>
        <time>2019-08-10T13:34:17.535Z</time>
      </trkpt>
      <trkpt lat="44.65385" lon="1.83669">
        <ele>317</ele>
        <time>2019-08-10T13:34:21.526Z</time>
      </trkpt>
      <trkpt lat="44.65387" lon="1.83668">
        <ele>317</ele>
        <time>2019-08-10T13:34:26.532Z</time>
      </trkpt>
      <trkpt lat="44.65394" lon="1.83662">
        <ele>317</ele>
        <time>2019-08-10T13:34:31.542Z</time>
      </trkpt>
      <trkpt lat="44.65401" lon="1.83657">
        <ele>317</ele>
        <time>2019-08-10T13:34:35.539Z</time>
      </trkpt>
      <trkpt lat="44.6541" lon="1.83657">
        <ele>316</ele>
        <time>2019-08-10T13:34:40.559Z</time>
      </trkpt>
      <trkpt lat="44.65421" lon="1.83659">
        <ele>316</ele>
        <time>2019-08-10T13:34:45.544Z</time>
      </trkpt>
      <trkpt lat="44.65429" lon="1.83658">
        <ele>316</ele>
        <time>2019-08-10T13:34:50.550Z</time>
      </trkpt>
      <trkpt lat="44.65435" lon="1.83657">
        <ele>314</ele>
        <time>2019-08-10T13:34:54.535Z</time>
      </trkpt>
      <trkpt lat="44.65441" lon="1.83658">
        <ele>314</ele>
        <time>2019-08-10T13:34:58.524Z</time>
      </trkpt>
      <trkpt lat="44.65448" lon="1.83657">
        <ele>314</ele>
        <time>2019-08-10T13:35:03.512Z</time>
      </trkpt>
      <trkpt lat="44.65454" lon="1.83655">
        <ele>314</ele>
        <time>2019-08-10T13:35:07.529Z</time>
      </trkpt>
      <trkpt lat="44.65461" lon="1.83654">
        <ele>310</ele>
        <time>2019-08-10T13:35:11.562Z</time>
      </trkpt>
      <trkpt lat="44.65462" lon="1.83653">
        <ele>310</ele>
        <time>2019-08-10T13:35:16.527Z</time>
      </trkpt>
      <trkpt lat="44.65463" lon="1.83652">
        <ele>315</ele>
        <time>2019-08-10T13:35:20.536Z</time>
      </trkpt>
      <trkpt lat="44.65469" lon="1.83651">
        <ele>315</ele>
        <time>2019-08-10T13:35:24.538Z</time>
      </trkpt>
      <trkpt lat="44.65472" lon="1.83652">
        <ele>315</ele>
        <time>2019-08-10T13:35:28.522Z</time>
      </trkpt>
      <trkpt lat="44.65477" lon="1.83649">
        <ele>315</ele>
        <time>2019-08-10T13:35:33.517Z</time>
      </trkpt>
      <trkpt lat="44.65486" lon="1.83649">
        <ele>314</ele>
        <time>2019-08-10T13:35:38.524Z</time>
      </trkpt>
      <trkpt lat="44.65497" lon="1.83648">
        <ele>314</ele>
        <time>2019-08-10T13:35:43.521Z</time>
      </trkpt>
      <trkpt lat="44.65505" lon="1.83648">
        <ele>314</ele>
        <time>2019-08-10T13:35:47.515Z</time>
      </trkpt>
      <trkpt lat="44.65513" lon="1.83645">
        <ele>314</ele>
        <time>2019-08-10T13:35:51.494Z</time>
      </trkpt>
      <trkpt lat="44.65518" lon="1.83643">
        <ele>317</ele>
        <time>2019-08-10T13:35:55.534Z</time>
      </trkpt>
      <trkpt lat="44.65526" lon="1.83643">
        <ele>317</ele>
        <time>2019-08-10T13:36:00.546Z</time>
      </trkpt>
      <trkpt lat="44.65532" lon="1.83641">
        <ele>317</ele>
        <time>2019-08-10T13:36:05.526Z</time>
      </trkpt>
      <trkpt lat="44.65539" lon="1.8364">
        <ele>317</ele>
        <time>2019-08-10T13:36:10.528Z</time>
      </trkpt>
      <trkpt lat="44.65541" lon="1.83641">
        <ele>317</ele>
        <time>2019-08-10T13:36:15.504Z</time>
      </trkpt>
      <trkpt lat="44.65542" lon="1.83641">
        <ele>319</ele>
        <time>2019-08-10T13:36:20.554Z</time>
      </trkpt>
      <trkpt lat="44.65545" lon="1.83641">
        <ele>319</ele>
        <time>2019-08-10T13:36:25.525Z</time>
      </trkpt>
      <trkpt lat="44.65549" lon="1.8364">
        <ele>319</ele>
        <time>2019-08-10T13:36:29.530Z</time>
      </trkpt>
      <trkpt lat="44.65557" lon="1.8364">
        <ele>319</ele>
        <time>2019-08-10T13:36:34.526Z</time>
      </trkpt>
      <trkpt lat="44.65564" lon="1.83638">
        <ele>319</ele>
        <time>2019-08-10T13:36:39.530Z</time>
      </trkpt>
      <trkpt lat="44.65572" lon="1.83638">
        <ele>320</ele>
        <time>2019-08-10T13:36:44.529Z</time>
      </trkpt>
      <trkpt lat="44.65578" lon="1.83637">
        <ele>320</ele>
        <time>2019-08-10T13:36:48.509Z</time>
      </trkpt>
      <trkpt lat="44.65584" lon="1.83638">
        <ele>320</ele>
        <time>2019-08-10T13:36:53.536Z</time>
      </trkpt>
      <trkpt lat="44.65591" lon="1.83639">
        <ele>320</ele>
        <time>2019-08-10T13:36:57.523Z</time>
      </trkpt>
      <trkpt lat="44.65599" lon="1.83641">
        <ele>322</ele>
        <time>2019-08-10T13:37:02.537Z</time>
      </trkpt>
      <trkpt lat="44.65607" lon="1.83641">
        <ele>322</ele>
        <time>2019-08-10T13:37:07.541Z</time>
      </trkpt>
      <trkpt lat="44.65613" lon="1.83643">
        <ele>322</ele>
        <time>2019-08-10T13:37:12.539Z</time>
      </trkpt>
      <trkpt lat="44.6562" lon="1.83646">
        <ele>322</ele>
        <time>2019-08-10T13:37:17.516Z</time>
      </trkpt>
      <trkpt lat="44.65628" lon="1.83648">
        <ele>324</ele>
        <time>2019-08-10T13:37:22.523Z</time>
      </trkpt>
      <trkpt lat="44.65634" lon="1.8365">
        <ele>324</ele>
        <time>2019-08-10T13:37:26.532Z</time>
      </trkpt>
      <trkpt lat="44.65641" lon="1.83653">
        <ele>320</ele>
        <time>2019-08-10T13:37:31.566Z</time>
      </trkpt>
      <trkpt lat="44.65649" lon="1.83657">
        <ele>320</ele>
        <time>2019-08-10T13:37:36.533Z</time>
      </trkpt>
      <trkpt lat="44.65658" lon="1.83662">
        <ele>321</ele>
        <time>2019-08-10T13:37:41.523Z</time>
      </trkpt>
      <trkpt lat="44.65664" lon="1.83666">
        <ele>321</ele>
        <time>2019-08-10T13:37:45.526Z</time>
      </trkpt>
      <trkpt lat="44.65671" lon="1.83668">
        <ele>321</ele>
        <time>2019-08-10T13:37:49.533Z</time>
      </trkpt>
      <trkpt lat="44.65681" lon="1.83672">
        <ele>321</ele>
        <time>2019-08-10T13:37:54.544Z</time>
      </trkpt>
      <trkpt lat="44.65686" lon="1.83674">
        <ele>322</ele>
        <time>2019-08-10T13:37:59.555Z</time>
      </trkpt>
      <trkpt lat="44.65691" lon="1.83674">
        <ele>322</ele>
        <time>2019-08-10T13:38:04.525Z</time>
      </trkpt>
      <trkpt lat="44.65695" lon="1.83676">
        <ele>322</ele>
        <time>2019-08-10T13:38:08.545Z</time>
      </trkpt>
      <trkpt lat="44.65701" lon="1.83678">
        <ele>322</ele>
        <time>2019-08-10T13:38:13.551Z</time>
      </trkpt>
      <trkpt lat="44.65706" lon="1.83677">
        <ele>322</ele>
        <time>2019-08-10T13:38:17.527Z</time>
      </trkpt>
      <trkpt lat="44.65714" lon="1.83676">
        <ele>323</ele>
        <time>2019-08-10T13:38:22.557Z</time>
      </trkpt>
      <trkpt lat="44.65723" lon="1.83679">
        <ele>323</ele>
        <time>2019-08-10T13:38:27.536Z</time>
      </trkpt>
      <trkpt lat="44.6573" lon="1.83685">
        <ele>320</ele>
        <time>2019-08-10T13:38:32.533Z</time>
      </trkpt>
      <trkpt lat="44.65738" lon="1.83689">
        <ele>319</ele>
        <time>2019-08-10T13:38:37.526Z</time>
      </trkpt>
      <trkpt lat="44.65745" lon="1.83696">
        <ele>319</ele>
        <time>2019-08-10T13:38:42.538Z</time>
      </trkpt>
      <trkpt lat="44.65748" lon="1.83694">
        <ele>319</ele>
        <time>2019-08-10T13:38:46.554Z</time>
      </trkpt>
      <trkpt lat="44.65752" lon="1.8369">
        <ele>319</ele>
        <time>2019-08-10T13:38:50.552Z</time>
      </trkpt>
      <trkpt lat="44.65758" lon="1.83679">
        <ele>322</ele>
        <time>2019-08-10T13:38:55.517Z</time>
      </trkpt>
      <trkpt lat="44.65766" lon="1.83667">
        <ele>321</ele>
        <time>2019-08-10T13:38:59.531Z</time>
      </trkpt>
      <trkpt lat="44.6578" lon="1.83662">
        <ele>321</ele>
        <time>2019-08-10T13:39:04.542Z</time>
      </trkpt>
      <trkpt lat="44.65785" lon="1.83657">
        <ele>321</ele>
        <time>2019-08-10T13:39:09.516Z</time>
      </trkpt>
      <trkpt lat="44.65788" lon="1.83651">
        <ele>323</ele>
        <time>2019-08-10T13:39:13.538Z</time>
      </trkpt>
      <trkpt lat="44.65792" lon="1.83643">
        <ele>321</ele>
        <time>2019-08-10T13:39:18.555Z</time>
      </trkpt>
      <trkpt lat="44.65795" lon="1.83636">
        <ele>321</ele>
        <time>2019-08-10T13:39:23.539Z</time>
      </trkpt>
      <trkpt lat="44.65799" lon="1.83629">
        <ele>321</ele>
        <time>2019-08-10T13:39:28.537Z</time>
      </trkpt>
      <trkpt lat="44.65804" lon="1.83622">
        <ele>323</ele>
        <time>2019-08-10T13:39:33.522Z</time>
      </trkpt>
      <trkpt lat="44.65807" lon="1.83612">
        <ele>323</ele>
        <time>2019-08-10T13:39:38.538Z</time>
      </trkpt>
      <trkpt lat="44.65812" lon="1.83605">
        <ele>323</ele>
        <time>2019-08-10T13:39:43.533Z</time>
      </trkpt>
      <trkpt lat="44.65818" lon="1.83599">
        <ele>323</ele>
        <time>2019-08-10T13:39:48.530Z</time>
      </trkpt>
      <trkpt lat="44.65822" lon="1.83593">
        <ele>323</ele>
        <time>2019-08-10T13:39:52.525Z</time>
      </trkpt>
      <trkpt lat="44.65826" lon="1.83584">
        <ele>323</ele>
        <time>2019-08-10T13:39:56.561Z</time>
      </trkpt>
      <trkpt lat="44.65832" lon="1.83577">
        <ele>323</ele>
        <time>2019-08-10T13:40:01.518Z</time>
      </trkpt>
      <trkpt lat="44.65837" lon="1.83571">
        <ele>323</ele>
        <time>2019-08-10T13:40:05.522Z</time>
      </trkpt>
      <trkpt lat="44.65844" lon="1.83566">
        <ele>326</ele>
        <time>2019-08-10T13:40:10.528Z</time>
      </trkpt>
      <trkpt lat="44.65851" lon="1.83561">
        <ele>326</ele>
        <time>2019-08-10T13:40:15.514Z</time>
      </trkpt>
      <trkpt lat="44.65856" lon="1.83558">
        <ele>326</ele>
        <time>2019-08-10T13:40:19.521Z</time>
      </trkpt>
      <trkpt lat="44.65861" lon="1.83552">
        <ele>326</ele>
        <time>2019-08-10T13:40:24.540Z</time>
      </trkpt>
      <trkpt lat="44.65866" lon="1.83546">
        <ele>326</ele>
        <time>2019-08-10T13:40:29.522Z</time>
      </trkpt>
      <trkpt lat="44.65872" lon="1.83542">
        <ele>326</ele>
        <time>2019-08-10T13:40:33.523Z</time>
      </trkpt>
      <trkpt lat="44.65877" lon="1.83538">
        <ele>328</ele>
        <time>2019-08-10T13:40:38.541Z</time>
      </trkpt>
      <trkpt lat="44.65883" lon="1.83533">
        <ele>328</ele>
        <time>2019-08-10T13:40:43.530Z</time>
      </trkpt>
      <trkpt lat="44.65889" lon="1.83529">
        <ele>328</ele>
        <time>2019-08-10T13:40:48.548Z</time>
      </trkpt>
      <trkpt lat="44.65894" lon="1.83524">
        <ele>328</ele>
        <time>2019-08-10T13:40:53.546Z</time>
      </trkpt>
      <trkpt lat="44.65898" lon="1.83518">
        <ele>328</ele>
        <time>2019-08-10T13:40:57.534Z</time>
      </trkpt>
      <trkpt lat="44.65904" lon="1.8351">
        <ele>330</ele>
        <time>2019-08-10T13:41:02.546Z</time>
      </trkpt>
      <trkpt lat="44.65911" lon="1.83506">
        <ele>330</ele>
        <time>2019-08-10T13:41:07.515Z</time>
      </trkpt>
      <trkpt lat="44.65915" lon="1.83504">
        <ele>330</ele>
        <time>2019-08-10T13:41:11.517Z</time>
      </trkpt>
      <trkpt lat="44.6592" lon="1.83501">
        <ele>330</ele>
        <time>2019-08-10T13:41:16.530Z</time>
      </trkpt>
      <trkpt lat="44.65925" lon="1.83494">
        <ele>330</ele>
        <time>2019-08-10T13:41:21.525Z</time>
      </trkpt>
      <trkpt lat="44.65932" lon="1.83489">
        <ele>332</ele>
        <time>2019-08-10T13:41:26.543Z</time>
      </trkpt>
      <trkpt lat="44.65932" lon="1.83488">
        <ele>332</ele>
        <time>2019-08-10T13:41:31.518Z</time>
      </trkpt>
      <trkpt lat="44.65934" lon="1.83489">
        <ele>332</ele>
        <time>2019-08-10T13:41:36.497Z</time>
      </trkpt>
      <trkpt lat="44.65939" lon="1.83484">
        <ele>330</ele>
        <time>2019-08-10T13:41:40.530Z</time>
      </trkpt>
      <trkpt lat="44.65946" lon="1.83479">
        <ele>330</ele>
        <time>2019-08-10T13:41:45.505Z</time>
      </trkpt>
      <trkpt lat="44.65952" lon="1.83474">
        <ele>330</ele>
        <time>2019-08-10T13:41:49.517Z</time>
      </trkpt>
      <trkpt lat="44.65957" lon="1.83469">
        <ele>330</ele>
        <time>2019-08-10T13:41:53.511Z</time>
      </trkpt>
      <trkpt lat="44.65963" lon="1.83463">
        <ele>328</ele>
        <time>2019-08-10T13:41:58.530Z</time>
      </trkpt>
      <trkpt lat="44.65971" lon="1.83456">
        <ele>327</ele>
        <time>2019-08-10T13:42:03.513Z</time>
      </trkpt>
      <trkpt lat="44.65978" lon="1.83451">
        <ele>327</ele>
        <time>2019-08-10T13:42:07.516Z</time>
      </trkpt>
      <trkpt lat="44.65987" lon="1.83447">
        <ele>327</ele>
        <time>2019-08-10T13:42:12.554Z</time>
      </trkpt>
      <trkpt lat="44.65993" lon="1.83441">
        <ele>327</ele>
        <time>2019-08-10T13:42:17.521Z</time>
      </trkpt>
      <trkpt lat="44.65998" lon="1.83438">
        <ele>327</ele>
        <time>2019-08-10T13:42:21.518Z</time>
      </trkpt>
      <trkpt lat="44.66002" lon="1.83436">
        <ele>327</ele>
        <time>2019-08-10T13:42:25.513Z</time>
      </trkpt>
      <trkpt lat="44.66008" lon="1.8343">
        <ele>327</ele>
        <time>2019-08-10T13:42:30.545Z</time>
      </trkpt>
      <trkpt lat="44.66014" lon="1.83426">
        <ele>326</ele>
        <time>2019-08-10T13:42:35.517Z</time>
      </trkpt>
      <trkpt lat="44.66018" lon="1.83422">
        <ele>326</ele>
        <time>2019-08-10T13:42:39.521Z</time>
      </trkpt>
      <trkpt lat="44.66026" lon="1.83419">
        <ele>326</ele>
        <time>2019-08-10T13:42:44.530Z</time>
      </trkpt>
      <trkpt lat="44.66031" lon="1.83414">
        <ele>326</ele>
        <time>2019-08-10T13:42:49.516Z</time>
      </trkpt>
      <trkpt lat="44.66035" lon="1.83409">
        <ele>326</ele>
        <time>2019-08-10T13:42:53.507Z</time>
      </trkpt>
      <trkpt lat="44.66041" lon="1.83403">
        <ele>326</ele>
        <time>2019-08-10T13:42:58.526Z</time>
      </trkpt>
      <trkpt lat="44.66047" lon="1.83397">
        <ele>325</ele>
        <time>2019-08-10T13:43:03.518Z</time>
      </trkpt>
      <trkpt lat="44.66052" lon="1.83392">
        <ele>325</ele>
        <time>2019-08-10T13:43:07.517Z</time>
      </trkpt>
      <trkpt lat="44.66059" lon="1.83387">
        <ele>325</ele>
        <time>2019-08-10T13:43:12.536Z</time>
      </trkpt>
      <trkpt lat="44.66065" lon="1.8338">
        <ele>325</ele>
        <time>2019-08-10T13:43:17.539Z</time>
      </trkpt>
      <trkpt lat="44.66072" lon="1.83374">
        <ele>324</ele>
        <time>2019-08-10T13:43:22.527Z</time>
      </trkpt>
      <trkpt lat="44.66077" lon="1.83368">
        <ele>324</ele>
        <time>2019-08-10T13:43:26.528Z</time>
      </trkpt>
      <trkpt lat="44.66085" lon="1.8336">
        <ele>324</ele>
        <time>2019-08-10T13:43:30.553Z</time>
      </trkpt>
      <trkpt lat="44.66094" lon="1.83353">
        <ele>324</ele>
        <time>2019-08-10T13:43:35.530Z</time>
      </trkpt>
      <trkpt lat="44.66099" lon="1.83346">
        <ele>322</ele>
        <time>2019-08-10T13:43:39.538Z</time>
      </trkpt>
      <trkpt lat="44.66103" lon="1.83336">
        <ele>322</ele>
        <time>2019-08-10T13:43:44.522Z</time>
      </trkpt>
      <trkpt lat="44.66108" lon="1.83325">
        <ele>322</ele>
        <time>2019-08-10T13:43:49.527Z</time>
      </trkpt>
      <trkpt lat="44.66112" lon="1.83316">
        <ele>320</ele>
        <time>2019-08-10T13:43:53.532Z</time>
      </trkpt>
      <trkpt lat="44.66116" lon="1.83305">
        <ele>320</ele>
        <time>2019-08-10T13:43:58.537Z</time>
      </trkpt>
      <trkpt lat="44.66117" lon="1.83294">
        <ele>320</ele>
        <time>2019-08-10T13:44:03.526Z</time>
      </trkpt>
      <trkpt lat="44.66116" lon="1.83283">
        <ele>320</ele>
        <time>2019-08-10T13:44:08.552Z</time>
      </trkpt>
      <trkpt lat="44.66119" lon="1.83273">
        <ele>320</ele>
        <time>2019-08-10T13:44:13.523Z</time>
      </trkpt>
      <trkpt lat="44.6612" lon="1.83263">
        <ele>319</ele>
        <time>2019-08-10T13:44:18.545Z</time>
      </trkpt>
      <trkpt lat="44.66119" lon="1.83257">
        <ele>319</ele>
        <time>2019-08-10T13:44:23.512Z</time>
      </trkpt>
      <trkpt lat="44.66119" lon="1.83257">
        <ele>319</ele>
        <time>2019-08-10T13:44:32.542Z</time>
      </trkpt>
      <trkpt lat="44.66118" lon="1.83257">
        <ele>319</ele>
        <time>2019-08-10T13:44:37.539Z</time>
      </trkpt>
      <trkpt lat="44.66119" lon="1.83256">
        <ele>319</ele>
        <time>2019-08-10T13:44:42.518Z</time>
      </trkpt>
      <trkpt lat="44.66121" lon="1.83253">
        <ele>319</ele>
        <time>2019-08-10T13:44:46.549Z</time>
      </trkpt>
      <trkpt lat="44.66123" lon="1.83245">
        <ele>319</ele>
        <time>2019-08-10T13:44:50.532Z</time>
      </trkpt>
      <trkpt lat="44.66121" lon="1.83236">
        <ele>318</ele>
        <time>2019-08-10T13:46:30.536Z</time>
      </trkpt>
      <trkpt lat="44.66128" lon="1.83226">
        <ele>318</ele>
        <time>2019-08-10T13:46:35.523Z</time>
      </trkpt>
      <trkpt lat="44.66136" lon="1.83223">
        <ele>318</ele>
        <time>2019-08-10T13:46:40.533Z</time>
      </trkpt>
      <trkpt lat="44.66143" lon="1.83221">
        <ele>318</ele>
        <time>2019-08-10T13:46:44.544Z</time>
      </trkpt>
      <trkpt lat="44.66151" lon="1.83217">
        <ele>318</ele>
        <time>2019-08-10T13:46:49.514Z</time>
      </trkpt>
      <trkpt lat="44.66157" lon="1.83213">
        <ele>319</ele>
        <time>2019-08-10T13:46:54.532Z</time>
      </trkpt>
      <trkpt lat="44.66162" lon="1.83208">
        <ele>318</ele>
        <time>2019-08-10T13:46:59.529Z</time>
      </trkpt>
      <trkpt lat="44.66168" lon="1.83201">
        <ele>318</ele>
        <time>2019-08-10T13:47:04.533Z</time>
      </trkpt>
      <trkpt lat="44.66173" lon="1.83193">
        <ele>318</ele>
        <time>2019-08-10T13:47:09.519Z</time>
      </trkpt>
      <trkpt lat="44.66177" lon="1.83188">
        <ele>318</ele>
        <time>2019-08-10T13:47:13.521Z</time>
      </trkpt>
      <trkpt lat="44.66183" lon="1.83181">
        <ele>320</ele>
        <time>2019-08-10T13:47:18.506Z</time>
      </trkpt>
      <trkpt lat="44.66187" lon="1.83176">
        <ele>318</ele>
        <time>2019-08-10T13:47:22.550Z</time>
      </trkpt>
      <trkpt lat="44.66191" lon="1.8317">
        <ele>318</ele>
        <time>2019-08-10T13:47:26.560Z</time>
      </trkpt>
      <trkpt lat="44.66197" lon="1.83162">
        <ele>318</ele>
        <time>2019-08-10T13:47:31.595Z</time>
      </trkpt>
      <trkpt lat="44.66203" lon="1.83154">
        <ele>318</ele>
        <time>2019-08-10T13:47:36.543Z</time>
      </trkpt>
      <trkpt lat="44.66207" lon="1.83146">
        <ele>316</ele>
        <time>2019-08-10T13:47:40.531Z</time>
      </trkpt>
      <trkpt lat="44.66213" lon="1.8314">
        <ele>318</ele>
        <time>2019-08-10T13:47:45.521Z</time>
      </trkpt>
      <trkpt lat="44.66219" lon="1.83134">
        <ele>318</ele>
        <time>2019-08-10T13:47:50.542Z</time>
      </trkpt>
      <trkpt lat="44.66224" lon="1.83126">
        <ele>318</ele>
        <time>2019-08-10T13:47:55.526Z</time>
      </trkpt>
      <trkpt lat="44.66228" lon="1.8312">
        <ele>317</ele>
        <time>2019-08-10T13:47:59.643Z</time>
      </trkpt>
      <trkpt lat="44.66234" lon="1.83113">
        <ele>317</ele>
        <time>2019-08-10T13:48:04.506Z</time>
      </trkpt>
      <trkpt lat="44.6624" lon="1.8311">
        <ele>318</ele>
        <time>2019-08-10T13:48:08.545Z</time>
      </trkpt>
      <trkpt lat="44.66246" lon="1.83107">
        <ele>318</ele>
        <time>2019-08-10T13:48:12.556Z</time>
      </trkpt>
      <trkpt lat="44.66253" lon="1.83102">
        <ele>318</ele>
        <time>2019-08-10T13:48:17.522Z</time>
      </trkpt>
      <trkpt lat="44.6626" lon="1.831">
        <ele>318</ele>
        <time>2019-08-10T13:48:22.522Z</time>
      </trkpt>
      <trkpt lat="44.66267" lon="1.83096">
        <ele>319</ele>
        <time>2019-08-10T13:48:27.526Z</time>
      </trkpt>
      <trkpt lat="44.66275" lon="1.83093">
        <ele>319</ele>
        <time>2019-08-10T13:48:32.529Z</time>
      </trkpt>
      <trkpt lat="44.66281" lon="1.83092">
        <ele>319</ele>
        <time>2019-08-10T13:48:36.543Z</time>
      </trkpt>
      <trkpt lat="44.66288" lon="1.83089">
        <ele>319</ele>
        <time>2019-08-10T13:48:41.536Z</time>
      </trkpt>
      <trkpt lat="44.66293" lon="1.83086">
        <ele>322</ele>
        <time>2019-08-10T13:48:45.581Z</time>
      </trkpt>
      <trkpt lat="44.66301" lon="1.83083">
        <ele>322</ele>
        <time>2019-08-10T13:48:50.530Z</time>
      </trkpt>
      <trkpt lat="44.66306" lon="1.8308">
        <ele>322</ele>
        <time>2019-08-10T13:48:54.533Z</time>
      </trkpt>
      <trkpt lat="44.66312" lon="1.83079">
        <ele>322</ele>
        <time>2019-08-10T13:48:58.536Z</time>
      </trkpt>
      <trkpt lat="44.66319" lon="1.83077">
        <ele>322</ele>
        <time>2019-08-10T13:49:03.533Z</time>
      </trkpt>
      <trkpt lat="44.66324" lon="1.83077">
        <ele>322</ele>
        <time>2019-08-10T13:49:07.529Z</time>
      </trkpt>
      <trkpt lat="44.66329" lon="1.83078">
        <ele>322</ele>
        <time>2019-08-10T13:49:11.521Z</time>
      </trkpt>
      <trkpt lat="44.66336" lon="1.83079">
        <ele>322</ele>
        <time>2019-08-10T13:49:16.503Z</time>
      </trkpt>
      <trkpt lat="44.66348" lon="1.83084">
        <ele>323</ele>
        <time>2019-08-10T13:49:51.530Z</time>
      </trkpt>
      <trkpt lat="44.66349" lon="1.83084">
        <ele>323</ele>
        <time>2019-08-10T13:49:55.574Z</time>
      </trkpt>
      <trkpt lat="44.66349" lon="1.83084">
        <ele>323</ele>
        <time>2019-08-10T13:50:00.525Z</time>
      </trkpt>
      <trkpt lat="44.6635" lon="1.83084">
        <ele>323</ele>
        <time>2019-08-10T13:50:04.544Z</time>
      </trkpt>
      <trkpt lat="44.6635" lon="1.83084">
        <ele>323</ele>
        <time>2019-08-10T13:50:08.533Z</time>
      </trkpt>
      <trkpt lat="44.66359" lon="1.83084">
        <ele>323</ele>
        <time>2019-08-10T13:50:17.533Z</time>
      </trkpt>
      <trkpt lat="44.66367" lon="1.83088">
        <ele>323</ele>
        <time>2019-08-10T13:50:22.538Z</time>
      </trkpt>
      <trkpt lat="44.66372" lon="1.83088">
        <ele>323</ele>
        <time>2019-08-10T13:50:26.602Z</time>
      </trkpt>
      <trkpt lat="44.6638" lon="1.83086">
        <ele>325</ele>
        <time>2019-08-10T13:50:31.539Z</time>
      </trkpt>
      <trkpt lat="44.66386" lon="1.83088">
        <ele>325</ele>
        <time>2019-08-10T13:50:36.560Z</time>
      </trkpt>
      <trkpt lat="44.6639" lon="1.8309">
        <ele>325</ele>
        <time>2019-08-10T13:50:40.581Z</time>
      </trkpt>
      <trkpt lat="44.66393" lon="1.83096">
        <ele>325</ele>
        <time>2019-08-10T13:50:45.549Z</time>
      </trkpt>
      <trkpt lat="44.66398" lon="1.83101">
        <ele>324</ele>
        <time>2019-08-10T13:50:49.579Z</time>
      </trkpt>
      <trkpt lat="44.66402" lon="1.8311">
        <ele>324</ele>
        <time>2019-08-10T13:50:54.552Z</time>
      </trkpt>
      <trkpt lat="44.66407" lon="1.83117">
        <ele>324</ele>
        <time>2019-08-10T13:50:59.551Z</time>
      </trkpt>
      <trkpt lat="44.66412" lon="1.83124">
        <ele>324</ele>
        <time>2019-08-10T13:51:04.567Z</time>
      </trkpt>
      <trkpt lat="44.66416" lon="1.8313">
        <ele>323</ele>
        <time>2019-08-10T13:51:09.545Z</time>
      </trkpt>
      <trkpt lat="44.66419" lon="1.83136">
        <ele>323</ele>
        <time>2019-08-10T13:51:13.564Z</time>
      </trkpt>
      <trkpt lat="44.66422" lon="1.83143">
        <ele>323</ele>
        <time>2019-08-10T13:51:18.558Z</time>
      </trkpt>
      <trkpt lat="44.66428" lon="1.8315">
        <ele>323</ele>
        <time>2019-08-10T13:51:23.559Z</time>
      </trkpt>
      <trkpt lat="44.66432" lon="1.83155">
        <ele>324</ele>
        <time>2019-08-10T13:51:27.541Z</time>
      </trkpt>
      <trkpt lat="44.66435" lon="1.83159">
        <ele>324</ele>
        <time>2019-08-10T13:51:31.551Z</time>
      </trkpt>
      <trkpt lat="44.66438" lon="1.83162">
        <ele>324</ele>
        <time>2019-08-10T13:51:36.524Z</time>
      </trkpt>
      <trkpt lat="44.66441" lon="1.8317">
        <ele>324</ele>
        <time>2019-08-10T13:51:41.551Z</time>
      </trkpt>
      <trkpt lat="44.66445" lon="1.83171">
        <ele>324</ele>
        <time>2019-08-10T13:51:46.540Z</time>
      </trkpt>
      <trkpt lat="44.66447" lon="1.83174">
        <ele>324</ele>
        <time>2019-08-10T13:51:51.512Z</time>
      </trkpt>
      <trkpt lat="44.66452" lon="1.8318">
        <ele>324</ele>
        <time>2019-08-10T13:51:55.571Z</time>
      </trkpt>
      <trkpt lat="44.66456" lon="1.83186">
        <ele>325</ele>
        <time>2019-08-10T13:51:59.594Z</time>
      </trkpt>
      <trkpt lat="44.66463" lon="1.83193">
        <ele>323</ele>
        <time>2019-08-10T13:52:04.539Z</time>
      </trkpt>
      <trkpt lat="44.6647" lon="1.83198">
        <ele>323</ele>
        <time>2019-08-10T13:52:09.538Z</time>
      </trkpt>
      <trkpt lat="44.66475" lon="1.83203">
        <ele>323</ele>
        <time>2019-08-10T13:52:14.554Z</time>
      </trkpt>
      <trkpt lat="44.6648" lon="1.83208">
        <ele>323</ele>
        <time>2019-08-10T13:52:19.537Z</time>
      </trkpt>
      <trkpt lat="44.66485" lon="1.83211">
        <ele>323</ele>
        <time>2019-08-10T13:52:23.549Z</time>
      </trkpt>
      <trkpt lat="44.66486" lon="1.83212">
        <ele>320</ele>
        <time>2019-08-10T13:52:27.584Z</time>
      </trkpt>
      <trkpt lat="44.66491" lon="1.83216">
        <ele>320</ele>
        <time>2019-08-10T13:52:32.542Z</time>
      </trkpt>
      <trkpt lat="44.66495" lon="1.83221">
        <ele>320</ele>
        <time>2019-08-10T13:52:36.527Z</time>
      </trkpt>
      <trkpt lat="44.665" lon="1.83225">
        <ele>320</ele>
        <time>2019-08-10T13:52:41.542Z</time>
      </trkpt>
      <trkpt lat="44.66507" lon="1.83228">
        <ele>320</ele>
        <time>2019-08-10T13:52:45.530Z</time>
      </trkpt>
      <trkpt lat="44.66515" lon="1.83233">
        <ele>317</ele>
        <time>2019-08-10T13:52:50.537Z</time>
      </trkpt>
      <trkpt lat="44.66521" lon="1.83236">
        <ele>317</ele>
        <time>2019-08-10T13:52:55.581Z</time>
      </trkpt>
      <trkpt lat="44.66527" lon="1.8324">
        <ele>317</ele>
        <time>2019-08-10T13:53:00.530Z</time>
      </trkpt>
      <trkpt lat="44.66539" lon="1.83244">
        <ele>317</ele>
        <time>2019-08-10T13:53:05.539Z</time>
      </trkpt>
      <trkpt lat="44.66547" lon="1.83245">
        <ele>317</ele>
        <time>2019-08-10T13:53:10.529Z</time>
      </trkpt>
      <trkpt lat="44.66552" lon="1.83244">
        <ele>317</ele>
        <time>2019-08-10T13:53:15.532Z</time>
      </trkpt>
      <trkpt lat="44.66556" lon="1.83241">
        <ele>317</ele>
        <time>2019-08-10T13:53:19.571Z</time>
      </trkpt>
      <trkpt lat="44.66564" lon="1.83241">
        <ele>317</ele>
        <time>2019-08-10T13:53:24.532Z</time>
      </trkpt>
      <trkpt lat="44.66571" lon="1.83239">
        <ele>318</ele>
        <time>2019-08-10T13:53:29.534Z</time>
      </trkpt>
      <trkpt lat="44.66579" lon="1.83237">
        <ele>318</ele>
        <time>2019-08-10T13:53:34.531Z</time>
      </trkpt>
      <trkpt lat="44.66588" lon="1.83236">
        <ele>318</ele>
        <time>2019-08-10T13:53:39.523Z</time>
      </trkpt>
      <trkpt lat="44.66596" lon="1.83235">
        <ele>318</ele>
        <time>2019-08-10T13:53:44.518Z</time>
      </trkpt>
      <trkpt lat="44.66603" lon="1.83235">
        <ele>318</ele>
        <time>2019-08-10T13:53:48.529Z</time>
      </trkpt>
      <trkpt lat="44.66609" lon="1.83233">
        <ele>318</ele>
        <time>2019-08-10T13:53:52.520Z</time>
      </trkpt>
      <trkpt lat="44.66616" lon="1.83232">
        <ele>318</ele>
        <time>2019-08-10T13:53:57.529Z</time>
      </trkpt>
      <trkpt lat="44.66622" lon="1.83231">
        <ele>318</ele>
        <time>2019-08-10T13:54:01.542Z</time>
      </trkpt>
      <trkpt lat="44.66628" lon="1.8323">
        <ele>318</ele>
        <time>2019-08-10T13:54:05.549Z</time>
      </trkpt>
      <trkpt lat="44.66636" lon="1.83226">
        <ele>318</ele>
        <time>2019-08-10T13:54:10.526Z</time>
      </trkpt>
      <trkpt lat="44.66642" lon="1.83223">
        <ele>318</ele>
        <time>2019-08-10T13:54:14.537Z</time>
      </trkpt>
      <trkpt lat="44.66648" lon="1.8322">
        <ele>318</ele>
        <time>2019-08-10T13:54:19.529Z</time>
      </trkpt>
      <trkpt lat="44.66654" lon="1.83218">
        <ele>319</ele>
        <time>2019-08-10T13:54:23.529Z</time>
      </trkpt>
      <trkpt lat="44.66661" lon="1.83215">
        <ele>319</ele>
        <time>2019-08-10T13:54:28.521Z</time>
      </trkpt>
      <trkpt lat="44.66668" lon="1.83212">
        <ele>319</ele>
        <time>2019-08-10T13:54:33.547Z</time>
      </trkpt>
      <trkpt lat="44.66675" lon="1.83209">
        <ele>319</ele>
        <time>2019-08-10T13:54:38.526Z</time>
      </trkpt>
      <trkpt lat="44.66681" lon="1.83206">
        <ele>318</ele>
        <time>2019-08-10T13:54:42.544Z</time>
      </trkpt>
      <trkpt lat="44.66688" lon="1.83201">
        <ele>318</ele>
        <time>2019-08-10T13:54:47.558Z</time>
      </trkpt>
      <trkpt lat="44.66694" lon="1.83197">
        <ele>318</ele>
        <time>2019-08-10T13:54:52.543Z</time>
      </trkpt>
      <trkpt lat="44.667" lon="1.83194">
        <ele>318</ele>
        <time>2019-08-10T13:54:57.591Z</time>
      </trkpt>
      <trkpt lat="44.66706" lon="1.8319">
        <ele>318</ele>
        <time>2019-08-10T13:55:02.537Z</time>
      </trkpt>
      <trkpt lat="44.66711" lon="1.83187">
        <ele>318</ele>
        <time>2019-08-10T13:55:06.557Z</time>
      </trkpt>
      <trkpt lat="44.66718" lon="1.83183">
        <ele>318</ele>
        <time>2019-08-10T13:55:11.530Z</time>
      </trkpt>
      <trkpt lat="44.66721" lon="1.83183">
        <ele>318</ele>
        <time>2019-08-10T13:55:15.576Z</time>
      </trkpt>
      <trkpt lat="44.66728" lon="1.83182">
        <ele>318</ele>
        <time>2019-08-10T13:55:20.530Z</time>
      </trkpt>
      <trkpt lat="44.66736" lon="1.83179">
        <ele>318</ele>
        <time>2019-08-10T13:55:25.522Z</time>
      </trkpt>
      <trkpt lat="44.66745" lon="1.83177">
        <ele>319</ele>
        <time>2019-08-10T13:55:30.527Z</time>
      </trkpt>
      <trkpt lat="44.66753" lon="1.83174">
        <ele>319</ele>
        <time>2019-08-10T13:55:35.518Z</time>
      </trkpt>
      <trkpt lat="44.66759" lon="1.83171">
        <ele>319</ele>
        <time>2019-08-10T13:55:40.526Z</time>
      </trkpt>
      <trkpt lat="44.66765" lon="1.83169">
        <ele>321</ele>
        <time>2019-08-10T13:55:45.526Z</time>
      </trkpt>
      <trkpt lat="44.66772" lon="1.83166">
        <ele>321</ele>
        <time>2019-08-10T13:55:50.528Z</time>
      </trkpt>
      <trkpt lat="44.66775" lon="1.83165">
        <ele>321</ele>
        <time>2019-08-10T13:55:55.534Z</time>
      </trkpt>
      <trkpt lat="44.66777" lon="1.83164">
        <ele>321</ele>
        <time>2019-08-10T13:55:59.529Z</time>
      </trkpt>
      <trkpt lat="44.66783" lon="1.83162">
        <ele>321</ele>
        <time>2019-08-10T13:56:03.524Z</time>
      </trkpt>
      <trkpt lat="44.66791" lon="1.83158">
        <ele>321</ele>
        <time>2019-08-10T13:56:08.538Z</time>
      </trkpt>
      <trkpt lat="44.668" lon="1.83154">
        <ele>322</ele>
        <time>2019-08-10T13:56:13.531Z</time>
      </trkpt>
      <trkpt lat="44.66806" lon="1.8315">
        <ele>322</ele>
        <time>2019-08-10T13:56:18.537Z</time>
      </trkpt>
      <trkpt lat="44.66813" lon="1.83146">
        <ele>322</ele>
        <time>2019-08-10T13:56:23.538Z</time>
      </trkpt>
      <trkpt lat="44.66819" lon="1.83143">
        <ele>323</ele>
        <time>2019-08-10T13:56:28.531Z</time>
      </trkpt>
      <trkpt lat="44.66841" lon="1.83135">
        <ele>323</ele>
        <time>2019-08-10T13:56:48.522Z</time>
      </trkpt>
      <trkpt lat="44.66843" lon="1.83132">
        <ele>323</ele>
        <time>2019-08-10T13:56:53.528Z</time>
      </trkpt>
      <trkpt lat="44.66849" lon="1.8313">
        <ele>326</ele>
        <time>2019-08-10T13:56:58.526Z</time>
      </trkpt>
      <trkpt lat="44.66857" lon="1.83126">
        <ele>326</ele>
        <time>2019-08-10T13:57:03.538Z</time>
      </trkpt>
      <trkpt lat="44.66865" lon="1.83122">
        <ele>327</ele>
        <time>2019-08-10T13:57:08.529Z</time>
      </trkpt>
      <trkpt lat="44.66872" lon="1.83116">
        <ele>327</ele>
        <time>2019-08-10T13:57:13.544Z</time>
      </trkpt>
      <trkpt lat="44.66878" lon="1.83111">
        <ele>330</ele>
        <time>2019-08-10T13:57:18.547Z</time>
      </trkpt>
      <trkpt lat="44.66879" lon="1.83109">
        <ele>330</ele>
        <time>2019-08-10T13:57:23.546Z</time>
      </trkpt>
      <trkpt lat="44.66881" lon="1.83107">
        <ele>330</ele>
        <time>2019-08-10T13:57:28.546Z</time>
      </trkpt>
      <trkpt lat="44.66887" lon="1.83099">
        <ele>330</ele>
        <time>2019-08-10T13:57:33.553Z</time>
      </trkpt>
      <trkpt lat="44.66893" lon="1.83092">
        <ele>329</ele>
        <time>2019-08-10T13:57:38.561Z</time>
      </trkpt>
      <trkpt lat="44.66898" lon="1.83085">
        <ele>329</ele>
        <time>2019-08-10T13:57:43.557Z</time>
      </trkpt>
      <trkpt lat="44.66903" lon="1.83077">
        <ele>331</ele>
        <time>2019-08-10T13:57:48.543Z</time>
      </trkpt>
      <trkpt lat="44.66908" lon="1.83071">
        <ele>331</ele>
        <time>2019-08-10T13:57:52.541Z</time>
      </trkpt>
      <trkpt lat="44.66913" lon="1.83063">
        <ele>330</ele>
        <time>2019-08-10T13:57:57.537Z</time>
      </trkpt>
      <trkpt lat="44.66918" lon="1.83056">
        <ele>330</ele>
        <time>2019-08-10T13:58:02.557Z</time>
      </trkpt>
      <trkpt lat="44.66922" lon="1.83049">
        <ele>330</ele>
        <time>2019-08-10T13:58:07.529Z</time>
      </trkpt>
      <trkpt lat="44.66928" lon="1.83041">
        <ele>329</ele>
        <time>2019-08-10T13:58:12.565Z</time>
      </trkpt>
      <trkpt lat="44.66934" lon="1.83034">
        <ele>333</ele>
        <time>2019-08-10T13:58:17.532Z</time>
      </trkpt>
      <trkpt lat="44.6694" lon="1.83025">
        <ele>333</ele>
        <time>2019-08-10T13:58:22.533Z</time>
      </trkpt>
      <trkpt lat="44.66946" lon="1.83018">
        <ele>333</ele>
        <time>2019-08-10T13:58:27.532Z</time>
      </trkpt>
      <trkpt lat="44.66952" lon="1.83011">
        <ele>332</ele>
        <time>2019-08-10T13:58:32.524Z</time>
      </trkpt>
      <trkpt lat="44.66957" lon="1.83005">
        <ele>332</ele>
        <time>2019-08-10T13:58:36.550Z</time>
      </trkpt>
      <trkpt lat="44.66961" lon="1.83">
        <ele>333</ele>
        <time>2019-08-10T13:58:40.564Z</time>
      </trkpt>
      <trkpt lat="44.66967" lon="1.82993">
        <ele>333</ele>
        <time>2019-08-10T13:58:45.554Z</time>
      </trkpt>
      <trkpt lat="44.66972" lon="1.82986">
        <ele>333</ele>
        <time>2019-08-10T13:58:50.552Z</time>
      </trkpt>
      <trkpt lat="44.66979" lon="1.82982">
        <ele>333</ele>
        <time>2019-08-10T13:58:55.517Z</time>
      </trkpt>
      <trkpt lat="44.66985" lon="1.82979">
        <ele>333</ele>
        <time>2019-08-10T13:58:59.556Z</time>
      </trkpt>
      <trkpt lat="44.66992" lon="1.82975">
        <ele>336</ele>
        <time>2019-08-10T13:59:04.547Z</time>
      </trkpt>
      <trkpt lat="44.66998" lon="1.8297">
        <ele>336</ele>
        <time>2019-08-10T13:59:09.557Z</time>
      </trkpt>
      <trkpt lat="44.67006" lon="1.82968">
        <ele>336</ele>
        <time>2019-08-10T13:59:14.535Z</time>
      </trkpt>
      <trkpt lat="44.67013" lon="1.82966">
        <ele>336</ele>
        <time>2019-08-10T13:59:19.549Z</time>
      </trkpt>
      <trkpt lat="44.67018" lon="1.82963">
        <ele>337</ele>
        <time>2019-08-10T13:59:23.561Z</time>
      </trkpt>
      <trkpt lat="44.67023" lon="1.82959">
        <ele>337</ele>
        <time>2019-08-10T13:59:27.554Z</time>
      </trkpt>
      <trkpt lat="44.67029" lon="1.82951">
        <ele>338</ele>
        <time>2019-08-10T13:59:32.532Z</time>
      </trkpt>
      <trkpt lat="44.67034" lon="1.82942">
        <ele>338</ele>
        <time>2019-08-10T13:59:37.544Z</time>
      </trkpt>
      <trkpt lat="44.67038" lon="1.82933">
        <ele>338</ele>
        <time>2019-08-10T13:59:42.559Z</time>
      </trkpt>
      <trkpt lat="44.67042" lon="1.82926">
        <ele>337</ele>
        <time>2019-08-10T13:59:47.530Z</time>
      </trkpt>
      <trkpt lat="44.67042" lon="1.82925">
        <ele>337</ele>
        <time>2019-08-10T13:59:51.554Z</time>
      </trkpt>
      <trkpt lat="44.67043" lon="1.82923">
        <ele>338</ele>
        <time>2019-08-10T13:59:56.549Z</time>
      </trkpt>
      <trkpt lat="44.67046" lon="1.82916">
        <ele>338</ele>
        <time>2019-08-10T14:00:01.544Z</time>
      </trkpt>
      <trkpt lat="44.67048" lon="1.82909">
        <ele>338</ele>
        <time>2019-08-10T14:00:05.570Z</time>
      </trkpt>
      <trkpt lat="44.6705" lon="1.829">
        <ele>338</ele>
        <time>2019-08-10T14:00:10.512Z</time>
      </trkpt>
      <trkpt lat="44.67052" lon="1.82893">
        <ele>338</ele>
        <time>2019-08-10T14:00:14.537Z</time>
      </trkpt>
      <trkpt lat="44.67055" lon="1.82882">
        <ele>338</ele>
        <time>2019-08-10T14:00:19.540Z</time>
      </trkpt>
      <trkpt lat="44.67057" lon="1.82868">
        <ele>338</ele>
        <time>2019-08-10T14:00:24.557Z</time>
      </trkpt>
      <trkpt lat="44.67061" lon="1.82857">
        <ele>338</ele>
        <time>2019-08-10T14:00:29.542Z</time>
      </trkpt>
      <trkpt lat="44.67064" lon="1.82846">
        <ele>339</ele>
        <time>2019-08-10T14:00:34.551Z</time>
      </trkpt>
      <trkpt lat="44.67067" lon="1.82837">
        <ele>339</ele>
        <time>2019-08-10T14:00:39.545Z</time>
      </trkpt>
      <trkpt lat="44.6707" lon="1.82829">
        <ele>339</ele>
        <time>2019-08-10T14:00:44.549Z</time>
      </trkpt>
      <trkpt lat="44.67073" lon="1.82822">
        <ele>339</ele>
        <time>2019-08-10T14:00:49.551Z</time>
      </trkpt>
      <trkpt lat="44.67077" lon="1.82815">
        <ele>340</ele>
        <time>2019-08-10T14:00:54.557Z</time>
      </trkpt>
      <trkpt lat="44.67081" lon="1.82805">
        <ele>340</ele>
        <time>2019-08-10T14:00:59.537Z</time>
      </trkpt>
      <trkpt lat="44.67084" lon="1.82797">
        <ele>340</ele>
        <time>2019-08-10T14:01:04.549Z</time>
      </trkpt>
      <trkpt lat="44.67088" lon="1.82789">
        <ele>340</ele>
        <time>2019-08-10T14:01:09.543Z</time>
      </trkpt>
      <trkpt lat="44.67092" lon="1.82781">
        <ele>340</ele>
        <time>2019-08-10T14:01:14.566Z</time>
      </trkpt>
      <trkpt lat="44.67092" lon="1.82778">
        <ele>340</ele>
        <time>2019-08-10T14:01:18.557Z</time>
      </trkpt>
      <trkpt lat="44.67094" lon="1.82775">
        <ele>340</ele>
        <time>2019-08-10T14:01:23.548Z</time>
      </trkpt>
      <trkpt lat="44.67099" lon="1.82765">
        <ele>339</ele>
        <time>2019-08-10T14:01:28.549Z</time>
      </trkpt>
      <trkpt lat="44.67102" lon="1.82756">
        <ele>340</ele>
        <time>2019-08-10T14:01:32.567Z</time>
      </trkpt>
      <trkpt lat="44.67107" lon="1.82749">
        <ele>340</ele>
        <time>2019-08-10T14:01:37.498Z</time>
      </trkpt>
      <trkpt lat="44.67111" lon="1.8274">
        <ele>340</ele>
        <time>2019-08-10T14:01:41.506Z</time>
      </trkpt>
      <trkpt lat="44.67113" lon="1.82731">
        <ele>340</ele>
        <time>2019-08-10T14:01:45.530Z</time>
      </trkpt>
      <trkpt lat="44.67116" lon="1.82721">
        <ele>340</ele>
        <time>2019-08-10T14:01:50.568Z</time>
      </trkpt>
      <trkpt lat="44.67118" lon="1.82712">
        <ele>340</ele>
        <time>2019-08-10T14:01:55.542Z</time>
      </trkpt>
      <trkpt lat="44.67122" lon="1.82704">
        <ele>340</ele>
        <time>2019-08-10T14:02:00.536Z</time>
      </trkpt>
      <trkpt lat="44.67127" lon="1.82696">
        <ele>339</ele>
        <time>2019-08-10T14:02:05.529Z</time>
      </trkpt>
      <trkpt lat="44.67129" lon="1.82689">
        <ele>339</ele>
        <time>2019-08-10T14:02:09.528Z</time>
      </trkpt>
      <trkpt lat="44.67132" lon="1.8268">
        <ele>339</ele>
        <time>2019-08-10T14:02:14.513Z</time>
      </trkpt>
      <trkpt lat="44.67135" lon="1.82674">
        <ele>339</ele>
        <time>2019-08-10T14:02:18.531Z</time>
      </trkpt>
      <trkpt lat="44.67138" lon="1.82667">
        <ele>339</ele>
        <time>2019-08-10T14:02:23.554Z</time>
      </trkpt>
      <trkpt lat="44.67139" lon="1.82664">
        <ele>339</ele>
        <time>2019-08-10T14:02:27.528Z</time>
      </trkpt>
      <trkpt lat="44.67141" lon="1.8266">
        <ele>339</ele>
        <time>2019-08-10T14:02:31.527Z</time>
      </trkpt>
      <trkpt lat="44.67144" lon="1.82652">
        <ele>339</ele>
        <time>2019-08-10T14:02:36.537Z</time>
      </trkpt>
      <trkpt lat="44.67147" lon="1.82644">
        <ele>339</ele>
        <time>2019-08-10T14:02:40.539Z</time>
      </trkpt>
      <trkpt lat="44.6715" lon="1.82633">
        <ele>339</ele>
        <time>2019-08-10T14:02:45.545Z</time>
      </trkpt>
      <trkpt lat="44.67153" lon="1.82623">
        <ele>341</ele>
        <time>2019-08-10T14:02:50.543Z</time>
      </trkpt>
      <trkpt lat="44.67155" lon="1.82616">
        <ele>341</ele>
        <time>2019-08-10T14:02:54.542Z</time>
      </trkpt>
      <trkpt lat="44.67158" lon="1.82608">
        <ele>341</ele>
        <time>2019-08-10T14:02:59.548Z</time>
      </trkpt>
      <trkpt lat="44.67161" lon="1.82599">
        <ele>341</ele>
        <time>2019-08-10T14:03:04.545Z</time>
      </trkpt>
      <trkpt lat="44.67165" lon="1.8259">
        <ele>342</ele>
        <time>2019-08-10T14:03:09.551Z</time>
      </trkpt>
      <trkpt lat="44.67169" lon="1.82584">
        <ele>342</ele>
        <time>2019-08-10T14:03:13.536Z</time>
      </trkpt>
      <trkpt lat="44.67172" lon="1.82578">
        <ele>342</ele>
        <time>2019-08-10T14:03:17.532Z</time>
      </trkpt>
      <trkpt lat="44.67176" lon="1.82571">
        <ele>342</ele>
        <time>2019-08-10T14:03:22.549Z</time>
      </trkpt>
      <trkpt lat="44.6718" lon="1.82564">
        <ele>343</ele>
        <time>2019-08-10T14:03:27.524Z</time>
      </trkpt>
      <trkpt lat="44.67183" lon="1.82558">
        <ele>345</ele>
        <time>2019-08-10T14:03:31.566Z</time>
      </trkpt>
      <trkpt lat="44.67185" lon="1.82554">
        <ele>345</ele>
        <time>2019-08-10T14:03:35.550Z</time>
      </trkpt>
      <trkpt lat="44.67189" lon="1.82546">
        <ele>345</ele>
        <time>2019-08-10T14:03:40.559Z</time>
      </trkpt>
      <trkpt lat="44.67194" lon="1.82538">
        <ele>346</ele>
        <time>2019-08-10T14:03:45.548Z</time>
      </trkpt>
      <trkpt lat="44.67199" lon="1.8253">
        <ele>346</ele>
        <time>2019-08-10T14:03:50.557Z</time>
      </trkpt>
      <trkpt lat="44.67202" lon="1.82523">
        <ele>346</ele>
        <time>2019-08-10T14:03:54.559Z</time>
      </trkpt>
      <trkpt lat="44.67203" lon="1.82521">
        <ele>346</ele>
        <time>2019-08-10T14:03:58.540Z</time>
      </trkpt>
      <trkpt lat="44.67205" lon="1.82518">
        <ele>346</ele>
        <time>2019-08-10T14:04:02.571Z</time>
      </trkpt>
      <trkpt lat="44.67209" lon="1.82513">
        <ele>348</ele>
        <time>2019-08-10T14:04:07.547Z</time>
      </trkpt>
      <trkpt lat="44.67214" lon="1.82504">
        <ele>348</ele>
        <time>2019-08-10T14:04:12.520Z</time>
      </trkpt>
      <trkpt lat="44.67217" lon="1.82495">
        <ele>348</ele>
        <time>2019-08-10T14:04:16.534Z</time>
      </trkpt>
      <trkpt lat="44.67221" lon="1.82487">
        <ele>348</ele>
        <time>2019-08-10T14:04:20.579Z</time>
      </trkpt>
      <trkpt lat="44.67225" lon="1.82477">
        <ele>350</ele>
        <time>2019-08-10T14:04:25.531Z</time>
      </trkpt>
      <trkpt lat="44.67228" lon="1.82467">
        <ele>350</ele>
        <time>2019-08-10T14:04:30.555Z</time>
      </trkpt>
      <trkpt lat="44.67233" lon="1.8246">
        <ele>350</ele>
        <time>2019-08-10T14:04:35.531Z</time>
      </trkpt>
      <trkpt lat="44.67236" lon="1.82454">
        <ele>349</ele>
        <time>2019-08-10T14:04:39.548Z</time>
      </trkpt>
      <trkpt lat="44.67239" lon="1.82446">
        <ele>349</ele>
        <time>2019-08-10T14:04:43.530Z</time>
      </trkpt>
      <trkpt lat="44.67241" lon="1.82435">
        <ele>349</ele>
        <time>2019-08-10T14:04:48.551Z</time>
      </trkpt>
      <trkpt lat="44.67243" lon="1.82424">
        <ele>350</ele>
        <time>2019-08-10T14:04:53.527Z</time>
      </trkpt>
      <trkpt lat="44.67244" lon="1.82417">
        <ele>350</ele>
        <time>2019-08-10T14:04:57.544Z</time>
      </trkpt>
      <trkpt lat="44.67247" lon="1.82409">
        <ele>350</ele>
        <time>2019-08-10T14:05:02.536Z</time>
      </trkpt>
      <trkpt lat="44.67248" lon="1.82401">
        <ele>350</ele>
        <time>2019-08-10T14:05:06.575Z</time>
      </trkpt>
      <trkpt lat="44.6725" lon="1.82391">
        <ele>350</ele>
        <time>2019-08-10T14:05:11.548Z</time>
      </trkpt>
      <trkpt lat="44.67251" lon="1.82382">
        <ele>350</ele>
        <time>2019-08-10T14:05:15.554Z</time>
      </trkpt>
      <trkpt lat="44.6725" lon="1.82373">
        <ele>349</ele>
        <time>2019-08-10T14:05:20.554Z</time>
      </trkpt>
      <trkpt lat="44.6725" lon="1.82365">
        <ele>349</ele>
        <time>2019-08-10T14:05:25.534Z</time>
      </trkpt>
      <trkpt lat="44.6725" lon="1.82356">
        <ele>349</ele>
        <time>2019-08-10T14:05:29.541Z</time>
      </trkpt>
      <trkpt lat="44.67251" lon="1.82348">
        <ele>349</ele>
        <time>2019-08-10T14:05:33.552Z</time>
      </trkpt>
      <trkpt lat="44.67252" lon="1.82344">
        <ele>349</ele>
        <time>2019-08-10T14:05:38.571Z</time>
      </trkpt>
      <trkpt lat="44.67253" lon="1.8234">
        <ele>349</ele>
        <time>2019-08-10T14:05:43.533Z</time>
      </trkpt>
      <trkpt lat="44.67253" lon="1.82336">
        <ele>349</ele>
        <time>2019-08-10T14:05:47.564Z</time>
      </trkpt>
      <trkpt lat="44.67254" lon="1.82329">
        <ele>349</ele>
        <time>2019-08-10T14:05:52.548Z</time>
      </trkpt>
      <trkpt lat="44.67255" lon="1.82322">
        <ele>349</ele>
        <time>2019-08-10T14:05:56.533Z</time>
      </trkpt>
      <trkpt lat="44.67254" lon="1.8232">
        <ele>349</ele>
        <time>2019-08-10T14:06:01.537Z</time>
      </trkpt>
      <trkpt lat="44.67256" lon="1.82315">
        <ele>349</ele>
        <time>2019-08-10T14:06:05.553Z</time>
      </trkpt>
      <trkpt lat="44.67258" lon="1.82305">
        <ele>349</ele>
        <time>2019-08-10T14:06:10.533Z</time>
      </trkpt>
      <trkpt lat="44.67261" lon="1.82295">
        <ele>349</ele>
        <time>2019-08-10T14:06:15.543Z</time>
      </trkpt>
      <trkpt lat="44.67261" lon="1.8229">
        <ele>349</ele>
        <time>2019-08-10T14:06:20.537Z</time>
      </trkpt>
      <trkpt lat="44.67263" lon="1.82281">
        <ele>349</ele>
        <time>2019-08-10T14:06:25.534Z</time>
      </trkpt>
      <trkpt lat="44.67266" lon="1.82269">
        <ele>346</ele>
        <time>2019-08-10T14:06:30.560Z</time>
      </trkpt>
      <trkpt lat="44.67267" lon="1.82263">
        <ele>347</ele>
        <time>2019-08-10T14:06:35.544Z</time>
      </trkpt>
      <trkpt lat="44.67267" lon="1.82264">
        <ele>347</ele>
        <time>2019-08-10T14:06:40.541Z</time>
      </trkpt>
      <trkpt lat="44.6727" lon="1.82258">
        <ele>347</ele>
        <time>2019-08-10T14:06:44.551Z</time>
      </trkpt>
      <trkpt lat="44.67272" lon="1.82253">
        <ele>347</ele>
        <time>2019-08-10T14:06:49.572Z</time>
      </trkpt>
      <trkpt lat="44.67276" lon="1.82243">
        <ele>347</ele>
        <time>2019-08-10T14:06:54.542Z</time>
      </trkpt>
      <trkpt lat="44.6728" lon="1.82234">
        <ele>348</ele>
        <time>2019-08-10T14:06:58.542Z</time>
      </trkpt>
      <trkpt lat="44.67287" lon="1.82226">
        <ele>348</ele>
        <time>2019-08-10T14:07:03.554Z</time>
      </trkpt>
      <trkpt lat="44.67294" lon="1.8222">
        <ele>346</ele>
        <time>2019-08-10T14:07:08.530Z</time>
      </trkpt>
      <trkpt lat="44.67298" lon="1.82214">
        <ele>346</ele>
        <time>2019-08-10T14:07:13.544Z</time>
      </trkpt>
      <trkpt lat="44.67303" lon="1.8221">
        <ele>346</ele>
        <time>2019-08-10T14:07:17.533Z</time>
      </trkpt>
      <trkpt lat="44.67309" lon="1.82205">
        <ele>346</ele>
        <time>2019-08-10T14:07:22.524Z</time>
      </trkpt>
      <trkpt lat="44.67313" lon="1.82203">
        <ele>346</ele>
        <time>2019-08-10T14:07:26.541Z</time>
      </trkpt>
      <trkpt lat="44.6732" lon="1.822">
        <ele>344</ele>
        <time>2019-08-10T14:07:31.530Z</time>
      </trkpt>
      <trkpt lat="44.67326" lon="1.82197">
        <ele>344</ele>
        <time>2019-08-10T14:07:36.541Z</time>
      </trkpt>
      <trkpt lat="44.67332" lon="1.82196">
        <ele>344</ele>
        <time>2019-08-10T14:07:41.540Z</time>
      </trkpt>
      <trkpt lat="44.67336" lon="1.82194">
        <ele>344</ele>
        <time>2019-08-10T14:07:45.555Z</time>
      </trkpt>
      <trkpt lat="44.67342" lon="1.82191">
        <ele>344</ele>
        <time>2019-08-10T14:07:50.570Z</time>
      </trkpt>
      <trkpt lat="44.67348" lon="1.82187">
        <ele>342</ele>
        <time>2019-08-10T14:07:55.560Z</time>
      </trkpt>
      <trkpt lat="44.67353" lon="1.82181">
        <ele>342</ele>
        <time>2019-08-10T14:08:00.557Z</time>
      </trkpt>
      <trkpt lat="44.67357" lon="1.82175">
        <ele>342</ele>
        <time>2019-08-10T14:08:05.537Z</time>
      </trkpt>
      <trkpt lat="44.67358" lon="1.82171">
        <ele>342</ele>
        <time>2019-08-10T14:08:09.521Z</time>
      </trkpt>
      <trkpt lat="44.67357" lon="1.82171">
        <ele>342</ele>
        <time>2019-08-10T14:08:13.542Z</time>
      </trkpt>
      <trkpt lat="44.67358" lon="1.82171">
        <ele>342</ele>
        <time>2019-08-10T14:08:18.557Z</time>
      </trkpt>
      <trkpt lat="44.67358" lon="1.82171">
        <ele>342</ele>
        <time>2019-08-10T14:08:23.527Z</time>
      </trkpt>
      <trkpt lat="44.67358" lon="1.82169">
        <ele>342</ele>
        <time>2019-08-10T14:08:27.533Z</time>
      </trkpt>
      <trkpt lat="44.67366" lon="1.82161">
        <ele>342</ele>
        <time>2019-08-10T14:08:32.541Z</time>
      </trkpt>
      <trkpt lat="44.67371" lon="1.82154">
        <ele>342</ele>
        <time>2019-08-10T14:08:36.540Z</time>
      </trkpt>
      <trkpt lat="44.67379" lon="1.82145">
        <ele>341</ele>
        <time>2019-08-10T14:08:41.538Z</time>
      </trkpt>
      <trkpt lat="44.67386" lon="1.82139">
        <ele>341</ele>
        <time>2019-08-10T14:08:46.558Z</time>
      </trkpt>
      <trkpt lat="44.67394" lon="1.82138">
        <ele>341</ele>
        <time>2019-08-10T14:08:51.531Z</time>
      </trkpt>
      <trkpt lat="44.67402" lon="1.82136">
        <ele>341</ele>
        <time>2019-08-10T14:08:56.549Z</time>
      </trkpt>
      <trkpt lat="44.67408" lon="1.82135">
        <ele>342</ele>
        <time>2019-08-10T14:09:00.557Z</time>
      </trkpt>
      <trkpt lat="44.67412" lon="1.82134">
        <ele>342</ele>
        <time>2019-08-10T14:09:04.545Z</time>
      </trkpt>
      <trkpt lat="44.67419" lon="1.82132">
        <ele>342</ele>
        <time>2019-08-10T14:09:09.555Z</time>
      </trkpt>
      <trkpt lat="44.67426" lon="1.82131">
        <ele>342</ele>
        <time>2019-08-10T14:09:13.530Z</time>
      </trkpt>
      <trkpt lat="44.67434" lon="1.82128">
        <ele>341</ele>
        <time>2019-08-10T14:09:18.541Z</time>
      </trkpt>
      <trkpt lat="44.67441" lon="1.82125">
        <ele>341</ele>
        <time>2019-08-10T14:09:23.557Z</time>
      </trkpt>
      <trkpt lat="44.67447" lon="1.82121">
        <ele>341</ele>
        <time>2019-08-10T14:09:28.558Z</time>
      </trkpt>
      <trkpt lat="44.67453" lon="1.82119">
        <ele>341</ele>
        <time>2019-08-10T14:09:33.541Z</time>
      </trkpt>
      <trkpt lat="44.67459" lon="1.82114">
        <ele>339</ele>
        <time>2019-08-10T14:09:38.540Z</time>
      </trkpt>
      <trkpt lat="44.67465" lon="1.8211">
        <ele>339</ele>
        <time>2019-08-10T14:09:43.517Z</time>
      </trkpt>
      <trkpt lat="44.67467" lon="1.82108">
        <ele>339</ele>
        <time>2019-08-10T14:09:48.505Z</time>
      </trkpt>
      <trkpt lat="44.67469" lon="1.82106">
        <ele>339</ele>
        <time>2019-08-10T14:09:52.524Z</time>
      </trkpt>
      <trkpt lat="44.67475" lon="1.82103">
        <ele>339</ele>
        <time>2019-08-10T14:09:56.547Z</time>
      </trkpt>
      <trkpt lat="44.67481" lon="1.82098">
        <ele>339</ele>
        <time>2019-08-10T14:10:01.550Z</time>
      </trkpt>
      <trkpt lat="44.67487" lon="1.82093">
        <ele>338</ele>
        <time>2019-08-10T14:10:06.557Z</time>
      </trkpt>
      <trkpt lat="44.67492" lon="1.82088">
        <ele>338</ele>
        <time>2019-08-10T14:10:11.556Z</time>
      </trkpt>
      <trkpt lat="44.67499" lon="1.82083">
        <ele>338</ele>
        <time>2019-08-10T14:10:16.532Z</time>
      </trkpt>
      <trkpt lat="44.67502" lon="1.8208">
        <ele>338</ele>
        <time>2019-08-10T14:10:20.531Z</time>
      </trkpt>
      <trkpt lat="44.67503" lon="1.8208">
        <ele>338</ele>
        <time>2019-08-10T14:10:25.537Z</time>
      </trkpt>
      <trkpt lat="44.67507" lon="1.82076">
        <ele>338</ele>
        <time>2019-08-10T14:10:29.528Z</time>
      </trkpt>
      <trkpt lat="44.67512" lon="1.82071">
        <ele>338</ele>
        <time>2019-08-10T14:10:34.546Z</time>
      </trkpt>
      <trkpt lat="44.67517" lon="1.82067">
        <ele>338</ele>
        <time>2019-08-10T14:10:38.556Z</time>
      </trkpt>
      <trkpt lat="44.67524" lon="1.82063">
        <ele>338</ele>
        <time>2019-08-10T14:10:43.562Z</time>
      </trkpt>
      <trkpt lat="44.67531" lon="1.82059">
        <ele>338</ele>
        <time>2019-08-10T14:10:48.530Z</time>
      </trkpt>
      <trkpt lat="44.67537" lon="1.82054">
        <ele>338</ele>
        <time>2019-08-10T14:10:53.548Z</time>
      </trkpt>
      <trkpt lat="44.67543" lon="1.82049">
        <ele>336</ele>
        <time>2019-08-10T14:10:58.540Z</time>
      </trkpt>
      <trkpt lat="44.67547" lon="1.82045">
        <ele>336</ele>
        <time>2019-08-10T14:11:03.538Z</time>
      </trkpt>
      <trkpt lat="44.67552" lon="1.82041">
        <ele>336</ele>
        <time>2019-08-10T14:11:07.542Z</time>
      </trkpt>
      <trkpt lat="44.67557" lon="1.82037">
        <ele>336</ele>
        <time>2019-08-10T14:11:11.541Z</time>
      </trkpt>
      <trkpt lat="44.67564" lon="1.82035">
        <ele>336</ele>
        <time>2019-08-10T14:11:15.528Z</time>
      </trkpt>
      <trkpt lat="44.67569" lon="1.82032">
        <ele>334</ele>
        <time>2019-08-10T14:11:20.515Z</time>
      </trkpt>
      <trkpt lat="44.67574" lon="1.82029">
        <ele>334</ele>
        <time>2019-08-10T14:11:25.533Z</time>
      </trkpt>
      <trkpt lat="44.67579" lon="1.82029">
        <ele>334</ele>
        <time>2019-08-10T14:11:30.510Z</time>
      </trkpt>
      <trkpt lat="44.67585" lon="1.82026">
        <ele>334</ele>
        <time>2019-08-10T14:11:35.545Z</time>
      </trkpt>
      <trkpt lat="44.6759" lon="1.82023">
        <ele>334</ele>
        <time>2019-08-10T14:11:39.552Z</time>
      </trkpt>
      <trkpt lat="44.67594" lon="1.82017">
        <ele>334</ele>
        <time>2019-08-10T14:11:44.545Z</time>
      </trkpt>
      <trkpt lat="44.67598" lon="1.82017">
        <ele>332</ele>
        <time>2019-08-10T14:11:49.552Z</time>
      </trkpt>
      <trkpt lat="44.67601" lon="1.82016">
        <ele>332</ele>
        <time>2019-08-10T14:11:54.564Z</time>
      </trkpt>
      <trkpt lat="44.67604" lon="1.82012">
        <ele>331</ele>
        <time>2019-08-10T14:11:59.542Z</time>
      </trkpt>
      <trkpt lat="44.67605" lon="1.8201">
        <ele>331</ele>
        <time>2019-08-10T14:12:03.542Z</time>
      </trkpt>
      <trkpt lat="44.67606" lon="1.8201">
        <ele>331</ele>
        <time>2019-08-10T14:12:08.528Z</time>
      </trkpt>
      <trkpt lat="44.67612" lon="1.82008">
        <ele>331</ele>
        <time>2019-08-10T14:12:13.558Z</time>
      </trkpt>
      <trkpt lat="44.67613" lon="1.82008">
        <ele>331</ele>
        <time>2019-08-10T14:12:17.556Z</time>
      </trkpt>
      <trkpt lat="44.67615" lon="1.82008">
        <ele>331</ele>
        <time>2019-08-10T14:12:22.555Z</time>
      </trkpt>
      <trkpt lat="44.67619" lon="1.82008">
        <ele>331</ele>
        <time>2019-08-10T14:12:27.542Z</time>
      </trkpt>
      <trkpt lat="44.67624" lon="1.82006">
        <ele>331</ele>
        <time>2019-08-10T14:12:32.545Z</time>
      </trkpt>
      <trkpt lat="44.67626" lon="1.82005">
        <ele>329</ele>
        <time>2019-08-10T14:12:37.545Z</time>
      </trkpt>
      <trkpt lat="44.67626" lon="1.82004">
        <ele>329</ele>
        <time>2019-08-10T14:12:42.550Z</time>
      </trkpt>
      <trkpt lat="44.67632" lon="1.82006">
        <ele>329</ele>
        <time>2019-08-10T14:12:47.552Z</time>
      </trkpt>
      <trkpt lat="44.67641" lon="1.82007">
        <ele>329</ele>
        <time>2019-08-10T14:12:51.548Z</time>
      </trkpt>
      <trkpt lat="44.67648" lon="1.82005">
        <ele>329</ele>
        <time>2019-08-10T14:12:56.559Z</time>
      </trkpt>
      <trkpt lat="44.67656" lon="1.82008">
        <ele>328</ele>
        <time>2019-08-10T14:13:00.548Z</time>
      </trkpt>
      <trkpt lat="44.67661" lon="1.82009">
        <ele>328</ele>
        <time>2019-08-10T14:13:05.537Z</time>
      </trkpt>
      <trkpt lat="44.67671" lon="1.82012">
        <ele>328</ele>
        <time>2019-08-10T14:13:51.544Z</time>
      </trkpt>
      <trkpt lat="44.67671" lon="1.82012">
        <ele>328</ele>
        <time>2019-08-10T14:13:56.526Z</time>
      </trkpt>
      <trkpt lat="44.67674" lon="1.82015">
        <ele>329</ele>
        <time>2019-08-10T14:14:01.531Z</time>
      </trkpt>
      <trkpt lat="44.67675" lon="1.82017">
        <ele>329</ele>
        <time>2019-08-10T14:14:06.543Z</time>
      </trkpt>
      <trkpt lat="44.67679" lon="1.82018">
        <ele>329</ele>
        <time>2019-08-10T14:14:11.539Z</time>
      </trkpt>
      <trkpt lat="44.67681" lon="1.82018">
        <ele>329</ele>
        <time>2019-08-10T14:14:20.547Z</time>
      </trkpt>
      <trkpt lat="44.67683" lon="1.82018">
        <ele>329</ele>
        <time>2019-08-10T14:14:25.530Z</time>
      </trkpt>
      <trkpt lat="44.67684" lon="1.82018">
        <ele>329</ele>
        <time>2019-08-10T14:14:30.526Z</time>
      </trkpt>
      <trkpt lat="44.67687" lon="1.82021">
        <ele>329</ele>
        <time>2019-08-10T14:14:34.548Z</time>
      </trkpt>
      <trkpt lat="44.67691" lon="1.82023">
        <ele>329</ele>
        <time>2019-08-10T14:14:38.538Z</time>
      </trkpt>
      <trkpt lat="44.67699" lon="1.82023">
        <ele>329</ele>
        <time>2019-08-10T14:14:43.553Z</time>
      </trkpt>
      <trkpt lat="44.67707" lon="1.82024">
        <ele>329</ele>
        <time>2019-08-10T14:14:48.550Z</time>
      </trkpt>
      <trkpt lat="44.67714" lon="1.82025">
        <ele>327</ele>
        <time>2019-08-10T14:14:53.528Z</time>
      </trkpt>
      <trkpt lat="44.67721" lon="1.82025">
        <ele>327</ele>
        <time>2019-08-10T14:14:57.560Z</time>
      </trkpt>
      <trkpt lat="44.67736" lon="1.82027">
        <ele>324</ele>
        <time>2019-08-10T14:15:02.542Z</time>
      </trkpt>
      <trkpt lat="44.6776" lon="1.82031">
        <ele>324</ele>
        <time>2019-08-10T14:15:07.537Z</time>
      </trkpt>
      <trkpt lat="44.67785" lon="1.82032">
        <ele>322</ele>
        <time>2019-08-10T14:15:12.524Z</time>
      </trkpt>
      <trkpt lat="44.67796" lon="1.82033">
        <ele>323</ele>
        <time>2019-08-10T14:15:16.539Z</time>
      </trkpt>
      <trkpt lat="44.67804" lon="1.82033">
        <ele>323</ele>
        <time>2019-08-10T14:15:21.528Z</time>
      </trkpt>
      <trkpt lat="44.67811" lon="1.82033">
        <ele>323</ele>
        <time>2019-08-10T14:15:25.530Z</time>
      </trkpt>
      <trkpt lat="44.6782" lon="1.82035">
        <ele>324</ele>
        <time>2019-08-10T14:15:30.543Z</time>
      </trkpt>
      <trkpt lat="44.6783" lon="1.82036">
        <ele>324</ele>
        <time>2019-08-10T14:15:34.549Z</time>
      </trkpt>
      <trkpt lat="44.6784" lon="1.82039">
        <ele>324</ele>
        <time>2019-08-10T14:15:39.550Z</time>
      </trkpt>
      <trkpt lat="44.67843" lon="1.82039">
        <ele>324</ele>
        <time>2019-08-10T14:15:43.550Z</time>
      </trkpt>
      <trkpt lat="44.67845" lon="1.82038">
        <ele>324</ele>
        <time>2019-08-10T14:15:47.542Z</time>
      </trkpt>
      <trkpt lat="44.67851" lon="1.82039">
        <ele>325</ele>
        <time>2019-08-10T14:15:52.555Z</time>
      </trkpt>
      <trkpt lat="44.67856" lon="1.8204">
        <ele>325</ele>
        <time>2019-08-10T14:15:56.525Z</time>
      </trkpt>
      <trkpt lat="44.67861" lon="1.8204">
        <ele>325</ele>
        <time>2019-08-10T14:16:00.525Z</time>
      </trkpt>
      <trkpt lat="44.67868" lon="1.82042">
        <ele>325</ele>
        <time>2019-08-10T14:16:05.534Z</time>
      </trkpt>
      <trkpt lat="44.67874" lon="1.82042">
        <ele>326</ele>
        <time>2019-08-10T14:16:09.528Z</time>
      </trkpt>
      <trkpt lat="44.67881" lon="1.82041">
        <ele>326</ele>
        <time>2019-08-10T14:16:14.541Z</time>
      </trkpt>
      <trkpt lat="44.67887" lon="1.82041">
        <ele>326</ele>
        <time>2019-08-10T14:16:18.538Z</time>
      </trkpt>
      <trkpt lat="44.67894" lon="1.82041">
        <ele>326</ele>
        <time>2019-08-10T14:16:23.531Z</time>
      </trkpt>
      <trkpt lat="44.67896" lon="1.82043">
        <ele>327</ele>
        <time>2019-08-10T14:16:28.553Z</time>
      </trkpt>
      <trkpt lat="44.67901" lon="1.82045">
        <ele>327</ele>
        <time>2019-08-10T14:16:33.559Z</time>
      </trkpt>
      <trkpt lat="44.67908" lon="1.82048">
        <ele>327</ele>
        <time>2019-08-10T14:16:38.513Z</time>
      </trkpt>
      <trkpt lat="44.6791" lon="1.82049">
        <ele>327</ele>
        <time>2019-08-10T14:16:42.549Z</time>
      </trkpt>
      <trkpt lat="44.67915" lon="1.82049">
        <ele>327</ele>
        <time>2019-08-10T14:16:47.522Z</time>
      </trkpt>
      <trkpt lat="44.67919" lon="1.82051">
        <ele>327</ele>
        <time>2019-08-10T14:16:52.546Z</time>
      </trkpt>
      <trkpt lat="44.67923" lon="1.82054">
        <ele>327</ele>
        <time>2019-08-10T14:16:57.528Z</time>
      </trkpt>
      <trkpt lat="44.67928" lon="1.82055">
        <ele>327</ele>
        <time>2019-08-10T14:17:01.561Z</time>
      </trkpt>
      <trkpt lat="44.67936" lon="1.82055">
        <ele>326</ele>
        <time>2019-08-10T14:17:06.524Z</time>
      </trkpt>
      <trkpt lat="44.67944" lon="1.82055">
        <ele>326</ele>
        <time>2019-08-10T14:17:11.527Z</time>
      </trkpt>
      <trkpt lat="44.6795" lon="1.82056">
        <ele>326</ele>
        <time>2019-08-10T14:17:15.544Z</time>
      </trkpt>
      <trkpt lat="44.67956" lon="1.82056">
        <ele>326</ele>
        <time>2019-08-10T14:17:20.536Z</time>
      </trkpt>
      <trkpt lat="44.67962" lon="1.82055">
        <ele>325</ele>
        <time>2019-08-10T14:17:25.515Z</time>
      </trkpt>
      <trkpt lat="44.67967" lon="1.82053">
        <ele>325</ele>
        <time>2019-08-10T14:17:29.516Z</time>
      </trkpt>
      <trkpt lat="44.67974" lon="1.8205">
        <ele>325</ele>
        <time>2019-08-10T14:17:34.548Z</time>
      </trkpt>
      <trkpt lat="44.67978" lon="1.82048">
        <ele>325</ele>
        <time>2019-08-10T14:17:39.537Z</time>
      </trkpt>
      <trkpt lat="44.6798" lon="1.82046">
        <ele>325</ele>
        <time>2019-08-10T14:17:44.530Z</time>
      </trkpt>
      <trkpt lat="44.6798" lon="1.82046">
        <ele>325</ele>
        <time>2019-08-10T14:17:48.544Z</time>
      </trkpt>
      <trkpt lat="44.67981" lon="1.82046">
        <ele>325</ele>
        <time>2019-08-10T14:17:52.545Z</time>
      </trkpt>
      <trkpt lat="44.67987" lon="1.82044">
        <ele>325</ele>
        <time>2019-08-10T14:17:57.543Z</time>
      </trkpt>
      <trkpt lat="44.67993" lon="1.82042">
        <ele>325</ele>
        <time>2019-08-10T14:18:02.537Z</time>
      </trkpt>
      <trkpt lat="44.67999" lon="1.82043">
        <ele>325</ele>
        <time>2019-08-10T14:18:07.561Z</time>
      </trkpt>
      <trkpt lat="44.68002" lon="1.82043">
        <ele>325</ele>
        <time>2019-08-10T14:18:12.553Z</time>
      </trkpt>
      <trkpt lat="44.68011" lon="1.82042">
        <ele>324</ele>
        <time>2019-08-10T14:18:17.513Z</time>
      </trkpt>
      <trkpt lat="44.68018" lon="1.82039">
        <ele>323</ele>
        <time>2019-08-10T14:18:21.550Z</time>
      </trkpt>
      <trkpt lat="44.68028" lon="1.82036">
        <ele>323</ele>
        <time>2019-08-10T14:18:26.519Z</time>
      </trkpt>
      <trkpt lat="44.68035" lon="1.82034">
        <ele>323</ele>
        <time>2019-08-10T14:18:30.545Z</time>
      </trkpt>
      <trkpt lat="44.68044" lon="1.82035">
        <ele>324</ele>
        <time>2019-08-10T14:18:35.547Z</time>
      </trkpt>
      <trkpt lat="44.68051" lon="1.82035">
        <ele>324</ele>
        <time>2019-08-10T14:18:40.530Z</time>
      </trkpt>
      <trkpt lat="44.68056" lon="1.82035">
        <ele>324</ele>
        <time>2019-08-10T14:18:44.538Z</time>
      </trkpt>
      <trkpt lat="44.68061" lon="1.82034">
        <ele>324</ele>
        <time>2019-08-10T14:18:49.560Z</time>
      </trkpt>
      <trkpt lat="44.68065" lon="1.82034">
        <ele>324</ele>
        <time>2019-08-10T14:18:54.537Z</time>
      </trkpt>
      <trkpt lat="44.68071" lon="1.82032">
        <ele>325</ele>
        <time>2019-08-10T14:18:58.541Z</time>
      </trkpt>
      <trkpt lat="44.68079" lon="1.82031">
        <ele>325</ele>
        <time>2019-08-10T14:19:03.519Z</time>
      </trkpt>
      <trkpt lat="44.68085" lon="1.8203">
        <ele>325</ele>
        <time>2019-08-10T14:19:07.551Z</time>
      </trkpt>
      <trkpt lat="44.6809" lon="1.82028">
        <ele>325</ele>
        <time>2019-08-10T14:19:12.538Z</time>
      </trkpt>
      <trkpt lat="44.68097" lon="1.8203">
        <ele>325</ele>
        <time>2019-08-10T14:19:17.527Z</time>
      </trkpt>
      <trkpt lat="44.68102" lon="1.8203">
        <ele>324</ele>
        <time>2019-08-10T14:19:21.559Z</time>
      </trkpt>
      <trkpt lat="44.68108" lon="1.82028">
        <ele>324</ele>
        <time>2019-08-10T14:19:26.539Z</time>
      </trkpt>
      <trkpt lat="44.68112" lon="1.82028">
        <ele>324</ele>
        <time>2019-08-10T14:19:30.558Z</time>
      </trkpt>
      <trkpt lat="44.68118" lon="1.82028">
        <ele>324</ele>
        <time>2019-08-10T14:19:35.547Z</time>
      </trkpt>
      <trkpt lat="44.68124" lon="1.82028">
        <ele>324</ele>
        <time>2019-08-10T14:19:39.565Z</time>
      </trkpt>
      <trkpt lat="44.68127" lon="1.82028">
        <ele>325</ele>
        <time>2019-08-10T14:19:44.510Z</time>
      </trkpt>
      <trkpt lat="44.6813" lon="1.82029">
        <ele>325</ele>
        <time>2019-08-10T14:19:48.526Z</time>
      </trkpt>
      <trkpt lat="44.68134" lon="1.82028">
        <ele>325</ele>
        <time>2019-08-10T14:19:52.555Z</time>
      </trkpt>
      <trkpt lat="44.6814" lon="1.82027">
        <ele>325</ele>
        <time>2019-08-10T14:19:57.528Z</time>
      </trkpt>
      <trkpt lat="44.68145" lon="1.82027">
        <ele>325</ele>
        <time>2019-08-10T14:20:01.526Z</time>
      </trkpt>
      <trkpt lat="44.68152" lon="1.82029">
        <ele>325</ele>
        <time>2019-08-10T14:20:05.531Z</time>
      </trkpt>
      <trkpt lat="44.68159" lon="1.82028">
        <ele>326</ele>
        <time>2019-08-10T14:20:10.557Z</time>
      </trkpt>
      <trkpt lat="44.68168" lon="1.82027">
        <ele>326</ele>
        <time>2019-08-10T14:20:15.541Z</time>
      </trkpt>
      <trkpt lat="44.68176" lon="1.82028">
        <ele>326</ele>
        <time>2019-08-10T14:20:20.563Z</time>
      </trkpt>
      <trkpt lat="44.68182" lon="1.82028">
        <ele>326</ele>
        <time>2019-08-10T14:20:24.542Z</time>
      </trkpt>
      <trkpt lat="44.6819" lon="1.82032">
        <ele>326</ele>
        <time>2019-08-10T14:20:29.526Z</time>
      </trkpt>
      <trkpt lat="44.68193" lon="1.82034">
        <ele>326</ele>
        <time>2019-08-10T14:20:34.530Z</time>
      </trkpt>
      <trkpt lat="44.68199" lon="1.82036">
        <ele>326</ele>
        <time>2019-08-10T14:20:39.553Z</time>
      </trkpt>
      <trkpt lat="44.68205" lon="1.82037">
        <ele>326</ele>
        <time>2019-08-10T14:20:44.540Z</time>
      </trkpt>
      <trkpt lat="44.68211" lon="1.82037">
        <ele>325</ele>
        <time>2019-08-10T14:20:49.548Z</time>
      </trkpt>
      <trkpt lat="44.68218" lon="1.82039">
        <ele>325</ele>
        <time>2019-08-10T14:20:54.534Z</time>
      </trkpt>
      <trkpt lat="44.68224" lon="1.82041">
        <ele>325</ele>
        <time>2019-08-10T14:20:58.528Z</time>
      </trkpt>
      <trkpt lat="44.6823" lon="1.82042">
        <ele>325</ele>
        <time>2019-08-10T14:21:03.550Z</time>
      </trkpt>
      <trkpt lat="44.68234" lon="1.82044">
        <ele>325</ele>
        <time>2019-08-10T14:21:07.553Z</time>
      </trkpt>
      <trkpt lat="44.68239" lon="1.82045">
        <ele>322</ele>
        <time>2019-08-10T14:21:12.537Z</time>
      </trkpt>
      <trkpt lat="44.68242" lon="1.82044">
        <ele>322</ele>
        <time>2019-08-10T14:21:17.524Z</time>
      </trkpt>
      <trkpt lat="44.68246" lon="1.82043">
        <ele>322</ele>
        <time>2019-08-10T14:21:22.528Z</time>
      </trkpt>
      <trkpt lat="44.6825" lon="1.82042">
        <ele>323</ele>
        <time>2019-08-10T14:21:27.557Z</time>
      </trkpt>
      <trkpt lat="44.68251" lon="1.82042">
        <ele>322</ele>
        <time>2019-08-10T14:21:32.531Z</time>
      </trkpt>
      <trkpt lat="44.68259" lon="1.82045">
        <ele>322</ele>
        <time>2019-08-10T14:21:37.526Z</time>
      </trkpt>
      <trkpt lat="44.68264" lon="1.82044">
        <ele>323</ele>
        <time>2019-08-10T14:21:41.543Z</time>
      </trkpt>
      <trkpt lat="44.68268" lon="1.82045">
        <ele>323</ele>
        <time>2019-08-10T14:21:45.541Z</time>
      </trkpt>
      <trkpt lat="44.68273" lon="1.82047">
        <ele>323</ele>
        <time>2019-08-10T14:21:50.555Z</time>
      </trkpt>
      <trkpt lat="44.6828" lon="1.82045">
        <ele>323</ele>
        <time>2019-08-10T14:21:54.550Z</time>
      </trkpt>
      <trkpt lat="44.68287" lon="1.82045">
        <ele>323</ele>
        <time>2019-08-10T14:21:59.544Z</time>
      </trkpt>
      <trkpt lat="44.68291" lon="1.82045">
        <ele>323</ele>
        <time>2019-08-10T14:22:03.551Z</time>
      </trkpt>
      <trkpt lat="44.68297" lon="1.82046">
        <ele>323</ele>
        <time>2019-08-10T14:22:08.545Z</time>
      </trkpt>
      <trkpt lat="44.68302" lon="1.82047">
        <ele>323</ele>
        <time>2019-08-10T14:22:12.537Z</time>
      </trkpt>
      <trkpt lat="44.68309" lon="1.82046">
        <ele>323</ele>
        <time>2019-08-10T14:22:17.534Z</time>
      </trkpt>
      <trkpt lat="44.68317" lon="1.82045">
        <ele>323</ele>
        <time>2019-08-10T14:22:22.531Z</time>
      </trkpt>
      <trkpt lat="44.68322" lon="1.82046">
        <ele>325</ele>
        <time>2019-08-10T14:22:26.538Z</time>
      </trkpt>
      <trkpt lat="44.68329" lon="1.82046">
        <ele>325</ele>
        <time>2019-08-10T14:22:30.527Z</time>
      </trkpt>
      <trkpt lat="44.68336" lon="1.82047">
        <ele>325</ele>
        <time>2019-08-10T14:22:35.525Z</time>
      </trkpt>
      <trkpt lat="44.68342" lon="1.82048">
        <ele>325</ele>
        <time>2019-08-10T14:22:40.532Z</time>
      </trkpt>
      <trkpt lat="44.6835" lon="1.82047">
        <ele>326</ele>
        <time>2019-08-10T14:22:45.542Z</time>
      </trkpt>
      <trkpt lat="44.68357" lon="1.82049">
        <ele>326</ele>
        <time>2019-08-10T14:22:49.530Z</time>
      </trkpt>
      <trkpt lat="44.68362" lon="1.8205">
        <ele>326</ele>
        <time>2019-08-10T14:22:53.543Z</time>
      </trkpt>
      <trkpt lat="44.68366" lon="1.82047">
        <ele>326</ele>
        <time>2019-08-10T14:22:58.537Z</time>
      </trkpt>
      <trkpt lat="44.68371" lon="1.82043">
        <ele>326</ele>
        <time>2019-08-10T14:23:03.521Z</time>
      </trkpt>
      <trkpt lat="44.68377" lon="1.8204">
        <ele>325</ele>
        <time>2019-08-10T14:23:08.529Z</time>
      </trkpt>
      <trkpt lat="44.68383" lon="1.82035">
        <ele>325</ele>
        <time>2019-08-10T14:23:13.539Z</time>
      </trkpt>
      <trkpt lat="44.68391" lon="1.8203">
        <ele>325</ele>
        <time>2019-08-10T14:23:18.534Z</time>
      </trkpt>
      <trkpt lat="44.68399" lon="1.82025">
        <ele>325</ele>
        <time>2019-08-10T14:23:23.538Z</time>
      </trkpt>
      <trkpt lat="44.68405" lon="1.82021">
        <ele>327</ele>
        <time>2019-08-10T14:23:27.533Z</time>
      </trkpt>
      <trkpt lat="44.6841" lon="1.82017">
        <ele>327</ele>
        <time>2019-08-10T14:23:31.525Z</time>
      </trkpt>
      <trkpt lat="44.68414" lon="1.82013">
        <ele>326</ele>
        <time>2019-08-10T14:23:36.536Z</time>
      </trkpt>
      <trkpt lat="44.68419" lon="1.82009">
        <ele>326</ele>
        <time>2019-08-10T14:23:40.535Z</time>
      </trkpt>
      <trkpt lat="44.68424" lon="1.82005">
        <ele>326</ele>
        <time>2019-08-10T14:23:45.540Z</time>
      </trkpt>
      <trkpt lat="44.68431" lon="1.82001">
        <ele>327</ele>
        <time>2019-08-10T14:23:50.546Z</time>
      </trkpt>
      <trkpt lat="44.68437" lon="1.81997">
        <ele>327</ele>
        <time>2019-08-10T14:23:55.545Z</time>
      </trkpt>
      <trkpt lat="44.68442" lon="1.81994">
        <ele>327</ele>
        <time>2019-08-10T14:24:00.557Z</time>
      </trkpt>
      <trkpt lat="44.68446" lon="1.81989">
        <ele>327</ele>
        <time>2019-08-10T14:24:05.554Z</time>
      </trkpt>
      <trkpt lat="44.68452" lon="1.81984">
        <ele>327</ele>
        <time>2019-08-10T14:24:10.533Z</time>
      </trkpt>
      <trkpt lat="44.68458" lon="1.8198">
        <ele>327</ele>
        <time>2019-08-10T14:24:14.539Z</time>
      </trkpt>
      <trkpt lat="44.68464" lon="1.81975">
        <ele>328</ele>
        <time>2019-08-10T14:24:19.547Z</time>
      </trkpt>
      <trkpt lat="44.68474" lon="1.81969">
        <ele>328</ele>
        <time>2019-08-10T14:24:24.556Z</time>
      </trkpt>
      <trkpt lat="44.68483" lon="1.81963">
        <ele>328</ele>
        <time>2019-08-10T14:24:29.519Z</time>
      </trkpt>
      <trkpt lat="44.68489" lon="1.81959">
        <ele>328</ele>
        <time>2019-08-10T14:24:34.549Z</time>
      </trkpt>
      <trkpt lat="44.68495" lon="1.81953">
        <ele>327</ele>
        <time>2019-08-10T14:24:39.553Z</time>
      </trkpt>
      <trkpt lat="44.68499" lon="1.81949">
        <ele>327</ele>
        <time>2019-08-10T14:24:44.545Z</time>
      </trkpt>
      <trkpt lat="44.68504" lon="1.81946">
        <ele>327</ele>
        <time>2019-08-10T14:24:49.551Z</time>
      </trkpt>
      <trkpt lat="44.68506" lon="1.81944">
        <ele>327</ele>
        <time>2019-08-10T14:24:54.539Z</time>
      </trkpt>
      <trkpt lat="44.68508" lon="1.81943">
        <ele>327</ele>
        <time>2019-08-10T14:24:59.533Z</time>
      </trkpt>
      <trkpt lat="44.68513" lon="1.8194">
        <ele>327</ele>
        <time>2019-08-10T14:25:03.545Z</time>
      </trkpt>
      <trkpt lat="44.6852" lon="1.81934">
        <ele>327</ele>
        <time>2019-08-10T14:25:08.551Z</time>
      </trkpt>
      <trkpt lat="44.68527" lon="1.81928">
        <ele>327</ele>
        <time>2019-08-10T14:25:13.542Z</time>
      </trkpt>
      <trkpt lat="44.68534" lon="1.81924">
        <ele>327</ele>
        <time>2019-08-10T14:25:18.573Z</time>
      </trkpt>
      <trkpt lat="44.6854" lon="1.8192">
        <ele>327</ele>
        <time>2019-08-10T14:25:23.544Z</time>
      </trkpt>
      <trkpt lat="44.68544" lon="1.81916">
        <ele>327</ele>
        <time>2019-08-10T14:25:27.551Z</time>
      </trkpt>
      <trkpt lat="44.6855" lon="1.81911">
        <ele>327</ele>
        <time>2019-08-10T14:25:32.532Z</time>
      </trkpt>
      <trkpt lat="44.68555" lon="1.81906">
        <ele>327</ele>
        <time>2019-08-10T14:25:36.563Z</time>
      </trkpt>
      <trkpt lat="44.68562" lon="1.81902">
        <ele>327</ele>
        <time>2019-08-10T14:25:41.557Z</time>
      </trkpt>
      <trkpt lat="44.68567" lon="1.81901">
        <ele>327</ele>
        <time>2019-08-10T14:25:45.550Z</time>
      </trkpt>
      <trkpt lat="44.68573" lon="1.81899">
        <ele>328</ele>
        <time>2019-08-10T14:25:50.534Z</time>
      </trkpt>
      <trkpt lat="44.68581" lon="1.81896">
        <ele>328</ele>
        <time>2019-08-10T14:25:55.552Z</time>
      </trkpt>
      <trkpt lat="44.68585" lon="1.81888">
        <ele>328</ele>
        <time>2019-08-10T14:26:00.538Z</time>
      </trkpt>
      <trkpt lat="44.6859" lon="1.81884">
        <ele>328</ele>
        <time>2019-08-10T14:26:05.534Z</time>
      </trkpt>
      <trkpt lat="44.68596" lon="1.81879">
        <ele>328</ele>
        <time>2019-08-10T14:26:10.526Z</time>
      </trkpt>
      <trkpt lat="44.68601" lon="1.81874">
        <ele>326</ele>
        <time>2019-08-10T14:26:14.557Z</time>
      </trkpt>
      <trkpt lat="44.68605" lon="1.8187">
        <ele>326</ele>
        <time>2019-08-10T14:26:18.560Z</time>
      </trkpt>
      <trkpt lat="44.68611" lon="1.81868">
        <ele>326</ele>
        <time>2019-08-10T14:26:23.553Z</time>
      </trkpt>
      <trkpt lat="44.68615" lon="1.8187">
        <ele>326</ele>
        <time>2019-08-10T14:26:27.521Z</time>
      </trkpt>
      <trkpt lat="44.68619" lon="1.81874">
        <ele>326</ele>
        <time>2019-08-10T14:26:31.542Z</time>
      </trkpt>
      <trkpt lat="44.68625" lon="1.81881">
        <ele>327</ele>
        <time>2019-08-10T14:26:36.520Z</time>
      </trkpt>
      <trkpt lat="44.68629" lon="1.81887">
        <ele>327</ele>
        <time>2019-08-10T14:26:40.536Z</time>
      </trkpt>
      <trkpt lat="44.68635" lon="1.81893">
        <ele>327</ele>
        <time>2019-08-10T14:26:45.541Z</time>
      </trkpt>
      <trkpt lat="44.68639" lon="1.81897">
        <ele>327</ele>
        <time>2019-08-10T14:26:49.534Z</time>
      </trkpt>
      <trkpt lat="44.68645" lon="1.81906">
        <ele>329</ele>
        <time>2019-08-10T14:26:54.550Z</time>
      </trkpt>
      <trkpt lat="44.6865" lon="1.81912">
        <ele>329</ele>
        <time>2019-08-10T14:26:59.552Z</time>
      </trkpt>
      <trkpt lat="44.68656" lon="1.81917">
        <ele>328</ele>
        <time>2019-08-10T14:27:04.533Z</time>
      </trkpt>
      <trkpt lat="44.68662" lon="1.81922">
        <ele>328</ele>
        <time>2019-08-10T14:27:09.547Z</time>
      </trkpt>
      <trkpt lat="44.68666" lon="1.81926">
        <ele>328</ele>
        <time>2019-08-10T14:27:13.542Z</time>
      </trkpt>
      <trkpt lat="44.68672" lon="1.8193">
        <ele>328</ele>
        <time>2019-08-10T14:27:18.543Z</time>
      </trkpt>
      <trkpt lat="44.68675" lon="1.81938">
        <ele>329</ele>
        <time>2019-08-10T14:27:23.554Z</time>
      </trkpt>
      <trkpt lat="44.68679" lon="1.81943">
        <ele>329</ele>
        <time>2019-08-10T14:27:27.549Z</time>
      </trkpt>
      <trkpt lat="44.68683" lon="1.81948">
        <ele>329</ele>
        <time>2019-08-10T14:27:31.554Z</time>
      </trkpt>
      <trkpt lat="44.68689" lon="1.81954">
        <ele>329</ele>
        <time>2019-08-10T14:27:36.524Z</time>
      </trkpt>
      <trkpt lat="44.68691" lon="1.81961">
        <ele>330</ele>
        <time>2019-08-10T14:27:40.561Z</time>
      </trkpt>
      <trkpt lat="44.68695" lon="1.81966">
        <ele>330</ele>
        <time>2019-08-10T14:27:44.554Z</time>
      </trkpt>
      <trkpt lat="44.68701" lon="1.81973">
        <ele>330</ele>
        <time>2019-08-10T14:27:49.531Z</time>
      </trkpt>
      <trkpt lat="44.68707" lon="1.81979">
        <ele>330</ele>
        <time>2019-08-10T14:27:54.556Z</time>
      </trkpt>
      <trkpt lat="44.68712" lon="1.81983">
        <ele>330</ele>
        <time>2019-08-10T14:27:58.549Z</time>
      </trkpt>
      <trkpt lat="44.68716" lon="1.81987">
        <ele>330</ele>
        <time>2019-08-10T14:28:02.549Z</time>
      </trkpt>
      <trkpt lat="44.6872" lon="1.81991">
        <ele>330</ele>
        <time>2019-08-10T14:28:06.549Z</time>
      </trkpt>
      <trkpt lat="44.68724" lon="1.81996">
        <ele>330</ele>
        <time>2019-08-10T14:28:11.542Z</time>
      </trkpt>
      <trkpt lat="44.68728" lon="1.82001">
        <ele>330</ele>
        <time>2019-08-10T14:28:15.533Z</time>
      </trkpt>
      <trkpt lat="44.68733" lon="1.82007">
        <ele>330</ele>
        <time>2019-08-10T14:28:20.541Z</time>
      </trkpt>
      <trkpt lat="44.68737" lon="1.82012">
        <ele>329</ele>
        <time>2019-08-10T14:28:24.556Z</time>
      </trkpt>
      <trkpt lat="44.6874" lon="1.82015">
        <ele>329</ele>
        <time>2019-08-10T14:28:28.543Z</time>
      </trkpt>
      <trkpt lat="44.68741" lon="1.82016">
        <ele>329</ele>
        <time>2019-08-10T14:28:33.528Z</time>
      </trkpt>
      <trkpt lat="44.68746" lon="1.82018">
        <ele>329</ele>
        <time>2019-08-10T14:28:37.559Z</time>
      </trkpt>
      <trkpt lat="44.68751" lon="1.82025">
        <ele>329</ele>
        <time>2019-08-10T14:28:42.523Z</time>
      </trkpt>
      <trkpt lat="44.68756" lon="1.8203">
        <ele>329</ele>
        <time>2019-08-10T14:28:46.528Z</time>
      </trkpt>
      <trkpt lat="44.68761" lon="1.82034">
        <ele>329</ele>
        <time>2019-08-10T14:28:50.533Z</time>
      </trkpt>
      <trkpt lat="44.68766" lon="1.82041">
        <ele>329</ele>
        <time>2019-08-10T14:28:55.546Z</time>
      </trkpt>
      <trkpt lat="44.68772" lon="1.82049">
        <ele>329</ele>
        <time>2019-08-10T14:29:00.554Z</time>
      </trkpt>
      <trkpt lat="44.68777" lon="1.82056">
        <ele>329</ele>
        <time>2019-08-10T14:29:05.543Z</time>
      </trkpt>
      <trkpt lat="44.68782" lon="1.82062">
        <ele>329</ele>
        <time>2019-08-10T14:29:09.555Z</time>
      </trkpt>
      <trkpt lat="44.68787" lon="1.82069">
        <ele>329</ele>
        <time>2019-08-10T14:29:14.554Z</time>
      </trkpt>
      <trkpt lat="44.68793" lon="1.82074">
        <ele>329</ele>
        <time>2019-08-10T14:29:19.557Z</time>
      </trkpt>
      <trkpt lat="44.68797" lon="1.82079">
        <ele>329</ele>
        <time>2019-08-10T14:29:24.520Z</time>
      </trkpt>
      <trkpt lat="44.688" lon="1.82083">
        <ele>329</ele>
        <time>2019-08-10T14:29:28.562Z</time>
      </trkpt>
      <trkpt lat="44.68804" lon="1.82089">
        <ele>329</ele>
        <time>2019-08-10T14:29:33.528Z</time>
      </trkpt>
      <trkpt lat="44.68809" lon="1.82093">
        <ele>329</ele>
        <time>2019-08-10T14:29:38.542Z</time>
      </trkpt>
      <trkpt lat="44.68815" lon="1.82098">
        <ele>330</ele>
        <time>2019-08-10T14:29:43.555Z</time>
      </trkpt>
      <trkpt lat="44.6882" lon="1.82104">
        <ele>329</ele>
        <time>2019-08-10T14:29:48.545Z</time>
      </trkpt>
      <trkpt lat="44.68824" lon="1.82106">
        <ele>329</ele>
        <time>2019-08-10T14:29:52.555Z</time>
      </trkpt>
      <trkpt lat="44.68828" lon="1.8211">
        <ele>329</ele>
        <time>2019-08-10T14:29:57.536Z</time>
      </trkpt>
      <trkpt lat="44.68831" lon="1.82112">
        <ele>329</ele>
        <time>2019-08-10T14:30:01.540Z</time>
      </trkpt>
      <trkpt lat="44.68836" lon="1.82117">
        <ele>329</ele>
        <time>2019-08-10T14:30:06.542Z</time>
      </trkpt>
      <trkpt lat="44.68841" lon="1.82123">
        <ele>329</ele>
        <time>2019-08-10T14:30:11.546Z</time>
      </trkpt>
      <trkpt lat="44.68845" lon="1.82129">
        <ele>330</ele>
        <time>2019-08-10T14:30:16.547Z</time>
      </trkpt>
      <trkpt lat="44.68849" lon="1.82132">
        <ele>330</ele>
        <time>2019-08-10T14:30:20.554Z</time>
      </trkpt>
      <trkpt lat="44.68854" lon="1.82137">
        <ele>330</ele>
        <time>2019-08-10T14:30:25.545Z</time>
      </trkpt>
      <trkpt lat="44.68858" lon="1.82142">
        <ele>330</ele>
        <time>2019-08-10T14:30:29.535Z</time>
      </trkpt>
      <trkpt lat="44.68863" lon="1.82151">
        <ele>330</ele>
        <time>2019-08-10T14:30:34.548Z</time>
      </trkpt>
      <trkpt lat="44.68869" lon="1.82155">
        <ele>330</ele>
        <time>2019-08-10T14:30:39.529Z</time>
      </trkpt>
      <trkpt lat="44.68874" lon="1.82159">
        <ele>330</ele>
        <time>2019-08-10T14:30:44.521Z</time>
      </trkpt>
      <trkpt lat="44.68877" lon="1.82165">
        <ele>327</ele>
        <time>2019-08-10T14:30:48.526Z</time>
      </trkpt>
      <trkpt lat="44.68882" lon="1.82168">
        <ele>327</ele>
        <time>2019-08-10T14:30:53.547Z</time>
      </trkpt>
      <trkpt lat="44.68886" lon="1.82172">
        <ele>327</ele>
        <time>2019-08-10T14:30:58.554Z</time>
      </trkpt>
      <trkpt lat="44.68892" lon="1.82178">
        <ele>327</ele>
        <time>2019-08-10T14:31:03.534Z</time>
      </trkpt>
      <trkpt lat="44.68899" lon="1.82185">
        <ele>328</ele>
        <time>2019-08-10T14:31:08.532Z</time>
      </trkpt>
      <trkpt lat="44.68905" lon="1.82188">
        <ele>325</ele>
        <time>2019-08-10T14:31:12.521Z</time>
      </trkpt>
      <trkpt lat="44.68913" lon="1.82192">
        <ele>325</ele>
        <time>2019-08-10T14:31:17.530Z</time>
      </trkpt>
      <trkpt lat="44.6892" lon="1.82194">
        <ele>325</ele>
        <time>2019-08-10T14:31:21.535Z</time>
      </trkpt>
      <trkpt lat="44.68929" lon="1.82197">
        <ele>325</ele>
        <time>2019-08-10T14:31:26.533Z</time>
      </trkpt>
      <trkpt lat="44.68937" lon="1.822">
        <ele>325</ele>
        <time>2019-08-10T14:31:31.534Z</time>
      </trkpt>
      <trkpt lat="44.68943" lon="1.82202">
        <ele>325</ele>
        <time>2019-08-10T14:31:35.541Z</time>
      </trkpt>
      <trkpt lat="44.68949" lon="1.82204">
        <ele>325</ele>
        <time>2019-08-10T14:31:40.568Z</time>
      </trkpt>
      <trkpt lat="44.68957" lon="1.82205">
        <ele>325</ele>
        <time>2019-08-10T14:31:45.527Z</time>
      </trkpt>
      <trkpt lat="44.68963" lon="1.82207">
        <ele>326</ele>
        <time>2019-08-10T14:31:50.530Z</time>
      </trkpt>
      <trkpt lat="44.68969" lon="1.82209">
        <ele>327</ele>
        <time>2019-08-10T14:31:55.541Z</time>
      </trkpt>
      <trkpt lat="44.68976" lon="1.8221">
        <ele>327</ele>
        <time>2019-08-10T14:32:00.517Z</time>
      </trkpt>
      <trkpt lat="44.68981" lon="1.82213">
        <ele>327</ele>
        <time>2019-08-10T14:32:04.549Z</time>
      </trkpt>
      <trkpt lat="44.68987" lon="1.82221">
        <ele>329</ele>
        <time>2019-08-10T14:32:09.558Z</time>
      </trkpt>
      <trkpt lat="44.68991" lon="1.82227">
        <ele>329</ele>
        <time>2019-08-10T14:32:14.547Z</time>
      </trkpt>
      <trkpt lat="44.68995" lon="1.82232">
        <ele>329</ele>
        <time>2019-08-10T14:32:18.538Z</time>
      </trkpt>
      <trkpt lat="44.68998" lon="1.82238">
        <ele>330</ele>
        <time>2019-08-10T14:32:22.544Z</time>
      </trkpt>
      <trkpt lat="44.69003" lon="1.82244">
        <ele>330</ele>
        <time>2019-08-10T14:32:27.538Z</time>
      </trkpt>
      <trkpt lat="44.6901" lon="1.82249">
        <ele>330</ele>
        <time>2019-08-10T14:32:32.513Z</time>
      </trkpt>
      <trkpt lat="44.69016" lon="1.82254">
        <ele>332</ele>
        <time>2019-08-10T14:32:36.535Z</time>
      </trkpt>
      <trkpt lat="44.6902" lon="1.82258">
        <ele>332</ele>
        <time>2019-08-10T14:32:41.522Z</time>
      </trkpt>
      <trkpt lat="44.69025" lon="1.82264">
        <ele>333</ele>
        <time>2019-08-10T14:32:46.560Z</time>
      </trkpt>
      <trkpt lat="44.6903" lon="1.8227">
        <ele>333</ele>
        <time>2019-08-10T14:32:51.554Z</time>
      </trkpt>
      <trkpt lat="44.69034" lon="1.82275">
        <ele>333</ele>
        <time>2019-08-10T14:32:56.524Z</time>
      </trkpt>
      <trkpt lat="44.69037" lon="1.8228">
        <ele>333</ele>
        <time>2019-08-10T14:33:00.529Z</time>
      </trkpt>
      <trkpt lat="44.69042" lon="1.82285">
        <ele>335</ele>
        <time>2019-08-10T14:33:05.526Z</time>
      </trkpt>
      <trkpt lat="44.69047" lon="1.82292">
        <ele>336</ele>
        <time>2019-08-10T14:33:10.564Z</time>
      </trkpt>
      <trkpt lat="44.69056" lon="1.823">
        <ele>336</ele>
        <time>2019-08-10T14:33:15.545Z</time>
      </trkpt>
      <trkpt lat="44.69063" lon="1.82308">
        <ele>336</ele>
        <time>2019-08-10T14:33:20.531Z</time>
      </trkpt>
      <trkpt lat="44.69067" lon="1.82312">
        <ele>336</ele>
        <time>2019-08-10T14:33:24.560Z</time>
      </trkpt>
      <trkpt lat="44.69072" lon="1.82318">
        <ele>336</ele>
        <time>2019-08-10T14:33:29.520Z</time>
      </trkpt>
      <trkpt lat="44.69076" lon="1.82319">
        <ele>336</ele>
        <time>2019-08-10T14:33:33.549Z</time>
      </trkpt>
      <trkpt lat="44.69084" lon="1.82322">
        <ele>335</ele>
        <time>2019-08-10T14:33:38.511Z</time>
      </trkpt>
      <trkpt lat="44.69089" lon="1.82317">
        <ele>336</ele>
        <time>2019-08-10T14:33:42.529Z</time>
      </trkpt>
      <trkpt lat="44.69094" lon="1.82313">
        <ele>336</ele>
        <time>2019-08-10T14:33:46.539Z</time>
      </trkpt>
      <trkpt lat="44.69101" lon="1.82306">
        <ele>336</ele>
        <time>2019-08-10T14:33:51.538Z</time>
      </trkpt>
      <trkpt lat="44.69105" lon="1.82299">
        <ele>336</ele>
        <time>2019-08-10T14:33:55.535Z</time>
      </trkpt>
      <trkpt lat="44.6911" lon="1.82294">
        <ele>336</ele>
        <time>2019-08-10T14:33:59.563Z</time>
      </trkpt>
      <trkpt lat="44.69118" lon="1.82289">
        <ele>337</ele>
        <time>2019-08-10T14:34:04.549Z</time>
      </trkpt>
      <trkpt lat="44.69122" lon="1.82286">
        <ele>337</ele>
        <time>2019-08-10T14:34:08.534Z</time>
      </trkpt>
      <trkpt lat="44.69128" lon="1.82283">
        <ele>335</ele>
        <time>2019-08-10T14:34:13.537Z</time>
      </trkpt>
      <trkpt lat="44.69132" lon="1.82284">
        <ele>335</ele>
        <time>2019-08-10T14:34:18.530Z</time>
      </trkpt>
      <trkpt lat="44.69137" lon="1.82284">
        <ele>335</ele>
        <time>2019-08-10T14:34:23.521Z</time>
      </trkpt>
      <trkpt lat="44.69144" lon="1.82284">
        <ele>335</ele>
        <time>2019-08-10T14:34:27.526Z</time>
      </trkpt>
      <trkpt lat="44.69149" lon="1.82284">
        <ele>335</ele>
        <time>2019-08-10T14:34:32.527Z</time>
      </trkpt>
      <trkpt lat="44.69153" lon="1.82282">
        <ele>332</ele>
        <time>2019-08-10T14:34:37.560Z</time>
      </trkpt>
      <trkpt lat="44.69161" lon="1.82282">
        <ele>332</ele>
        <time>2019-08-10T14:34:42.546Z</time>
      </trkpt>
      <trkpt lat="44.69171" lon="1.8228">
        <ele>332</ele>
        <time>2019-08-10T14:34:47.543Z</time>
      </trkpt>
      <trkpt lat="44.69178" lon="1.82278">
        <ele>332</ele>
        <time>2019-08-10T14:34:51.523Z</time>
      </trkpt>
      <trkpt lat="44.69185" lon="1.82278">
        <ele>330</ele>
        <time>2019-08-10T14:34:55.548Z</time>
      </trkpt>
      <trkpt lat="44.69191" lon="1.82278">
        <ele>330</ele>
        <time>2019-08-10T14:35:00.522Z</time>
      </trkpt>
      <trkpt lat="44.69196" lon="1.82276">
        <ele>330</ele>
        <time>2019-08-10T14:35:04.547Z</time>
      </trkpt>
      <trkpt lat="44.69201" lon="1.82274">
        <ele>330</ele>
        <time>2019-08-10T14:35:09.533Z</time>
      </trkpt>
      <trkpt lat="44.69209" lon="1.82271">
        <ele>328</ele>
        <time>2019-08-10T14:35:14.558Z</time>
      </trkpt>
      <trkpt lat="44.69214" lon="1.82267">
        <ele>328</ele>
        <time>2019-08-10T14:35:18.549Z</time>
      </trkpt>
      <trkpt lat="44.69222" lon="1.82265">
        <ele>328</ele>
        <time>2019-08-10T14:35:23.554Z</time>
      </trkpt>
      <trkpt lat="44.69226" lon="1.82264">
        <ele>328</ele>
        <time>2019-08-10T14:35:28.544Z</time>
      </trkpt>
      <trkpt lat="44.69225" lon="1.82265">
        <ele>328</ele>
        <time>2019-08-10T14:35:32.540Z</time>
      </trkpt>
      <trkpt lat="44.69227" lon="1.82263">
        <ele>328</ele>
        <time>2019-08-10T14:35:36.533Z</time>
      </trkpt>
      <trkpt lat="44.69235" lon="1.82261">
        <ele>328</ele>
        <time>2019-08-10T14:35:41.548Z</time>
      </trkpt>
      <trkpt lat="44.69242" lon="1.82259">
        <ele>327</ele>
        <time>2019-08-10T14:35:46.541Z</time>
      </trkpt>
      <trkpt lat="44.69247" lon="1.82256">
        <ele>327</ele>
        <time>2019-08-10T14:35:50.546Z</time>
      </trkpt>
      <trkpt lat="44.69253" lon="1.82255">
        <ele>327</ele>
        <time>2019-08-10T14:35:54.548Z</time>
      </trkpt>
      <trkpt lat="44.69262" lon="1.82254">
        <ele>327</ele>
        <time>2019-08-10T14:35:59.507Z</time>
      </trkpt>
      <trkpt lat="44.69268" lon="1.82253">
        <ele>326</ele>
        <time>2019-08-10T14:36:03.547Z</time>
      </trkpt>
      <trkpt lat="44.69273" lon="1.82253">
        <ele>326</ele>
        <time>2019-08-10T14:36:07.557Z</time>
      </trkpt>
      <trkpt lat="44.69279" lon="1.82252">
        <ele>326</ele>
        <time>2019-08-10T14:36:12.539Z</time>
      </trkpt>
      <trkpt lat="44.69283" lon="1.82252">
        <ele>326</ele>
        <time>2019-08-10T14:36:17.533Z</time>
      </trkpt>
      <trkpt lat="44.69288" lon="1.82253">
        <ele>326</ele>
        <time>2019-08-10T14:36:22.508Z</time>
      </trkpt>
      <trkpt lat="44.69294" lon="1.82256">
        <ele>326</ele>
        <time>2019-08-10T14:36:26.546Z</time>
      </trkpt>
      <trkpt lat="44.69299" lon="1.82261">
        <ele>326</ele>
        <time>2019-08-10T14:36:30.561Z</time>
      </trkpt>
      <trkpt lat="44.69307" lon="1.82267">
        <ele>326</ele>
        <time>2019-08-10T14:36:35.534Z</time>
      </trkpt>
      <trkpt lat="44.69313" lon="1.82271">
        <ele>326</ele>
        <time>2019-08-10T14:36:59.540Z</time>
      </trkpt>
      <trkpt lat="44.69314" lon="1.82271">
        <ele>326</ele>
        <time>2019-08-10T14:37:04.539Z</time>
      </trkpt>
      <trkpt lat="44.69315" lon="1.82271">
        <ele>326</ele>
        <time>2019-08-10T14:37:09.539Z</time>
      </trkpt>
      <trkpt lat="44.69317" lon="1.82271">
        <ele>326</ele>
        <time>2019-08-10T14:37:14.523Z</time>
      </trkpt>
      <trkpt lat="44.69321" lon="1.82275">
        <ele>325</ele>
        <time>2019-08-10T14:37:18.552Z</time>
      </trkpt>
      <trkpt lat="44.69327" lon="1.82279">
        <ele>325</ele>
        <time>2019-08-10T14:37:23.541Z</time>
      </trkpt>
      <trkpt lat="44.69332" lon="1.82283">
        <ele>325</ele>
        <time>2019-08-10T14:37:27.548Z</time>
      </trkpt>
      <trkpt lat="44.69338" lon="1.82287">
        <ele>325</ele>
        <time>2019-08-10T14:37:31.551Z</time>
      </trkpt>
      <trkpt lat="44.69344" lon="1.8229">
        <ele>325</ele>
        <time>2019-08-10T14:37:36.535Z</time>
      </trkpt>
      <trkpt lat="44.69351" lon="1.82296">
        <ele>324</ele>
        <time>2019-08-10T14:37:41.527Z</time>
      </trkpt>
      <trkpt lat="44.69356" lon="1.82301">
        <ele>324</ele>
        <time>2019-08-10T14:37:45.537Z</time>
      </trkpt>
      <trkpt lat="44.69361" lon="1.82306">
        <ele>324</ele>
        <time>2019-08-10T14:37:50.538Z</time>
      </trkpt>
      <trkpt lat="44.69366" lon="1.8231">
        <ele>324</ele>
        <time>2019-08-10T14:37:55.552Z</time>
      </trkpt>
      <trkpt lat="44.69371" lon="1.82314">
        <ele>324</ele>
        <time>2019-08-10T14:38:00.552Z</time>
      </trkpt>
      <trkpt lat="44.69376" lon="1.82317">
        <ele>325</ele>
        <time>2019-08-10T14:38:05.545Z</time>
      </trkpt>
      <trkpt lat="44.69379" lon="1.82321">
        <ele>326</ele>
        <time>2019-08-10T14:38:09.558Z</time>
      </trkpt>
      <trkpt lat="44.69383" lon="1.82326">
        <ele>326</ele>
        <time>2019-08-10T14:38:14.553Z</time>
      </trkpt>
      <trkpt lat="44.69388" lon="1.82329">
        <ele>326</ele>
        <time>2019-08-10T14:38:19.561Z</time>
      </trkpt>
      <trkpt lat="44.69394" lon="1.82334">
        <ele>326</ele>
        <time>2019-08-10T14:38:24.509Z</time>
      </trkpt>
      <trkpt lat="44.69399" lon="1.82337">
        <ele>326</ele>
        <time>2019-08-10T14:38:28.549Z</time>
      </trkpt>
      <trkpt lat="44.69404" lon="1.82341">
        <ele>326</ele>
        <time>2019-08-10T14:38:32.538Z</time>
      </trkpt>
      <trkpt lat="44.6941" lon="1.82345">
        <ele>326</ele>
        <time>2019-08-10T14:38:37.541Z</time>
      </trkpt>
      <trkpt lat="44.69416" lon="1.82346">
        <ele>326</ele>
        <time>2019-08-10T14:38:41.533Z</time>
      </trkpt>
      <trkpt lat="44.69424" lon="1.8235">
        <ele>327</ele>
        <time>2019-08-10T14:38:46.545Z</time>
      </trkpt>
      <trkpt lat="44.69432" lon="1.82354">
        <ele>325</ele>
        <time>2019-08-10T14:38:51.540Z</time>
      </trkpt>
      <trkpt lat="44.69437" lon="1.82357">
        <ele>325</ele>
        <time>2019-08-10T14:38:55.539Z</time>
      </trkpt>
      <trkpt lat="44.69442" lon="1.8236">
        <ele>325</ele>
        <time>2019-08-10T14:38:59.546Z</time>
      </trkpt>
      <trkpt lat="44.69445" lon="1.82364">
        <ele>325</ele>
        <time>2019-08-10T14:39:04.554Z</time>
      </trkpt>
      <trkpt lat="44.69449" lon="1.8237">
        <ele>325</ele>
        <time>2019-08-10T14:39:09.547Z</time>
      </trkpt>
      <trkpt lat="44.69451" lon="1.82375">
        <ele>325</ele>
        <time>2019-08-10T14:39:13.530Z</time>
      </trkpt>
      <trkpt lat="44.69453" lon="1.8238">
        <ele>326</ele>
        <time>2019-08-10T14:39:17.558Z</time>
      </trkpt>
      <trkpt lat="44.69458" lon="1.82388">
        <ele>326</ele>
        <time>2019-08-10T14:39:22.528Z</time>
      </trkpt>
      <trkpt lat="44.69462" lon="1.82394">
        <ele>326</ele>
        <time>2019-08-10T14:39:27.537Z</time>
      </trkpt>
      <trkpt lat="44.69468" lon="1.82401">
        <ele>326</ele>
        <time>2019-08-10T14:39:32.516Z</time>
      </trkpt>
      <trkpt lat="44.69473" lon="1.82407">
        <ele>326</ele>
        <time>2019-08-10T14:39:36.523Z</time>
      </trkpt>
      <trkpt lat="44.69479" lon="1.82413">
        <ele>326</ele>
        <time>2019-08-10T14:39:41.537Z</time>
      </trkpt>
      <trkpt lat="44.69482" lon="1.82418">
        <ele>326</ele>
        <time>2019-08-10T14:39:45.533Z</time>
      </trkpt>
      <trkpt lat="44.69486" lon="1.82423">
        <ele>327</ele>
        <time>2019-08-10T14:39:50.504Z</time>
      </trkpt>
      <trkpt lat="44.69491" lon="1.82427">
        <ele>327</ele>
        <time>2019-08-10T14:39:54.559Z</time>
      </trkpt>
      <trkpt lat="44.69497" lon="1.82431">
        <ele>328</ele>
        <time>2019-08-10T14:39:59.546Z</time>
      </trkpt>
      <trkpt lat="44.69503" lon="1.82434">
        <ele>328</ele>
        <time>2019-08-10T14:40:04.541Z</time>
      </trkpt>
      <trkpt lat="44.69503" lon="1.82435">
        <ele>328</ele>
        <time>2019-08-10T14:42:17.554Z</time>
      </trkpt>
      <trkpt lat="44.69502" lon="1.82435">
        <ele>328</ele>
        <time>2019-08-10T14:42:22.530Z</time>
      </trkpt>
      <trkpt lat="44.69503" lon="1.82434">
        <ele>328</ele>
        <time>2019-08-10T14:42:27.545Z</time>
      </trkpt>
      <trkpt lat="44.69502" lon="1.82431">
        <ele>328</ele>
        <time>2019-08-10T14:42:31.528Z</time>
      </trkpt>
      <trkpt lat="44.69502" lon="1.82425">
        <ele>327</ele>
        <time>2019-08-10T14:42:36.558Z</time>
      </trkpt>
      <trkpt lat="44.69503" lon="1.82419">
        <ele>327</ele>
        <time>2019-08-10T14:44:39.542Z</time>
      </trkpt>
      <trkpt lat="44.69504" lon="1.82416">
        <ele>327</ele>
        <time>2019-08-10T14:44:44.513Z</time>
      </trkpt>
      <trkpt lat="44.69505" lon="1.82414">
        <ele>327</ele>
        <time>2019-08-10T14:44:49.540Z</time>
      </trkpt>
      <trkpt lat="44.69506" lon="1.82412">
        <ele>327</ele>
        <time>2019-08-10T14:44:54.511Z</time>
      </trkpt>
      <trkpt lat="44.69508" lon="1.82405">
        <ele>327</ele>
        <time>2019-08-10T14:44:59.550Z</time>
      </trkpt>
      <trkpt lat="44.69513" lon="1.82397">
        <ele>326</ele>
        <time>2019-08-10T14:45:04.533Z</time>
      </trkpt>
      <trkpt lat="44.69519" lon="1.82384">
        <ele>327</ele>
        <time>2019-08-10T14:45:09.528Z</time>
      </trkpt>
      <trkpt lat="44.69519" lon="1.82373">
        <ele>325</ele>
        <time>2019-08-10T14:45:13.556Z</time>
      </trkpt>
      <trkpt lat="44.69521" lon="1.82362">
        <ele>325</ele>
        <time>2019-08-10T14:45:18.525Z</time>
      </trkpt>
      <trkpt lat="44.69521" lon="1.82354">
        <ele>325</ele>
        <time>2019-08-10T14:45:22.520Z</time>
      </trkpt>
      <trkpt lat="44.69521" lon="1.82343">
        <ele>323</ele>
        <time>2019-08-10T14:45:27.538Z</time>
      </trkpt>
      <trkpt lat="44.69522" lon="1.82335">
        <ele>323</ele>
        <time>2019-08-10T14:45:32.523Z</time>
      </trkpt>
      <trkpt lat="44.69523" lon="1.82329">
        <ele>323</ele>
        <time>2019-08-10T14:45:36.524Z</time>
      </trkpt>
      <trkpt lat="44.69524" lon="1.82319">
        <ele>321</ele>
        <time>2019-08-10T14:45:41.532Z</time>
      </trkpt>
      <trkpt lat="44.69526" lon="1.82312">
        <ele>321</ele>
        <time>2019-08-10T14:45:45.557Z</time>
      </trkpt>
      <trkpt lat="44.69528" lon="1.82302">
        <ele>321</ele>
        <time>2019-08-10T14:45:50.523Z</time>
      </trkpt>
      <trkpt lat="44.69529" lon="1.82294">
        <ele>321</ele>
        <time>2019-08-10T14:45:54.525Z</time>
      </trkpt>
      <trkpt lat="44.6953" lon="1.82287">
        <ele>321</ele>
        <time>2019-08-10T14:45:59.540Z</time>
      </trkpt>
      <trkpt lat="44.69532" lon="1.82282">
        <ele>321</ele>
        <time>2019-08-10T14:46:04.522Z</time>
      </trkpt>
      <trkpt lat="44.69534" lon="1.82277">
        <ele>321</ele>
        <time>2019-08-10T14:46:09.497Z</time>
      </trkpt>
      <trkpt lat="44.69534" lon="1.82275">
        <ele>321</ele>
        <time>2019-08-10T14:46:13.537Z</time>
      </trkpt>
      <trkpt lat="44.69537" lon="1.82275">
        <ele>321</ele>
        <time>2019-08-10T14:46:18.524Z</time>
      </trkpt>
      <trkpt lat="44.69541" lon="1.82278">
        <ele>321</ele>
        <time>2019-08-10T14:46:22.515Z</time>
      </trkpt>
      <trkpt lat="44.69545" lon="1.82281">
        <ele>323</ele>
        <time>2019-08-10T14:46:27.520Z</time>
      </trkpt>
      <trkpt lat="44.69549" lon="1.82285">
        <ele>323</ele>
        <time>2019-08-10T14:46:32.520Z</time>
      </trkpt>
      <trkpt lat="44.69552" lon="1.82288">
        <ele>323</ele>
        <time>2019-08-10T14:46:37.533Z</time>
      </trkpt>
      <trkpt lat="44.69556" lon="1.8229">
        <ele>323</ele>
        <time>2019-08-10T14:46:42.519Z</time>
      </trkpt>
      <trkpt lat="44.69556" lon="1.82291">
        <ele>323</ele>
        <time>2019-08-10T14:46:47.544Z</time>
      </trkpt>
      <trkpt lat="44.69561" lon="1.82293">
        <ele>324</ele>
        <time>2019-08-10T14:46:52.532Z</time>
      </trkpt>
      <trkpt lat="44.69564" lon="1.82295">
        <ele>324</ele>
        <time>2019-08-10T14:47:07.550Z</time>
      </trkpt>
      <trkpt lat="44.69565" lon="1.82295">
        <ele>324</ele>
        <time>2019-08-10T14:47:11.531Z</time>
      </trkpt>
      <trkpt lat="44.69566" lon="1.82297">
        <ele>324</ele>
        <time>2019-08-10T14:47:15.534Z</time>
      </trkpt>
      <trkpt lat="44.69567" lon="1.82297">
        <ele>324</ele>
        <time>2019-08-10T14:47:19.550Z</time>
      </trkpt>
      <trkpt lat="44.69573" lon="1.823">
        <ele>326</ele>
        <time>2019-08-10T14:47:24.529Z</time>
      </trkpt>
      <trkpt lat="44.69578" lon="1.82297">
        <ele>326</ele>
        <time>2019-08-10T14:47:28.536Z</time>
      </trkpt>
      <trkpt lat="44.69583" lon="1.82294">
        <ele>326</ele>
        <time>2019-08-10T14:47:33.545Z</time>
      </trkpt>
      <trkpt lat="44.69591" lon="1.82292">
        <ele>326</ele>
        <time>2019-08-10T14:47:38.534Z</time>
      </trkpt>
      <trkpt lat="44.69594" lon="1.8229">
        <ele>325</ele>
        <time>2019-08-10T14:47:42.539Z</time>
      </trkpt>
      <trkpt lat="44.69599" lon="1.82283">
        <ele>326</ele>
        <time>2019-08-10T14:47:47.544Z</time>
      </trkpt>
      <trkpt lat="44.69602" lon="1.82278">
        <ele>326</ele>
        <time>2019-08-10T14:47:51.546Z</time>
      </trkpt>
      <trkpt lat="44.69607" lon="1.82272">
        <ele>326</ele>
        <time>2019-08-10T14:47:56.512Z</time>
      </trkpt>
      <trkpt lat="44.69611" lon="1.82268">
        <ele>326</ele>
        <time>2019-08-10T14:48:01.522Z</time>
      </trkpt>
      <trkpt lat="44.69612" lon="1.82266">
        <ele>326</ele>
        <time>2019-08-10T14:48:05.556Z</time>
      </trkpt>
      <trkpt lat="44.69617" lon="1.82262">
        <ele>325</ele>
        <time>2019-08-10T14:48:09.547Z</time>
      </trkpt>
      <trkpt lat="44.69624" lon="1.82259">
        <ele>325</ele>
        <time>2019-08-10T14:48:14.532Z</time>
      </trkpt>
      <trkpt lat="44.69628" lon="1.82257">
        <ele>328</ele>
        <time>2019-08-10T14:48:19.554Z</time>
      </trkpt>
      <trkpt lat="44.69633" lon="1.82261">
        <ele>328</ele>
        <time>2019-08-10T14:48:43.534Z</time>
      </trkpt>
      <trkpt lat="44.69634" lon="1.82261">
        <ele>328</ele>
        <time>2019-08-10T14:48:48.532Z</time>
      </trkpt>
      <trkpt lat="44.69634" lon="1.82261">
        <ele>328</ele>
        <time>2019-08-10T14:48:53.553Z</time>
      </trkpt>
      <trkpt lat="44.69635" lon="1.82262">
        <ele>328</ele>
        <time>2019-08-10T14:48:58.533Z</time>
      </trkpt>
      <trkpt lat="44.69641" lon="1.82265">
        <ele>329</ele>
        <time>2019-08-10T14:49:03.541Z</time>
      </trkpt>
      <trkpt lat="44.69645" lon="1.82266">
        <ele>329</ele>
        <time>2019-08-10T14:49:07.555Z</time>
      </trkpt>
      <trkpt lat="44.69651" lon="1.82266">
        <ele>329</ele>
        <time>2019-08-10T14:49:12.515Z</time>
      </trkpt>
      <trkpt lat="44.69655" lon="1.82267">
        <ele>331</ele>
        <time>2019-08-10T14:49:16.534Z</time>
      </trkpt>
      <trkpt lat="44.6966" lon="1.82271">
        <ele>331</ele>
        <time>2019-08-10T14:49:21.529Z</time>
      </trkpt>
      <trkpt lat="44.69662" lon="1.82271">
        <ele>331</ele>
        <time>2019-08-10T14:49:26.524Z</time>
      </trkpt>
      <trkpt lat="44.69665" lon="1.82274">
        <ele>331</ele>
        <time>2019-08-10T14:49:31.535Z</time>
      </trkpt>
      <trkpt lat="44.69666" lon="1.82278">
        <ele>331</ele>
        <time>2019-08-10T14:49:36.521Z</time>
      </trkpt>
      <trkpt lat="44.69661" lon="1.82287">
        <ele>331</ele>
        <time>2019-08-10T14:49:41.535Z</time>
      </trkpt>
      <trkpt lat="44.69658" lon="1.82293">
        <ele>331</ele>
        <time>2019-08-10T14:51:30.527Z</time>
      </trkpt>
      <trkpt lat="44.69658" lon="1.82294">
        <ele>331</ele>
        <time>2019-08-10T14:51:35.523Z</time>
      </trkpt>
      <trkpt lat="44.69659" lon="1.823">
        <ele>331</ele>
        <time>2019-08-10T14:51:40.546Z</time>
      </trkpt>
      <trkpt lat="44.69662" lon="1.82302">
        <ele>331</ele>
        <time>2019-08-10T14:51:45.544Z</time>
      </trkpt>
      <trkpt lat="44.69662" lon="1.82303">
        <ele>331</ele>
        <time>2019-08-10T14:51:49.564Z</time>
      </trkpt>
    </trkseg>
  </trk>
</gpx>